<?xml version="1.0" encoding="UTF-8" standalone="no" ?>
<gpx xmlns="http://www.topografix.com/GPX/1/1" xmlns:xsi="http://www.w3.org/2001/XMLSchema-instance" xsi:schemaLocation="http://www.topografix.com/GPX/1/1 http://www.topografix.com/GPX/1/1/gpx.xsd" version="1.1" creator="VisuGPX - https://www.visugpx.com">
  <metadata>
    <name>beaufortin</name>
    <desc><![CDATA[tour beaufortin]]></desc>
  </metadata>
  <trk>
    <name><![CDATA[A3-JUIN-11 21:44:22]]></name>
    <trkseg>
      <trkpt lat="45.69041" lon="6.59823">
        <ele>1664.66</ele>
        <time>2011-06-12T08:47:29Z</time>
      </trkpt>
      <trkpt lat="45.69039" lon="6.5982">
        <ele>1664.66</ele>
        <time>2011-06-12T08:47:30Z</time>
      </trkpt>
      <trkpt lat="45.69036" lon="6.59815">
        <ele>1668.02</ele>
        <time>2011-06-12T08:47:37Z</time>
      </trkpt>
      <trkpt lat="45.69036" lon="6.59813">
        <ele>1671.87</ele>
        <time>2011-06-12T08:47:39Z</time>
      </trkpt>
      <trkpt lat="45.69035" lon="6.59812">
        <ele>1675.72</ele>
        <time>2011-06-12T08:47:43Z</time>
      </trkpt>
      <trkpt lat="45.69037" lon="6.59811">
        <ele>1680.04</ele>
        <time>2011-06-12T08:47:47Z</time>
      </trkpt>
      <trkpt lat="45.69038" lon="6.59811">
        <ele>1680.52</ele>
        <time>2011-06-12T08:47:49Z</time>
      </trkpt>
      <trkpt lat="45.69038" lon="6.5981">
        <ele>1684.37</ele>
        <time>2011-06-12T08:47:54Z</time>
      </trkpt>
      <trkpt lat="45.69038" lon="6.5981">
        <ele>1685.81</ele>
        <time>2011-06-12T08:47:57Z</time>
      </trkpt>
      <trkpt lat="45.69038" lon="6.5981">
        <ele>1687.25</ele>
        <time>2011-06-12T08:48:00Z</time>
      </trkpt>
      <trkpt lat="45.69038" lon="6.59809">
        <ele>1690.14</ele>
        <time>2011-06-12T08:48:04Z</time>
      </trkpt>
      <trkpt lat="45.69036" lon="6.59808">
        <ele>1690.62</ele>
        <time>2011-06-12T08:48:06Z</time>
      </trkpt>
      <trkpt lat="45.69032" lon="6.59807">
        <ele>1693.02</ele>
        <time>2011-06-12T08:48:09Z</time>
      </trkpt>
      <trkpt lat="45.69029" lon="6.59807">
        <ele>1693.5</ele>
        <time>2011-06-12T08:48:11Z</time>
      </trkpt>
      <trkpt lat="45.69022" lon="6.59808">
        <ele>1696.86</ele>
        <time>2011-06-12T08:48:17Z</time>
      </trkpt>
      <trkpt lat="45.69021" lon="6.59809">
        <ele>1697.34</ele>
        <time>2011-06-12T08:48:18Z</time>
      </trkpt>
      <trkpt lat="45.69018" lon="6.59809">
        <ele>1697.83</ele>
        <time>2011-06-12T08:48:20Z</time>
      </trkpt>
      <trkpt lat="45.69015" lon="6.59805">
        <ele>1699.27</ele>
        <time>2011-06-12T08:48:23Z</time>
      </trkpt>
      <trkpt lat="45.69011" lon="6.598">
        <ele>1701.19</ele>
        <time>2011-06-12T08:48:26Z</time>
      </trkpt>
      <trkpt lat="45.69004" lon="6.59798">
        <ele>1704.07</ele>
        <time>2011-06-12T08:48:31Z</time>
      </trkpt>
      <trkpt lat="45.68996" lon="6.59798">
        <ele>1706.48</ele>
        <time>2011-06-12T08:48:37Z</time>
      </trkpt>
      <trkpt lat="45.6899" lon="6.59799">
        <ele>1707.92</ele>
        <time>2011-06-12T08:48:42Z</time>
      </trkpt>
      <trkpt lat="45.68985" lon="6.59799">
        <ele>1709.36</ele>
        <time>2011-06-12T08:48:45Z</time>
      </trkpt>
      <trkpt lat="45.68971" lon="6.59798">
        <ele>1712.25</ele>
        <time>2011-06-12T08:48:57Z</time>
      </trkpt>
      <trkpt lat="45.68962" lon="6.59796">
        <ele>1713.69</ele>
        <time>2011-06-12T08:49:05Z</time>
      </trkpt>
      <trkpt lat="45.68954" lon="6.59799">
        <ele>1716.09</ele>
        <time>2011-06-12T08:49:12Z</time>
      </trkpt>
      <trkpt lat="45.68942" lon="6.59815">
        <ele>1718.97</ele>
        <time>2011-06-12T08:49:26Z</time>
      </trkpt>
      <trkpt lat="45.68934" lon="6.59819">
        <ele>1720.42</ele>
        <time>2011-06-12T08:49:32Z</time>
      </trkpt>
      <trkpt lat="45.68932" lon="6.5982">
        <ele>1720.42</ele>
        <time>2011-06-12T08:49:34Z</time>
      </trkpt>
      <trkpt lat="45.68924" lon="6.59825">
        <ele>1720.9</ele>
        <time>2011-06-12T08:49:41Z</time>
      </trkpt>
      <trkpt lat="45.68914" lon="6.59816">
        <ele>1724.26</ele>
        <time>2011-06-12T08:49:54Z</time>
      </trkpt>
      <trkpt lat="45.68909" lon="6.59807">
        <ele>1726.18</ele>
        <time>2011-06-12T08:50:05Z</time>
      </trkpt>
      <trkpt lat="45.68901" lon="6.59798">
        <ele>1726.18</ele>
        <time>2011-06-12T08:50:17Z</time>
      </trkpt>
      <trkpt lat="45.68901" lon="6.59798">
        <ele>1726.18</ele>
        <time>2011-06-12T08:50:43Z</time>
      </trkpt>
      <trkpt lat="45.68901" lon="6.59798">
        <ele>1725.7</ele>
        <time>2011-06-12T08:51:07Z</time>
      </trkpt>
      <trkpt lat="45.68901" lon="6.59798">
        <ele>1726.18</ele>
        <time>2011-06-12T08:51:31Z</time>
      </trkpt>
      <trkpt lat="45.68901" lon="6.59798">
        <ele>1725.7</ele>
        <time>2011-06-12T08:52:00Z</time>
      </trkpt>
      <trkpt lat="45.68901" lon="6.59797">
        <ele>1725.22</ele>
        <time>2011-06-12T08:52:33Z</time>
      </trkpt>
      <trkpt lat="45.68901" lon="6.59796">
        <ele>1726.18</ele>
        <time>2011-06-12T08:53:07Z</time>
      </trkpt>
      <trkpt lat="45.68901" lon="6.59796">
        <ele>1725.22</ele>
        <time>2011-06-12T08:53:30Z</time>
      </trkpt>
      <trkpt lat="45.68901" lon="6.59796">
        <ele>1729.55</ele>
        <time>2011-06-12T08:53:33Z</time>
      </trkpt>
      <trkpt lat="45.68901" lon="6.59796">
        <ele>1725.22</ele>
        <time>2011-06-12T08:53:34Z</time>
      </trkpt>
      <trkpt lat="45.68901" lon="6.59796">
        <ele>1725.7</ele>
        <time>2011-06-12T08:53:56Z</time>
      </trkpt>
      <trkpt lat="45.68899" lon="6.59793">
        <ele>1725.22</ele>
        <time>2011-06-12T08:54:18Z</time>
      </trkpt>
      <trkpt lat="45.68875" lon="6.59771">
        <ele>1728.59</ele>
        <time>2011-06-12T08:54:31Z</time>
      </trkpt>
      <trkpt lat="45.68873" lon="6.59769">
        <ele>1729.07</ele>
        <time>2011-06-12T08:54:32Z</time>
      </trkpt>
      <trkpt lat="45.68842" lon="6.59748">
        <ele>1731.47</ele>
        <time>2011-06-12T08:54:45Z</time>
      </trkpt>
      <trkpt lat="45.68829" lon="6.59745">
        <ele>1731.95</ele>
        <time>2011-06-12T08:54:53Z</time>
      </trkpt>
      <trkpt lat="45.68799" lon="6.59722">
        <ele>1731.47</ele>
        <time>2011-06-12T08:55:04Z</time>
      </trkpt>
      <trkpt lat="45.68776" lon="6.59703">
        <ele>1732.91</ele>
        <time>2011-06-12T08:55:16Z</time>
      </trkpt>
      <trkpt lat="45.68738" lon="6.59703">
        <ele>1732.91</ele>
        <time>2011-06-12T08:55:28Z</time>
      </trkpt>
      <trkpt lat="45.68703" lon="6.597">
        <ele>1733.88</ele>
        <time>2011-06-12T08:55:40Z</time>
      </trkpt>
      <trkpt lat="45.68679" lon="6.59698">
        <ele>1731.95</ele>
        <time>2011-06-12T08:55:46Z</time>
      </trkpt>
      <trkpt lat="45.68675" lon="6.59697">
        <ele>1731.95</ele>
        <time>2011-06-12T08:55:47Z</time>
      </trkpt>
      <trkpt lat="45.68645" lon="6.59678">
        <ele>1732.43</ele>
        <time>2011-06-12T08:55:57Z</time>
      </trkpt>
      <trkpt lat="45.68627" lon="6.59656">
        <ele>1735.32</ele>
        <time>2011-06-12T08:56:09Z</time>
      </trkpt>
      <trkpt lat="45.68599" lon="6.59642">
        <ele>1736.28</ele>
        <time>2011-06-12T08:56:22Z</time>
      </trkpt>
      <trkpt lat="45.68569" lon="6.59645">
        <ele>1735.32</ele>
        <time>2011-06-12T08:56:35Z</time>
      </trkpt>
      <trkpt lat="45.68543" lon="6.59657">
        <ele>1736.76</ele>
        <time>2011-06-12T08:56:47Z</time>
      </trkpt>
      <trkpt lat="45.68513" lon="6.59641">
        <ele>1735.32</ele>
        <time>2011-06-12T08:56:58Z</time>
      </trkpt>
      <trkpt lat="45.68484" lon="6.59628">
        <ele>1734.84</ele>
        <time>2011-06-12T08:57:08Z</time>
      </trkpt>
      <trkpt lat="45.68454" lon="6.59633">
        <ele>1737.24</ele>
        <time>2011-06-12T08:57:20Z</time>
      </trkpt>
      <trkpt lat="45.68437" lon="6.59647">
        <ele>1733.88</ele>
        <time>2011-06-12T08:57:26Z</time>
      </trkpt>
      <trkpt lat="45.68428" lon="6.59657">
        <ele>1733.88</ele>
        <time>2011-06-12T08:57:29Z</time>
      </trkpt>
      <trkpt lat="45.68414" lon="6.59662">
        <ele>1731.95</ele>
        <time>2011-06-12T08:57:32Z</time>
      </trkpt>
      <trkpt lat="45.68399" lon="6.59665">
        <ele>1734.36</ele>
        <time>2011-06-12T08:57:37Z</time>
      </trkpt>
      <trkpt lat="45.68397" lon="6.59666">
        <ele>1735.32</ele>
        <time>2011-06-12T08:57:39Z</time>
      </trkpt>
      <trkpt lat="45.68395" lon="6.59669">
        <ele>1736.28</ele>
        <time>2011-06-12T08:57:42Z</time>
      </trkpt>
      <trkpt lat="45.68393" lon="6.59671">
        <ele>1736.76</ele>
        <time>2011-06-12T08:57:43Z</time>
      </trkpt>
      <trkpt lat="45.68388" lon="6.59679">
        <ele>1737.72</ele>
        <time>2011-06-12T08:57:46Z</time>
      </trkpt>
      <trkpt lat="45.68372" lon="6.59697">
        <ele>1738.68</ele>
        <time>2011-06-12T08:57:56Z</time>
      </trkpt>
      <trkpt lat="45.6835" lon="6.5972">
        <ele>1736.76</ele>
        <time>2011-06-12T08:58:07Z</time>
      </trkpt>
      <trkpt lat="45.68313" lon="6.59729">
        <ele>1734.36</ele>
        <time>2011-06-12T08:58:17Z</time>
      </trkpt>
      <trkpt lat="45.68307" lon="6.59729">
        <ele>1733.88</ele>
        <time>2011-06-12T08:58:18Z</time>
      </trkpt>
      <trkpt lat="45.68302" lon="6.59728">
        <ele>1733.88</ele>
        <time>2011-06-12T08:58:19Z</time>
      </trkpt>
      <trkpt lat="45.68298" lon="6.59726">
        <ele>1734.36</ele>
        <time>2011-06-12T08:58:20Z</time>
      </trkpt>
      <trkpt lat="45.68295" lon="6.59726">
        <ele>1734.36</ele>
        <time>2011-06-12T08:58:21Z</time>
      </trkpt>
      <trkpt lat="45.68292" lon="6.59726">
        <ele>1735.32</ele>
        <time>2011-06-12T08:58:22Z</time>
      </trkpt>
      <trkpt lat="45.6829" lon="6.59726">
        <ele>1734.84</ele>
        <time>2011-06-12T08:58:23Z</time>
      </trkpt>
      <trkpt lat="45.68288" lon="6.59727">
        <ele>1736.28</ele>
        <time>2011-06-12T08:58:24Z</time>
      </trkpt>
      <trkpt lat="45.68286" lon="6.59727">
        <ele>1736.28</ele>
        <time>2011-06-12T08:58:25Z</time>
      </trkpt>
      <trkpt lat="45.6825" lon="6.59735">
        <ele>1738.68</ele>
        <time>2011-06-12T08:58:38Z</time>
      </trkpt>
      <trkpt lat="45.68225" lon="6.59725">
        <ele>1741.57</ele>
        <time>2011-06-12T08:58:50Z</time>
      </trkpt>
      <trkpt lat="45.68219" lon="6.59719">
        <ele>1742.53</ele>
        <time>2011-06-12T08:58:53Z</time>
      </trkpt>
      <trkpt lat="45.68218" lon="6.59717">
        <ele>1742.05</ele>
        <time>2011-06-12T08:58:54Z</time>
      </trkpt>
      <trkpt lat="45.68218" lon="6.59716">
        <ele>1742.53</ele>
        <time>2011-06-12T08:58:55Z</time>
      </trkpt>
      <trkpt lat="45.68216" lon="6.59715">
        <ele>1743.01</ele>
        <time>2011-06-12T08:58:56Z</time>
      </trkpt>
      <trkpt lat="45.68215" lon="6.59713">
        <ele>1742.53</ele>
        <time>2011-06-12T08:58:57Z</time>
      </trkpt>
      <trkpt lat="45.68201" lon="6.59702">
        <ele>1745.41</ele>
        <time>2011-06-12T08:59:10Z</time>
      </trkpt>
      <trkpt lat="45.68198" lon="6.59696">
        <ele>1746.37</ele>
        <time>2011-06-12T08:59:15Z</time>
      </trkpt>
      <trkpt lat="45.68197" lon="6.59695">
        <ele>1746.37</ele>
        <time>2011-06-12T08:59:16Z</time>
      </trkpt>
      <trkpt lat="45.68196" lon="6.59693">
        <ele>1746.85</ele>
        <time>2011-06-12T08:59:17Z</time>
      </trkpt>
      <trkpt lat="45.68195" lon="6.59692">
        <ele>1747.33</ele>
        <time>2011-06-12T08:59:18Z</time>
      </trkpt>
      <trkpt lat="45.68177" lon="6.5969">
        <ele>1748.78</ele>
        <time>2011-06-12T08:59:31Z</time>
      </trkpt>
      <trkpt lat="45.68156" lon="6.5971">
        <ele>1749.26</ele>
        <time>2011-06-12T08:59:44Z</time>
      </trkpt>
      <trkpt lat="45.68127" lon="6.5975">
        <ele>1747.81</ele>
        <time>2011-06-12T08:59:57Z</time>
      </trkpt>
      <trkpt lat="45.681" lon="6.59776">
        <ele>1750.22</ele>
        <time>2011-06-12T09:00:08Z</time>
      </trkpt>
      <trkpt lat="45.68073" lon="6.59784">
        <ele>1751.18</ele>
        <time>2011-06-12T09:00:22Z</time>
      </trkpt>
      <trkpt lat="45.68047" lon="6.59797">
        <ele>1752.62</ele>
        <time>2011-06-12T09:00:36Z</time>
      </trkpt>
      <trkpt lat="45.68032" lon="6.59795">
        <ele>1754.06</ele>
        <time>2011-06-12T09:00:45Z</time>
      </trkpt>
      <trkpt lat="45.68031" lon="6.59795">
        <ele>1754.06</ele>
        <time>2011-06-12T09:00:46Z</time>
      </trkpt>
      <trkpt lat="45.68029" lon="6.59794">
        <ele>1755.02</ele>
        <time>2011-06-12T09:00:47Z</time>
      </trkpt>
      <trkpt lat="45.68028" lon="6.59794">
        <ele>1755.02</ele>
        <time>2011-06-12T09:00:48Z</time>
      </trkpt>
      <trkpt lat="45.68027" lon="6.59794">
        <ele>1755.02</ele>
        <time>2011-06-12T09:00:49Z</time>
      </trkpt>
      <trkpt lat="45.68026" lon="6.59794">
        <ele>1755.02</ele>
        <time>2011-06-12T09:00:50Z</time>
      </trkpt>
      <trkpt lat="45.68024" lon="6.59794">
        <ele>1754.54</ele>
        <time>2011-06-12T09:00:51Z</time>
      </trkpt>
      <trkpt lat="45.68023" lon="6.59794">
        <ele>1755.5</ele>
        <time>2011-06-12T09:00:52Z</time>
      </trkpt>
      <trkpt lat="45.68022" lon="6.59794">
        <ele>1755.5</ele>
        <time>2011-06-12T09:00:53Z</time>
      </trkpt>
      <trkpt lat="45.68021" lon="6.59794">
        <ele>1755.99</ele>
        <time>2011-06-12T09:00:54Z</time>
      </trkpt>
      <trkpt lat="45.68012" lon="6.59792">
        <ele>1757.43</ele>
        <time>2011-06-12T09:01:01Z</time>
      </trkpt>
      <trkpt lat="45.68011" lon="6.59792">
        <ele>1757.43</ele>
        <time>2011-06-12T09:01:02Z</time>
      </trkpt>
      <trkpt lat="45.6801" lon="6.59791">
        <ele>1757.91</ele>
        <time>2011-06-12T09:01:03Z</time>
      </trkpt>
      <trkpt lat="45.68008" lon="6.59791">
        <ele>1758.39</ele>
        <time>2011-06-12T09:01:04Z</time>
      </trkpt>
      <trkpt lat="45.68007" lon="6.59791">
        <ele>1757.91</ele>
        <time>2011-06-12T09:01:05Z</time>
      </trkpt>
      <trkpt lat="45.68004" lon="6.5979">
        <ele>1758.87</ele>
        <time>2011-06-12T09:01:07Z</time>
      </trkpt>
      <trkpt lat="45.68003" lon="6.5979">
        <ele>1758.87</ele>
        <time>2011-06-12T09:01:08Z</time>
      </trkpt>
      <trkpt lat="45.68002" lon="6.59789">
        <ele>1758.87</ele>
        <time>2011-06-12T09:01:09Z</time>
      </trkpt>
      <trkpt lat="45.68001" lon="6.59789">
        <ele>1758.87</ele>
        <time>2011-06-12T09:01:10Z</time>
      </trkpt>
      <trkpt lat="45.68" lon="6.59788">
        <ele>1759.35</ele>
        <time>2011-06-12T09:01:11Z</time>
      </trkpt>
      <trkpt lat="45.67981" lon="6.59784">
        <ele>1761.75</ele>
        <time>2011-06-12T09:01:27Z</time>
      </trkpt>
      <trkpt lat="45.67973" lon="6.59781">
        <ele>1762.71</ele>
        <time>2011-06-12T09:01:34Z</time>
      </trkpt>
      <trkpt lat="45.67972" lon="6.5978">
        <ele>1763.68</ele>
        <time>2011-06-12T09:01:35Z</time>
      </trkpt>
      <trkpt lat="45.67952" lon="6.59772">
        <ele>1766.08</ele>
        <time>2011-06-12T09:01:51Z</time>
      </trkpt>
      <trkpt lat="45.67948" lon="6.59768">
        <ele>1767.04</ele>
        <time>2011-06-12T09:01:56Z</time>
      </trkpt>
      <trkpt lat="45.67943" lon="6.59765">
        <ele>1768</ele>
        <time>2011-06-12T09:02:01Z</time>
      </trkpt>
      <trkpt lat="45.67942" lon="6.59764">
        <ele>1768</ele>
        <time>2011-06-12T09:02:02Z</time>
      </trkpt>
      <trkpt lat="45.67941" lon="6.59762">
        <ele>1768.48</ele>
        <time>2011-06-12T09:02:04Z</time>
      </trkpt>
      <trkpt lat="45.6794" lon="6.59762">
        <ele>1768.48</ele>
        <time>2011-06-12T09:02:05Z</time>
      </trkpt>
      <trkpt lat="45.67939" lon="6.59761">
        <ele>1768.48</ele>
        <time>2011-06-12T09:02:06Z</time>
      </trkpt>
      <trkpt lat="45.67936" lon="6.59759">
        <ele>1768.96</ele>
        <time>2011-06-12T09:02:09Z</time>
      </trkpt>
      <trkpt lat="45.67934" lon="6.59759">
        <ele>1768.96</ele>
        <time>2011-06-12T09:02:10Z</time>
      </trkpt>
      <trkpt lat="45.67929" lon="6.59756">
        <ele>1770.41</ele>
        <time>2011-06-12T09:02:16Z</time>
      </trkpt>
      <trkpt lat="45.67928" lon="6.59756">
        <ele>1770.89</ele>
        <time>2011-06-12T09:02:17Z</time>
      </trkpt>
      <trkpt lat="45.67927" lon="6.59756">
        <ele>1770.41</ele>
        <time>2011-06-12T09:02:18Z</time>
      </trkpt>
      <trkpt lat="45.67907" lon="6.59759">
        <ele>1771.85</ele>
        <time>2011-06-12T09:02:33Z</time>
      </trkpt>
      <trkpt lat="45.67906" lon="6.59759">
        <ele>1772.33</ele>
        <time>2011-06-12T09:02:34Z</time>
      </trkpt>
      <trkpt lat="45.67905" lon="6.59759">
        <ele>1772.33</ele>
        <time>2011-06-12T09:02:35Z</time>
      </trkpt>
      <trkpt lat="45.67904" lon="6.59759">
        <ele>1772.33</ele>
        <time>2011-06-12T09:02:36Z</time>
      </trkpt>
      <trkpt lat="45.67903" lon="6.59759">
        <ele>1772.33</ele>
        <time>2011-06-12T09:02:37Z</time>
      </trkpt>
      <trkpt lat="45.67902" lon="6.59759">
        <ele>1772.81</ele>
        <time>2011-06-12T09:02:38Z</time>
      </trkpt>
      <trkpt lat="45.67901" lon="6.59758">
        <ele>1772.81</ele>
        <time>2011-06-12T09:02:39Z</time>
      </trkpt>
      <trkpt lat="45.67899" lon="6.59758">
        <ele>1773.29</ele>
        <time>2011-06-12T09:02:40Z</time>
      </trkpt>
      <trkpt lat="45.67884" lon="6.59747">
        <ele>1775.21</ele>
        <time>2011-06-12T09:02:54Z</time>
      </trkpt>
      <trkpt lat="45.6787" lon="6.59725">
        <ele>1778.1</ele>
        <time>2011-06-12T09:03:12Z</time>
      </trkpt>
      <trkpt lat="45.67867" lon="6.59721">
        <ele>1778.58</ele>
        <time>2011-06-12T09:03:15Z</time>
      </trkpt>
      <trkpt lat="45.67867" lon="6.5972">
        <ele>1779.06</ele>
        <time>2011-06-12T09:03:16Z</time>
      </trkpt>
      <trkpt lat="45.67866" lon="6.59719">
        <ele>1779.54</ele>
        <time>2011-06-12T09:03:17Z</time>
      </trkpt>
      <trkpt lat="45.67865" lon="6.59717">
        <ele>1779.06</ele>
        <time>2011-06-12T09:03:18Z</time>
      </trkpt>
      <trkpt lat="45.67864" lon="6.59716">
        <ele>1779.06</ele>
        <time>2011-06-12T09:03:19Z</time>
      </trkpt>
      <trkpt lat="45.67864" lon="6.59716">
        <ele>1779.54</ele>
        <time>2011-06-12T09:03:20Z</time>
      </trkpt>
      <trkpt lat="45.67862" lon="6.59715">
        <ele>1780.02</ele>
        <time>2011-06-12T09:03:21Z</time>
      </trkpt>
      <trkpt lat="45.67846" lon="6.59699">
        <ele>1781.46</ele>
        <time>2011-06-12T09:03:38Z</time>
      </trkpt>
      <trkpt lat="45.67835" lon="6.59689">
        <ele>1783.38</ele>
        <time>2011-06-12T09:03:48Z</time>
      </trkpt>
      <trkpt lat="45.67835" lon="6.59688">
        <ele>1783.38</ele>
        <time>2011-06-12T09:03:49Z</time>
      </trkpt>
      <trkpt lat="45.67834" lon="6.59687">
        <ele>1783.38</ele>
        <time>2011-06-12T09:03:50Z</time>
      </trkpt>
      <trkpt lat="45.67833" lon="6.59687">
        <ele>1783.86</ele>
        <time>2011-06-12T09:03:51Z</time>
      </trkpt>
      <trkpt lat="45.67831" lon="6.59687">
        <ele>1784.82</ele>
        <time>2011-06-12T09:03:52Z</time>
      </trkpt>
      <trkpt lat="45.6783" lon="6.59687">
        <ele>1784.34</ele>
        <time>2011-06-12T09:03:53Z</time>
      </trkpt>
      <trkpt lat="45.67829" lon="6.59686">
        <ele>1784.34</ele>
        <time>2011-06-12T09:03:54Z</time>
      </trkpt>
      <trkpt lat="45.67828" lon="6.59686">
        <ele>1785.31</ele>
        <time>2011-06-12T09:03:55Z</time>
      </trkpt>
      <trkpt lat="45.67827" lon="6.59685">
        <ele>1784.82</ele>
        <time>2011-06-12T09:03:56Z</time>
      </trkpt>
      <trkpt lat="45.67825" lon="6.59685">
        <ele>1784.82</ele>
        <time>2011-06-12T09:03:57Z</time>
      </trkpt>
      <trkpt lat="45.67824" lon="6.59684">
        <ele>1785.31</ele>
        <time>2011-06-12T09:03:58Z</time>
      </trkpt>
      <trkpt lat="45.67823" lon="6.59684">
        <ele>1785.79</ele>
        <time>2011-06-12T09:03:59Z</time>
      </trkpt>
      <trkpt lat="45.67822" lon="6.59683">
        <ele>1785.31</ele>
        <time>2011-06-12T09:04:00Z</time>
      </trkpt>
      <trkpt lat="45.67821" lon="6.59683">
        <ele>1786.27</ele>
        <time>2011-06-12T09:04:01Z</time>
      </trkpt>
      <trkpt lat="45.6782" lon="6.59682">
        <ele>1786.27</ele>
        <time>2011-06-12T09:04:02Z</time>
      </trkpt>
      <trkpt lat="45.67819" lon="6.59681">
        <ele>1785.79</ele>
        <time>2011-06-12T09:04:03Z</time>
      </trkpt>
      <trkpt lat="45.67818" lon="6.5968">
        <ele>1786.27</ele>
        <time>2011-06-12T09:04:04Z</time>
      </trkpt>
      <trkpt lat="45.67801" lon="6.59668">
        <ele>1787.23</ele>
        <time>2011-06-12T09:04:17Z</time>
      </trkpt>
      <trkpt lat="45.678" lon="6.59668">
        <ele>1787.71</ele>
        <time>2011-06-12T09:04:18Z</time>
      </trkpt>
      <trkpt lat="45.67799" lon="6.59667">
        <ele>1787.71</ele>
        <time>2011-06-12T09:04:19Z</time>
      </trkpt>
      <trkpt lat="45.67796" lon="6.59666">
        <ele>1787.23</ele>
        <time>2011-06-12T09:04:34Z</time>
      </trkpt>
      <trkpt lat="45.67785" lon="6.59657">
        <ele>1787.71</ele>
        <time>2011-06-12T09:05:01Z</time>
      </trkpt>
      <trkpt lat="45.67768" lon="6.59642">
        <ele>1787.23</ele>
        <time>2011-06-12T09:05:12Z</time>
      </trkpt>
      <trkpt lat="45.67765" lon="6.59638">
        <ele>1787.23</ele>
        <time>2011-06-12T09:05:41Z</time>
      </trkpt>
      <trkpt lat="45.67749" lon="6.59603">
        <ele>1783.86</ele>
        <time>2011-06-12T09:05:49Z</time>
      </trkpt>
      <trkpt lat="45.67746" lon="6.59596">
        <ele>1782.9</ele>
        <time>2011-06-12T09:05:50Z</time>
      </trkpt>
      <trkpt lat="45.67742" lon="6.5959">
        <ele>1781.94</ele>
        <time>2011-06-12T09:05:51Z</time>
      </trkpt>
      <trkpt lat="45.67732" lon="6.59578">
        <ele>1779.06</ele>
        <time>2011-06-12T09:05:53Z</time>
      </trkpt>
      <trkpt lat="45.67727" lon="6.59572">
        <ele>1778.1</ele>
        <time>2011-06-12T09:05:54Z</time>
      </trkpt>
      <trkpt lat="45.6771" lon="6.59555">
        <ele>1773.77</ele>
        <time>2011-06-12T09:05:57Z</time>
      </trkpt>
      <trkpt lat="45.67693" lon="6.59535">
        <ele>1769.44</ele>
        <time>2011-06-12T09:06:00Z</time>
      </trkpt>
      <trkpt lat="45.67673" lon="6.59512">
        <ele>1765.6</ele>
        <time>2011-06-12T09:06:04Z</time>
      </trkpt>
      <trkpt lat="45.67668" lon="6.59505">
        <ele>1764.64</ele>
        <time>2011-06-12T09:06:05Z</time>
      </trkpt>
      <trkpt lat="45.67663" lon="6.59498">
        <ele>1764.16</ele>
        <time>2011-06-12T09:06:06Z</time>
      </trkpt>
      <trkpt lat="45.67658" lon="6.5949">
        <ele>1763.2</ele>
        <time>2011-06-12T09:06:07Z</time>
      </trkpt>
      <trkpt lat="45.67653" lon="6.5948">
        <ele>1761.75</ele>
        <time>2011-06-12T09:06:08Z</time>
      </trkpt>
      <trkpt lat="45.67649" lon="6.59469">
        <ele>1760.79</ele>
        <time>2011-06-12T09:06:09Z</time>
      </trkpt>
      <trkpt lat="45.67648" lon="6.59459">
        <ele>1761.27</ele>
        <time>2011-06-12T09:06:10Z</time>
      </trkpt>
      <trkpt lat="45.67647" lon="6.59451">
        <ele>1762.23</ele>
        <time>2011-06-12T09:06:11Z</time>
      </trkpt>
      <trkpt lat="45.67646" lon="6.59444">
        <ele>1762.71</ele>
        <time>2011-06-12T09:06:12Z</time>
      </trkpt>
      <trkpt lat="45.67646" lon="6.59438">
        <ele>1762.71</ele>
        <time>2011-06-12T09:06:13Z</time>
      </trkpt>
      <trkpt lat="45.67635" lon="6.59409">
        <ele>1766.56</ele>
        <time>2011-06-12T09:06:22Z</time>
      </trkpt>
      <trkpt lat="45.67634" lon="6.59407">
        <ele>1766.56</ele>
        <time>2011-06-12T09:06:23Z</time>
      </trkpt>
      <trkpt lat="45.67632" lon="6.59406">
        <ele>1766.56</ele>
        <time>2011-06-12T09:06:24Z</time>
      </trkpt>
      <trkpt lat="45.6763" lon="6.59406">
        <ele>1766.56</ele>
        <time>2011-06-12T09:06:25Z</time>
      </trkpt>
      <trkpt lat="45.67629" lon="6.59406">
        <ele>1766.56</ele>
        <time>2011-06-12T09:06:26Z</time>
      </trkpt>
      <trkpt lat="45.67627" lon="6.59407">
        <ele>1766.08</ele>
        <time>2011-06-12T09:06:27Z</time>
      </trkpt>
      <trkpt lat="45.67625" lon="6.59408">
        <ele>1766.56</ele>
        <time>2011-06-12T09:06:28Z</time>
      </trkpt>
      <trkpt lat="45.67624" lon="6.59409">
        <ele>1766.08</ele>
        <time>2011-06-12T09:06:41Z</time>
      </trkpt>
      <trkpt lat="45.67617" lon="6.59419">
        <ele>1765.12</ele>
        <time>2011-06-12T09:07:07Z</time>
      </trkpt>
      <trkpt lat="45.67613" lon="6.59423">
        <ele>1765.12</ele>
        <time>2011-06-12T09:07:09Z</time>
      </trkpt>
      <trkpt lat="45.67611" lon="6.59424">
        <ele>1765.12</ele>
        <time>2011-06-12T09:07:10Z</time>
      </trkpt>
      <trkpt lat="45.67609" lon="6.59427">
        <ele>1764.64</ele>
        <time>2011-06-12T09:07:11Z</time>
      </trkpt>
      <trkpt lat="45.67607" lon="6.5943">
        <ele>1764.64</ele>
        <time>2011-06-12T09:07:12Z</time>
      </trkpt>
      <trkpt lat="45.67604" lon="6.59432">
        <ele>1764.16</ele>
        <time>2011-06-12T09:07:13Z</time>
      </trkpt>
      <trkpt lat="45.67602" lon="6.59434">
        <ele>1764.64</ele>
        <time>2011-06-12T09:07:14Z</time>
      </trkpt>
      <trkpt lat="45.67598" lon="6.59435">
        <ele>1764.16</ele>
        <time>2011-06-12T09:07:15Z</time>
      </trkpt>
      <trkpt lat="45.67595" lon="6.59434">
        <ele>1764.16</ele>
        <time>2011-06-12T09:07:16Z</time>
      </trkpt>
      <trkpt lat="45.67592" lon="6.59433">
        <ele>1763.68</ele>
        <time>2011-06-12T09:07:17Z</time>
      </trkpt>
      <trkpt lat="45.67589" lon="6.59431">
        <ele>1763.2</ele>
        <time>2011-06-12T09:07:18Z</time>
      </trkpt>
      <trkpt lat="45.67586" lon="6.5943">
        <ele>1763.2</ele>
        <time>2011-06-12T09:07:19Z</time>
      </trkpt>
      <trkpt lat="45.67583" lon="6.59429">
        <ele>1763.68</ele>
        <time>2011-06-12T09:07:20Z</time>
      </trkpt>
      <trkpt lat="45.67567" lon="6.59423">
        <ele>1764.64</ele>
        <time>2011-06-12T09:07:25Z</time>
      </trkpt>
      <trkpt lat="45.67564" lon="6.5942">
        <ele>1764.64</ele>
        <time>2011-06-12T09:07:26Z</time>
      </trkpt>
      <trkpt lat="45.67561" lon="6.59419">
        <ele>1764.16</ele>
        <time>2011-06-12T09:07:27Z</time>
      </trkpt>
      <trkpt lat="45.67543" lon="6.59413">
        <ele>1761.27</ele>
        <time>2011-06-12T09:07:32Z</time>
      </trkpt>
      <trkpt lat="45.6754" lon="6.59412">
        <ele>1761.75</ele>
        <time>2011-06-12T09:07:33Z</time>
      </trkpt>
      <trkpt lat="45.67537" lon="6.5941">
        <ele>1760.31</ele>
        <time>2011-06-12T09:07:34Z</time>
      </trkpt>
      <trkpt lat="45.67534" lon="6.59407">
        <ele>1760.31</ele>
        <time>2011-06-12T09:07:35Z</time>
      </trkpt>
      <trkpt lat="45.67532" lon="6.59405">
        <ele>1760.31</ele>
        <time>2011-06-12T09:07:36Z</time>
      </trkpt>
      <trkpt lat="45.67529" lon="6.59405">
        <ele>1760.79</ele>
        <time>2011-06-12T09:07:37Z</time>
      </trkpt>
      <trkpt lat="45.67494" lon="6.59383">
        <ele>1758.87</ele>
        <time>2011-06-12T09:07:48Z</time>
      </trkpt>
      <trkpt lat="45.6749" lon="6.59381">
        <ele>1757.43</ele>
        <time>2011-06-12T09:07:49Z</time>
      </trkpt>
      <trkpt lat="45.67487" lon="6.59378">
        <ele>1756.47</ele>
        <time>2011-06-12T09:07:50Z</time>
      </trkpt>
      <trkpt lat="45.67484" lon="6.59374">
        <ele>1756.95</ele>
        <time>2011-06-12T09:07:51Z</time>
      </trkpt>
      <trkpt lat="45.67481" lon="6.59371">
        <ele>1755.5</ele>
        <time>2011-06-12T09:07:52Z</time>
      </trkpt>
      <trkpt lat="45.67477" lon="6.59368">
        <ele>1755.5</ele>
        <time>2011-06-12T09:07:53Z</time>
      </trkpt>
      <trkpt lat="45.67473" lon="6.59367">
        <ele>1754.06</ele>
        <time>2011-06-12T09:07:54Z</time>
      </trkpt>
      <trkpt lat="45.67468" lon="6.59365">
        <ele>1754.06</ele>
        <time>2011-06-12T09:07:55Z</time>
      </trkpt>
      <trkpt lat="45.67464" lon="6.59363">
        <ele>1753.58</ele>
        <time>2011-06-12T09:07:56Z</time>
      </trkpt>
      <trkpt lat="45.6746" lon="6.59363">
        <ele>1753.1</ele>
        <time>2011-06-12T09:07:57Z</time>
      </trkpt>
      <trkpt lat="45.67449" lon="6.59358">
        <ele>1752.14</ele>
        <time>2011-06-12T09:08:06Z</time>
      </trkpt>
      <trkpt lat="45.67446" lon="6.59358">
        <ele>1751.18</ele>
        <time>2011-06-12T09:08:09Z</time>
      </trkpt>
      <trkpt lat="45.67444" lon="6.59358">
        <ele>1750.22</ele>
        <time>2011-06-12T09:08:10Z</time>
      </trkpt>
      <trkpt lat="45.67443" lon="6.59359">
        <ele>1751.18</ele>
        <time>2011-06-12T09:08:11Z</time>
      </trkpt>
      <trkpt lat="45.67439" lon="6.59361">
        <ele>1750.7</ele>
        <time>2011-06-12T09:08:22Z</time>
      </trkpt>
      <trkpt lat="45.67438" lon="6.59362">
        <ele>1751.18</ele>
        <time>2011-06-12T09:08:25Z</time>
      </trkpt>
      <trkpt lat="45.67437" lon="6.59362">
        <ele>1751.18</ele>
        <time>2011-06-12T09:08:26Z</time>
      </trkpt>
      <trkpt lat="45.67431" lon="6.59366">
        <ele>1750.7</ele>
        <time>2011-06-12T09:08:32Z</time>
      </trkpt>
      <trkpt lat="45.6743" lon="6.59362">
        <ele>1749.26</ele>
        <time>2011-06-12T09:08:44Z</time>
      </trkpt>
      <trkpt lat="45.67429" lon="6.59361">
        <ele>1748.78</ele>
        <time>2011-06-12T09:09:00Z</time>
      </trkpt>
      <trkpt lat="45.67429" lon="6.5936">
        <ele>1748.29</ele>
        <time>2011-06-12T09:09:40Z</time>
      </trkpt>
      <trkpt lat="45.67424" lon="6.59353">
        <ele>1746.85</ele>
        <time>2011-06-12T09:09:51Z</time>
      </trkpt>
      <trkpt lat="45.67422" lon="6.5935">
        <ele>1745.89</ele>
        <time>2011-06-12T09:09:56Z</time>
      </trkpt>
      <trkpt lat="45.67413" lon="6.5934">
        <ele>1743.49</ele>
        <time>2011-06-12T09:10:06Z</time>
      </trkpt>
      <trkpt lat="45.67412" lon="6.59339">
        <ele>1743.97</ele>
        <time>2011-06-12T09:10:07Z</time>
      </trkpt>
      <trkpt lat="45.67402" lon="6.59329">
        <ele>1743.01</ele>
        <time>2011-06-12T09:10:20Z</time>
      </trkpt>
      <trkpt lat="45.67401" lon="6.59326">
        <ele>1743.01</ele>
        <time>2011-06-12T09:10:22Z</time>
      </trkpt>
      <trkpt lat="45.6739" lon="6.59313">
        <ele>1743.97</ele>
        <time>2011-06-12T09:10:36Z</time>
      </trkpt>
      <trkpt lat="45.67382" lon="6.59302">
        <ele>1742.05</ele>
        <time>2011-06-12T09:10:45Z</time>
      </trkpt>
      <trkpt lat="45.67379" lon="6.59297">
        <ele>1742.05</ele>
        <time>2011-06-12T09:10:56Z</time>
      </trkpt>
      <trkpt lat="45.67378" lon="6.59296">
        <ele>1742.53</ele>
        <time>2011-06-12T09:11:01Z</time>
      </trkpt>
      <trkpt lat="45.67376" lon="6.59291">
        <ele>1743.49</ele>
        <time>2011-06-12T09:11:06Z</time>
      </trkpt>
      <trkpt lat="45.67373" lon="6.59285">
        <ele>1745.41</ele>
        <time>2011-06-12T09:11:19Z</time>
      </trkpt>
      <trkpt lat="45.67373" lon="6.59279">
        <ele>1745.41</ele>
        <time>2011-06-12T09:11:24Z</time>
      </trkpt>
      <trkpt lat="45.67371" lon="6.59273">
        <ele>1744.45</ele>
        <time>2011-06-12T09:11:28Z</time>
      </trkpt>
      <trkpt lat="45.6737" lon="6.59271">
        <ele>1744.45</ele>
        <time>2011-06-12T09:11:29Z</time>
      </trkpt>
      <trkpt lat="45.6737" lon="6.5927">
        <ele>1744.45</ele>
        <time>2011-06-12T09:11:30Z</time>
      </trkpt>
      <trkpt lat="45.67365" lon="6.59262">
        <ele>1745.41</ele>
        <time>2011-06-12T09:11:42Z</time>
      </trkpt>
      <trkpt lat="45.6736" lon="6.59259">
        <ele>1748.29</ele>
        <time>2011-06-12T09:11:55Z</time>
      </trkpt>
      <trkpt lat="45.67356" lon="6.59258">
        <ele>1750.7</ele>
        <time>2011-06-12T09:12:09Z</time>
      </trkpt>
      <trkpt lat="45.67348" lon="6.5924">
        <ele>1748.29</ele>
        <time>2011-06-12T09:12:21Z</time>
      </trkpt>
      <trkpt lat="45.67342" lon="6.59225">
        <ele>1748.29</ele>
        <time>2011-06-12T09:12:32Z</time>
      </trkpt>
      <trkpt lat="45.67339" lon="6.59215">
        <ele>1750.7</ele>
        <time>2011-06-12T09:12:47Z</time>
      </trkpt>
      <trkpt lat="45.67336" lon="6.59207">
        <ele>1752.14</ele>
        <time>2011-06-12T09:13:02Z</time>
      </trkpt>
      <trkpt lat="45.67336" lon="6.59207">
        <ele>1751.66</ele>
        <time>2011-06-12T09:13:23Z</time>
      </trkpt>
      <trkpt lat="45.67335" lon="6.59207">
        <ele>1751.66</ele>
        <time>2011-06-12T09:13:58Z</time>
      </trkpt>
      <trkpt lat="45.67335" lon="6.59207">
        <ele>1751.18</ele>
        <time>2011-06-12T09:14:34Z</time>
      </trkpt>
      <trkpt lat="45.67335" lon="6.59207">
        <ele>1751.18</ele>
        <time>2011-06-12T09:15:07Z</time>
      </trkpt>
      <trkpt lat="45.67335" lon="6.59207">
        <ele>1751.18</ele>
        <time>2011-06-12T09:15:38Z</time>
      </trkpt>
      <trkpt lat="45.67335" lon="6.59207">
        <ele>1751.66</ele>
        <time>2011-06-12T09:16:17Z</time>
      </trkpt>
      <trkpt lat="45.67335" lon="6.59207">
        <ele>1752.14</ele>
        <time>2011-06-12T09:16:58Z</time>
      </trkpt>
      <trkpt lat="45.67333" lon="6.592">
        <ele>1751.66</ele>
        <time>2011-06-12T09:17:16Z</time>
      </trkpt>
      <trkpt lat="45.67319" lon="6.59182">
        <ele>1748.78</ele>
        <time>2011-06-12T09:17:25Z</time>
      </trkpt>
      <trkpt lat="45.6731" lon="6.59179">
        <ele>1749.26</ele>
        <time>2011-06-12T09:17:36Z</time>
      </trkpt>
      <trkpt lat="45.67305" lon="6.59173">
        <ele>1749.26</ele>
        <time>2011-06-12T09:17:49Z</time>
      </trkpt>
      <trkpt lat="45.67302" lon="6.59166">
        <ele>1751.18</ele>
        <time>2011-06-12T09:18:01Z</time>
      </trkpt>
      <trkpt lat="45.67296" lon="6.59151">
        <ele>1753.1</ele>
        <time>2011-06-12T09:18:15Z</time>
      </trkpt>
      <trkpt lat="45.67289" lon="6.59138">
        <ele>1754.54</ele>
        <time>2011-06-12T09:18:29Z</time>
      </trkpt>
      <trkpt lat="45.67284" lon="6.59133">
        <ele>1754.06</ele>
        <time>2011-06-12T09:18:37Z</time>
      </trkpt>
      <trkpt lat="45.67283" lon="6.59132">
        <ele>1754.54</ele>
        <time>2011-06-12T09:18:38Z</time>
      </trkpt>
      <trkpt lat="45.67269" lon="6.59126">
        <ele>1753.58</ele>
        <time>2011-06-12T09:18:51Z</time>
      </trkpt>
      <trkpt lat="45.67264" lon="6.59128">
        <ele>1755.02</ele>
        <time>2011-06-12T09:19:03Z</time>
      </trkpt>
      <trkpt lat="45.67264" lon="6.59127">
        <ele>1755.5</ele>
        <time>2011-06-12T09:19:11Z</time>
      </trkpt>
      <trkpt lat="45.67262" lon="6.59124">
        <ele>1755.02</ele>
        <time>2011-06-12T09:19:14Z</time>
      </trkpt>
      <trkpt lat="45.67259" lon="6.59119">
        <ele>1755.02</ele>
        <time>2011-06-12T09:19:20Z</time>
      </trkpt>
      <trkpt lat="45.67246" lon="6.59116">
        <ele>1755.5</ele>
        <time>2011-06-12T09:19:32Z</time>
      </trkpt>
      <trkpt lat="45.67244" lon="6.59114">
        <ele>1755.5</ele>
        <time>2011-06-12T09:19:34Z</time>
      </trkpt>
      <trkpt lat="45.67242" lon="6.59114">
        <ele>1755.99</ele>
        <time>2011-06-12T09:19:35Z</time>
      </trkpt>
      <trkpt lat="45.67228" lon="6.59104">
        <ele>1756.47</ele>
        <time>2011-06-12T09:19:51Z</time>
      </trkpt>
      <trkpt lat="45.67225" lon="6.59104">
        <ele>1756.47</ele>
        <time>2011-06-12T09:19:56Z</time>
      </trkpt>
      <trkpt lat="45.67224" lon="6.59104">
        <ele>1755.99</ele>
        <time>2011-06-12T09:19:57Z</time>
      </trkpt>
      <trkpt lat="45.67223" lon="6.59104">
        <ele>1755.99</ele>
        <time>2011-06-12T09:19:58Z</time>
      </trkpt>
      <trkpt lat="45.67221" lon="6.59103">
        <ele>1755.99</ele>
        <time>2011-06-12T09:19:59Z</time>
      </trkpt>
      <trkpt lat="45.6722" lon="6.59103">
        <ele>1755.99</ele>
        <time>2011-06-12T09:20:00Z</time>
      </trkpt>
      <trkpt lat="45.67218" lon="6.59102">
        <ele>1755.99</ele>
        <time>2011-06-12T09:20:01Z</time>
      </trkpt>
      <trkpt lat="45.67217" lon="6.59099">
        <ele>1755.5</ele>
        <time>2011-06-12T09:20:03Z</time>
      </trkpt>
      <trkpt lat="45.67215" lon="6.59097">
        <ele>1755.02</ele>
        <time>2011-06-12T09:20:04Z</time>
      </trkpt>
      <trkpt lat="45.67212" lon="6.59096">
        <ele>1754.54</ele>
        <time>2011-06-12T09:20:05Z</time>
      </trkpt>
      <trkpt lat="45.6721" lon="6.59095">
        <ele>1755.02</ele>
        <time>2011-06-12T09:20:06Z</time>
      </trkpt>
      <trkpt lat="45.67209" lon="6.59094">
        <ele>1754.54</ele>
        <time>2011-06-12T09:20:07Z</time>
      </trkpt>
      <trkpt lat="45.67195" lon="6.59087">
        <ele>1751.66</ele>
        <time>2011-06-12T09:20:15Z</time>
      </trkpt>
      <trkpt lat="45.67184" lon="6.5908">
        <ele>1750.7</ele>
        <time>2011-06-12T09:20:25Z</time>
      </trkpt>
      <trkpt lat="45.67183" lon="6.59079">
        <ele>1750.7</ele>
        <time>2011-06-12T09:20:26Z</time>
      </trkpt>
      <trkpt lat="45.67182" lon="6.59079">
        <ele>1750.22</ele>
        <time>2011-06-12T09:20:27Z</time>
      </trkpt>
      <trkpt lat="45.6718" lon="6.59079">
        <ele>1750.22</ele>
        <time>2011-06-12T09:20:28Z</time>
      </trkpt>
      <trkpt lat="45.67178" lon="6.59079">
        <ele>1750.22</ele>
        <time>2011-06-12T09:20:29Z</time>
      </trkpt>
      <trkpt lat="45.67175" lon="6.59078">
        <ele>1749.26</ele>
        <time>2011-06-12T09:20:30Z</time>
      </trkpt>
      <trkpt lat="45.67172" lon="6.59076">
        <ele>1749.26</ele>
        <time>2011-06-12T09:20:31Z</time>
      </trkpt>
      <trkpt lat="45.67152" lon="6.59071">
        <ele>1748.29</ele>
        <time>2011-06-12T09:20:41Z</time>
      </trkpt>
      <trkpt lat="45.67148" lon="6.59067">
        <ele>1748.29</ele>
        <time>2011-06-12T09:20:54Z</time>
      </trkpt>
      <trkpt lat="45.67143" lon="6.59063">
        <ele>1747.81</ele>
        <time>2011-06-12T09:21:04Z</time>
      </trkpt>
      <trkpt lat="45.67143" lon="6.59062">
        <ele>1748.29</ele>
        <time>2011-06-12T09:21:05Z</time>
      </trkpt>
      <trkpt lat="45.67142" lon="6.5906">
        <ele>1748.29</ele>
        <time>2011-06-12T09:21:06Z</time>
      </trkpt>
      <trkpt lat="45.67142" lon="6.59059">
        <ele>1748.29</ele>
        <time>2011-06-12T09:21:07Z</time>
      </trkpt>
      <trkpt lat="45.67141" lon="6.59057">
        <ele>1747.81</ele>
        <time>2011-06-12T09:21:08Z</time>
      </trkpt>
      <trkpt lat="45.6714" lon="6.59051">
        <ele>1747.81</ele>
        <time>2011-06-12T09:21:11Z</time>
      </trkpt>
      <trkpt lat="45.67139" lon="6.59049">
        <ele>1747.81</ele>
        <time>2011-06-12T09:21:12Z</time>
      </trkpt>
      <trkpt lat="45.67139" lon="6.59048">
        <ele>1748.78</ele>
        <time>2011-06-12T09:21:13Z</time>
      </trkpt>
      <trkpt lat="45.67138" lon="6.59046">
        <ele>1748.29</ele>
        <time>2011-06-12T09:21:14Z</time>
      </trkpt>
      <trkpt lat="45.67137" lon="6.59044">
        <ele>1747.81</ele>
        <time>2011-06-12T09:21:15Z</time>
      </trkpt>
      <trkpt lat="45.67135" lon="6.59042">
        <ele>1747.81</ele>
        <time>2011-06-12T09:21:16Z</time>
      </trkpt>
      <trkpt lat="45.67133" lon="6.59039">
        <ele>1747.33</ele>
        <time>2011-06-12T09:21:17Z</time>
      </trkpt>
      <trkpt lat="45.6713" lon="6.59037">
        <ele>1746.85</ele>
        <time>2011-06-12T09:21:18Z</time>
      </trkpt>
      <trkpt lat="45.67126" lon="6.59035">
        <ele>1746.85</ele>
        <time>2011-06-12T09:21:19Z</time>
      </trkpt>
      <trkpt lat="45.67123" lon="6.59033">
        <ele>1745.89</ele>
        <time>2011-06-12T09:21:20Z</time>
      </trkpt>
      <trkpt lat="45.67119" lon="6.59032">
        <ele>1745.89</ele>
        <time>2011-06-12T09:21:21Z</time>
      </trkpt>
      <trkpt lat="45.67115" lon="6.59032">
        <ele>1745.41</ele>
        <time>2011-06-12T09:21:22Z</time>
      </trkpt>
      <trkpt lat="45.6711" lon="6.59032">
        <ele>1744.93</ele>
        <time>2011-06-12T09:21:23Z</time>
      </trkpt>
      <trkpt lat="45.67082" lon="6.59026">
        <ele>1741.57</ele>
        <time>2011-06-12T09:21:30Z</time>
      </trkpt>
      <trkpt lat="45.67074" lon="6.59017">
        <ele>1740.6</ele>
        <time>2011-06-12T09:21:32Z</time>
      </trkpt>
      <trkpt lat="45.67055" lon="6.58998">
        <ele>1738.68</ele>
        <time>2011-06-12T09:21:36Z</time>
      </trkpt>
      <trkpt lat="45.6705" lon="6.58997">
        <ele>1738.2</ele>
        <time>2011-06-12T09:21:37Z</time>
      </trkpt>
      <trkpt lat="45.67046" lon="6.58997">
        <ele>1737.24</ele>
        <time>2011-06-12T09:21:38Z</time>
      </trkpt>
      <trkpt lat="45.67044" lon="6.58997">
        <ele>1736.76</ele>
        <time>2011-06-12T09:21:39Z</time>
      </trkpt>
      <trkpt lat="45.67042" lon="6.58998">
        <ele>1736.28</ele>
        <time>2011-06-12T09:21:40Z</time>
      </trkpt>
      <trkpt lat="45.6703" lon="6.59001">
        <ele>1734.84</ele>
        <time>2011-06-12T09:21:44Z</time>
      </trkpt>
      <trkpt lat="45.67026" lon="6.59004">
        <ele>1734.84</ele>
        <time>2011-06-12T09:21:45Z</time>
      </trkpt>
      <trkpt lat="45.67011" lon="6.59011">
        <ele>1732.91</ele>
        <time>2011-06-12T09:21:48Z</time>
      </trkpt>
      <trkpt lat="45.67006" lon="6.59012">
        <ele>1731.95</ele>
        <time>2011-06-12T09:21:49Z</time>
      </trkpt>
      <trkpt lat="45.67003" lon="6.59012">
        <ele>1732.91</ele>
        <time>2011-06-12T09:21:50Z</time>
      </trkpt>
      <trkpt lat="45.67001" lon="6.5901">
        <ele>1733.39</ele>
        <time>2011-06-12T09:21:51Z</time>
      </trkpt>
      <trkpt lat="45.67" lon="6.59008">
        <ele>1733.88</ele>
        <time>2011-06-12T09:21:52Z</time>
      </trkpt>
      <trkpt lat="45.66998" lon="6.59006">
        <ele>1734.36</ele>
        <time>2011-06-12T09:21:53Z</time>
      </trkpt>
      <trkpt lat="45.66997" lon="6.59004">
        <ele>1734.36</ele>
        <time>2011-06-12T09:21:54Z</time>
      </trkpt>
      <trkpt lat="45.66996" lon="6.59001">
        <ele>1734.84</ele>
        <time>2011-06-12T09:21:55Z</time>
      </trkpt>
      <trkpt lat="45.66995" lon="6.58998">
        <ele>1734.84</ele>
        <time>2011-06-12T09:21:56Z</time>
      </trkpt>
      <trkpt lat="45.66983" lon="6.58964">
        <ele>1734.84</ele>
        <time>2011-06-12T09:22:05Z</time>
      </trkpt>
      <trkpt lat="45.6698" lon="6.58959">
        <ele>1734.36</ele>
        <time>2011-06-12T09:22:06Z</time>
      </trkpt>
      <trkpt lat="45.66975" lon="6.58955">
        <ele>1734.36</ele>
        <time>2011-06-12T09:22:07Z</time>
      </trkpt>
      <trkpt lat="45.6697" lon="6.58951">
        <ele>1734.36</ele>
        <time>2011-06-12T09:22:08Z</time>
      </trkpt>
      <trkpt lat="45.66965" lon="6.58949">
        <ele>1733.88</ele>
        <time>2011-06-12T09:22:09Z</time>
      </trkpt>
      <trkpt lat="45.66959" lon="6.58949">
        <ele>1732.43</ele>
        <time>2011-06-12T09:22:10Z</time>
      </trkpt>
      <trkpt lat="45.66953" lon="6.58949">
        <ele>1731.95</ele>
        <time>2011-06-12T09:22:11Z</time>
      </trkpt>
      <trkpt lat="45.66948" lon="6.58948">
        <ele>1731.47</ele>
        <time>2011-06-12T09:22:12Z</time>
      </trkpt>
      <trkpt lat="45.66945" lon="6.58946">
        <ele>1730.99</ele>
        <time>2011-06-12T09:22:13Z</time>
      </trkpt>
      <trkpt lat="45.66943" lon="6.58943">
        <ele>1730.99</ele>
        <time>2011-06-12T09:22:14Z</time>
      </trkpt>
      <trkpt lat="45.66942" lon="6.5894">
        <ele>1731.47</ele>
        <time>2011-06-12T09:22:15Z</time>
      </trkpt>
      <trkpt lat="45.66941" lon="6.58937">
        <ele>1731.95</ele>
        <time>2011-06-12T09:22:16Z</time>
      </trkpt>
      <trkpt lat="45.66939" lon="6.58934">
        <ele>1731.95</ele>
        <time>2011-06-12T09:22:17Z</time>
      </trkpt>
      <trkpt lat="45.66938" lon="6.58931">
        <ele>1731.95</ele>
        <time>2011-06-12T09:22:18Z</time>
      </trkpt>
      <trkpt lat="45.66937" lon="6.58928">
        <ele>1731.95</ele>
        <time>2011-06-12T09:22:19Z</time>
      </trkpt>
      <trkpt lat="45.66936" lon="6.58926">
        <ele>1731.95</ele>
        <time>2011-06-12T09:22:20Z</time>
      </trkpt>
      <trkpt lat="45.66935" lon="6.58924">
        <ele>1732.43</ele>
        <time>2011-06-12T09:22:21Z</time>
      </trkpt>
      <trkpt lat="45.66935" lon="6.58922">
        <ele>1732.91</ele>
        <time>2011-06-12T09:22:22Z</time>
      </trkpt>
      <trkpt lat="45.66934" lon="6.58919">
        <ele>1733.39</ele>
        <time>2011-06-12T09:22:33Z</time>
      </trkpt>
      <trkpt lat="45.66935" lon="6.5892">
        <ele>1732.43</ele>
        <time>2011-06-12T09:22:58Z</time>
      </trkpt>
      <trkpt lat="45.66935" lon="6.5892">
        <ele>1732.43</ele>
        <time>2011-06-12T09:23:16Z</time>
      </trkpt>
      <trkpt lat="45.66935" lon="6.5892">
        <ele>1732.43</ele>
        <time>2011-06-12T09:23:37Z</time>
      </trkpt>
      <trkpt lat="45.66935" lon="6.5892">
        <ele>1732.43</ele>
        <time>2011-06-12T09:23:57Z</time>
      </trkpt>
      <trkpt lat="45.66935" lon="6.5892">
        <ele>1732.43</ele>
        <time>2011-06-12T09:24:22Z</time>
      </trkpt>
      <trkpt lat="45.66935" lon="6.5892">
        <ele>1732.91</ele>
        <time>2011-06-12T09:24:44Z</time>
      </trkpt>
      <trkpt lat="45.66935" lon="6.58921">
        <ele>1732.43</ele>
        <time>2011-06-12T09:24:57Z</time>
      </trkpt>
      <trkpt lat="45.66935" lon="6.5892">
        <ele>1731.95</ele>
        <time>2011-06-12T09:25:15Z</time>
      </trkpt>
      <trkpt lat="45.66935" lon="6.5892">
        <ele>1731.95</ele>
        <time>2011-06-12T09:25:49Z</time>
      </trkpt>
      <trkpt lat="45.66935" lon="6.58921">
        <ele>1732.43</ele>
        <time>2011-06-12T09:26:23Z</time>
      </trkpt>
      <trkpt lat="45.66936" lon="6.58921">
        <ele>1731.95</ele>
        <time>2011-06-12T09:26:58Z</time>
      </trkpt>
      <trkpt lat="45.66936" lon="6.58921">
        <ele>1732.91</ele>
        <time>2011-06-12T09:27:36Z</time>
      </trkpt>
      <trkpt lat="45.66936" lon="6.58921">
        <ele>1732.43</ele>
        <time>2011-06-12T09:28:12Z</time>
      </trkpt>
      <trkpt lat="45.66936" lon="6.58921">
        <ele>1732.43</ele>
        <time>2011-06-12T09:28:51Z</time>
      </trkpt>
      <trkpt lat="45.66936" lon="6.58921">
        <ele>1732.91</ele>
        <time>2011-06-12T09:29:32Z</time>
      </trkpt>
      <trkpt lat="45.66936" lon="6.58921">
        <ele>1732.91</ele>
        <time>2011-06-12T09:30:10Z</time>
      </trkpt>
      <trkpt lat="45.66936" lon="6.58921">
        <ele>1733.39</ele>
        <time>2011-06-12T09:30:48Z</time>
      </trkpt>
      <trkpt lat="45.66936" lon="6.58921">
        <ele>1732.91</ele>
        <time>2011-06-12T09:31:27Z</time>
      </trkpt>
      <trkpt lat="45.66936" lon="6.5892">
        <ele>1733.39</ele>
        <time>2011-06-12T09:32:05Z</time>
      </trkpt>
      <trkpt lat="45.66936" lon="6.5892">
        <ele>1733.88</ele>
        <time>2011-06-12T09:32:41Z</time>
      </trkpt>
      <trkpt lat="45.66936" lon="6.5892">
        <ele>1733.39</ele>
        <time>2011-06-12T09:33:22Z</time>
      </trkpt>
      <trkpt lat="45.66937" lon="6.5892">
        <ele>1733.88</ele>
        <time>2011-06-12T09:34:03Z</time>
      </trkpt>
      <trkpt lat="45.66937" lon="6.5892">
        <ele>1732.91</ele>
        <time>2011-06-12T09:34:42Z</time>
      </trkpt>
      <trkpt lat="45.66936" lon="6.5892">
        <ele>1736.28</ele>
        <time>2011-06-12T09:35:15Z</time>
      </trkpt>
      <trkpt lat="45.66936" lon="6.58921">
        <ele>1733.88</ele>
        <time>2011-06-12T09:35:37Z</time>
      </trkpt>
      <trkpt lat="45.66936" lon="6.58921">
        <ele>1733.39</ele>
        <time>2011-06-12T09:35:53Z</time>
      </trkpt>
      <trkpt lat="45.66937" lon="6.58921">
        <ele>1733.39</ele>
        <time>2011-06-12T09:36:45Z</time>
      </trkpt>
      <trkpt lat="45.66938" lon="6.58921">
        <ele>1733.39</ele>
        <time>2011-06-12T09:37:32Z</time>
      </trkpt>
      <trkpt lat="45.66939" lon="6.58922">
        <ele>1734.36</ele>
        <time>2011-06-12T09:37:48Z</time>
      </trkpt>
      <trkpt lat="45.66939" lon="6.58921">
        <ele>1735.32</ele>
        <time>2011-06-12T09:38:35Z</time>
      </trkpt>
      <trkpt lat="45.66937" lon="6.58923">
        <ele>1735.32</ele>
        <time>2011-06-12T09:38:47Z</time>
      </trkpt>
      <trkpt lat="45.66937" lon="6.58924">
        <ele>1735.32</ele>
        <time>2011-06-12T09:38:57Z</time>
      </trkpt>
      <trkpt lat="45.66935" lon="6.5892">
        <ele>1735.8</ele>
        <time>2011-06-12T09:39:08Z</time>
      </trkpt>
      <trkpt lat="45.66935" lon="6.58918">
        <ele>1734.84</ele>
        <time>2011-06-12T09:39:24Z</time>
      </trkpt>
      <trkpt lat="45.66935" lon="6.58918">
        <ele>1734.84</ele>
        <time>2011-06-12T09:39:49Z</time>
      </trkpt>
      <trkpt lat="45.66935" lon="6.58918">
        <ele>1735.8</ele>
        <time>2011-06-12T09:40:22Z</time>
      </trkpt>
      <trkpt lat="45.66935" lon="6.5892">
        <ele>1736.28</ele>
        <time>2011-06-12T09:40:23Z</time>
      </trkpt>
      <trkpt lat="45.66935" lon="6.58919">
        <ele>1737.72</ele>
        <time>2011-06-12T09:40:31Z</time>
      </trkpt>
      <trkpt lat="45.66935" lon="6.58919">
        <ele>1734.84</ele>
        <time>2011-06-12T09:40:36Z</time>
      </trkpt>
      <trkpt lat="45.66935" lon="6.58919">
        <ele>1737.72</ele>
        <time>2011-06-12T09:40:39Z</time>
      </trkpt>
      <trkpt lat="45.66935" lon="6.58912">
        <ele>1735.8</ele>
        <time>2011-06-12T09:40:53Z</time>
      </trkpt>
      <trkpt lat="45.66935" lon="6.5891">
        <ele>1735.32</ele>
        <time>2011-06-12T09:40:54Z</time>
      </trkpt>
      <trkpt lat="45.66936" lon="6.58907">
        <ele>1735.32</ele>
        <time>2011-06-12T09:40:55Z</time>
      </trkpt>
      <trkpt lat="45.66943" lon="6.58885">
        <ele>1731.47</ele>
        <time>2011-06-12T09:41:00Z</time>
      </trkpt>
      <trkpt lat="45.66946" lon="6.58872">
        <ele>1729.07</ele>
        <time>2011-06-12T09:41:02Z</time>
      </trkpt>
      <trkpt lat="45.66947" lon="6.58866">
        <ele>1727.63</ele>
        <time>2011-06-12T09:41:03Z</time>
      </trkpt>
      <trkpt lat="45.66946" lon="6.58858">
        <ele>1726.18</ele>
        <time>2011-06-12T09:41:04Z</time>
      </trkpt>
      <trkpt lat="45.66945" lon="6.58842">
        <ele>1722.82</ele>
        <time>2011-06-12T09:41:06Z</time>
      </trkpt>
      <trkpt lat="45.66945" lon="6.58834">
        <ele>1721.38</ele>
        <time>2011-06-12T09:41:07Z</time>
      </trkpt>
      <trkpt lat="45.66946" lon="6.58827">
        <ele>1720.9</ele>
        <time>2011-06-12T09:41:08Z</time>
      </trkpt>
      <trkpt lat="45.66947" lon="6.58819">
        <ele>1720.42</ele>
        <time>2011-06-12T09:41:09Z</time>
      </trkpt>
      <trkpt lat="45.66947" lon="6.58812">
        <ele>1719.46</ele>
        <time>2011-06-12T09:41:10Z</time>
      </trkpt>
      <trkpt lat="45.66946" lon="6.58804">
        <ele>1718.49</ele>
        <time>2011-06-12T09:41:11Z</time>
      </trkpt>
      <trkpt lat="45.66944" lon="6.58797">
        <ele>1718.01</ele>
        <time>2011-06-12T09:41:12Z</time>
      </trkpt>
      <trkpt lat="45.66942" lon="6.58792">
        <ele>1718.01</ele>
        <time>2011-06-12T09:41:13Z</time>
      </trkpt>
      <trkpt lat="45.66939" lon="6.58787">
        <ele>1717.05</ele>
        <time>2011-06-12T09:41:14Z</time>
      </trkpt>
      <trkpt lat="45.66935" lon="6.58783">
        <ele>1716.09</ele>
        <time>2011-06-12T09:41:15Z</time>
      </trkpt>
      <trkpt lat="45.6693" lon="6.58779">
        <ele>1715.13</ele>
        <time>2011-06-12T09:41:16Z</time>
      </trkpt>
      <trkpt lat="45.66925" lon="6.58775">
        <ele>1712.73</ele>
        <time>2011-06-12T09:41:17Z</time>
      </trkpt>
      <trkpt lat="45.66916" lon="6.58768">
        <ele>1711.28</ele>
        <time>2011-06-12T09:41:19Z</time>
      </trkpt>
      <trkpt lat="45.6691" lon="6.58761">
        <ele>1708.4</ele>
        <time>2011-06-12T09:41:21Z</time>
      </trkpt>
      <trkpt lat="45.66906" lon="6.58758">
        <ele>1707.44</ele>
        <time>2011-06-12T09:41:22Z</time>
      </trkpt>
      <trkpt lat="45.66904" lon="6.58753">
        <ele>1706.96</ele>
        <time>2011-06-12T09:41:23Z</time>
      </trkpt>
      <trkpt lat="45.66901" lon="6.58747">
        <ele>1706.48</ele>
        <time>2011-06-12T09:41:24Z</time>
      </trkpt>
      <trkpt lat="45.66898" lon="6.5874">
        <ele>1706</ele>
        <time>2011-06-12T09:41:25Z</time>
      </trkpt>
      <trkpt lat="45.66894" lon="6.58734">
        <ele>1705.52</ele>
        <time>2011-06-12T09:41:26Z</time>
      </trkpt>
      <trkpt lat="45.6689" lon="6.58729">
        <ele>1705.04</ele>
        <time>2011-06-12T09:41:27Z</time>
      </trkpt>
      <trkpt lat="45.66866" lon="6.58707">
        <ele>1701.67</ele>
        <time>2011-06-12T09:41:32Z</time>
      </trkpt>
      <trkpt lat="45.66854" lon="6.58697">
        <ele>1697.83</ele>
        <time>2011-06-12T09:41:35Z</time>
      </trkpt>
      <trkpt lat="45.66841" lon="6.58684">
        <ele>1694.46</ele>
        <time>2011-06-12T09:41:40Z</time>
      </trkpt>
      <trkpt lat="45.66831" lon="6.58669">
        <ele>1690.62</ele>
        <time>2011-06-12T09:41:46Z</time>
      </trkpt>
      <trkpt lat="45.6683" lon="6.58667">
        <ele>1689.17</ele>
        <time>2011-06-12T09:41:57Z</time>
      </trkpt>
      <trkpt lat="45.6683" lon="6.58666">
        <ele>1689.17</ele>
        <time>2011-06-12T09:42:08Z</time>
      </trkpt>
      <trkpt lat="45.66827" lon="6.58661">
        <ele>1688.21</ele>
        <time>2011-06-12T09:42:14Z</time>
      </trkpt>
      <trkpt lat="45.66826" lon="6.58659">
        <ele>1688.21</ele>
        <time>2011-06-12T09:42:15Z</time>
      </trkpt>
      <trkpt lat="45.66816" lon="6.58646">
        <ele>1684.85</ele>
        <time>2011-06-12T09:42:19Z</time>
      </trkpt>
      <trkpt lat="45.66812" lon="6.58642">
        <ele>1683.89</ele>
        <time>2011-06-12T09:42:20Z</time>
      </trkpt>
      <trkpt lat="45.66807" lon="6.58638">
        <ele>1682.93</ele>
        <time>2011-06-12T09:42:21Z</time>
      </trkpt>
      <trkpt lat="45.66803" lon="6.58632">
        <ele>1681.48</ele>
        <time>2011-06-12T09:42:22Z</time>
      </trkpt>
      <trkpt lat="45.66789" lon="6.58615">
        <ele>1678.12</ele>
        <time>2011-06-12T09:42:25Z</time>
      </trkpt>
      <trkpt lat="45.66777" lon="6.58602">
        <ele>1676.68</ele>
        <time>2011-06-12T09:42:32Z</time>
      </trkpt>
      <trkpt lat="45.66776" lon="6.58599">
        <ele>1676.68</ele>
        <time>2011-06-12T09:42:45Z</time>
      </trkpt>
      <trkpt lat="45.66776" lon="6.58599">
        <ele>1677.16</ele>
        <time>2011-06-12T09:42:46Z</time>
      </trkpt>
      <trkpt lat="45.66776" lon="6.58599">
        <ele>1676.68</ele>
        <time>2011-06-12T09:42:48Z</time>
      </trkpt>
      <trkpt lat="45.66775" lon="6.58598">
        <ele>1676.2</ele>
        <time>2011-06-12T09:42:49Z</time>
      </trkpt>
      <trkpt lat="45.66774" lon="6.58597">
        <ele>1676.2</ele>
        <time>2011-06-12T09:42:50Z</time>
      </trkpt>
      <trkpt lat="45.66773" lon="6.58596">
        <ele>1676.2</ele>
        <time>2011-06-12T09:42:51Z</time>
      </trkpt>
      <trkpt lat="45.66771" lon="6.58596">
        <ele>1675.72</ele>
        <time>2011-06-12T09:42:52Z</time>
      </trkpt>
      <trkpt lat="45.6677" lon="6.58594">
        <ele>1675.72</ele>
        <time>2011-06-12T09:42:53Z</time>
      </trkpt>
      <trkpt lat="45.6675" lon="6.58578">
        <ele>1674.27</ele>
        <time>2011-06-12T09:43:02Z</time>
      </trkpt>
      <trkpt lat="45.66742" lon="6.58574">
        <ele>1672.83</ele>
        <time>2011-06-12T09:43:04Z</time>
      </trkpt>
      <trkpt lat="45.66712" lon="6.58556">
        <ele>1671.39</ele>
        <time>2011-06-12T09:43:14Z</time>
      </trkpt>
      <trkpt lat="45.66689" lon="6.58534">
        <ele>1668.02</ele>
        <time>2011-06-12T09:43:21Z</time>
      </trkpt>
      <trkpt lat="45.66685" lon="6.58531">
        <ele>1667.06</ele>
        <time>2011-06-12T09:43:22Z</time>
      </trkpt>
      <trkpt lat="45.66681" lon="6.58527">
        <ele>1667.06</ele>
        <time>2011-06-12T09:43:23Z</time>
      </trkpt>
      <trkpt lat="45.66678" lon="6.58521">
        <ele>1666.1</ele>
        <time>2011-06-12T09:43:24Z</time>
      </trkpt>
      <trkpt lat="45.66674" lon="6.58515">
        <ele>1665.62</ele>
        <time>2011-06-12T09:43:25Z</time>
      </trkpt>
      <trkpt lat="45.66663" lon="6.58497">
        <ele>1663.7</ele>
        <time>2011-06-12T09:43:28Z</time>
      </trkpt>
      <trkpt lat="45.6666" lon="6.58492">
        <ele>1664.18</ele>
        <time>2011-06-12T09:43:29Z</time>
      </trkpt>
      <trkpt lat="45.66647" lon="6.58481">
        <ele>1662.26</ele>
        <time>2011-06-12T09:43:32Z</time>
      </trkpt>
      <trkpt lat="45.66644" lon="6.5848">
        <ele>1662.74</ele>
        <time>2011-06-12T09:43:33Z</time>
      </trkpt>
      <trkpt lat="45.66641" lon="6.58479">
        <ele>1663.22</ele>
        <time>2011-06-12T09:43:34Z</time>
      </trkpt>
      <trkpt lat="45.66638" lon="6.58479">
        <ele>1663.7</ele>
        <time>2011-06-12T09:43:35Z</time>
      </trkpt>
      <trkpt lat="45.66635" lon="6.58478">
        <ele>1663.7</ele>
        <time>2011-06-12T09:43:36Z</time>
      </trkpt>
      <trkpt lat="45.66633" lon="6.58477">
        <ele>1663.7</ele>
        <time>2011-06-12T09:43:37Z</time>
      </trkpt>
      <trkpt lat="45.6663" lon="6.58476">
        <ele>1663.7</ele>
        <time>2011-06-12T09:43:38Z</time>
      </trkpt>
      <trkpt lat="45.66627" lon="6.58475">
        <ele>1664.66</ele>
        <time>2011-06-12T09:43:39Z</time>
      </trkpt>
      <trkpt lat="45.66587" lon="6.5847">
        <ele>1667.54</ele>
        <time>2011-06-12T09:43:55Z</time>
      </trkpt>
      <trkpt lat="45.66552" lon="6.58485">
        <ele>1670.43</ele>
        <time>2011-06-12T09:44:10Z</time>
      </trkpt>
      <trkpt lat="45.66527" lon="6.58486">
        <ele>1671.39</ele>
        <time>2011-06-12T09:44:23Z</time>
      </trkpt>
      <trkpt lat="45.66504" lon="6.5847">
        <ele>1674.27</ele>
        <time>2011-06-12T09:44:38Z</time>
      </trkpt>
      <trkpt lat="45.66475" lon="6.58453">
        <ele>1677.16</ele>
        <time>2011-06-12T09:44:54Z</time>
      </trkpt>
      <trkpt lat="45.66446" lon="6.58447">
        <ele>1677.64</ele>
        <time>2011-06-12T09:45:08Z</time>
      </trkpt>
      <trkpt lat="45.66443" lon="6.58447">
        <ele>1678.6</ele>
        <time>2011-06-12T09:45:10Z</time>
      </trkpt>
      <trkpt lat="45.66442" lon="6.58447">
        <ele>1678.6</ele>
        <time>2011-06-12T09:45:11Z</time>
      </trkpt>
      <trkpt lat="45.6644" lon="6.58447">
        <ele>1678.6</ele>
        <time>2011-06-12T09:45:12Z</time>
      </trkpt>
      <trkpt lat="45.66426" lon="6.58451">
        <ele>1680.52</ele>
        <time>2011-06-12T09:45:22Z</time>
      </trkpt>
      <trkpt lat="45.66424" lon="6.58451">
        <ele>1680.52</ele>
        <time>2011-06-12T09:45:23Z</time>
      </trkpt>
      <trkpt lat="45.66405" lon="6.58459">
        <ele>1683.89</ele>
        <time>2011-06-12T09:45:37Z</time>
      </trkpt>
      <trkpt lat="45.66383" lon="6.58467">
        <ele>1686.77</ele>
        <time>2011-06-12T09:45:52Z</time>
      </trkpt>
      <trkpt lat="45.6636" lon="6.58476">
        <ele>1689.17</ele>
        <time>2011-06-12T09:46:08Z</time>
      </trkpt>
      <trkpt lat="45.66359" lon="6.58477">
        <ele>1689.65</ele>
        <time>2011-06-12T09:46:09Z</time>
      </trkpt>
      <trkpt lat="45.66358" lon="6.58478">
        <ele>1689.65</ele>
        <time>2011-06-12T09:46:10Z</time>
      </trkpt>
      <trkpt lat="45.66357" lon="6.58479">
        <ele>1689.65</ele>
        <time>2011-06-12T09:46:11Z</time>
      </trkpt>
      <trkpt lat="45.66356" lon="6.5848">
        <ele>1690.14</ele>
        <time>2011-06-12T09:46:12Z</time>
      </trkpt>
      <trkpt lat="45.66354" lon="6.58481">
        <ele>1689.65</ele>
        <time>2011-06-12T09:46:13Z</time>
      </trkpt>
      <trkpt lat="45.66333" lon="6.58499">
        <ele>1693.02</ele>
        <time>2011-06-12T09:46:30Z</time>
      </trkpt>
      <trkpt lat="45.6633" lon="6.58502">
        <ele>1693.5</ele>
        <time>2011-06-12T09:46:33Z</time>
      </trkpt>
      <trkpt lat="45.66329" lon="6.58503">
        <ele>1693.5</ele>
        <time>2011-06-12T09:46:34Z</time>
      </trkpt>
      <trkpt lat="45.66328" lon="6.58504">
        <ele>1693.5</ele>
        <time>2011-06-12T09:46:35Z</time>
      </trkpt>
      <trkpt lat="45.66312" lon="6.58521">
        <ele>1695.42</ele>
        <time>2011-06-12T09:46:49Z</time>
      </trkpt>
      <trkpt lat="45.66293" lon="6.58541">
        <ele>1697.83</ele>
        <time>2011-06-12T09:47:04Z</time>
      </trkpt>
      <trkpt lat="45.66264" lon="6.58545">
        <ele>1699.75</ele>
        <time>2011-06-12T09:47:21Z</time>
      </trkpt>
      <trkpt lat="45.66237" lon="6.58541">
        <ele>1701.67</ele>
        <time>2011-06-12T09:47:37Z</time>
      </trkpt>
      <trkpt lat="45.66217" lon="6.58542">
        <ele>1704.07</ele>
        <time>2011-06-12T09:47:51Z</time>
      </trkpt>
      <trkpt lat="45.66202" lon="6.58545">
        <ele>1706.48</ele>
        <time>2011-06-12T09:48:03Z</time>
      </trkpt>
      <trkpt lat="45.66201" lon="6.58545">
        <ele>1706.48</ele>
        <time>2011-06-12T09:48:04Z</time>
      </trkpt>
      <trkpt lat="45.66185" lon="6.58558">
        <ele>1708.88</ele>
        <time>2011-06-12T09:48:18Z</time>
      </trkpt>
      <trkpt lat="45.66167" lon="6.58578">
        <ele>1710.8</ele>
        <time>2011-06-12T09:48:35Z</time>
      </trkpt>
      <trkpt lat="45.66165" lon="6.5858">
        <ele>1710.8</ele>
        <time>2011-06-12T09:48:47Z</time>
      </trkpt>
      <trkpt lat="45.66164" lon="6.58582">
        <ele>1710.8</ele>
        <time>2011-06-12T09:48:48Z</time>
      </trkpt>
      <trkpt lat="45.66163" lon="6.58583">
        <ele>1710.8</ele>
        <time>2011-06-12T09:48:49Z</time>
      </trkpt>
      <trkpt lat="45.66161" lon="6.58584">
        <ele>1710.8</ele>
        <time>2011-06-12T09:48:50Z</time>
      </trkpt>
      <trkpt lat="45.66158" lon="6.58586">
        <ele>1710.32</ele>
        <time>2011-06-12T09:48:51Z</time>
      </trkpt>
      <trkpt lat="45.66137" lon="6.58596">
        <ele>1709.36</ele>
        <time>2011-06-12T09:48:57Z</time>
      </trkpt>
      <trkpt lat="45.66126" lon="6.58604">
        <ele>1707.92</ele>
        <time>2011-06-12T09:48:59Z</time>
      </trkpt>
      <trkpt lat="45.6612" lon="6.58606">
        <ele>1706.48</ele>
        <time>2011-06-12T09:49:00Z</time>
      </trkpt>
      <trkpt lat="45.66115" lon="6.58604">
        <ele>1706.96</ele>
        <time>2011-06-12T09:49:01Z</time>
      </trkpt>
      <trkpt lat="45.66111" lon="6.58599">
        <ele>1706.96</ele>
        <time>2011-06-12T09:49:02Z</time>
      </trkpt>
      <trkpt lat="45.6611" lon="6.58592">
        <ele>1707.44</ele>
        <time>2011-06-12T09:49:03Z</time>
      </trkpt>
      <trkpt lat="45.6611" lon="6.58586">
        <ele>1707.44</ele>
        <time>2011-06-12T09:49:04Z</time>
      </trkpt>
      <trkpt lat="45.66109" lon="6.58579">
        <ele>1707.44</ele>
        <time>2011-06-12T09:49:05Z</time>
      </trkpt>
      <trkpt lat="45.66109" lon="6.58573">
        <ele>1706.96</ele>
        <time>2011-06-12T09:49:06Z</time>
      </trkpt>
      <trkpt lat="45.66106" lon="6.58547">
        <ele>1707.44</ele>
        <time>2011-06-12T09:49:10Z</time>
      </trkpt>
      <trkpt lat="45.661" lon="6.58528">
        <ele>1707.44</ele>
        <time>2011-06-12T09:49:13Z</time>
      </trkpt>
      <trkpt lat="45.66097" lon="6.58523">
        <ele>1706.96</ele>
        <time>2011-06-12T09:49:14Z</time>
      </trkpt>
      <trkpt lat="45.66093" lon="6.5852">
        <ele>1706</ele>
        <time>2011-06-12T09:49:15Z</time>
      </trkpt>
      <trkpt lat="45.66087" lon="6.58518">
        <ele>1705.52</ele>
        <time>2011-06-12T09:49:16Z</time>
      </trkpt>
      <trkpt lat="45.66081" lon="6.58516">
        <ele>1704.55</ele>
        <time>2011-06-12T09:49:17Z</time>
      </trkpt>
      <trkpt lat="45.66077" lon="6.58511">
        <ele>1703.59</ele>
        <time>2011-06-12T09:49:18Z</time>
      </trkpt>
      <trkpt lat="45.66073" lon="6.58505">
        <ele>1704.07</ele>
        <time>2011-06-12T09:49:19Z</time>
      </trkpt>
      <trkpt lat="45.66068" lon="6.58499">
        <ele>1703.59</ele>
        <time>2011-06-12T09:49:20Z</time>
      </trkpt>
      <trkpt lat="45.66062" lon="6.58495">
        <ele>1702.63</ele>
        <time>2011-06-12T09:49:21Z</time>
      </trkpt>
      <trkpt lat="45.66055" lon="6.58494">
        <ele>1701.67</ele>
        <time>2011-06-12T09:49:22Z</time>
      </trkpt>
      <trkpt lat="45.66048" lon="6.58494">
        <ele>1701.19</ele>
        <time>2011-06-12T09:49:23Z</time>
      </trkpt>
      <trkpt lat="45.66027" lon="6.58491">
        <ele>1701.19</ele>
        <time>2011-06-12T09:49:26Z</time>
      </trkpt>
      <trkpt lat="45.66014" lon="6.58487">
        <ele>1699.75</ele>
        <time>2011-06-12T09:49:28Z</time>
      </trkpt>
      <trkpt lat="45.66008" lon="6.58482">
        <ele>1700.23</ele>
        <time>2011-06-12T09:49:29Z</time>
      </trkpt>
      <trkpt lat="45.66003" lon="6.58475">
        <ele>1699.75</ele>
        <time>2011-06-12T09:49:30Z</time>
      </trkpt>
      <trkpt lat="45.66" lon="6.58467">
        <ele>1700.23</ele>
        <time>2011-06-12T09:49:31Z</time>
      </trkpt>
      <trkpt lat="45.65997" lon="6.58461">
        <ele>1700.71</ele>
        <time>2011-06-12T09:49:32Z</time>
      </trkpt>
      <trkpt lat="45.65994" lon="6.58455">
        <ele>1700.71</ele>
        <time>2011-06-12T09:49:33Z</time>
      </trkpt>
      <trkpt lat="45.65989" lon="6.5845">
        <ele>1700.23</ele>
        <time>2011-06-12T09:49:34Z</time>
      </trkpt>
      <trkpt lat="45.65984" lon="6.58447">
        <ele>1699.75</ele>
        <time>2011-06-12T09:49:35Z</time>
      </trkpt>
      <trkpt lat="45.65977" lon="6.58445">
        <ele>1698.79</ele>
        <time>2011-06-12T09:49:36Z</time>
      </trkpt>
      <trkpt lat="45.65963" lon="6.58441">
        <ele>1697.83</ele>
        <time>2011-06-12T09:49:38Z</time>
      </trkpt>
      <trkpt lat="45.65947" lon="6.58436">
        <ele>1696.86</ele>
        <time>2011-06-12T09:49:40Z</time>
      </trkpt>
      <trkpt lat="45.65941" lon="6.58431">
        <ele>1696.38</ele>
        <time>2011-06-12T09:49:41Z</time>
      </trkpt>
      <trkpt lat="45.65935" lon="6.58425">
        <ele>1696.38</ele>
        <time>2011-06-12T09:49:42Z</time>
      </trkpt>
      <trkpt lat="45.65925" lon="6.58413">
        <ele>1695.42</ele>
        <time>2011-06-12T09:49:44Z</time>
      </trkpt>
      <trkpt lat="45.65919" lon="6.58409">
        <ele>1693.98</ele>
        <time>2011-06-12T09:49:45Z</time>
      </trkpt>
      <trkpt lat="45.65912" lon="6.58405">
        <ele>1693.5</ele>
        <time>2011-06-12T09:49:46Z</time>
      </trkpt>
      <trkpt lat="45.65905" lon="6.58404">
        <ele>1693.02</ele>
        <time>2011-06-12T09:49:47Z</time>
      </trkpt>
      <trkpt lat="45.65898" lon="6.58404">
        <ele>1691.58</ele>
        <time>2011-06-12T09:49:48Z</time>
      </trkpt>
      <trkpt lat="45.65881" lon="6.58404">
        <ele>1689.65</ele>
        <time>2011-06-12T09:49:50Z</time>
      </trkpt>
      <trkpt lat="45.65873" lon="6.58403">
        <ele>1689.17</ele>
        <time>2011-06-12T09:49:51Z</time>
      </trkpt>
      <trkpt lat="45.65865" lon="6.584">
        <ele>1688.21</ele>
        <time>2011-06-12T09:49:52Z</time>
      </trkpt>
      <trkpt lat="45.65842" lon="6.58389">
        <ele>1685.81</ele>
        <time>2011-06-12T09:49:55Z</time>
      </trkpt>
      <trkpt lat="45.65834" lon="6.58387">
        <ele>1684.37</ele>
        <time>2011-06-12T09:49:56Z</time>
      </trkpt>
      <trkpt lat="45.65825" lon="6.58386">
        <ele>1684.37</ele>
        <time>2011-06-12T09:49:57Z</time>
      </trkpt>
      <trkpt lat="45.65816" lon="6.58386">
        <ele>1682.93</ele>
        <time>2011-06-12T09:49:58Z</time>
      </trkpt>
      <trkpt lat="45.65807" lon="6.58387">
        <ele>1681.96</ele>
        <time>2011-06-12T09:49:59Z</time>
      </trkpt>
      <trkpt lat="45.65773" lon="6.58392">
        <ele>1679.56</ele>
        <time>2011-06-12T09:50:03Z</time>
      </trkpt>
      <trkpt lat="45.6574" lon="6.58392">
        <ele>1677.64</ele>
        <time>2011-06-12T09:50:08Z</time>
      </trkpt>
      <trkpt lat="45.65715" lon="6.58401">
        <ele>1676.2</ele>
        <time>2011-06-12T09:50:13Z</time>
      </trkpt>
      <trkpt lat="45.6569" lon="6.58409">
        <ele>1675.23</ele>
        <time>2011-06-12T09:50:18Z</time>
      </trkpt>
      <trkpt lat="45.6568" lon="6.58411">
        <ele>1675.23</ele>
        <time>2011-06-12T09:50:20Z</time>
      </trkpt>
      <trkpt lat="45.65676" lon="6.58413">
        <ele>1675.23</ele>
        <time>2011-06-12T09:50:21Z</time>
      </trkpt>
      <trkpt lat="45.65672" lon="6.58411">
        <ele>1675.23</ele>
        <time>2011-06-12T09:50:22Z</time>
      </trkpt>
      <trkpt lat="45.65668" lon="6.58408">
        <ele>1675.72</ele>
        <time>2011-06-12T09:50:23Z</time>
      </trkpt>
      <trkpt lat="45.65666" lon="6.58406">
        <ele>1675.72</ele>
        <time>2011-06-12T09:50:24Z</time>
      </trkpt>
      <trkpt lat="45.65657" lon="6.58401">
        <ele>1675.72</ele>
        <time>2011-06-12T09:50:32Z</time>
      </trkpt>
      <trkpt lat="45.65635" lon="6.58393">
        <ele>1675.23</ele>
        <time>2011-06-12T09:50:38Z</time>
      </trkpt>
      <trkpt lat="45.6563" lon="6.58394">
        <ele>1675.23</ele>
        <time>2011-06-12T09:50:39Z</time>
      </trkpt>
      <trkpt lat="45.65626" lon="6.58395">
        <ele>1674.75</ele>
        <time>2011-06-12T09:50:40Z</time>
      </trkpt>
      <trkpt lat="45.6562" lon="6.58397">
        <ele>1674.75</ele>
        <time>2011-06-12T09:50:41Z</time>
      </trkpt>
      <trkpt lat="45.65615" lon="6.584">
        <ele>1674.27</ele>
        <time>2011-06-12T09:50:42Z</time>
      </trkpt>
      <trkpt lat="45.6561" lon="6.58403">
        <ele>1674.75</ele>
        <time>2011-06-12T09:50:43Z</time>
      </trkpt>
      <trkpt lat="45.65604" lon="6.58405">
        <ele>1674.75</ele>
        <time>2011-06-12T09:50:44Z</time>
      </trkpt>
      <trkpt lat="45.65567" lon="6.58413">
        <ele>1675.72</ele>
        <time>2011-06-12T09:50:53Z</time>
      </trkpt>
      <trkpt lat="45.65563" lon="6.58412">
        <ele>1675.23</ele>
        <time>2011-06-12T09:50:54Z</time>
      </trkpt>
      <trkpt lat="45.65558" lon="6.5841">
        <ele>1675.72</ele>
        <time>2011-06-12T09:50:55Z</time>
      </trkpt>
      <trkpt lat="45.65511" lon="6.58388">
        <ele>1675.23</ele>
        <time>2011-06-12T09:51:04Z</time>
      </trkpt>
      <trkpt lat="45.65506" lon="6.58387">
        <ele>1675.23</ele>
        <time>2011-06-12T09:51:05Z</time>
      </trkpt>
      <trkpt lat="45.65501" lon="6.58387">
        <ele>1674.75</ele>
        <time>2011-06-12T09:51:06Z</time>
      </trkpt>
      <trkpt lat="45.65482" lon="6.58387">
        <ele>1674.27</ele>
        <time>2011-06-12T09:51:10Z</time>
      </trkpt>
      <trkpt lat="45.65477" lon="6.58385">
        <ele>1673.79</ele>
        <time>2011-06-12T09:51:11Z</time>
      </trkpt>
      <trkpt lat="45.65473" lon="6.58384">
        <ele>1673.31</ele>
        <time>2011-06-12T09:51:12Z</time>
      </trkpt>
      <trkpt lat="45.65468" lon="6.58382">
        <ele>1672.35</ele>
        <time>2011-06-12T09:51:13Z</time>
      </trkpt>
      <trkpt lat="45.65463" lon="6.58379">
        <ele>1671.87</ele>
        <time>2011-06-12T09:51:14Z</time>
      </trkpt>
      <trkpt lat="45.65458" lon="6.58376">
        <ele>1671.87</ele>
        <time>2011-06-12T09:51:15Z</time>
      </trkpt>
      <trkpt lat="45.65443" lon="6.58367">
        <ele>1669.47</ele>
        <time>2011-06-12T09:51:22Z</time>
      </trkpt>
      <trkpt lat="45.65437" lon="6.58362">
        <ele>1669.47</ele>
        <time>2011-06-12T09:51:31Z</time>
      </trkpt>
      <trkpt lat="45.65428" lon="6.58357">
        <ele>1668.02</ele>
        <time>2011-06-12T09:51:33Z</time>
      </trkpt>
      <trkpt lat="45.65422" lon="6.58357">
        <ele>1667.06</ele>
        <time>2011-06-12T09:51:34Z</time>
      </trkpt>
      <trkpt lat="45.65403" lon="6.58357">
        <ele>1665.62</ele>
        <time>2011-06-12T09:51:37Z</time>
      </trkpt>
      <trkpt lat="45.65396" lon="6.58356">
        <ele>1664.18</ele>
        <time>2011-06-12T09:51:38Z</time>
      </trkpt>
      <trkpt lat="45.65366" lon="6.58349">
        <ele>1661.3</ele>
        <time>2011-06-12T09:51:42Z</time>
      </trkpt>
      <trkpt lat="45.6535" lon="6.58345">
        <ele>1659.85</ele>
        <time>2011-06-12T09:51:44Z</time>
      </trkpt>
      <trkpt lat="45.65327" lon="6.58335">
        <ele>1656.49</ele>
        <time>2011-06-12T09:51:47Z</time>
      </trkpt>
      <trkpt lat="45.653" lon="6.58316">
        <ele>1653.12</ele>
        <time>2011-06-12T09:51:51Z</time>
      </trkpt>
      <trkpt lat="45.65271" lon="6.58295">
        <ele>1649.76</ele>
        <time>2011-06-12T09:51:55Z</time>
      </trkpt>
      <trkpt lat="45.65257" lon="6.58282">
        <ele>1647.36</ele>
        <time>2011-06-12T09:51:58Z</time>
      </trkpt>
      <trkpt lat="45.65247" lon="6.58274">
        <ele>1647.36</ele>
        <time>2011-06-12T09:52:02Z</time>
      </trkpt>
      <trkpt lat="45.65246" lon="6.58275">
        <ele>1647.36</ele>
        <time>2011-06-12T09:52:13Z</time>
      </trkpt>
      <trkpt lat="45.65246" lon="6.58275">
        <ele>1646.88</ele>
        <time>2011-06-12T09:52:43Z</time>
      </trkpt>
      <trkpt lat="45.65246" lon="6.58274">
        <ele>1646.88</ele>
        <time>2011-06-12T09:53:08Z</time>
      </trkpt>
      <trkpt lat="45.65246" lon="6.58274">
        <ele>1646.4</ele>
        <time>2011-06-12T09:53:16Z</time>
      </trkpt>
      <trkpt lat="45.65245" lon="6.58273">
        <ele>1646.4</ele>
        <time>2011-06-12T09:53:17Z</time>
      </trkpt>
      <trkpt lat="45.65244" lon="6.58271">
        <ele>1646.4</ele>
        <time>2011-06-12T09:53:18Z</time>
      </trkpt>
      <trkpt lat="45.65243" lon="6.58269">
        <ele>1646.4</ele>
        <time>2011-06-12T09:53:19Z</time>
      </trkpt>
      <trkpt lat="45.65242" lon="6.58266">
        <ele>1646.4</ele>
        <time>2011-06-12T09:53:20Z</time>
      </trkpt>
      <trkpt lat="45.65233" lon="6.58244">
        <ele>1643.99</ele>
        <time>2011-06-12T09:53:26Z</time>
      </trkpt>
      <trkpt lat="45.65233" lon="6.58238">
        <ele>1643.51</ele>
        <time>2011-06-12T09:53:27Z</time>
      </trkpt>
      <trkpt lat="45.65233" lon="6.58233">
        <ele>1643.03</ele>
        <time>2011-06-12T09:53:28Z</time>
      </trkpt>
      <trkpt lat="45.65232" lon="6.58224">
        <ele>1643.03</ele>
        <time>2011-06-12T09:53:35Z</time>
      </trkpt>
      <trkpt lat="45.65233" lon="6.58222">
        <ele>1642.07</ele>
        <time>2011-06-12T09:53:45Z</time>
      </trkpt>
      <trkpt lat="45.65234" lon="6.58218">
        <ele>1642.55</ele>
        <time>2011-06-12T09:53:46Z</time>
      </trkpt>
      <trkpt lat="45.65234" lon="6.58214">
        <ele>1641.59</ele>
        <time>2011-06-12T09:53:47Z</time>
      </trkpt>
      <trkpt lat="45.65234" lon="6.58207">
        <ele>1640.63</ele>
        <time>2011-06-12T09:53:48Z</time>
      </trkpt>
      <trkpt lat="45.65232" lon="6.58199">
        <ele>1640.63</ele>
        <time>2011-06-12T09:53:49Z</time>
      </trkpt>
      <trkpt lat="45.65229" lon="6.58191">
        <ele>1639.67</ele>
        <time>2011-06-12T09:53:50Z</time>
      </trkpt>
      <trkpt lat="45.65226" lon="6.58183">
        <ele>1639.19</ele>
        <time>2011-06-12T09:53:51Z</time>
      </trkpt>
      <trkpt lat="45.65222" lon="6.58173">
        <ele>1638.7</ele>
        <time>2011-06-12T09:53:52Z</time>
      </trkpt>
      <trkpt lat="45.6521" lon="6.58135">
        <ele>1636.78</ele>
        <time>2011-06-12T09:53:56Z</time>
      </trkpt>
      <trkpt lat="45.65207" lon="6.58128">
        <ele>1637.26</ele>
        <time>2011-06-12T09:53:57Z</time>
      </trkpt>
      <trkpt lat="45.65203" lon="6.58124">
        <ele>1636.78</ele>
        <time>2011-06-12T09:53:58Z</time>
      </trkpt>
      <trkpt lat="45.65199" lon="6.58123">
        <ele>1635.82</ele>
        <time>2011-06-12T09:53:59Z</time>
      </trkpt>
      <trkpt lat="45.65195" lon="6.58126">
        <ele>1635.82</ele>
        <time>2011-06-12T09:54:00Z</time>
      </trkpt>
      <trkpt lat="45.65193" lon="6.58131">
        <ele>1635.34</ele>
        <time>2011-06-12T09:54:01Z</time>
      </trkpt>
      <trkpt lat="45.65194" lon="6.58138">
        <ele>1635.34</ele>
        <time>2011-06-12T09:54:02Z</time>
      </trkpt>
      <trkpt lat="45.65195" lon="6.58146">
        <ele>1634.86</ele>
        <time>2011-06-12T09:54:03Z</time>
      </trkpt>
      <trkpt lat="45.65199" lon="6.58163">
        <ele>1633.42</ele>
        <time>2011-06-12T09:54:05Z</time>
      </trkpt>
      <trkpt lat="45.65207" lon="6.58195">
        <ele>1631.49</ele>
        <time>2011-06-12T09:54:08Z</time>
      </trkpt>
      <trkpt lat="45.65208" lon="6.58206">
        <ele>1631.01</ele>
        <time>2011-06-12T09:54:09Z</time>
      </trkpt>
      <trkpt lat="45.65208" lon="6.58219">
        <ele>1630.05</ele>
        <time>2011-06-12T09:54:10Z</time>
      </trkpt>
      <trkpt lat="45.65207" lon="6.58232">
        <ele>1629.57</ele>
        <time>2011-06-12T09:54:11Z</time>
      </trkpt>
      <trkpt lat="45.65205" lon="6.58245">
        <ele>1628.61</ele>
        <time>2011-06-12T09:54:12Z</time>
      </trkpt>
      <trkpt lat="45.65203" lon="6.58258">
        <ele>1628.13</ele>
        <time>2011-06-12T09:54:13Z</time>
      </trkpt>
      <trkpt lat="45.65202" lon="6.58271">
        <ele>1626.69</ele>
        <time>2011-06-12T09:54:14Z</time>
      </trkpt>
      <trkpt lat="45.65203" lon="6.58284">
        <ele>1626.21</ele>
        <time>2011-06-12T09:54:15Z</time>
      </trkpt>
      <trkpt lat="45.65206" lon="6.58297">
        <ele>1625.25</ele>
        <time>2011-06-12T09:54:16Z</time>
      </trkpt>
      <trkpt lat="45.6521" lon="6.5831">
        <ele>1623.8</ele>
        <time>2011-06-12T09:54:17Z</time>
      </trkpt>
      <trkpt lat="45.65217" lon="6.58334">
        <ele>1621.88</ele>
        <time>2011-06-12T09:54:19Z</time>
      </trkpt>
      <trkpt lat="45.65218" lon="6.58345">
        <ele>1621.88</ele>
        <time>2011-06-12T09:54:20Z</time>
      </trkpt>
      <trkpt lat="45.65216" lon="6.58353">
        <ele>1620.92</ele>
        <time>2011-06-12T09:54:21Z</time>
      </trkpt>
      <trkpt lat="45.65214" lon="6.58362">
        <ele>1620.44</ele>
        <time>2011-06-12T09:54:22Z</time>
      </trkpt>
      <trkpt lat="45.6521" lon="6.5837">
        <ele>1620.44</ele>
        <time>2011-06-12T09:54:23Z</time>
      </trkpt>
      <trkpt lat="45.65189" lon="6.58413">
        <ele>1617.07</ele>
        <time>2011-06-12T09:54:28Z</time>
      </trkpt>
      <trkpt lat="45.6518" lon="6.58428">
        <ele>1616.11</ele>
        <time>2011-06-12T09:54:30Z</time>
      </trkpt>
      <trkpt lat="45.65175" lon="6.58433">
        <ele>1615.15</ele>
        <time>2011-06-12T09:54:31Z</time>
      </trkpt>
      <trkpt lat="45.6517" lon="6.58434">
        <ele>1614.67</ele>
        <time>2011-06-12T09:54:32Z</time>
      </trkpt>
      <trkpt lat="45.65165" lon="6.58434">
        <ele>1614.19</ele>
        <time>2011-06-12T09:54:33Z</time>
      </trkpt>
      <trkpt lat="45.6516" lon="6.58435">
        <ele>1614.67</ele>
        <time>2011-06-12T09:54:34Z</time>
      </trkpt>
      <trkpt lat="45.65157" lon="6.58437">
        <ele>1614.67</ele>
        <time>2011-06-12T09:54:35Z</time>
      </trkpt>
      <trkpt lat="45.65154" lon="6.5844">
        <ele>1614.19</ele>
        <time>2011-06-12T09:54:36Z</time>
      </trkpt>
      <trkpt lat="45.65151" lon="6.58443">
        <ele>1615.15</ele>
        <time>2011-06-12T09:54:37Z</time>
      </trkpt>
      <trkpt lat="45.65148" lon="6.58446">
        <ele>1615.15</ele>
        <time>2011-06-12T09:54:38Z</time>
      </trkpt>
      <trkpt lat="45.65138" lon="6.58462">
        <ele>1616.11</ele>
        <time>2011-06-12T09:54:50Z</time>
      </trkpt>
      <trkpt lat="45.65138" lon="6.58463">
        <ele>1615.63</ele>
        <time>2011-06-12T09:55:20Z</time>
      </trkpt>
      <trkpt lat="45.65138" lon="6.58463">
        <ele>1615.15</ele>
        <time>2011-06-12T09:55:38Z</time>
      </trkpt>
      <trkpt lat="45.65138" lon="6.58463">
        <ele>1615.15</ele>
        <time>2011-06-12T09:56:14Z</time>
      </trkpt>
      <trkpt lat="45.65138" lon="6.58463">
        <ele>1615.15</ele>
        <time>2011-06-12T09:56:48Z</time>
      </trkpt>
      <trkpt lat="45.65138" lon="6.58463">
        <ele>1615.63</ele>
        <time>2011-06-12T09:57:23Z</time>
      </trkpt>
      <trkpt lat="45.65138" lon="6.58462">
        <ele>1615.15</ele>
        <time>2011-06-12T09:58:01Z</time>
      </trkpt>
      <trkpt lat="45.65138" lon="6.58462">
        <ele>1615.15</ele>
        <time>2011-06-12T09:58:39Z</time>
      </trkpt>
      <trkpt lat="45.65138" lon="6.58463">
        <ele>1615.15</ele>
        <time>2011-06-12T09:59:17Z</time>
      </trkpt>
      <trkpt lat="45.65138" lon="6.58463">
        <ele>1614.67</ele>
        <time>2011-06-12T09:59:51Z</time>
      </trkpt>
      <trkpt lat="45.65138" lon="6.58463">
        <ele>1615.63</ele>
        <time>2011-06-12T09:59:53Z</time>
      </trkpt>
      <trkpt lat="45.65137" lon="6.58465">
        <ele>1615.63</ele>
        <time>2011-06-12T09:59:54Z</time>
      </trkpt>
      <trkpt lat="45.65135" lon="6.58472">
        <ele>1616.11</ele>
        <time>2011-06-12T10:00:05Z</time>
      </trkpt>
      <trkpt lat="45.65134" lon="6.58474">
        <ele>1616.11</ele>
        <time>2011-06-12T10:00:07Z</time>
      </trkpt>
      <trkpt lat="45.65133" lon="6.58475">
        <ele>1616.11</ele>
        <time>2011-06-12T10:00:08Z</time>
      </trkpt>
      <trkpt lat="45.65132" lon="6.58477">
        <ele>1616.11</ele>
        <time>2011-06-12T10:00:09Z</time>
      </trkpt>
      <trkpt lat="45.65131" lon="6.58478">
        <ele>1616.11</ele>
        <time>2011-06-12T10:00:10Z</time>
      </trkpt>
      <trkpt lat="45.6513" lon="6.5848">
        <ele>1616.59</ele>
        <time>2011-06-12T10:00:11Z</time>
      </trkpt>
      <trkpt lat="45.65109" lon="6.58508">
        <ele>1619</ele>
        <time>2011-06-12T10:00:27Z</time>
      </trkpt>
      <trkpt lat="45.65096" lon="6.5854">
        <ele>1620.92</ele>
        <time>2011-06-12T10:00:41Z</time>
      </trkpt>
      <trkpt lat="45.65094" lon="6.58587">
        <ele>1622.84</ele>
        <time>2011-06-12T10:00:56Z</time>
      </trkpt>
      <trkpt lat="45.6508" lon="6.5862">
        <ele>1624.28</ele>
        <time>2011-06-12T10:01:10Z</time>
      </trkpt>
      <trkpt lat="45.65058" lon="6.58608">
        <ele>1626.21</ele>
        <time>2011-06-12T10:01:22Z</time>
      </trkpt>
      <trkpt lat="45.65033" lon="6.5859">
        <ele>1628.61</ele>
        <time>2011-06-12T10:01:38Z</time>
      </trkpt>
      <trkpt lat="45.65004" lon="6.58591">
        <ele>1631.49</ele>
        <time>2011-06-12T10:01:56Z</time>
      </trkpt>
      <trkpt lat="45.64993" lon="6.58621">
        <ele>1633.42</ele>
        <time>2011-06-12T10:02:11Z</time>
      </trkpt>
      <trkpt lat="45.64983" lon="6.58658">
        <ele>1636.3</ele>
        <time>2011-06-12T10:02:28Z</time>
      </trkpt>
      <trkpt lat="45.64967" lon="6.58683">
        <ele>1638.7</ele>
        <time>2011-06-12T10:02:44Z</time>
      </trkpt>
      <trkpt lat="45.64958" lon="6.58698">
        <ele>1640.15</ele>
        <time>2011-06-12T10:02:53Z</time>
      </trkpt>
      <trkpt lat="45.64957" lon="6.587">
        <ele>1640.15</ele>
        <time>2011-06-12T10:02:54Z</time>
      </trkpt>
      <trkpt lat="45.64957" lon="6.58701">
        <ele>1640.15</ele>
        <time>2011-06-12T10:02:55Z</time>
      </trkpt>
      <trkpt lat="45.64956" lon="6.58703">
        <ele>1640.63</ele>
        <time>2011-06-12T10:02:56Z</time>
      </trkpt>
      <trkpt lat="45.64955" lon="6.58705">
        <ele>1640.63</ele>
        <time>2011-06-12T10:02:57Z</time>
      </trkpt>
      <trkpt lat="45.64932" lon="6.58724">
        <ele>1643.03</ele>
        <time>2011-06-12T10:03:15Z</time>
      </trkpt>
      <trkpt lat="45.64909" lon="6.58727">
        <ele>1645.43</ele>
        <time>2011-06-12T10:03:31Z</time>
      </trkpt>
      <trkpt lat="45.64884" lon="6.58722">
        <ele>1648.8</ele>
        <time>2011-06-12T10:03:48Z</time>
      </trkpt>
      <trkpt lat="45.6486" lon="6.58715">
        <ele>1651.2</ele>
        <time>2011-06-12T10:04:04Z</time>
      </trkpt>
      <trkpt lat="45.64837" lon="6.58701">
        <ele>1654.09</ele>
        <time>2011-06-12T10:04:21Z</time>
      </trkpt>
      <trkpt lat="45.64818" lon="6.5869">
        <ele>1656.49</ele>
        <time>2011-06-12T10:04:35Z</time>
      </trkpt>
      <trkpt lat="45.64795" lon="6.58676">
        <ele>1659.37</ele>
        <time>2011-06-12T10:04:52Z</time>
      </trkpt>
      <trkpt lat="45.64772" lon="6.58652">
        <ele>1661.78</ele>
        <time>2011-06-12T10:05:11Z</time>
      </trkpt>
      <trkpt lat="45.6476" lon="6.58645">
        <ele>1662.74</ele>
        <time>2011-06-12T10:05:19Z</time>
      </trkpt>
      <trkpt lat="45.64743" lon="6.58633">
        <ele>1664.66</ele>
        <time>2011-06-12T10:05:33Z</time>
      </trkpt>
      <trkpt lat="45.64713" lon="6.58616">
        <ele>1667.54</ele>
        <time>2011-06-12T10:05:53Z</time>
      </trkpt>
      <trkpt lat="45.64693" lon="6.58611">
        <ele>1668.99</ele>
        <time>2011-06-12T10:06:06Z</time>
      </trkpt>
      <trkpt lat="45.64674" lon="6.5861">
        <ele>1668.51</ele>
        <time>2011-06-12T10:06:21Z</time>
      </trkpt>
      <trkpt lat="45.64674" lon="6.5861">
        <ele>1668.99</ele>
        <time>2011-06-12T10:06:56Z</time>
      </trkpt>
      <trkpt lat="45.64674" lon="6.5861">
        <ele>1669.47</ele>
        <time>2011-06-12T10:07:33Z</time>
      </trkpt>
      <trkpt lat="45.64676" lon="6.58604">
        <ele>1669.95</ele>
        <time>2011-06-12T10:07:42Z</time>
      </trkpt>
      <trkpt lat="45.64675" lon="6.58603">
        <ele>1669.95</ele>
        <time>2011-06-12T10:07:43Z</time>
      </trkpt>
      <trkpt lat="45.64675" lon="6.58601">
        <ele>1670.43</ele>
        <time>2011-06-12T10:07:44Z</time>
      </trkpt>
      <trkpt lat="45.64674" lon="6.586">
        <ele>1670.43</ele>
        <time>2011-06-12T10:07:45Z</time>
      </trkpt>
      <trkpt lat="45.64674" lon="6.58598">
        <ele>1670.43</ele>
        <time>2011-06-12T10:07:46Z</time>
      </trkpt>
      <trkpt lat="45.64659" lon="6.58567">
        <ele>1671.39</ele>
        <time>2011-06-12T10:08:01Z</time>
      </trkpt>
      <trkpt lat="45.64629" lon="6.58536">
        <ele>1673.31</ele>
        <time>2011-06-12T10:08:16Z</time>
      </trkpt>
      <trkpt lat="45.64605" lon="6.58518">
        <ele>1674.27</ele>
        <time>2011-06-12T10:08:29Z</time>
      </trkpt>
      <trkpt lat="45.64595" lon="6.58513">
        <ele>1674.27</ele>
        <time>2011-06-12T10:08:34Z</time>
      </trkpt>
      <trkpt lat="45.64567" lon="6.585">
        <ele>1675.72</ele>
        <time>2011-06-12T10:08:47Z</time>
      </trkpt>
      <trkpt lat="45.64538" lon="6.58473">
        <ele>1676.68</ele>
        <time>2011-06-12T10:09:01Z</time>
      </trkpt>
      <trkpt lat="45.64505" lon="6.5846">
        <ele>1679.56</ele>
        <time>2011-06-12T10:09:16Z</time>
      </trkpt>
      <trkpt lat="45.64465" lon="6.58458">
        <ele>1680.52</ele>
        <time>2011-06-12T10:09:30Z</time>
      </trkpt>
      <trkpt lat="45.64436" lon="6.58463">
        <ele>1679.08</ele>
        <time>2011-06-12T10:09:36Z</time>
      </trkpt>
      <trkpt lat="45.64421" lon="6.58473">
        <ele>1678.12</ele>
        <time>2011-06-12T10:09:39Z</time>
      </trkpt>
      <trkpt lat="45.64405" lon="6.58487">
        <ele>1675.72</ele>
        <time>2011-06-12T10:09:43Z</time>
      </trkpt>
      <trkpt lat="45.64385" lon="6.58506">
        <ele>1673.79</ele>
        <time>2011-06-12T10:09:48Z</time>
      </trkpt>
      <trkpt lat="45.64381" lon="6.58508">
        <ele>1674.27</ele>
        <time>2011-06-12T10:09:49Z</time>
      </trkpt>
      <trkpt lat="45.64376" lon="6.5851">
        <ele>1673.79</ele>
        <time>2011-06-12T10:09:50Z</time>
      </trkpt>
      <trkpt lat="45.64371" lon="6.58511">
        <ele>1673.79</ele>
        <time>2011-06-12T10:09:51Z</time>
      </trkpt>
      <trkpt lat="45.64366" lon="6.58512">
        <ele>1672.83</ele>
        <time>2011-06-12T10:09:52Z</time>
      </trkpt>
      <trkpt lat="45.64356" lon="6.58513">
        <ele>1671.87</ele>
        <time>2011-06-12T10:09:54Z</time>
      </trkpt>
      <trkpt lat="45.64314" lon="6.58535">
        <ele>1668.99</ele>
        <time>2011-06-12T10:10:04Z</time>
      </trkpt>
      <trkpt lat="45.64292" lon="6.58565">
        <ele>1667.06</ele>
        <time>2011-06-12T10:10:11Z</time>
      </trkpt>
      <trkpt lat="45.64278" lon="6.58583">
        <ele>1665.62</ele>
        <time>2011-06-12T10:10:14Z</time>
      </trkpt>
      <trkpt lat="45.64272" lon="6.58587">
        <ele>1665.62</ele>
        <time>2011-06-12T10:10:15Z</time>
      </trkpt>
      <trkpt lat="45.64261" lon="6.58594">
        <ele>1664.66</ele>
        <time>2011-06-12T10:10:17Z</time>
      </trkpt>
      <trkpt lat="45.64233" lon="6.58607">
        <ele>1662.26</ele>
        <time>2011-06-12T10:10:22Z</time>
      </trkpt>
      <trkpt lat="45.6421" lon="6.58621">
        <ele>1659.85</ele>
        <time>2011-06-12T10:10:26Z</time>
      </trkpt>
      <trkpt lat="45.64204" lon="6.58626">
        <ele>1659.37</ele>
        <time>2011-06-12T10:10:27Z</time>
      </trkpt>
      <trkpt lat="45.64199" lon="6.58632">
        <ele>1658.89</ele>
        <time>2011-06-12T10:10:28Z</time>
      </trkpt>
      <trkpt lat="45.64195" lon="6.58637">
        <ele>1658.89</ele>
        <time>2011-06-12T10:10:29Z</time>
      </trkpt>
      <trkpt lat="45.6419" lon="6.58641">
        <ele>1658.41</ele>
        <time>2011-06-12T10:10:30Z</time>
      </trkpt>
      <trkpt lat="45.64185" lon="6.58644">
        <ele>1657.45</ele>
        <time>2011-06-12T10:10:31Z</time>
      </trkpt>
      <trkpt lat="45.6418" lon="6.58646">
        <ele>1656.97</ele>
        <time>2011-06-12T10:10:32Z</time>
      </trkpt>
      <trkpt lat="45.64174" lon="6.58648">
        <ele>1657.45</ele>
        <time>2011-06-12T10:10:33Z</time>
      </trkpt>
      <trkpt lat="45.64162" lon="6.58652">
        <ele>1655.53</ele>
        <time>2011-06-12T10:10:35Z</time>
      </trkpt>
      <trkpt lat="45.64157" lon="6.58654">
        <ele>1654.09</ele>
        <time>2011-06-12T10:10:36Z</time>
      </trkpt>
      <trkpt lat="45.64151" lon="6.58658">
        <ele>1654.57</ele>
        <time>2011-06-12T10:10:37Z</time>
      </trkpt>
      <trkpt lat="45.64146" lon="6.58662">
        <ele>1653.6</ele>
        <time>2011-06-12T10:10:38Z</time>
      </trkpt>
      <trkpt lat="45.64136" lon="6.58671">
        <ele>1652.64</ele>
        <time>2011-06-12T10:10:40Z</time>
      </trkpt>
      <trkpt lat="45.64087" lon="6.58698">
        <ele>1649.76</ele>
        <time>2011-06-12T10:10:49Z</time>
      </trkpt>
      <trkpt lat="45.64082" lon="6.58698">
        <ele>1649.76</ele>
        <time>2011-06-12T10:10:50Z</time>
      </trkpt>
      <trkpt lat="45.64041" lon="6.58706">
        <ele>1646.4</ele>
        <time>2011-06-12T10:10:57Z</time>
      </trkpt>
      <trkpt lat="45.64035" lon="6.58707">
        <ele>1645.91</ele>
        <time>2011-06-12T10:10:58Z</time>
      </trkpt>
      <trkpt lat="45.64023" lon="6.58708">
        <ele>1645.43</ele>
        <time>2011-06-12T10:11:00Z</time>
      </trkpt>
      <trkpt lat="45.64018" lon="6.58707">
        <ele>1645.43</ele>
        <time>2011-06-12T10:11:01Z</time>
      </trkpt>
      <trkpt lat="45.64012" lon="6.58706">
        <ele>1645.43</ele>
        <time>2011-06-12T10:11:02Z</time>
      </trkpt>
      <trkpt lat="45.64007" lon="6.58706">
        <ele>1645.43</ele>
        <time>2011-06-12T10:11:03Z</time>
      </trkpt>
      <trkpt lat="45.64002" lon="6.58707">
        <ele>1645.91</ele>
        <time>2011-06-12T10:11:04Z</time>
      </trkpt>
      <trkpt lat="45.63997" lon="6.58708">
        <ele>1645.43</ele>
        <time>2011-06-12T10:11:05Z</time>
      </trkpt>
      <trkpt lat="45.63992" lon="6.5871">
        <ele>1645.43</ele>
        <time>2011-06-12T10:11:06Z</time>
      </trkpt>
      <trkpt lat="45.63934" lon="6.58733">
        <ele>1646.88</ele>
        <time>2011-06-12T10:11:21Z</time>
      </trkpt>
      <trkpt lat="45.63875" lon="6.58736">
        <ele>1648.32</ele>
        <time>2011-06-12T10:11:36Z</time>
      </trkpt>
      <trkpt lat="45.63834" lon="6.58753">
        <ele>1650.72</ele>
        <time>2011-06-12T10:11:51Z</time>
      </trkpt>
      <trkpt lat="45.63799" lon="6.5877">
        <ele>1654.09</ele>
        <time>2011-06-12T10:12:08Z</time>
      </trkpt>
      <trkpt lat="45.63773" lon="6.58805">
        <ele>1655.05</ele>
        <time>2011-06-12T10:12:23Z</time>
      </trkpt>
      <trkpt lat="45.63745" lon="6.588">
        <ele>1658.41</ele>
        <time>2011-06-12T10:12:39Z</time>
      </trkpt>
      <trkpt lat="45.63724" lon="6.58788">
        <ele>1660.81</ele>
        <time>2011-06-12T10:12:55Z</time>
      </trkpt>
      <trkpt lat="45.6371" lon="6.58786">
        <ele>1662.26</ele>
        <time>2011-06-12T10:13:05Z</time>
      </trkpt>
      <trkpt lat="45.63708" lon="6.58786">
        <ele>1662.26</ele>
        <time>2011-06-12T10:13:06Z</time>
      </trkpt>
      <trkpt lat="45.63704" lon="6.58784">
        <ele>1662.74</ele>
        <time>2011-06-12T10:13:21Z</time>
      </trkpt>
      <trkpt lat="45.63704" lon="6.58784">
        <ele>1662.74</ele>
        <time>2011-06-12T10:13:56Z</time>
      </trkpt>
      <trkpt lat="45.63703" lon="6.58786">
        <ele>1662.74</ele>
        <time>2011-06-12T10:14:06Z</time>
      </trkpt>
      <trkpt lat="45.63702" lon="6.58787">
        <ele>1662.74</ele>
        <time>2011-06-12T10:14:07Z</time>
      </trkpt>
      <trkpt lat="45.63701" lon="6.58788">
        <ele>1663.22</ele>
        <time>2011-06-12T10:14:08Z</time>
      </trkpt>
      <trkpt lat="45.63678" lon="6.58794">
        <ele>1665.14</ele>
        <time>2011-06-12T10:14:22Z</time>
      </trkpt>
      <trkpt lat="45.63652" lon="6.58805">
        <ele>1667.54</ele>
        <time>2011-06-12T10:14:39Z</time>
      </trkpt>
      <trkpt lat="45.63626" lon="6.58822">
        <ele>1669.95</ele>
        <time>2011-06-12T10:14:57Z</time>
      </trkpt>
      <trkpt lat="45.63604" lon="6.58836">
        <ele>1672.83</ele>
        <time>2011-06-12T10:15:12Z</time>
      </trkpt>
      <trkpt lat="45.63576" lon="6.58853">
        <ele>1675.72</ele>
        <time>2011-06-12T10:15:33Z</time>
      </trkpt>
      <trkpt lat="45.6357" lon="6.58864">
        <ele>1677.16</ele>
        <time>2011-06-12T10:15:40Z</time>
      </trkpt>
      <trkpt lat="45.6357" lon="6.58866">
        <ele>1677.64</ele>
        <time>2011-06-12T10:15:41Z</time>
      </trkpt>
      <trkpt lat="45.6357" lon="6.58868">
        <ele>1677.64</ele>
        <time>2011-06-12T10:15:42Z</time>
      </trkpt>
      <trkpt lat="45.63571" lon="6.5887">
        <ele>1678.12</ele>
        <time>2011-06-12T10:15:43Z</time>
      </trkpt>
      <trkpt lat="45.63572" lon="6.58871">
        <ele>1678.12</ele>
        <time>2011-06-12T10:15:44Z</time>
      </trkpt>
      <trkpt lat="45.63593" lon="6.58873">
        <ele>1680.52</ele>
        <time>2011-06-12T10:15:59Z</time>
      </trkpt>
      <trkpt lat="45.63602" lon="6.58869">
        <ele>1681</ele>
        <time>2011-06-12T10:16:06Z</time>
      </trkpt>
      <trkpt lat="45.63623" lon="6.5887">
        <ele>1683.89</ele>
        <time>2011-06-12T10:16:22Z</time>
      </trkpt>
      <trkpt lat="45.63625" lon="6.58871">
        <ele>1684.37</ele>
        <time>2011-06-12T10:16:23Z</time>
      </trkpt>
      <trkpt lat="45.63627" lon="6.58871">
        <ele>1684.37</ele>
        <time>2011-06-12T10:16:24Z</time>
      </trkpt>
      <trkpt lat="45.63628" lon="6.58871">
        <ele>1683.89</ele>
        <time>2011-06-12T10:16:25Z</time>
      </trkpt>
      <trkpt lat="45.63629" lon="6.58871">
        <ele>1683.89</ele>
        <time>2011-06-12T10:16:26Z</time>
      </trkpt>
      <trkpt lat="45.63653" lon="6.58874">
        <ele>1685.81</ele>
        <time>2011-06-12T10:16:42Z</time>
      </trkpt>
      <trkpt lat="45.63673" lon="6.58882">
        <ele>1688.21</ele>
        <time>2011-06-12T10:16:56Z</time>
      </trkpt>
      <trkpt lat="45.63674" lon="6.58882">
        <ele>1688.21</ele>
        <time>2011-06-12T10:16:57Z</time>
      </trkpt>
      <trkpt lat="45.63701" lon="6.58898">
        <ele>1691.1</ele>
        <time>2011-06-12T10:17:16Z</time>
      </trkpt>
      <trkpt lat="45.63702" lon="6.58908">
        <ele>1691.58</ele>
        <time>2011-06-12T10:17:21Z</time>
      </trkpt>
      <trkpt lat="45.63702" lon="6.5891">
        <ele>1692.06</ele>
        <time>2011-06-12T10:17:22Z</time>
      </trkpt>
      <trkpt lat="45.63701" lon="6.58911">
        <ele>1692.06</ele>
        <time>2011-06-12T10:17:23Z</time>
      </trkpt>
      <trkpt lat="45.63699" lon="6.58912">
        <ele>1692.54</ele>
        <time>2011-06-12T10:17:24Z</time>
      </trkpt>
      <trkpt lat="45.63698" lon="6.58913">
        <ele>1692.06</ele>
        <time>2011-06-12T10:17:25Z</time>
      </trkpt>
      <trkpt lat="45.63674" lon="6.58914">
        <ele>1694.94</ele>
        <time>2011-06-12T10:17:41Z</time>
      </trkpt>
      <trkpt lat="45.63654" lon="6.58925">
        <ele>1696.38</ele>
        <time>2011-06-12T10:17:56Z</time>
      </trkpt>
      <trkpt lat="45.63628" lon="6.58939">
        <ele>1699.27</ele>
        <time>2011-06-12T10:18:15Z</time>
      </trkpt>
      <trkpt lat="45.63607" lon="6.58954">
        <ele>1702.15</ele>
        <time>2011-06-12T10:18:32Z</time>
      </trkpt>
      <trkpt lat="45.63594" lon="6.58977">
        <ele>1704.07</ele>
        <time>2011-06-12T10:18:47Z</time>
      </trkpt>
      <trkpt lat="45.63593" lon="6.58979">
        <ele>1704.07</ele>
        <time>2011-06-12T10:18:48Z</time>
      </trkpt>
      <trkpt lat="45.63575" lon="6.59004">
        <ele>1706.96</ele>
        <time>2011-06-12T10:19:06Z</time>
      </trkpt>
      <trkpt lat="45.63551" lon="6.59025">
        <ele>1709.36</ele>
        <time>2011-06-12T10:19:26Z</time>
      </trkpt>
      <trkpt lat="45.63544" lon="6.59029">
        <ele>1709.84</ele>
        <time>2011-06-12T10:19:31Z</time>
      </trkpt>
      <trkpt lat="45.63543" lon="6.5903">
        <ele>1710.32</ele>
        <time>2011-06-12T10:19:32Z</time>
      </trkpt>
      <trkpt lat="45.63541" lon="6.59031">
        <ele>1710.32</ele>
        <time>2011-06-12T10:19:33Z</time>
      </trkpt>
      <trkpt lat="45.63516" lon="6.59049">
        <ele>1712.73</ele>
        <time>2011-06-12T10:19:52Z</time>
      </trkpt>
      <trkpt lat="45.63493" lon="6.59069">
        <ele>1714.65</ele>
        <time>2011-06-12T10:20:10Z</time>
      </trkpt>
      <trkpt lat="45.63472" lon="6.59093">
        <ele>1717.05</ele>
        <time>2011-06-12T10:20:27Z</time>
      </trkpt>
      <trkpt lat="45.63461" lon="6.59099">
        <ele>1717.53</ele>
        <time>2011-06-12T10:20:36Z</time>
      </trkpt>
      <trkpt lat="45.6346" lon="6.591">
        <ele>1718.01</ele>
        <time>2011-06-12T10:20:37Z</time>
      </trkpt>
      <trkpt lat="45.63459" lon="6.591">
        <ele>1718.49</ele>
        <time>2011-06-12T10:20:38Z</time>
      </trkpt>
      <trkpt lat="45.63458" lon="6.59099">
        <ele>1718.49</ele>
        <time>2011-06-12T10:20:39Z</time>
      </trkpt>
      <trkpt lat="45.63457" lon="6.59099">
        <ele>1718.49</ele>
        <time>2011-06-12T10:20:40Z</time>
      </trkpt>
      <trkpt lat="45.63438" lon="6.59101">
        <ele>1720.9</ele>
        <time>2011-06-12T10:20:54Z</time>
      </trkpt>
      <trkpt lat="45.63413" lon="6.59113">
        <ele>1723.78</ele>
        <time>2011-06-12T10:21:13Z</time>
      </trkpt>
      <trkpt lat="45.63392" lon="6.59125">
        <ele>1726.67</ele>
        <time>2011-06-12T10:21:30Z</time>
      </trkpt>
      <trkpt lat="45.63369" lon="6.59142">
        <ele>1728.11</ele>
        <time>2011-06-12T10:21:48Z</time>
      </trkpt>
      <trkpt lat="45.6335" lon="6.59159">
        <ele>1729.55</ele>
        <time>2011-06-12T10:22:03Z</time>
      </trkpt>
      <trkpt lat="45.63329" lon="6.5917">
        <ele>1732.91</ele>
        <time>2011-06-12T10:22:19Z</time>
      </trkpt>
      <trkpt lat="45.63311" lon="6.59177">
        <ele>1735.32</ele>
        <time>2011-06-12T10:22:33Z</time>
      </trkpt>
      <trkpt lat="45.6331" lon="6.59177">
        <ele>1735.32</ele>
        <time>2011-06-12T10:22:34Z</time>
      </trkpt>
      <trkpt lat="45.63309" lon="6.59178">
        <ele>1735.32</ele>
        <time>2011-06-12T10:22:35Z</time>
      </trkpt>
      <trkpt lat="45.63308" lon="6.59178">
        <ele>1735.32</ele>
        <time>2011-06-12T10:22:36Z</time>
      </trkpt>
      <trkpt lat="45.63307" lon="6.59178">
        <ele>1735.8</ele>
        <time>2011-06-12T10:22:37Z</time>
      </trkpt>
      <trkpt lat="45.63306" lon="6.59179">
        <ele>1736.28</ele>
        <time>2011-06-12T10:22:38Z</time>
      </trkpt>
      <trkpt lat="45.63295" lon="6.59183">
        <ele>1738.68</ele>
        <time>2011-06-12T10:22:47Z</time>
      </trkpt>
      <trkpt lat="45.6329" lon="6.59188">
        <ele>1738.68</ele>
        <time>2011-06-12T10:22:52Z</time>
      </trkpt>
      <trkpt lat="45.63289" lon="6.5919">
        <ele>1738.2</ele>
        <time>2011-06-12T10:22:53Z</time>
      </trkpt>
      <trkpt lat="45.63289" lon="6.59191">
        <ele>1738.68</ele>
        <time>2011-06-12T10:22:54Z</time>
      </trkpt>
      <trkpt lat="45.63287" lon="6.59195">
        <ele>1738.68</ele>
        <time>2011-06-12T10:22:56Z</time>
      </trkpt>
      <trkpt lat="45.63288" lon="6.592">
        <ele>1739.16</ele>
        <time>2011-06-12T10:22:59Z</time>
      </trkpt>
      <trkpt lat="45.63288" lon="6.59201">
        <ele>1739.64</ele>
        <time>2011-06-12T10:23:00Z</time>
      </trkpt>
      <trkpt lat="45.63295" lon="6.5921">
        <ele>1738.68</ele>
        <time>2011-06-12T10:23:08Z</time>
      </trkpt>
      <trkpt lat="45.63297" lon="6.59211">
        <ele>1738.68</ele>
        <time>2011-06-12T10:23:09Z</time>
      </trkpt>
      <trkpt lat="45.63303" lon="6.59214">
        <ele>1741.57</ele>
        <time>2011-06-12T10:23:14Z</time>
      </trkpt>
      <trkpt lat="45.63322" lon="6.59214">
        <ele>1742.53</ele>
        <time>2011-06-12T10:23:28Z</time>
      </trkpt>
      <trkpt lat="45.63347" lon="6.59215">
        <ele>1744.45</ele>
        <time>2011-06-12T10:23:45Z</time>
      </trkpt>
      <trkpt lat="45.63372" lon="6.59216">
        <ele>1746.85</ele>
        <time>2011-06-12T10:24:03Z</time>
      </trkpt>
      <trkpt lat="45.63393" lon="6.59213">
        <ele>1749.26</ele>
        <time>2011-06-12T10:24:20Z</time>
      </trkpt>
      <trkpt lat="45.63417" lon="6.59209">
        <ele>1751.66</ele>
        <time>2011-06-12T10:24:38Z</time>
      </trkpt>
      <trkpt lat="45.63418" lon="6.59209">
        <ele>1751.18</ele>
        <time>2011-06-12T10:24:39Z</time>
      </trkpt>
      <trkpt lat="45.63419" lon="6.59208">
        <ele>1751.66</ele>
        <time>2011-06-12T10:24:40Z</time>
      </trkpt>
      <trkpt lat="45.63421" lon="6.59208">
        <ele>1751.66</ele>
        <time>2011-06-12T10:24:41Z</time>
      </trkpt>
      <trkpt lat="45.63422" lon="6.59208">
        <ele>1752.14</ele>
        <time>2011-06-12T10:24:42Z</time>
      </trkpt>
      <trkpt lat="45.63424" lon="6.59208">
        <ele>1752.14</ele>
        <time>2011-06-12T10:24:43Z</time>
      </trkpt>
      <trkpt lat="45.63425" lon="6.59208">
        <ele>1753.1</ele>
        <time>2011-06-12T10:24:44Z</time>
      </trkpt>
      <trkpt lat="45.63426" lon="6.59208">
        <ele>1752.62</ele>
        <time>2011-06-12T10:24:45Z</time>
      </trkpt>
      <trkpt lat="45.63428" lon="6.59209">
        <ele>1752.62</ele>
        <time>2011-06-12T10:24:46Z</time>
      </trkpt>
      <trkpt lat="45.63429" lon="6.59209">
        <ele>1752.62</ele>
        <time>2011-06-12T10:24:47Z</time>
      </trkpt>
      <trkpt lat="45.6343" lon="6.5921">
        <ele>1753.1</ele>
        <time>2011-06-12T10:24:48Z</time>
      </trkpt>
      <trkpt lat="45.63431" lon="6.5921">
        <ele>1753.1</ele>
        <time>2011-06-12T10:24:49Z</time>
      </trkpt>
      <trkpt lat="45.63432" lon="6.59211">
        <ele>1753.1</ele>
        <time>2011-06-12T10:24:50Z</time>
      </trkpt>
      <trkpt lat="45.63448" lon="6.59217">
        <ele>1755.5</ele>
        <time>2011-06-12T10:25:03Z</time>
      </trkpt>
      <trkpt lat="45.63456" lon="6.59219">
        <ele>1755.99</ele>
        <time>2011-06-12T10:25:09Z</time>
      </trkpt>
      <trkpt lat="45.63458" lon="6.59218">
        <ele>1755.5</ele>
        <time>2011-06-12T10:25:10Z</time>
      </trkpt>
      <trkpt lat="45.63459" lon="6.59218">
        <ele>1755.99</ele>
        <time>2011-06-12T10:25:11Z</time>
      </trkpt>
      <trkpt lat="45.6346" lon="6.59218">
        <ele>1756.47</ele>
        <time>2011-06-12T10:25:12Z</time>
      </trkpt>
      <trkpt lat="45.63461" lon="6.59218">
        <ele>1755.99</ele>
        <time>2011-06-12T10:25:13Z</time>
      </trkpt>
      <trkpt lat="45.63475" lon="6.59211">
        <ele>1757.43</ele>
        <time>2011-06-12T10:25:24Z</time>
      </trkpt>
      <trkpt lat="45.63476" lon="6.5921">
        <ele>1758.39</ele>
        <time>2011-06-12T10:25:25Z</time>
      </trkpt>
      <trkpt lat="45.63477" lon="6.59209">
        <ele>1757.91</ele>
        <time>2011-06-12T10:25:26Z</time>
      </trkpt>
      <trkpt lat="45.63483" lon="6.59206">
        <ele>1758.87</ele>
        <time>2011-06-12T10:25:31Z</time>
      </trkpt>
      <trkpt lat="45.63485" lon="6.59205">
        <ele>1758.87</ele>
        <time>2011-06-12T10:25:32Z</time>
      </trkpt>
      <trkpt lat="45.63486" lon="6.59205">
        <ele>1758.87</ele>
        <time>2011-06-12T10:25:33Z</time>
      </trkpt>
      <trkpt lat="45.63505" lon="6.59213">
        <ele>1760.31</ele>
        <time>2011-06-12T10:25:48Z</time>
      </trkpt>
      <trkpt lat="45.63527" lon="6.59223">
        <ele>1763.2</ele>
        <time>2011-06-12T10:26:06Z</time>
      </trkpt>
      <trkpt lat="45.6355" lon="6.5923">
        <ele>1764.64</ele>
        <time>2011-06-12T10:26:22Z</time>
      </trkpt>
      <trkpt lat="45.63571" lon="6.59237">
        <ele>1766.08</ele>
        <time>2011-06-12T10:26:37Z</time>
      </trkpt>
      <trkpt lat="45.63575" lon="6.59251">
        <ele>1767.52</ele>
        <time>2011-06-12T10:26:44Z</time>
      </trkpt>
      <trkpt lat="45.63574" lon="6.59252">
        <ele>1767.52</ele>
        <time>2011-06-12T10:26:45Z</time>
      </trkpt>
      <trkpt lat="45.63573" lon="6.59254">
        <ele>1767.52</ele>
        <time>2011-06-12T10:26:46Z</time>
      </trkpt>
      <trkpt lat="45.63572" lon="6.59255">
        <ele>1768.48</ele>
        <time>2011-06-12T10:26:47Z</time>
      </trkpt>
      <trkpt lat="45.6357" lon="6.59256">
        <ele>1768</ele>
        <time>2011-06-12T10:26:48Z</time>
      </trkpt>
      <trkpt lat="45.63569" lon="6.59257">
        <ele>1768.96</ele>
        <time>2011-06-12T10:26:49Z</time>
      </trkpt>
      <trkpt lat="45.63568" lon="6.59257">
        <ele>1768.96</ele>
        <time>2011-06-12T10:26:50Z</time>
      </trkpt>
      <trkpt lat="45.63566" lon="6.59258">
        <ele>1768.48</ele>
        <time>2011-06-12T10:26:51Z</time>
      </trkpt>
      <trkpt lat="45.63565" lon="6.59258">
        <ele>1768.96</ele>
        <time>2011-06-12T10:26:52Z</time>
      </trkpt>
      <trkpt lat="45.63564" lon="6.59257">
        <ele>1769.44</ele>
        <time>2011-06-12T10:26:53Z</time>
      </trkpt>
      <trkpt lat="45.63562" lon="6.59257">
        <ele>1769.44</ele>
        <time>2011-06-12T10:26:54Z</time>
      </trkpt>
      <trkpt lat="45.63561" lon="6.59257">
        <ele>1769.44</ele>
        <time>2011-06-12T10:26:55Z</time>
      </trkpt>
      <trkpt lat="45.63559" lon="6.59257">
        <ele>1769.92</ele>
        <time>2011-06-12T10:26:56Z</time>
      </trkpt>
      <trkpt lat="45.63558" lon="6.59257">
        <ele>1769.44</ele>
        <time>2011-06-12T10:26:57Z</time>
      </trkpt>
      <trkpt lat="45.63532" lon="6.59252">
        <ele>1772.33</ele>
        <time>2011-06-12T10:27:16Z</time>
      </trkpt>
      <trkpt lat="45.63511" lon="6.5926">
        <ele>1774.25</ele>
        <time>2011-06-12T10:27:32Z</time>
      </trkpt>
      <trkpt lat="45.63488" lon="6.59283">
        <ele>1776.65</ele>
        <time>2011-06-12T10:27:52Z</time>
      </trkpt>
      <trkpt lat="45.63465" lon="6.59289">
        <ele>1779.54</ele>
        <time>2011-06-12T10:28:10Z</time>
      </trkpt>
      <trkpt lat="45.63443" lon="6.59293">
        <ele>1782.9</ele>
        <time>2011-06-12T10:28:27Z</time>
      </trkpt>
      <trkpt lat="45.63418" lon="6.59301">
        <ele>1785.31</ele>
        <time>2011-06-12T10:28:47Z</time>
      </trkpt>
      <trkpt lat="45.63394" lon="6.59304">
        <ele>1788.19</ele>
        <time>2011-06-12T10:29:05Z</time>
      </trkpt>
      <trkpt lat="45.63367" lon="6.59304">
        <ele>1790.59</ele>
        <time>2011-06-12T10:29:25Z</time>
      </trkpt>
      <trkpt lat="45.63344" lon="6.59308">
        <ele>1793</ele>
        <time>2011-06-12T10:29:42Z</time>
      </trkpt>
      <trkpt lat="45.63322" lon="6.59329">
        <ele>1795.4</ele>
        <time>2011-06-12T10:30:00Z</time>
      </trkpt>
      <trkpt lat="45.63309" lon="6.59353">
        <ele>1796.84</ele>
        <time>2011-06-12T10:30:15Z</time>
      </trkpt>
      <trkpt lat="45.63292" lon="6.59385">
        <ele>1799.24</ele>
        <time>2011-06-12T10:30:34Z</time>
      </trkpt>
      <trkpt lat="45.63277" lon="6.59413">
        <ele>1801.65</ele>
        <time>2011-06-12T10:30:51Z</time>
      </trkpt>
      <trkpt lat="45.63276" lon="6.59415">
        <ele>1801.65</ele>
        <time>2011-06-12T10:30:52Z</time>
      </trkpt>
      <trkpt lat="45.63276" lon="6.59416">
        <ele>1801.65</ele>
        <time>2011-06-12T10:30:53Z</time>
      </trkpt>
      <trkpt lat="45.63274" lon="6.59418">
        <ele>1802.13</ele>
        <time>2011-06-12T10:30:54Z</time>
      </trkpt>
      <trkpt lat="45.6326" lon="6.59443">
        <ele>1805.01</ele>
        <time>2011-06-12T10:31:10Z</time>
      </trkpt>
      <trkpt lat="45.63257" lon="6.5945">
        <ele>1805.49</ele>
        <time>2011-06-12T10:31:14Z</time>
      </trkpt>
      <trkpt lat="45.63256" lon="6.59452">
        <ele>1805.97</ele>
        <time>2011-06-12T10:31:15Z</time>
      </trkpt>
      <trkpt lat="45.63255" lon="6.59469">
        <ele>1806.45</ele>
        <time>2011-06-12T10:31:23Z</time>
      </trkpt>
      <trkpt lat="45.63255" lon="6.59471">
        <ele>1806.94</ele>
        <time>2011-06-12T10:31:24Z</time>
      </trkpt>
      <trkpt lat="45.63257" lon="6.59472">
        <ele>1807.42</ele>
        <time>2011-06-12T10:31:25Z</time>
      </trkpt>
      <trkpt lat="45.63258" lon="6.59473">
        <ele>1807.42</ele>
        <time>2011-06-12T10:31:26Z</time>
      </trkpt>
      <trkpt lat="45.63259" lon="6.59474">
        <ele>1807.42</ele>
        <time>2011-06-12T10:31:27Z</time>
      </trkpt>
      <trkpt lat="45.63261" lon="6.59475">
        <ele>1807.42</ele>
        <time>2011-06-12T10:31:28Z</time>
      </trkpt>
      <trkpt lat="45.63262" lon="6.59475">
        <ele>1807.9</ele>
        <time>2011-06-12T10:31:29Z</time>
      </trkpt>
      <trkpt lat="45.63264" lon="6.59475">
        <ele>1807.9</ele>
        <time>2011-06-12T10:31:30Z</time>
      </trkpt>
      <trkpt lat="45.63265" lon="6.59474">
        <ele>1808.38</ele>
        <time>2011-06-12T10:31:31Z</time>
      </trkpt>
      <trkpt lat="45.63266" lon="6.59473">
        <ele>1808.38</ele>
        <time>2011-06-12T10:31:32Z</time>
      </trkpt>
      <trkpt lat="45.63268" lon="6.59472">
        <ele>1808.38</ele>
        <time>2011-06-12T10:31:33Z</time>
      </trkpt>
      <trkpt lat="45.63269" lon="6.59472">
        <ele>1808.38</ele>
        <time>2011-06-12T10:31:34Z</time>
      </trkpt>
      <trkpt lat="45.63271" lon="6.59471">
        <ele>1808.86</ele>
        <time>2011-06-12T10:31:35Z</time>
      </trkpt>
      <trkpt lat="45.63291" lon="6.59443">
        <ele>1811.26</ele>
        <time>2011-06-12T10:31:54Z</time>
      </trkpt>
      <trkpt lat="45.63302" lon="6.59433">
        <ele>1811.26</ele>
        <time>2011-06-12T10:32:02Z</time>
      </trkpt>
      <trkpt lat="45.63304" lon="6.59446">
        <ele>1812.7</ele>
        <time>2011-06-12T10:32:09Z</time>
      </trkpt>
      <trkpt lat="45.63289" lon="6.59467">
        <ele>1814.15</ele>
        <time>2011-06-12T10:32:24Z</time>
      </trkpt>
      <trkpt lat="45.63277" lon="6.59504">
        <ele>1817.03</ele>
        <time>2011-06-12T10:32:43Z</time>
      </trkpt>
      <trkpt lat="45.6326" lon="6.59533">
        <ele>1818.95</ele>
        <time>2011-06-12T10:33:01Z</time>
      </trkpt>
      <trkpt lat="45.6324" lon="6.59561">
        <ele>1821.84</ele>
        <time>2011-06-12T10:33:20Z</time>
      </trkpt>
      <trkpt lat="45.63227" lon="6.596">
        <ele>1823.76</ele>
        <time>2011-06-12T10:33:39Z</time>
      </trkpt>
      <trkpt lat="45.63211" lon="6.59624">
        <ele>1826.16</ele>
        <time>2011-06-12T10:33:55Z</time>
      </trkpt>
      <trkpt lat="45.63194" lon="6.5964">
        <ele>1827.6</ele>
        <time>2011-06-12T10:34:08Z</time>
      </trkpt>
      <trkpt lat="45.63192" lon="6.5965">
        <ele>1828.08</ele>
        <time>2011-06-12T10:34:21Z</time>
      </trkpt>
      <trkpt lat="45.63192" lon="6.5965">
        <ele>1828.08</ele>
        <time>2011-06-12T10:34:45Z</time>
      </trkpt>
      <trkpt lat="45.63192" lon="6.5965">
        <ele>1827.12</ele>
        <time>2011-06-12T10:34:59Z</time>
      </trkpt>
      <trkpt lat="45.63192" lon="6.5965">
        <ele>1828.08</ele>
        <time>2011-06-12T10:35:34Z</time>
      </trkpt>
      <trkpt lat="45.63192" lon="6.5965">
        <ele>1827.6</ele>
        <time>2011-06-12T10:36:07Z</time>
      </trkpt>
      <trkpt lat="45.63192" lon="6.5965">
        <ele>1829.05</ele>
        <time>2011-06-12T10:36:36Z</time>
      </trkpt>
      <trkpt lat="45.63192" lon="6.5965">
        <ele>1828.56</ele>
        <time>2011-06-12T10:37:04Z</time>
      </trkpt>
      <trkpt lat="45.63192" lon="6.5965">
        <ele>1828.56</ele>
        <time>2011-06-12T10:37:37Z</time>
      </trkpt>
      <trkpt lat="45.63192" lon="6.5965">
        <ele>1828.56</ele>
        <time>2011-06-12T10:38:15Z</time>
      </trkpt>
      <trkpt lat="45.63192" lon="6.5965">
        <ele>1828.56</ele>
        <time>2011-06-12T10:38:39Z</time>
      </trkpt>
      <trkpt lat="45.63193" lon="6.59654">
        <ele>1828.56</ele>
        <time>2011-06-12T10:39:13Z</time>
      </trkpt>
      <trkpt lat="45.63198" lon="6.59658">
        <ele>1828.56</ele>
        <time>2011-06-12T10:39:19Z</time>
      </trkpt>
      <trkpt lat="45.63215" lon="6.59643">
        <ele>1830.01</ele>
        <time>2011-06-12T10:39:34Z</time>
      </trkpt>
      <trkpt lat="45.63232" lon="6.59629">
        <ele>1831.45</ele>
        <time>2011-06-12T10:39:49Z</time>
      </trkpt>
      <trkpt lat="45.63252" lon="6.59611">
        <ele>1833.37</ele>
        <time>2011-06-12T10:40:08Z</time>
      </trkpt>
      <trkpt lat="45.63255" lon="6.59608">
        <ele>1833.85</ele>
        <time>2011-06-12T10:40:11Z</time>
      </trkpt>
      <trkpt lat="45.63264" lon="6.59603">
        <ele>1834.81</ele>
        <time>2011-06-12T10:40:18Z</time>
      </trkpt>
      <trkpt lat="45.63273" lon="6.59596">
        <ele>1835.29</ele>
        <time>2011-06-12T10:40:25Z</time>
      </trkpt>
      <trkpt lat="45.63292" lon="6.59583">
        <ele>1837.22</ele>
        <time>2011-06-12T10:40:41Z</time>
      </trkpt>
      <trkpt lat="45.63313" lon="6.5957">
        <ele>1838.66</ele>
        <time>2011-06-12T10:40:58Z</time>
      </trkpt>
      <trkpt lat="45.63317" lon="6.59567">
        <ele>1839.14</ele>
        <time>2011-06-12T10:41:02Z</time>
      </trkpt>
      <trkpt lat="45.63323" lon="6.59563">
        <ele>1839.14</ele>
        <time>2011-06-12T10:41:07Z</time>
      </trkpt>
      <trkpt lat="45.63348" lon="6.59545">
        <ele>1841.06</ele>
        <time>2011-06-12T10:41:27Z</time>
      </trkpt>
      <trkpt lat="45.63366" lon="6.59531">
        <ele>1843.47</ele>
        <time>2011-06-12T10:41:42Z</time>
      </trkpt>
      <trkpt lat="45.63368" lon="6.5953">
        <ele>1843.47</ele>
        <time>2011-06-12T10:41:44Z</time>
      </trkpt>
      <trkpt lat="45.63391" lon="6.5951">
        <ele>1845.87</ele>
        <time>2011-06-12T10:42:04Z</time>
      </trkpt>
      <trkpt lat="45.6341" lon="6.59495">
        <ele>1847.79</ele>
        <time>2011-06-12T10:42:20Z</time>
      </trkpt>
      <trkpt lat="45.63437" lon="6.59489">
        <ele>1849.71</ele>
        <time>2011-06-12T10:42:39Z</time>
      </trkpt>
      <trkpt lat="45.6346" lon="6.59486">
        <ele>1850.68</ele>
        <time>2011-06-12T10:42:55Z</time>
      </trkpt>
      <trkpt lat="45.63473" lon="6.59481">
        <ele>1852.6</ele>
        <time>2011-06-12T10:43:05Z</time>
      </trkpt>
      <trkpt lat="45.63495" lon="6.59483">
        <ele>1854.52</ele>
        <time>2011-06-12T10:43:22Z</time>
      </trkpt>
      <trkpt lat="45.635" lon="6.59503">
        <ele>1855.48</ele>
        <time>2011-06-12T10:43:36Z</time>
      </trkpt>
      <trkpt lat="45.63496" lon="6.59509">
        <ele>1855.96</ele>
        <time>2011-06-12T10:43:41Z</time>
      </trkpt>
      <trkpt lat="45.63478" lon="6.59518">
        <ele>1857.89</ele>
        <time>2011-06-12T10:43:56Z</time>
      </trkpt>
      <trkpt lat="45.63474" lon="6.5952">
        <ele>1858.37</ele>
        <time>2011-06-12T10:44:00Z</time>
      </trkpt>
      <trkpt lat="45.63466" lon="6.59526">
        <ele>1859.33</ele>
        <time>2011-06-12T10:44:08Z</time>
      </trkpt>
      <trkpt lat="45.6346" lon="6.5953">
        <ele>1860.29</ele>
        <time>2011-06-12T10:44:14Z</time>
      </trkpt>
      <trkpt lat="45.63454" lon="6.59534">
        <ele>1860.77</ele>
        <time>2011-06-12T10:44:19Z</time>
      </trkpt>
      <trkpt lat="45.63446" lon="6.59539">
        <ele>1861.73</ele>
        <time>2011-06-12T10:44:26Z</time>
      </trkpt>
      <trkpt lat="45.63428" lon="6.59554">
        <ele>1863.17</ele>
        <time>2011-06-12T10:44:43Z</time>
      </trkpt>
      <trkpt lat="45.63412" lon="6.59575">
        <ele>1865.58</ele>
        <time>2011-06-12T10:45:00Z</time>
      </trkpt>
      <trkpt lat="45.63403" lon="6.59582">
        <ele>1866.06</ele>
        <time>2011-06-12T10:45:09Z</time>
      </trkpt>
      <trkpt lat="45.63386" lon="6.59601">
        <ele>1868.94</ele>
        <time>2011-06-12T10:45:26Z</time>
      </trkpt>
      <trkpt lat="45.63374" lon="6.59629">
        <ele>1870.38</ele>
        <time>2011-06-12T10:45:44Z</time>
      </trkpt>
      <trkpt lat="45.63369" lon="6.59638">
        <ele>1871.34</ele>
        <time>2011-06-12T10:45:50Z</time>
      </trkpt>
      <trkpt lat="45.63364" lon="6.5965">
        <ele>1872.3</ele>
        <time>2011-06-12T10:45:59Z</time>
      </trkpt>
      <trkpt lat="45.63362" lon="6.59656">
        <ele>1873.27</ele>
        <time>2011-06-12T10:46:03Z</time>
      </trkpt>
      <trkpt lat="45.63356" lon="6.59681">
        <ele>1875.19</ele>
        <time>2011-06-12T10:46:19Z</time>
      </trkpt>
      <trkpt lat="45.63349" lon="6.59706">
        <ele>1876.63</ele>
        <time>2011-06-12T10:46:35Z</time>
      </trkpt>
      <trkpt lat="45.63347" lon="6.59729">
        <ele>1878.07</ele>
        <time>2011-06-12T10:46:50Z</time>
      </trkpt>
      <trkpt lat="45.63353" lon="6.59731">
        <ele>1878.07</ele>
        <time>2011-06-12T10:46:55Z</time>
      </trkpt>
      <trkpt lat="45.63357" lon="6.59729">
        <ele>1879.03</ele>
        <time>2011-06-12T10:46:58Z</time>
      </trkpt>
      <trkpt lat="45.63363" lon="6.59722">
        <ele>1879.03</ele>
        <time>2011-06-12T10:47:04Z</time>
      </trkpt>
      <trkpt lat="45.63372" lon="6.59701">
        <ele>1880.48</ele>
        <time>2011-06-12T10:47:17Z</time>
      </trkpt>
      <trkpt lat="45.63373" lon="6.59694">
        <ele>1880.48</ele>
        <time>2011-06-12T10:47:21Z</time>
      </trkpt>
      <trkpt lat="45.63378" lon="6.59685">
        <ele>1880.48</ele>
        <time>2011-06-12T10:47:27Z</time>
      </trkpt>
      <trkpt lat="45.63394" lon="6.59676">
        <ele>1882.88</ele>
        <time>2011-06-12T10:47:41Z</time>
      </trkpt>
      <trkpt lat="45.63414" lon="6.59664">
        <ele>1884.32</ele>
        <time>2011-06-12T10:47:58Z</time>
      </trkpt>
      <trkpt lat="45.63422" lon="6.59659">
        <ele>1885.28</ele>
        <time>2011-06-12T10:48:05Z</time>
      </trkpt>
      <trkpt lat="45.63444" lon="6.5965">
        <ele>1887.21</ele>
        <time>2011-06-12T10:48:22Z</time>
      </trkpt>
      <trkpt lat="45.63464" lon="6.59647">
        <ele>1889.13</ele>
        <time>2011-06-12T10:48:38Z</time>
      </trkpt>
      <trkpt lat="45.63479" lon="6.59648">
        <ele>1890.57</ele>
        <time>2011-06-12T10:48:50Z</time>
      </trkpt>
      <trkpt lat="45.63489" lon="6.5965">
        <ele>1891.53</ele>
        <time>2011-06-12T10:48:58Z</time>
      </trkpt>
      <trkpt lat="45.63511" lon="6.59656">
        <ele>1892.97</ele>
        <time>2011-06-12T10:49:16Z</time>
      </trkpt>
      <trkpt lat="45.63528" lon="6.59654">
        <ele>1894.9</ele>
        <time>2011-06-12T10:49:29Z</time>
      </trkpt>
      <trkpt lat="45.63535" lon="6.5965">
        <ele>1896.34</ele>
        <time>2011-06-12T10:49:35Z</time>
      </trkpt>
      <trkpt lat="45.63551" lon="6.59627">
        <ele>1897.78</ele>
        <time>2011-06-12T10:49:52Z</time>
      </trkpt>
      <trkpt lat="45.63562" lon="6.59619">
        <ele>1899.22</ele>
        <time>2011-06-12T10:50:03Z</time>
      </trkpt>
      <trkpt lat="45.63586" lon="6.59612">
        <ele>1900.18</ele>
        <time>2011-06-12T10:50:21Z</time>
      </trkpt>
      <trkpt lat="45.63604" lon="6.59607">
        <ele>1902.11</ele>
        <time>2011-06-12T10:50:35Z</time>
      </trkpt>
      <trkpt lat="45.63627" lon="6.5961">
        <ele>1903.55</ele>
        <time>2011-06-12T10:50:53Z</time>
      </trkpt>
      <trkpt lat="45.63648" lon="6.59627">
        <ele>1904.99</ele>
        <time>2011-06-12T10:51:12Z</time>
      </trkpt>
      <trkpt lat="45.63663" lon="6.5964">
        <ele>1906.43</ele>
        <time>2011-06-12T10:51:26Z</time>
      </trkpt>
      <trkpt lat="45.63683" lon="6.59643">
        <ele>1908.35</ele>
        <time>2011-06-12T10:51:42Z</time>
      </trkpt>
      <trkpt lat="45.63701" lon="6.59649">
        <ele>1909.32</ele>
        <time>2011-06-12T10:51:56Z</time>
      </trkpt>
      <trkpt lat="45.63722" lon="6.59654">
        <ele>1911.72</ele>
        <time>2011-06-12T10:52:15Z</time>
      </trkpt>
      <trkpt lat="45.63743" lon="6.59654">
        <ele>1914.12</ele>
        <time>2011-06-12T10:52:32Z</time>
      </trkpt>
      <trkpt lat="45.63759" lon="6.59656">
        <ele>1915.08</ele>
        <time>2011-06-12T10:52:45Z</time>
      </trkpt>
      <trkpt lat="45.63763" lon="6.59662">
        <ele>1915.56</ele>
        <time>2011-06-12T10:52:50Z</time>
      </trkpt>
      <trkpt lat="45.6376" lon="6.59676">
        <ele>1916.53</ele>
        <time>2011-06-12T10:53:02Z</time>
      </trkpt>
      <trkpt lat="45.6376" lon="6.59676">
        <ele>1916.53</ele>
        <time>2011-06-12T10:53:32Z</time>
      </trkpt>
      <trkpt lat="45.6376" lon="6.59676">
        <ele>1916.53</ele>
        <time>2011-06-12T10:54:06Z</time>
      </trkpt>
      <trkpt lat="45.63751" lon="6.59681">
        <ele>1917.49</ele>
        <time>2011-06-12T10:54:27Z</time>
      </trkpt>
      <trkpt lat="45.63742" lon="6.59684">
        <ele>1917.97</ele>
        <time>2011-06-12T10:54:33Z</time>
      </trkpt>
      <trkpt lat="45.63722" lon="6.59695">
        <ele>1919.41</ele>
        <time>2011-06-12T10:54:49Z</time>
      </trkpt>
      <trkpt lat="45.63701" lon="6.59697">
        <ele>1921.33</ele>
        <time>2011-06-12T10:55:05Z</time>
      </trkpt>
      <trkpt lat="45.63681" lon="6.59691">
        <ele>1922.77</ele>
        <time>2011-06-12T10:55:20Z</time>
      </trkpt>
      <trkpt lat="45.63665" lon="6.59698">
        <ele>1923.74</ele>
        <time>2011-06-12T10:55:32Z</time>
      </trkpt>
      <trkpt lat="45.63657" lon="6.59702">
        <ele>1924.7</ele>
        <time>2011-06-12T10:55:38Z</time>
      </trkpt>
      <trkpt lat="45.63635" lon="6.59712">
        <ele>1926.14</ele>
        <time>2011-06-12T10:55:56Z</time>
      </trkpt>
      <trkpt lat="45.63611" lon="6.59722">
        <ele>1929.02</ele>
        <time>2011-06-12T10:56:16Z</time>
      </trkpt>
      <trkpt lat="45.63586" lon="6.59726">
        <ele>1931.43</ele>
        <time>2011-06-12T10:56:35Z</time>
      </trkpt>
      <trkpt lat="45.63578" lon="6.59732">
        <ele>1931.91</ele>
        <time>2011-06-12T10:56:42Z</time>
      </trkpt>
      <trkpt lat="45.63573" lon="6.59741">
        <ele>1933.35</ele>
        <time>2011-06-12T10:56:48Z</time>
      </trkpt>
      <trkpt lat="45.63581" lon="6.59762">
        <ele>1934.31</ele>
        <time>2011-06-12T10:57:01Z</time>
      </trkpt>
      <trkpt lat="45.63603" lon="6.59772">
        <ele>1935.75</ele>
        <time>2011-06-12T10:57:17Z</time>
      </trkpt>
      <trkpt lat="45.63623" lon="6.59776">
        <ele>1937.19</ele>
        <time>2011-06-12T10:57:31Z</time>
      </trkpt>
      <trkpt lat="45.63633" lon="6.59772">
        <ele>1938.16</ele>
        <time>2011-06-12T10:57:39Z</time>
      </trkpt>
      <trkpt lat="45.63643" lon="6.59766">
        <ele>1939.6</ele>
        <time>2011-06-12T10:57:47Z</time>
      </trkpt>
      <trkpt lat="45.63653" lon="6.59764">
        <ele>1939.6</ele>
        <time>2011-06-12T10:57:55Z</time>
      </trkpt>
      <trkpt lat="45.63674" lon="6.59765">
        <ele>1942</ele>
        <time>2011-06-12T10:58:12Z</time>
      </trkpt>
      <trkpt lat="45.63684" lon="6.59771">
        <ele>1942.96</ele>
        <time>2011-06-12T10:58:21Z</time>
      </trkpt>
      <trkpt lat="45.63688" lon="6.59775">
        <ele>1943.92</ele>
        <time>2011-06-12T10:58:25Z</time>
      </trkpt>
      <trkpt lat="45.63696" lon="6.59803">
        <ele>1945.36</ele>
        <time>2011-06-12T10:58:43Z</time>
      </trkpt>
      <trkpt lat="45.63701" lon="6.59813">
        <ele>1946.33</ele>
        <time>2011-06-12T10:58:50Z</time>
      </trkpt>
      <trkpt lat="45.63712" lon="6.59824">
        <ele>1947.77</ele>
        <time>2011-06-12T10:59:02Z</time>
      </trkpt>
      <trkpt lat="45.63732" lon="6.59833">
        <ele>1949.69</ele>
        <time>2011-06-12T10:59:19Z</time>
      </trkpt>
      <trkpt lat="45.63743" lon="6.59836">
        <ele>1950.65</ele>
        <time>2011-06-12T10:59:28Z</time>
      </trkpt>
      <trkpt lat="45.6375" lon="6.59837">
        <ele>1951.13</ele>
        <time>2011-06-12T10:59:34Z</time>
      </trkpt>
      <trkpt lat="45.63757" lon="6.59839">
        <ele>1951.61</ele>
        <time>2011-06-12T10:59:41Z</time>
      </trkpt>
      <trkpt lat="45.63765" lon="6.59845">
        <ele>1952.57</ele>
        <time>2011-06-12T10:59:48Z</time>
      </trkpt>
      <trkpt lat="45.6378" lon="6.59866">
        <ele>1954.98</ele>
        <time>2011-06-12T11:00:06Z</time>
      </trkpt>
      <trkpt lat="45.63783" lon="6.5987">
        <ele>1954.98</ele>
        <time>2011-06-12T11:00:10Z</time>
      </trkpt>
      <trkpt lat="45.63803" lon="6.59884">
        <ele>1957.86</ele>
        <time>2011-06-12T11:00:28Z</time>
      </trkpt>
      <trkpt lat="45.6382" lon="6.59891">
        <ele>1958.34</ele>
        <time>2011-06-12T11:00:43Z</time>
      </trkpt>
      <trkpt lat="45.63829" lon="6.59894">
        <ele>1959.3</ele>
        <time>2011-06-12T11:00:50Z</time>
      </trkpt>
      <trkpt lat="45.63833" lon="6.59907">
        <ele>1960.27</ele>
        <time>2011-06-12T11:00:58Z</time>
      </trkpt>
      <trkpt lat="45.63818" lon="6.59919">
        <ele>1960.75</ele>
        <time>2011-06-12T11:01:13Z</time>
      </trkpt>
      <trkpt lat="45.63796" lon="6.59925">
        <ele>1963.63</ele>
        <time>2011-06-12T11:01:31Z</time>
      </trkpt>
      <trkpt lat="45.63775" lon="6.59928">
        <ele>1964.59</ele>
        <time>2011-06-12T11:01:48Z</time>
      </trkpt>
      <trkpt lat="45.63767" lon="6.59931">
        <ele>1966.03</ele>
        <time>2011-06-12T11:01:55Z</time>
      </trkpt>
      <trkpt lat="45.63751" lon="6.5993">
        <ele>1967.48</ele>
        <time>2011-06-12T11:02:09Z</time>
      </trkpt>
      <trkpt lat="45.63746" lon="6.5993">
        <ele>1967.96</ele>
        <time>2011-06-12T11:02:14Z</time>
      </trkpt>
      <trkpt lat="45.6373" lon="6.59931">
        <ele>1970.36</ele>
        <time>2011-06-12T11:02:28Z</time>
      </trkpt>
      <trkpt lat="45.6372" lon="6.59934">
        <ele>1971.32</ele>
        <time>2011-06-12T11:02:37Z</time>
      </trkpt>
      <trkpt lat="45.63717" lon="6.59934">
        <ele>1971.8</ele>
        <time>2011-06-12T11:02:40Z</time>
      </trkpt>
      <trkpt lat="45.63712" lon="6.59933">
        <ele>1972.28</ele>
        <time>2011-06-12T11:02:44Z</time>
      </trkpt>
      <trkpt lat="45.63701" lon="6.59932">
        <ele>1973.24</ele>
        <time>2011-06-12T11:02:54Z</time>
      </trkpt>
      <trkpt lat="45.63696" lon="6.59932">
        <ele>1973.72</ele>
        <time>2011-06-12T11:02:59Z</time>
      </trkpt>
      <trkpt lat="45.63681" lon="6.59932">
        <ele>1975.65</ele>
        <time>2011-06-12T11:03:12Z</time>
      </trkpt>
      <trkpt lat="45.63674" lon="6.59936">
        <ele>1976.13</ele>
        <time>2011-06-12T11:03:27Z</time>
      </trkpt>
      <trkpt lat="45.63674" lon="6.59936">
        <ele>1976.61</ele>
        <time>2011-06-12T11:03:51Z</time>
      </trkpt>
      <trkpt lat="45.63674" lon="6.59936">
        <ele>1976.13</ele>
        <time>2011-06-12T11:04:23Z</time>
      </trkpt>
      <trkpt lat="45.63669" lon="6.59937">
        <ele>1977.57</ele>
        <time>2011-06-12T11:04:42Z</time>
      </trkpt>
      <trkpt lat="45.63657" lon="6.59948">
        <ele>1978.05</ele>
        <time>2011-06-12T11:04:54Z</time>
      </trkpt>
      <trkpt lat="45.63641" lon="6.59963">
        <ele>1979.49</ele>
        <time>2011-06-12T11:05:09Z</time>
      </trkpt>
      <trkpt lat="45.63626" lon="6.5998">
        <ele>1982.38</ele>
        <time>2011-06-12T11:05:25Z</time>
      </trkpt>
      <trkpt lat="45.6361" lon="6.59995">
        <ele>1983.82</ele>
        <time>2011-06-12T11:05:40Z</time>
      </trkpt>
      <trkpt lat="45.63604" lon="6.60001">
        <ele>1985.26</ele>
        <time>2011-06-12T11:05:46Z</time>
      </trkpt>
      <trkpt lat="45.63591" lon="6.60019">
        <ele>1986.7</ele>
        <time>2011-06-12T11:06:01Z</time>
      </trkpt>
      <trkpt lat="45.63578" lon="6.60044">
        <ele>1988.14</ele>
        <time>2011-06-12T11:06:19Z</time>
      </trkpt>
      <trkpt lat="45.63565" lon="6.60064">
        <ele>1991.51</ele>
        <time>2011-06-12T11:06:35Z</time>
      </trkpt>
      <trkpt lat="45.63564" lon="6.60067">
        <ele>1991.51</ele>
        <time>2011-06-12T11:06:37Z</time>
      </trkpt>
      <trkpt lat="45.63562" lon="6.60075">
        <ele>1991.51</ele>
        <time>2011-06-12T11:06:51Z</time>
      </trkpt>
      <trkpt lat="45.63562" lon="6.60074">
        <ele>1991.99</ele>
        <time>2011-06-12T11:07:21Z</time>
      </trkpt>
      <trkpt lat="45.63562" lon="6.60075">
        <ele>1991.51</ele>
        <time>2011-06-12T11:08:05Z</time>
      </trkpt>
      <trkpt lat="45.63562" lon="6.60076">
        <ele>1991.99</ele>
        <time>2011-06-12T11:08:22Z</time>
      </trkpt>
      <trkpt lat="45.63563" lon="6.6008">
        <ele>1991.99</ele>
        <time>2011-06-12T11:08:48Z</time>
      </trkpt>
      <trkpt lat="45.63565" lon="6.6009">
        <ele>1992.95</ele>
        <time>2011-06-12T11:08:54Z</time>
      </trkpt>
      <trkpt lat="45.63567" lon="6.60108">
        <ele>1993.91</ele>
        <time>2011-06-12T11:09:04Z</time>
      </trkpt>
      <trkpt lat="45.63565" lon="6.60137">
        <ele>1995.35</ele>
        <time>2011-06-12T11:09:20Z</time>
      </trkpt>
      <trkpt lat="45.63555" lon="6.6016">
        <ele>1996.8</ele>
        <time>2011-06-12T11:09:35Z</time>
      </trkpt>
      <trkpt lat="45.6354" lon="6.60181">
        <ele>2000.16</ele>
        <time>2011-06-12T11:09:52Z</time>
      </trkpt>
      <trkpt lat="45.63526" lon="6.60194">
        <ele>2001.12</ele>
        <time>2011-06-12T11:10:06Z</time>
      </trkpt>
      <trkpt lat="45.63514" lon="6.60219">
        <ele>2003.52</ele>
        <time>2011-06-12T11:10:24Z</time>
      </trkpt>
      <trkpt lat="45.63505" lon="6.60248">
        <ele>2004.97</ele>
        <time>2011-06-12T11:10:41Z</time>
      </trkpt>
      <trkpt lat="45.635" lon="6.60267">
        <ele>2006.89</ele>
        <time>2011-06-12T11:10:53Z</time>
      </trkpt>
      <trkpt lat="45.63499" lon="6.60294">
        <ele>2008.81</ele>
        <time>2011-06-12T11:11:08Z</time>
      </trkpt>
      <trkpt lat="45.63501" lon="6.60323">
        <ele>2010.73</ele>
        <time>2011-06-12T11:11:25Z</time>
      </trkpt>
      <trkpt lat="45.635" lon="6.60347">
        <ele>2012.18</ele>
        <time>2011-06-12T11:11:40Z</time>
      </trkpt>
      <trkpt lat="45.63502" lon="6.60359">
        <ele>2013.14</ele>
        <time>2011-06-12T11:11:47Z</time>
      </trkpt>
      <trkpt lat="45.63514" lon="6.60364">
        <ele>2014.1</ele>
        <time>2011-06-12T11:11:57Z</time>
      </trkpt>
      <trkpt lat="45.63516" lon="6.60358">
        <ele>2013.62</ele>
        <time>2011-06-12T11:12:01Z</time>
      </trkpt>
      <trkpt lat="45.63518" lon="6.60355">
        <ele>2015.06</ele>
        <time>2011-06-12T11:12:04Z</time>
      </trkpt>
      <trkpt lat="45.63519" lon="6.60345">
        <ele>2015.54</ele>
        <time>2011-06-12T11:12:10Z</time>
      </trkpt>
      <trkpt lat="45.63522" lon="6.60337">
        <ele>2016.02</ele>
        <time>2011-06-12T11:12:16Z</time>
      </trkpt>
      <trkpt lat="45.63538" lon="6.60335">
        <ele>2017.94</ele>
        <time>2011-06-12T11:12:31Z</time>
      </trkpt>
      <trkpt lat="45.63548" lon="6.60347">
        <ele>2018.43</ele>
        <time>2011-06-12T11:12:41Z</time>
      </trkpt>
      <trkpt lat="45.63562" lon="6.60368">
        <ele>2019.87</ele>
        <time>2011-06-12T11:12:58Z</time>
      </trkpt>
      <trkpt lat="45.63577" lon="6.6038">
        <ele>2021.79</ele>
        <time>2011-06-12T11:13:14Z</time>
      </trkpt>
      <trkpt lat="45.63579" lon="6.60381">
        <ele>2021.79</ele>
        <time>2011-06-12T11:13:16Z</time>
      </trkpt>
      <trkpt lat="45.63584" lon="6.60383">
        <ele>2021.79</ele>
        <time>2011-06-12T11:13:21Z</time>
      </trkpt>
      <trkpt lat="45.63588" lon="6.60384">
        <ele>2022.75</ele>
        <time>2011-06-12T11:13:25Z</time>
      </trkpt>
      <trkpt lat="45.63597" lon="6.60385">
        <ele>2023.71</ele>
        <time>2011-06-12T11:13:33Z</time>
      </trkpt>
      <trkpt lat="45.63606" lon="6.60383">
        <ele>2024.67</ele>
        <time>2011-06-12T11:13:42Z</time>
      </trkpt>
      <trkpt lat="45.63625" lon="6.60369">
        <ele>2025.64</ele>
        <time>2011-06-12T11:14:00Z</time>
      </trkpt>
      <trkpt lat="45.63638" lon="6.60354">
        <ele>2027.08</ele>
        <time>2011-06-12T11:14:16Z</time>
      </trkpt>
      <trkpt lat="45.63651" lon="6.60335">
        <ele>2028.52</ele>
        <time>2011-06-12T11:14:32Z</time>
      </trkpt>
      <trkpt lat="45.63662" lon="6.60315">
        <ele>2029.48</ele>
        <time>2011-06-12T11:14:47Z</time>
      </trkpt>
      <trkpt lat="45.6367" lon="6.60292">
        <ele>2030.92</ele>
        <time>2011-06-12T11:15:02Z</time>
      </trkpt>
      <trkpt lat="45.63672" lon="6.60281">
        <ele>2031.88</ele>
        <time>2011-06-12T11:15:09Z</time>
      </trkpt>
      <trkpt lat="45.63673" lon="6.60278">
        <ele>2031.4</ele>
        <time>2011-06-12T11:15:11Z</time>
      </trkpt>
      <trkpt lat="45.63674" lon="6.60268">
        <ele>2031.88</ele>
        <time>2011-06-12T11:15:17Z</time>
      </trkpt>
      <trkpt lat="45.6368" lon="6.60247">
        <ele>2034.29</ele>
        <time>2011-06-12T11:15:31Z</time>
      </trkpt>
      <trkpt lat="45.63678" lon="6.60243">
        <ele>2032.84</ele>
        <time>2011-06-12T11:15:48Z</time>
      </trkpt>
      <trkpt lat="45.63679" lon="6.60244">
        <ele>2033.81</ele>
        <time>2011-06-12T11:16:27Z</time>
      </trkpt>
      <trkpt lat="45.63679" lon="6.60244">
        <ele>2033.33</ele>
        <time>2011-06-12T11:16:56Z</time>
      </trkpt>
      <trkpt lat="45.6368" lon="6.60243">
        <ele>2033.33</ele>
        <time>2011-06-12T11:17:21Z</time>
      </trkpt>
      <trkpt lat="45.63679" lon="6.60243">
        <ele>2033.81</ele>
        <time>2011-06-12T11:17:50Z</time>
      </trkpt>
      <trkpt lat="45.63679" lon="6.60243">
        <ele>2034.29</ele>
        <time>2011-06-12T11:18:13Z</time>
      </trkpt>
      <trkpt lat="45.63679" lon="6.60243">
        <ele>2034.29</ele>
        <time>2011-06-12T11:18:55Z</time>
      </trkpt>
      <trkpt lat="45.6368" lon="6.6024">
        <ele>2033.81</ele>
        <time>2011-06-12T11:19:01Z</time>
      </trkpt>
      <trkpt lat="45.63682" lon="6.60233">
        <ele>2034.77</ele>
        <time>2011-06-12T11:19:05Z</time>
      </trkpt>
      <trkpt lat="45.63686" lon="6.60215">
        <ele>2034.77</ele>
        <time>2011-06-12T11:19:14Z</time>
      </trkpt>
      <trkpt lat="45.63696" lon="6.60186">
        <ele>2037.17</ele>
        <time>2011-06-12T11:19:31Z</time>
      </trkpt>
      <trkpt lat="45.63702" lon="6.60177">
        <ele>2038.13</ele>
        <time>2011-06-12T11:19:37Z</time>
      </trkpt>
      <trkpt lat="45.63707" lon="6.60174">
        <ele>2039.09</ele>
        <time>2011-06-12T11:19:41Z</time>
      </trkpt>
      <trkpt lat="45.63716" lon="6.60174">
        <ele>2040.05</ele>
        <time>2011-06-12T11:19:48Z</time>
      </trkpt>
      <trkpt lat="45.63731" lon="6.60195">
        <ele>2041.5</ele>
        <time>2011-06-12T11:20:06Z</time>
      </trkpt>
      <trkpt lat="45.63732" lon="6.60205">
        <ele>2041.98</ele>
        <time>2011-06-12T11:20:12Z</time>
      </trkpt>
      <trkpt lat="45.63737" lon="6.60235">
        <ele>2042.94</ele>
        <time>2011-06-12T11:20:28Z</time>
      </trkpt>
      <trkpt lat="45.63744" lon="6.60268">
        <ele>2044.86</ele>
        <time>2011-06-12T11:20:47Z</time>
      </trkpt>
      <trkpt lat="45.63746" lon="6.60277">
        <ele>2045.34</ele>
        <time>2011-06-12T11:20:52Z</time>
      </trkpt>
      <trkpt lat="45.63748" lon="6.60307">
        <ele>2047.26</ele>
        <time>2011-06-12T11:21:08Z</time>
      </trkpt>
      <trkpt lat="45.63748" lon="6.60311">
        <ele>2047.26</ele>
        <time>2011-06-12T11:21:10Z</time>
      </trkpt>
      <trkpt lat="45.63748" lon="6.60316">
        <ele>2047.75</ele>
        <time>2011-06-12T11:21:13Z</time>
      </trkpt>
      <trkpt lat="45.63746" lon="6.60325">
        <ele>2048.23</ele>
        <time>2011-06-12T11:21:18Z</time>
      </trkpt>
      <trkpt lat="45.63747" lon="6.60342">
        <ele>2049.67</ele>
        <time>2011-06-12T11:21:28Z</time>
      </trkpt>
      <trkpt lat="45.63749" lon="6.60356">
        <ele>2049.67</ele>
        <time>2011-06-12T11:21:36Z</time>
      </trkpt>
      <trkpt lat="45.63744" lon="6.60389">
        <ele>2052.07</ele>
        <time>2011-06-12T11:21:55Z</time>
      </trkpt>
      <trkpt lat="45.63736" lon="6.60416">
        <ele>2053.03</ele>
        <time>2011-06-12T11:22:12Z</time>
      </trkpt>
      <trkpt lat="45.63733" lon="6.60445">
        <ele>2054.96</ele>
        <time>2011-06-12T11:22:29Z</time>
      </trkpt>
      <trkpt lat="45.63733" lon="6.60469">
        <ele>2056.4</ele>
        <time>2011-06-12T11:22:43Z</time>
      </trkpt>
      <trkpt lat="45.63733" lon="6.60499">
        <ele>2058.32</ele>
        <time>2011-06-12T11:23:00Z</time>
      </trkpt>
      <trkpt lat="45.63733" lon="6.60529">
        <ele>2060.24</ele>
        <time>2011-06-12T11:23:19Z</time>
      </trkpt>
      <trkpt lat="45.63732" lon="6.60532">
        <ele>2060.24</ele>
        <time>2011-06-12T11:23:21Z</time>
      </trkpt>
      <trkpt lat="45.6373" lon="6.60553">
        <ele>2061.2</ele>
        <time>2011-06-12T11:23:34Z</time>
      </trkpt>
      <trkpt lat="45.63729" lon="6.60561">
        <ele>2061.2</ele>
        <time>2011-06-12T11:23:39Z</time>
      </trkpt>
      <trkpt lat="45.63723" lon="6.60588">
        <ele>2062.65</ele>
        <time>2011-06-12T11:23:55Z</time>
      </trkpt>
      <trkpt lat="45.63723" lon="6.60589">
        <ele>2063.13</ele>
        <time>2011-06-12T11:24:10Z</time>
      </trkpt>
      <trkpt lat="45.63723" lon="6.60589">
        <ele>2063.13</ele>
        <time>2011-06-12T11:24:41Z</time>
      </trkpt>
      <trkpt lat="45.63723" lon="6.60589">
        <ele>2063.13</ele>
        <time>2011-06-12T11:25:10Z</time>
      </trkpt>
      <trkpt lat="45.63722" lon="6.60593">
        <ele>2063.61</ele>
        <time>2011-06-12T11:25:37Z</time>
      </trkpt>
      <trkpt lat="45.63717" lon="6.60603">
        <ele>2064.57</ele>
        <time>2011-06-12T11:25:44Z</time>
      </trkpt>
      <trkpt lat="45.63707" lon="6.60625">
        <ele>2065.53</ele>
        <time>2011-06-12T11:25:59Z</time>
      </trkpt>
      <trkpt lat="45.637" lon="6.60637">
        <ele>2066.01</ele>
        <time>2011-06-12T11:26:08Z</time>
      </trkpt>
      <trkpt lat="45.63695" lon="6.60641">
        <ele>2066.49</ele>
        <time>2011-06-12T11:26:13Z</time>
      </trkpt>
      <trkpt lat="45.63673" lon="6.60661">
        <ele>2067.93</ele>
        <time>2011-06-12T11:26:30Z</time>
      </trkpt>
      <trkpt lat="45.63655" lon="6.60672">
        <ele>2068.89</ele>
        <time>2011-06-12T11:26:45Z</time>
      </trkpt>
      <trkpt lat="45.63653" lon="6.60672">
        <ele>2068.89</ele>
        <time>2011-06-12T11:26:46Z</time>
      </trkpt>
      <trkpt lat="45.63644" lon="6.60671">
        <ele>2069.86</ele>
        <time>2011-06-12T11:26:53Z</time>
      </trkpt>
      <trkpt lat="45.63618" lon="6.60678">
        <ele>2071.3</ele>
        <time>2011-06-12T11:27:11Z</time>
      </trkpt>
      <trkpt lat="45.63593" lon="6.60687">
        <ele>2073.22</ele>
        <time>2011-06-12T11:27:29Z</time>
      </trkpt>
      <trkpt lat="45.63571" lon="6.60693">
        <ele>2074.66</ele>
        <time>2011-06-12T11:27:45Z</time>
      </trkpt>
      <trkpt lat="45.63553" lon="6.60699">
        <ele>2075.62</ele>
        <time>2011-06-12T11:27:59Z</time>
      </trkpt>
      <trkpt lat="45.63534" lon="6.60712">
        <ele>2077.07</ele>
        <time>2011-06-12T11:28:14Z</time>
      </trkpt>
      <trkpt lat="45.63522" lon="6.60715">
        <ele>2078.03</ele>
        <time>2011-06-12T11:28:22Z</time>
      </trkpt>
      <trkpt lat="45.63513" lon="6.60711">
        <ele>2078.51</ele>
        <time>2011-06-12T11:28:29Z</time>
      </trkpt>
      <trkpt lat="45.63493" lon="6.60705">
        <ele>2080.91</ele>
        <time>2011-06-12T11:28:45Z</time>
      </trkpt>
      <trkpt lat="45.63471" lon="6.60703">
        <ele>2082.35</ele>
        <time>2011-06-12T11:29:02Z</time>
      </trkpt>
      <trkpt lat="45.63466" lon="6.60704">
        <ele>2082.83</ele>
        <time>2011-06-12T11:29:06Z</time>
      </trkpt>
      <trkpt lat="45.63463" lon="6.60702">
        <ele>2082.83</ele>
        <time>2011-06-12T11:29:09Z</time>
      </trkpt>
      <trkpt lat="45.63448" lon="6.60713">
        <ele>2084.76</ele>
        <time>2011-06-12T11:29:22Z</time>
      </trkpt>
      <trkpt lat="45.63443" lon="6.60717">
        <ele>2084.76</ele>
        <time>2011-06-12T11:29:26Z</time>
      </trkpt>
      <trkpt lat="45.63426" lon="6.60739">
        <ele>2087.16</ele>
        <time>2011-06-12T11:29:44Z</time>
      </trkpt>
      <trkpt lat="45.6342" lon="6.60765">
        <ele>2088.6</ele>
        <time>2011-06-12T11:29:59Z</time>
      </trkpt>
      <trkpt lat="45.6342" lon="6.60769">
        <ele>2089.08</ele>
        <time>2011-06-12T11:30:01Z</time>
      </trkpt>
      <trkpt lat="45.63425" lon="6.60777">
        <ele>2089.56</ele>
        <time>2011-06-12T11:30:07Z</time>
      </trkpt>
      <trkpt lat="45.63432" lon="6.60777">
        <ele>2090.04</ele>
        <time>2011-06-12T11:30:12Z</time>
      </trkpt>
      <trkpt lat="45.63451" lon="6.60764">
        <ele>2092.45</ele>
        <time>2011-06-12T11:30:29Z</time>
      </trkpt>
      <trkpt lat="45.63455" lon="6.60762">
        <ele>2092.45</ele>
        <time>2011-06-12T11:30:32Z</time>
      </trkpt>
      <trkpt lat="45.63468" lon="6.60764">
        <ele>2093.41</ele>
        <time>2011-06-12T11:30:41Z</time>
      </trkpt>
      <trkpt lat="45.63473" lon="6.60767">
        <ele>2093.89</ele>
        <time>2011-06-12T11:30:46Z</time>
      </trkpt>
      <trkpt lat="45.63483" lon="6.60777">
        <ele>2094.37</ele>
        <time>2011-06-12T11:30:54Z</time>
      </trkpt>
      <trkpt lat="45.63492" lon="6.60784">
        <ele>2095.33</ele>
        <time>2011-06-12T11:31:02Z</time>
      </trkpt>
      <trkpt lat="45.63514" lon="6.60787">
        <ele>2096.77</ele>
        <time>2011-06-12T11:31:19Z</time>
      </trkpt>
      <trkpt lat="45.63536" lon="6.60797">
        <ele>2099.18</ele>
        <time>2011-06-12T11:31:37Z</time>
      </trkpt>
      <trkpt lat="45.63553" lon="6.60817">
        <ele>2101.58</ele>
        <time>2011-06-12T11:31:54Z</time>
      </trkpt>
      <trkpt lat="45.63558" lon="6.60829">
        <ele>2102.06</ele>
        <time>2011-06-12T11:32:02Z</time>
      </trkpt>
      <trkpt lat="45.6357" lon="6.60861">
        <ele>2104.46</ele>
        <time>2011-06-12T11:32:22Z</time>
      </trkpt>
      <trkpt lat="45.63582" lon="6.60885">
        <ele>2105.91</ele>
        <time>2011-06-12T11:32:37Z</time>
      </trkpt>
      <trkpt lat="45.63584" lon="6.60889">
        <ele>2106.39</ele>
        <time>2011-06-12T11:32:40Z</time>
      </trkpt>
      <trkpt lat="45.63588" lon="6.60894">
        <ele>2106.39</ele>
        <time>2011-06-12T11:32:44Z</time>
      </trkpt>
      <trkpt lat="45.63605" lon="6.609">
        <ele>2107.35</ele>
        <time>2011-06-12T11:32:58Z</time>
      </trkpt>
      <trkpt lat="45.63607" lon="6.60898">
        <ele>2107.83</ele>
        <time>2011-06-12T11:33:14Z</time>
      </trkpt>
      <trkpt lat="45.63609" lon="6.60897">
        <ele>2107.83</ele>
        <time>2011-06-12T11:33:37Z</time>
      </trkpt>
      <trkpt lat="45.63625" lon="6.60888">
        <ele>2109.27</ele>
        <time>2011-06-12T11:33:50Z</time>
      </trkpt>
      <trkpt lat="45.63627" lon="6.60887">
        <ele>2108.79</ele>
        <time>2011-06-12T11:33:52Z</time>
      </trkpt>
      <trkpt lat="45.63632" lon="6.60884">
        <ele>2109.27</ele>
        <time>2011-06-12T11:33:56Z</time>
      </trkpt>
      <trkpt lat="45.63651" lon="6.60872">
        <ele>2110.71</ele>
        <time>2011-06-12T11:34:12Z</time>
      </trkpt>
      <trkpt lat="45.63661" lon="6.60863">
        <ele>2111.67</ele>
        <time>2011-06-12T11:34:21Z</time>
      </trkpt>
      <trkpt lat="45.63665" lon="6.60858">
        <ele>2112.63</ele>
        <time>2011-06-12T11:34:25Z</time>
      </trkpt>
      <trkpt lat="45.63676" lon="6.6085">
        <ele>2113.12</ele>
        <time>2011-06-12T11:34:35Z</time>
      </trkpt>
      <trkpt lat="45.63678" lon="6.60847">
        <ele>2113.6</ele>
        <time>2011-06-12T11:34:38Z</time>
      </trkpt>
      <trkpt lat="45.63689" lon="6.60838">
        <ele>2114.56</ele>
        <time>2011-06-12T11:34:47Z</time>
      </trkpt>
      <trkpt lat="45.63693" lon="6.60834">
        <ele>2114.56</ele>
        <time>2011-06-12T11:34:51Z</time>
      </trkpt>
      <trkpt lat="45.63711" lon="6.60824">
        <ele>2116</ele>
        <time>2011-06-12T11:35:06Z</time>
      </trkpt>
      <trkpt lat="45.6373" lon="6.6081">
        <ele>2117.92</ele>
        <time>2011-06-12T11:35:23Z</time>
      </trkpt>
      <trkpt lat="45.63751" lon="6.60793">
        <ele>2119.36</ele>
        <time>2011-06-12T11:35:41Z</time>
      </trkpt>
      <trkpt lat="45.63753" lon="6.60792">
        <ele>2119.84</ele>
        <time>2011-06-12T11:35:43Z</time>
      </trkpt>
      <trkpt lat="45.63776" lon="6.60772">
        <ele>2122.25</ele>
        <time>2011-06-12T11:36:03Z</time>
      </trkpt>
      <trkpt lat="45.63794" lon="6.60757">
        <ele>2123.21</ele>
        <time>2011-06-12T11:36:18Z</time>
      </trkpt>
      <trkpt lat="45.63817" lon="6.60747">
        <ele>2124.17</ele>
        <time>2011-06-12T11:36:36Z</time>
      </trkpt>
      <trkpt lat="45.6384" lon="6.60745">
        <ele>2126.09</ele>
        <time>2011-06-12T11:36:53Z</time>
      </trkpt>
      <trkpt lat="45.63863" lon="6.60742">
        <ele>2128.02</ele>
        <time>2011-06-12T11:37:11Z</time>
      </trkpt>
      <trkpt lat="45.63875" lon="6.60731">
        <ele>2128.5</ele>
        <time>2011-06-12T11:37:22Z</time>
      </trkpt>
      <trkpt lat="45.63884" lon="6.60725">
        <ele>2128.98</ele>
        <time>2011-06-12T11:37:30Z</time>
      </trkpt>
      <trkpt lat="45.63889" lon="6.60737">
        <ele>2130.9</ele>
        <time>2011-06-12T11:37:43Z</time>
      </trkpt>
      <trkpt lat="45.63887" lon="6.60743">
        <ele>2131.86</ele>
        <time>2011-06-12T11:37:57Z</time>
      </trkpt>
      <trkpt lat="45.63887" lon="6.60743">
        <ele>2131.38</ele>
        <time>2011-06-12T11:38:24Z</time>
      </trkpt>
      <trkpt lat="45.63886" lon="6.60745">
        <ele>2131.86</ele>
        <time>2011-06-12T11:38:47Z</time>
      </trkpt>
      <trkpt lat="45.63874" lon="6.60768">
        <ele>2134.26</ele>
        <time>2011-06-12T11:39:04Z</time>
      </trkpt>
      <trkpt lat="45.63866" lon="6.60775">
        <ele>2136.67</ele>
        <time>2011-06-12T11:39:13Z</time>
      </trkpt>
      <trkpt lat="45.63861" lon="6.6078">
        <ele>2137.15</ele>
        <time>2011-06-12T11:39:19Z</time>
      </trkpt>
      <trkpt lat="45.63853" lon="6.60788">
        <ele>2139.07</ele>
        <time>2011-06-12T11:39:27Z</time>
      </trkpt>
      <trkpt lat="45.63847" lon="6.60793">
        <ele>2139.55</ele>
        <time>2011-06-12T11:39:33Z</time>
      </trkpt>
      <trkpt lat="45.63833" lon="6.60816">
        <ele>2141.47</ele>
        <time>2011-06-12T11:39:50Z</time>
      </trkpt>
      <trkpt lat="45.6382" lon="6.60827">
        <ele>2142.92</ele>
        <time>2011-06-12T11:40:03Z</time>
      </trkpt>
      <trkpt lat="45.63805" lon="6.60839">
        <ele>2144.36</ele>
        <time>2011-06-12T11:40:18Z</time>
      </trkpt>
      <trkpt lat="45.63791" lon="6.60849">
        <ele>2145.8</ele>
        <time>2011-06-12T11:40:31Z</time>
      </trkpt>
      <trkpt lat="45.63783" lon="6.60864">
        <ele>2146.76</ele>
        <time>2011-06-12T11:40:43Z</time>
      </trkpt>
      <trkpt lat="45.63781" lon="6.60877">
        <ele>2147.24</ele>
        <time>2011-06-12T11:40:50Z</time>
      </trkpt>
      <trkpt lat="45.63774" lon="6.60902">
        <ele>2148.68</ele>
        <time>2011-06-12T11:41:07Z</time>
      </trkpt>
      <trkpt lat="45.63766" lon="6.60917">
        <ele>2150.61</ele>
        <time>2011-06-12T11:41:18Z</time>
      </trkpt>
      <trkpt lat="45.63757" lon="6.60935">
        <ele>2152.05</ele>
        <time>2011-06-12T11:41:32Z</time>
      </trkpt>
      <trkpt lat="45.63749" lon="6.60946">
        <ele>2153.01</ele>
        <time>2011-06-12T11:41:42Z</time>
      </trkpt>
      <trkpt lat="45.63742" lon="6.60954">
        <ele>2154.45</ele>
        <time>2011-06-12T11:41:51Z</time>
      </trkpt>
      <trkpt lat="45.63737" lon="6.60958">
        <ele>2154.45</ele>
        <time>2011-06-12T11:41:57Z</time>
      </trkpt>
      <trkpt lat="45.63734" lon="6.6096">
        <ele>2154.93</ele>
        <time>2011-06-12T11:42:00Z</time>
      </trkpt>
      <trkpt lat="45.63742" lon="6.60966">
        <ele>2155.89</ele>
        <time>2011-06-12T11:42:13Z</time>
      </trkpt>
      <trkpt lat="45.63758" lon="6.60959">
        <ele>2157.34</ele>
        <time>2011-06-12T11:42:28Z</time>
      </trkpt>
      <trkpt lat="45.63759" lon="6.60958">
        <ele>2156.86</ele>
        <time>2011-06-12T11:42:32Z</time>
      </trkpt>
      <trkpt lat="45.63777" lon="6.60956">
        <ele>2159.74</ele>
        <time>2011-06-12T11:42:49Z</time>
      </trkpt>
      <trkpt lat="45.63797" lon="6.60952">
        <ele>2161.66</ele>
        <time>2011-06-12T11:43:08Z</time>
      </trkpt>
      <trkpt lat="45.63816" lon="6.60951">
        <ele>2164.06</ele>
        <time>2011-06-12T11:43:26Z</time>
      </trkpt>
      <trkpt lat="45.63836" lon="6.60954">
        <ele>2165.99</ele>
        <time>2011-06-12T11:43:45Z</time>
      </trkpt>
      <trkpt lat="45.63851" lon="6.60956">
        <ele>2167.91</ele>
        <time>2011-06-12T11:44:01Z</time>
      </trkpt>
      <trkpt lat="45.63867" lon="6.60949">
        <ele>2169.35</ele>
        <time>2011-06-12T11:44:18Z</time>
      </trkpt>
      <trkpt lat="45.63868" lon="6.60948">
        <ele>2170.31</ele>
        <time>2011-06-12T11:44:36Z</time>
      </trkpt>
      <trkpt lat="45.63871" lon="6.60946">
        <ele>2170.31</ele>
        <time>2011-06-12T11:44:39Z</time>
      </trkpt>
      <trkpt lat="45.63891" lon="6.60942">
        <ele>2173.2</ele>
        <time>2011-06-12T11:45:00Z</time>
      </trkpt>
      <trkpt lat="45.63909" lon="6.60934">
        <ele>2175.6</ele>
        <time>2011-06-12T11:45:19Z</time>
      </trkpt>
      <trkpt lat="45.63922" lon="6.60927">
        <ele>2178</ele>
        <time>2011-06-12T11:45:34Z</time>
      </trkpt>
      <trkpt lat="45.63938" lon="6.60928">
        <ele>2179.45</ele>
        <time>2011-06-12T11:45:52Z</time>
      </trkpt>
      <trkpt lat="45.6394" lon="6.60934">
        <ele>2179.93</ele>
        <time>2011-06-12T11:45:59Z</time>
      </trkpt>
      <trkpt lat="45.63934" lon="6.60948">
        <ele>2181.85</ele>
        <time>2011-06-12T11:46:15Z</time>
      </trkpt>
      <trkpt lat="45.63934" lon="6.60948">
        <ele>2181.85</ele>
        <time>2011-06-12T11:46:47Z</time>
      </trkpt>
      <trkpt lat="45.63939" lon="6.60963">
        <ele>2183.29</ele>
        <time>2011-06-12T11:47:03Z</time>
      </trkpt>
      <trkpt lat="45.63945" lon="6.60979">
        <ele>2185.21</ele>
        <time>2011-06-12T11:47:17Z</time>
      </trkpt>
      <trkpt lat="45.6395" lon="6.60984">
        <ele>2187.14</ele>
        <time>2011-06-12T11:47:31Z</time>
      </trkpt>
      <trkpt lat="45.63958" lon="6.60992">
        <ele>2190.02</ele>
        <time>2011-06-12T11:47:46Z</time>
      </trkpt>
      <trkpt lat="45.63966" lon="6.60999">
        <ele>2191.46</ele>
        <time>2011-06-12T11:48:01Z</time>
      </trkpt>
      <trkpt lat="45.63973" lon="6.61005">
        <ele>2193.39</ele>
        <time>2011-06-12T11:48:13Z</time>
      </trkpt>
      <trkpt lat="45.63979" lon="6.61009">
        <ele>2195.31</ele>
        <time>2011-06-12T11:48:33Z</time>
      </trkpt>
      <trkpt lat="45.63985" lon="6.61016">
        <ele>2197.71</ele>
        <time>2011-06-12T11:48:50Z</time>
      </trkpt>
      <trkpt lat="45.63994" lon="6.61022">
        <ele>2199.63</ele>
        <time>2011-06-12T11:49:04Z</time>
      </trkpt>
      <trkpt lat="45.63999" lon="6.61027">
        <ele>2201.08</ele>
        <time>2011-06-12T11:49:15Z</time>
      </trkpt>
      <trkpt lat="45.64002" lon="6.61028">
        <ele>2201.08</ele>
        <time>2011-06-12T11:49:31Z</time>
      </trkpt>
      <trkpt lat="45.64002" lon="6.61028">
        <ele>2201.56</ele>
        <time>2011-06-12T11:50:05Z</time>
      </trkpt>
      <trkpt lat="45.64003" lon="6.61028">
        <ele>2201.56</ele>
        <time>2011-06-12T11:50:39Z</time>
      </trkpt>
      <trkpt lat="45.64003" lon="6.61028">
        <ele>2201.56</ele>
        <time>2011-06-12T11:51:14Z</time>
      </trkpt>
      <trkpt lat="45.64005" lon="6.61032">
        <ele>2203</ele>
        <time>2011-06-12T11:51:22Z</time>
      </trkpt>
      <trkpt lat="45.64018" lon="6.61042">
        <ele>2205.88</ele>
        <time>2011-06-12T11:51:40Z</time>
      </trkpt>
      <trkpt lat="45.64019" lon="6.61043">
        <ele>2206.36</ele>
        <time>2011-06-12T11:51:42Z</time>
      </trkpt>
      <trkpt lat="45.6403" lon="6.6105">
        <ele>2208.77</ele>
        <time>2011-06-12T11:51:58Z</time>
      </trkpt>
      <trkpt lat="45.64035" lon="6.61054">
        <ele>2210.21</ele>
        <time>2011-06-12T11:52:11Z</time>
      </trkpt>
      <trkpt lat="45.64043" lon="6.61059">
        <ele>2212.13</ele>
        <time>2011-06-12T11:52:24Z</time>
      </trkpt>
      <trkpt lat="45.64048" lon="6.61062">
        <ele>2213.57</ele>
        <time>2011-06-12T11:52:47Z</time>
      </trkpt>
      <trkpt lat="45.64059" lon="6.61068">
        <ele>2215.98</ele>
        <time>2011-06-12T11:53:03Z</time>
      </trkpt>
      <trkpt lat="45.64067" lon="6.61074">
        <ele>2218.38</ele>
        <time>2011-06-12T11:53:19Z</time>
      </trkpt>
      <trkpt lat="45.64068" lon="6.61074">
        <ele>2218.86</ele>
        <time>2011-06-12T11:53:36Z</time>
      </trkpt>
      <trkpt lat="45.64078" lon="6.6108">
        <ele>2220.78</ele>
        <time>2011-06-12T11:53:51Z</time>
      </trkpt>
      <trkpt lat="45.64084" lon="6.61083">
        <ele>2222.71</ele>
        <time>2011-06-12T11:54:05Z</time>
      </trkpt>
      <trkpt lat="45.64094" lon="6.61087">
        <ele>2226.07</ele>
        <time>2011-06-12T11:54:21Z</time>
      </trkpt>
      <trkpt lat="45.64097" lon="6.61088">
        <ele>2227.03</ele>
        <time>2011-06-12T11:54:35Z</time>
      </trkpt>
      <trkpt lat="45.64104" lon="6.61092">
        <ele>2228.47</ele>
        <time>2011-06-12T11:54:53Z</time>
      </trkpt>
      <trkpt lat="45.64113" lon="6.61095">
        <ele>2230.4</ele>
        <time>2011-06-12T11:55:07Z</time>
      </trkpt>
      <trkpt lat="45.64122" lon="6.61096">
        <ele>2232.32</ele>
        <time>2011-06-12T11:55:19Z</time>
      </trkpt>
      <trkpt lat="45.64124" lon="6.61097">
        <ele>2232.8</ele>
        <time>2011-06-12T11:55:28Z</time>
      </trkpt>
      <trkpt lat="45.64137" lon="6.61099">
        <ele>2234.72</ele>
        <time>2011-06-12T11:55:45Z</time>
      </trkpt>
      <trkpt lat="45.64148" lon="6.61099">
        <ele>2236.64</ele>
        <time>2011-06-12T11:56:00Z</time>
      </trkpt>
      <trkpt lat="45.64158" lon="6.61095">
        <ele>2238.09</ele>
        <time>2011-06-12T11:56:13Z</time>
      </trkpt>
      <trkpt lat="45.64159" lon="6.61095">
        <ele>2238.09</ele>
        <time>2011-06-12T11:56:14Z</time>
      </trkpt>
      <trkpt lat="45.64164" lon="6.61093">
        <ele>2239.05</ele>
        <time>2011-06-12T11:56:19Z</time>
      </trkpt>
      <trkpt lat="45.64175" lon="6.61082">
        <ele>2240.01</ele>
        <time>2011-06-12T11:56:37Z</time>
      </trkpt>
      <trkpt lat="45.64175" lon="6.61082">
        <ele>2239.53</ele>
        <time>2011-06-12T11:57:02Z</time>
      </trkpt>
      <trkpt lat="45.64176" lon="6.61082">
        <ele>2239.53</ele>
        <time>2011-06-12T11:57:14Z</time>
      </trkpt>
      <trkpt lat="45.64179" lon="6.61074">
        <ele>2240.49</ele>
        <time>2011-06-12T11:57:20Z</time>
      </trkpt>
      <trkpt lat="45.6418" lon="6.61072">
        <ele>2240.97</ele>
        <time>2011-06-12T11:57:22Z</time>
      </trkpt>
      <trkpt lat="45.64194" lon="6.61054">
        <ele>2242.89</ele>
        <time>2011-06-12T11:57:39Z</time>
      </trkpt>
      <trkpt lat="45.6421" lon="6.61049">
        <ele>2245.3</ele>
        <time>2011-06-12T11:57:55Z</time>
      </trkpt>
      <trkpt lat="45.64223" lon="6.61046">
        <ele>2247.7</ele>
        <time>2011-06-12T11:58:09Z</time>
      </trkpt>
      <trkpt lat="45.64234" lon="6.61042">
        <ele>2249.14</ele>
        <time>2011-06-12T11:58:26Z</time>
      </trkpt>
      <trkpt lat="45.64239" lon="6.61038">
        <ele>2250.58</ele>
        <time>2011-06-12T11:58:33Z</time>
      </trkpt>
      <trkpt lat="45.64247" lon="6.61031">
        <ele>2252.03</ele>
        <time>2011-06-12T11:58:45Z</time>
      </trkpt>
      <trkpt lat="45.64256" lon="6.61026">
        <ele>2253.95</ele>
        <time>2011-06-12T11:58:57Z</time>
      </trkpt>
      <trkpt lat="45.64268" lon="6.61021">
        <ele>2255.39</ele>
        <time>2011-06-12T11:59:12Z</time>
      </trkpt>
      <trkpt lat="45.64278" lon="6.61014">
        <ele>2257.31</ele>
        <time>2011-06-12T11:59:27Z</time>
      </trkpt>
      <trkpt lat="45.64279" lon="6.61013">
        <ele>2257.31</ele>
        <time>2011-06-12T11:59:40Z</time>
      </trkpt>
      <trkpt lat="45.64293" lon="6.60998">
        <ele>2259.24</ele>
        <time>2011-06-12T11:59:57Z</time>
      </trkpt>
      <trkpt lat="45.64309" lon="6.60983">
        <ele>2262.12</ele>
        <time>2011-06-12T12:00:16Z</time>
      </trkpt>
      <trkpt lat="45.64314" lon="6.60977">
        <ele>2263.56</ele>
        <time>2011-06-12T12:00:32Z</time>
      </trkpt>
      <trkpt lat="45.64324" lon="6.60965">
        <ele>2265</ele>
        <time>2011-06-12T12:00:47Z</time>
      </trkpt>
      <trkpt lat="45.64336" lon="6.60953">
        <ele>2267.89</ele>
        <time>2011-06-12T12:01:03Z</time>
      </trkpt>
      <trkpt lat="45.64347" lon="6.60941">
        <ele>2269.81</ele>
        <time>2011-06-12T12:01:18Z</time>
      </trkpt>
      <trkpt lat="45.64347" lon="6.6094">
        <ele>2269.81</ele>
        <time>2011-06-12T12:01:19Z</time>
      </trkpt>
      <trkpt lat="45.64353" lon="6.60922">
        <ele>2271.25</ele>
        <time>2011-06-12T12:01:32Z</time>
      </trkpt>
      <trkpt lat="45.64356" lon="6.60901">
        <ele>2274.14</ele>
        <time>2011-06-12T12:01:49Z</time>
      </trkpt>
      <trkpt lat="45.64362" lon="6.6088">
        <ele>2276.06</ele>
        <time>2011-06-12T12:02:05Z</time>
      </trkpt>
      <trkpt lat="45.64363" lon="6.60877">
        <ele>2275.58</ele>
        <time>2011-06-12T12:02:07Z</time>
      </trkpt>
      <trkpt lat="45.64376" lon="6.60858">
        <ele>2277.98</ele>
        <time>2011-06-12T12:02:25Z</time>
      </trkpt>
      <trkpt lat="45.64383" lon="6.60853">
        <ele>2278.46</ele>
        <time>2011-06-12T12:02:41Z</time>
      </trkpt>
      <trkpt lat="45.64383" lon="6.60853">
        <ele>2278.94</ele>
        <time>2011-06-12T12:03:06Z</time>
      </trkpt>
      <trkpt lat="45.64402" lon="6.60837">
        <ele>2281.83</ele>
        <time>2011-06-12T12:03:24Z</time>
      </trkpt>
      <trkpt lat="45.64409" lon="6.60831">
        <ele>2282.31</ele>
        <time>2011-06-12T12:03:31Z</time>
      </trkpt>
      <trkpt lat="45.64426" lon="6.60817">
        <ele>2283.75</ele>
        <time>2011-06-12T12:03:50Z</time>
      </trkpt>
      <trkpt lat="45.64438" lon="6.6081">
        <ele>2284.71</ele>
        <time>2011-06-12T12:04:03Z</time>
      </trkpt>
      <trkpt lat="45.64459" lon="6.60798">
        <ele>2287.11</ele>
        <time>2011-06-12T12:04:20Z</time>
      </trkpt>
      <trkpt lat="45.64473" lon="6.6079">
        <ele>2288.56</ele>
        <time>2011-06-12T12:04:34Z</time>
      </trkpt>
      <trkpt lat="45.64475" lon="6.60789">
        <ele>2289.04</ele>
        <time>2011-06-12T12:04:36Z</time>
      </trkpt>
      <trkpt lat="45.64493" lon="6.6078">
        <ele>2290.96</ele>
        <time>2011-06-12T12:04:53Z</time>
      </trkpt>
      <trkpt lat="45.645" lon="6.60773">
        <ele>2292.4</ele>
        <time>2011-06-12T12:05:04Z</time>
      </trkpt>
      <trkpt lat="45.64509" lon="6.60763">
        <ele>2293.36</ele>
        <time>2011-06-12T12:05:13Z</time>
      </trkpt>
      <trkpt lat="45.64527" lon="6.60742">
        <ele>2294.8</ele>
        <time>2011-06-12T12:05:30Z</time>
      </trkpt>
      <trkpt lat="45.6454" lon="6.60721">
        <ele>2296.73</ele>
        <time>2011-06-12T12:05:44Z</time>
      </trkpt>
      <trkpt lat="45.64555" lon="6.60698">
        <ele>2297.69</ele>
        <time>2011-06-12T12:06:00Z</time>
      </trkpt>
      <trkpt lat="45.64571" lon="6.60675">
        <ele>2298.17</ele>
        <time>2011-06-12T12:06:15Z</time>
      </trkpt>
      <trkpt lat="45.64577" lon="6.60659">
        <ele>2296.73</ele>
        <time>2011-06-12T12:06:26Z</time>
      </trkpt>
      <trkpt lat="45.64577" lon="6.60659">
        <ele>2296.73</ele>
        <time>2011-06-12T12:07:04Z</time>
      </trkpt>
      <trkpt lat="45.64577" lon="6.60659">
        <ele>2296.25</ele>
        <time>2011-06-12T12:07:43Z</time>
      </trkpt>
      <trkpt lat="45.64578" lon="6.60659">
        <ele>2295.77</ele>
        <time>2011-06-12T12:08:07Z</time>
      </trkpt>
      <trkpt lat="45.64578" lon="6.60659">
        <ele>2296.25</ele>
        <time>2011-06-12T12:08:40Z</time>
      </trkpt>
      <trkpt lat="45.64578" lon="6.60659">
        <ele>2296.73</ele>
        <time>2011-06-12T12:09:00Z</time>
      </trkpt>
      <trkpt lat="45.64576" lon="6.60664">
        <ele>2297.21</ele>
        <time>2011-06-12T12:09:10Z</time>
      </trkpt>
      <trkpt lat="45.64574" lon="6.60664">
        <ele>2297.21</ele>
        <time>2011-06-12T12:09:11Z</time>
      </trkpt>
      <trkpt lat="45.64573" lon="6.60667">
        <ele>2297.21</ele>
        <time>2011-06-12T12:09:13Z</time>
      </trkpt>
      <trkpt lat="45.64565" lon="6.60668">
        <ele>2298.17</ele>
        <time>2011-06-12T12:09:25Z</time>
      </trkpt>
      <trkpt lat="45.64579" lon="6.60634">
        <ele>2298.17</ele>
        <time>2011-06-12T12:09:43Z</time>
      </trkpt>
      <trkpt lat="45.64587" lon="6.60615">
        <ele>2300.57</ele>
        <time>2011-06-12T12:09:53Z</time>
      </trkpt>
      <trkpt lat="45.64595" lon="6.60604">
        <ele>2302.49</ele>
        <time>2011-06-12T12:10:00Z</time>
      </trkpt>
      <trkpt lat="45.64597" lon="6.60599">
        <ele>2303.46</ele>
        <time>2011-06-12T12:10:03Z</time>
      </trkpt>
      <trkpt lat="45.64599" lon="6.60583">
        <ele>2303.46</ele>
        <time>2011-06-12T12:10:15Z</time>
      </trkpt>
      <trkpt lat="45.64599" lon="6.60582">
        <ele>2302.49</ele>
        <time>2011-06-12T12:10:36Z</time>
      </trkpt>
      <trkpt lat="45.64599" lon="6.60582">
        <ele>2302.49</ele>
        <time>2011-06-12T12:11:15Z</time>
      </trkpt>
      <trkpt lat="45.64599" lon="6.60582">
        <ele>2302.49</ele>
        <time>2011-06-12T12:11:56Z</time>
      </trkpt>
      <trkpt lat="45.64599" lon="6.60582">
        <ele>2303.94</ele>
        <time>2011-06-12T12:12:40Z</time>
      </trkpt>
      <trkpt lat="45.64599" lon="6.60582">
        <ele>2302.98</ele>
        <time>2011-06-12T12:13:14Z</time>
      </trkpt>
      <trkpt lat="45.64599" lon="6.60582">
        <ele>2303.46</ele>
        <time>2011-06-12T12:13:50Z</time>
      </trkpt>
      <trkpt lat="45.64599" lon="6.60582">
        <ele>2303.46</ele>
        <time>2011-06-12T12:14:28Z</time>
      </trkpt>
      <trkpt lat="45.64599" lon="6.60582">
        <ele>2302.98</ele>
        <time>2011-06-12T12:15:06Z</time>
      </trkpt>
      <trkpt lat="45.64599" lon="6.60582">
        <ele>2303.46</ele>
        <time>2011-06-12T12:15:47Z</time>
      </trkpt>
      <trkpt lat="45.64599" lon="6.60582">
        <ele>2303.46</ele>
        <time>2011-06-12T12:16:24Z</time>
      </trkpt>
      <trkpt lat="45.64599" lon="6.60582">
        <ele>2304.42</ele>
        <time>2011-06-12T12:17:01Z</time>
      </trkpt>
      <trkpt lat="45.64599" lon="6.60581">
        <ele>2304.42</ele>
        <time>2011-06-12T12:17:46Z</time>
      </trkpt>
      <trkpt lat="45.64599" lon="6.60582">
        <ele>2304.42</ele>
        <time>2011-06-12T12:18:20Z</time>
      </trkpt>
      <trkpt lat="45.64599" lon="6.60582">
        <ele>2304.9</ele>
        <time>2011-06-12T12:19:01Z</time>
      </trkpt>
      <trkpt lat="45.64599" lon="6.60581">
        <ele>2304.42</ele>
        <time>2011-06-12T12:19:42Z</time>
      </trkpt>
      <trkpt lat="45.64599" lon="6.60581">
        <ele>2304.9</ele>
        <time>2011-06-12T12:20:19Z</time>
      </trkpt>
      <trkpt lat="45.64598" lon="6.60581">
        <ele>2303.94</ele>
        <time>2011-06-12T12:21:01Z</time>
      </trkpt>
      <trkpt lat="45.64598" lon="6.60582">
        <ele>2305.38</ele>
        <time>2011-06-12T12:21:42Z</time>
      </trkpt>
      <trkpt lat="45.64601" lon="6.6058">
        <ele>2304.9</ele>
        <time>2011-06-12T12:21:58Z</time>
      </trkpt>
      <trkpt lat="45.646" lon="6.60579">
        <ele>2304.9</ele>
        <time>2011-06-12T12:22:14Z</time>
      </trkpt>
      <trkpt lat="45.64597" lon="6.60572">
        <ele>2302.98</ele>
        <time>2011-06-12T12:22:29Z</time>
      </trkpt>
      <trkpt lat="45.64596" lon="6.60571">
        <ele>2302.49</ele>
        <time>2011-06-12T12:22:53Z</time>
      </trkpt>
      <trkpt lat="45.64599" lon="6.60568">
        <ele>2301.05</ele>
        <time>2011-06-12T12:23:08Z</time>
      </trkpt>
      <trkpt lat="45.64606" lon="6.60565">
        <ele>2297.69</ele>
        <time>2011-06-12T12:23:16Z</time>
      </trkpt>
      <trkpt lat="45.64607" lon="6.60564">
        <ele>2297.69</ele>
        <time>2011-06-12T12:23:18Z</time>
      </trkpt>
      <trkpt lat="45.64607" lon="6.60561">
        <ele>2296.73</ele>
        <time>2011-06-12T12:23:20Z</time>
      </trkpt>
      <trkpt lat="45.64613" lon="6.60552">
        <ele>2294.8</ele>
        <time>2011-06-12T12:23:31Z</time>
      </trkpt>
      <trkpt lat="45.64619" lon="6.60535">
        <ele>2291.44</ele>
        <time>2011-06-12T12:23:36Z</time>
      </trkpt>
      <trkpt lat="45.64628" lon="6.60512">
        <ele>2293.84</ele>
        <time>2011-06-12T12:23:47Z</time>
      </trkpt>
      <trkpt lat="45.64637" lon="6.60492">
        <ele>2296.73</ele>
        <time>2011-06-12T12:24:04Z</time>
      </trkpt>
      <trkpt lat="45.6464" lon="6.60487">
        <ele>2298.17</ele>
        <time>2011-06-12T12:24:16Z</time>
      </trkpt>
      <trkpt lat="45.64641" lon="6.60484">
        <ele>2298.65</ele>
        <time>2011-06-12T12:24:27Z</time>
      </trkpt>
      <trkpt lat="45.64648" lon="6.60483">
        <ele>2298.17</ele>
        <time>2011-06-12T12:24:32Z</time>
      </trkpt>
      <trkpt lat="45.64652" lon="6.60482">
        <ele>2297.69</ele>
        <time>2011-06-12T12:24:34Z</time>
      </trkpt>
      <trkpt lat="45.64666" lon="6.60475">
        <ele>2294.32</ele>
        <time>2011-06-12T12:24:39Z</time>
      </trkpt>
      <trkpt lat="45.64677" lon="6.60465">
        <ele>2291.44</ele>
        <time>2011-06-12T12:24:44Z</time>
      </trkpt>
      <trkpt lat="45.64688" lon="6.60458">
        <ele>2288.56</ele>
        <time>2011-06-12T12:24:48Z</time>
      </trkpt>
      <trkpt lat="45.64698" lon="6.60455">
        <ele>2286.63</ele>
        <time>2011-06-12T12:24:51Z</time>
      </trkpt>
      <trkpt lat="45.64705" lon="6.60453">
        <ele>2285.67</ele>
        <time>2011-06-12T12:24:53Z</time>
      </trkpt>
      <trkpt lat="45.64713" lon="6.60451">
        <ele>2284.71</ele>
        <time>2011-06-12T12:24:55Z</time>
      </trkpt>
      <trkpt lat="45.64741" lon="6.60442">
        <ele>2285.19</ele>
        <time>2011-06-12T12:25:06Z</time>
      </trkpt>
      <trkpt lat="45.64767" lon="6.60429">
        <ele>2284.71</ele>
        <time>2011-06-12T12:25:20Z</time>
      </trkpt>
      <trkpt lat="45.64782" lon="6.60416">
        <ele>2283.27</ele>
        <time>2011-06-12T12:25:29Z</time>
      </trkpt>
      <trkpt lat="45.64792" lon="6.60398">
        <ele>2279.9</ele>
        <time>2011-06-12T12:25:38Z</time>
      </trkpt>
      <trkpt lat="45.64795" lon="6.60393">
        <ele>2278.94</ele>
        <time>2011-06-12T12:25:47Z</time>
      </trkpt>
      <trkpt lat="45.64808" lon="6.60374">
        <ele>2278.46</ele>
        <time>2011-06-12T12:25:59Z</time>
      </trkpt>
      <trkpt lat="45.64821" lon="6.60357">
        <ele>2277.5</ele>
        <time>2011-06-12T12:26:10Z</time>
      </trkpt>
      <trkpt lat="45.64825" lon="6.6035">
        <ele>2277.98</ele>
        <time>2011-06-12T12:26:25Z</time>
      </trkpt>
      <trkpt lat="45.64832" lon="6.60344">
        <ele>2276.54</ele>
        <time>2011-06-12T12:26:39Z</time>
      </trkpt>
      <trkpt lat="45.6484" lon="6.60336">
        <ele>2273.17</ele>
        <time>2011-06-12T12:26:50Z</time>
      </trkpt>
      <trkpt lat="45.64845" lon="6.60329">
        <ele>2269.81</ele>
        <time>2011-06-12T12:27:03Z</time>
      </trkpt>
      <trkpt lat="45.64846" lon="6.6032">
        <ele>2266.45</ele>
        <time>2011-06-12T12:27:14Z</time>
      </trkpt>
      <trkpt lat="45.64846" lon="6.60313">
        <ele>2263.56</ele>
        <time>2011-06-12T12:27:26Z</time>
      </trkpt>
      <trkpt lat="45.64846" lon="6.6031">
        <ele>2261.64</ele>
        <time>2011-06-12T12:27:37Z</time>
      </trkpt>
      <trkpt lat="45.64847" lon="6.60307">
        <ele>2260.2</ele>
        <time>2011-06-12T12:27:40Z</time>
      </trkpt>
      <trkpt lat="45.64847" lon="6.60306">
        <ele>2258.75</ele>
        <time>2011-06-12T12:27:44Z</time>
      </trkpt>
      <trkpt lat="45.64847" lon="6.60296">
        <ele>2255.87</ele>
        <time>2011-06-12T12:27:54Z</time>
      </trkpt>
      <trkpt lat="45.64849" lon="6.60295">
        <ele>2254.91</ele>
        <time>2011-06-12T12:27:58Z</time>
      </trkpt>
      <trkpt lat="45.64855" lon="6.60289">
        <ele>2250.58</ele>
        <time>2011-06-12T12:28:09Z</time>
      </trkpt>
      <trkpt lat="45.6486" lon="6.60279">
        <ele>2248.18</ele>
        <time>2011-06-12T12:28:21Z</time>
      </trkpt>
      <trkpt lat="45.64864" lon="6.60271">
        <ele>2245.78</ele>
        <time>2011-06-12T12:28:30Z</time>
      </trkpt>
      <trkpt lat="45.64869" lon="6.60263">
        <ele>2243.37</ele>
        <time>2011-06-12T12:28:41Z</time>
      </trkpt>
      <trkpt lat="45.64872" lon="6.60259">
        <ele>2242.89</ele>
        <time>2011-06-12T12:28:54Z</time>
      </trkpt>
      <trkpt lat="45.64872" lon="6.60259">
        <ele>2241.93</ele>
        <time>2011-06-12T12:29:31Z</time>
      </trkpt>
      <trkpt lat="45.64874" lon="6.60253">
        <ele>2239.53</ele>
        <time>2011-06-12T12:29:48Z</time>
      </trkpt>
      <trkpt lat="45.64874" lon="6.60238">
        <ele>2236.64</ele>
        <time>2011-06-12T12:29:58Z</time>
      </trkpt>
      <trkpt lat="45.64874" lon="6.60236">
        <ele>2235.68</ele>
        <time>2011-06-12T12:30:00Z</time>
      </trkpt>
      <trkpt lat="45.64874" lon="6.6023">
        <ele>2232.8</ele>
        <time>2011-06-12T12:30:07Z</time>
      </trkpt>
      <trkpt lat="45.64874" lon="6.60223">
        <ele>2229.92</ele>
        <time>2011-06-12T12:30:13Z</time>
      </trkpt>
      <trkpt lat="45.64874" lon="6.60218">
        <ele>2226.55</ele>
        <time>2011-06-12T12:30:21Z</time>
      </trkpt>
      <trkpt lat="45.64874" lon="6.60209">
        <ele>2223.67</ele>
        <time>2011-06-12T12:30:30Z</time>
      </trkpt>
      <trkpt lat="45.64876" lon="6.60201">
        <ele>2220.3</ele>
        <time>2011-06-12T12:30:39Z</time>
      </trkpt>
      <trkpt lat="45.6488" lon="6.60197">
        <ele>2217.42</ele>
        <time>2011-06-12T12:30:47Z</time>
      </trkpt>
      <trkpt lat="45.64881" lon="6.60196">
        <ele>2216.46</ele>
        <time>2011-06-12T12:30:49Z</time>
      </trkpt>
      <trkpt lat="45.64889" lon="6.60189">
        <ele>2214.53</ele>
        <time>2011-06-12T12:30:57Z</time>
      </trkpt>
      <trkpt lat="45.64892" lon="6.60187">
        <ele>2214.53</ele>
        <time>2011-06-12T12:31:12Z</time>
      </trkpt>
      <trkpt lat="45.64898" lon="6.60179">
        <ele>2211.65</ele>
        <time>2011-06-12T12:31:21Z</time>
      </trkpt>
      <trkpt lat="45.64899" lon="6.60176">
        <ele>2211.65</ele>
        <time>2011-06-12T12:31:23Z</time>
      </trkpt>
      <trkpt lat="45.64903" lon="6.60167">
        <ele>2208.29</ele>
        <time>2011-06-12T12:31:33Z</time>
      </trkpt>
      <trkpt lat="45.64907" lon="6.60163">
        <ele>2207.32</ele>
        <time>2011-06-12T12:31:46Z</time>
      </trkpt>
      <trkpt lat="45.64907" lon="6.60163">
        <ele>2206.84</ele>
        <time>2011-06-12T12:32:02Z</time>
      </trkpt>
      <trkpt lat="45.64906" lon="6.60156">
        <ele>2204.92</ele>
        <time>2011-06-12T12:32:09Z</time>
      </trkpt>
      <trkpt lat="45.64907" lon="6.60149">
        <ele>2203</ele>
        <time>2011-06-12T12:32:21Z</time>
      </trkpt>
      <trkpt lat="45.64911" lon="6.60146">
        <ele>2201.56</ele>
        <time>2011-06-12T12:32:27Z</time>
      </trkpt>
      <trkpt lat="45.64911" lon="6.60141">
        <ele>2200.11</ele>
        <time>2011-06-12T12:32:31Z</time>
      </trkpt>
      <trkpt lat="45.64911" lon="6.60139">
        <ele>2199.63</ele>
        <time>2011-06-12T12:32:32Z</time>
      </trkpt>
      <trkpt lat="45.64911" lon="6.60137">
        <ele>2198.19</ele>
        <time>2011-06-12T12:32:39Z</time>
      </trkpt>
      <trkpt lat="45.64919" lon="6.60124">
        <ele>2195.31</ele>
        <time>2011-06-12T12:32:45Z</time>
      </trkpt>
      <trkpt lat="45.64923" lon="6.60116">
        <ele>2193.87</ele>
        <time>2011-06-12T12:32:47Z</time>
      </trkpt>
      <trkpt lat="45.64932" lon="6.60098">
        <ele>2190.02</ele>
        <time>2011-06-12T12:32:52Z</time>
      </trkpt>
      <trkpt lat="45.64939" lon="6.60083">
        <ele>2187.14</ele>
        <time>2011-06-12T12:32:56Z</time>
      </trkpt>
      <trkpt lat="45.64952" lon="6.60073">
        <ele>2188.58</ele>
        <time>2011-06-12T12:33:07Z</time>
      </trkpt>
      <trkpt lat="45.64966" lon="6.60064">
        <ele>2190.98</ele>
        <time>2011-06-12T12:33:23Z</time>
      </trkpt>
      <trkpt lat="45.6497" lon="6.60059">
        <ele>2192.42</ele>
        <time>2011-06-12T12:33:37Z</time>
      </trkpt>
      <trkpt lat="45.64972" lon="6.60057">
        <ele>2192.9</ele>
        <time>2011-06-12T12:33:54Z</time>
      </trkpt>
      <trkpt lat="45.6498" lon="6.6005">
        <ele>2196.27</ele>
        <time>2011-06-12T12:34:07Z</time>
      </trkpt>
      <trkpt lat="45.64988" lon="6.60039">
        <ele>2197.71</ele>
        <time>2011-06-12T12:34:21Z</time>
      </trkpt>
      <trkpt lat="45.64988" lon="6.60037">
        <ele>2197.23</ele>
        <time>2011-06-12T12:34:23Z</time>
      </trkpt>
      <trkpt lat="45.64992" lon="6.60031">
        <ele>2197.23</ele>
        <time>2011-06-12T12:34:38Z</time>
      </trkpt>
      <trkpt lat="45.64992" lon="6.60031">
        <ele>2196.27</ele>
        <time>2011-06-12T12:35:01Z</time>
      </trkpt>
      <trkpt lat="45.64996" lon="6.60011">
        <ele>2193.39</ele>
        <time>2011-06-12T12:35:13Z</time>
      </trkpt>
      <trkpt lat="45.64997" lon="6.60006">
        <ele>2192.9</ele>
        <time>2011-06-12T12:35:14Z</time>
      </trkpt>
      <trkpt lat="45.65001" lon="6.59984">
        <ele>2190.98</ele>
        <time>2011-06-12T12:35:18Z</time>
      </trkpt>
      <trkpt lat="45.65001" lon="6.59967">
        <ele>2188.1</ele>
        <time>2011-06-12T12:35:24Z</time>
      </trkpt>
      <trkpt lat="45.65004" lon="6.59949">
        <ele>2184.73</ele>
        <time>2011-06-12T12:35:31Z</time>
      </trkpt>
      <trkpt lat="45.65007" lon="6.59945">
        <ele>2184.25</ele>
        <time>2011-06-12T12:35:40Z</time>
      </trkpt>
      <trkpt lat="45.6501" lon="6.59946">
        <ele>2184.25</ele>
        <time>2011-06-12T12:35:43Z</time>
      </trkpt>
      <trkpt lat="45.65011" lon="6.59945">
        <ele>2184.25</ele>
        <time>2011-06-12T12:35:44Z</time>
      </trkpt>
      <trkpt lat="45.65013" lon="6.59944">
        <ele>2183.29</ele>
        <time>2011-06-12T12:35:45Z</time>
      </trkpt>
      <trkpt lat="45.65014" lon="6.59943">
        <ele>2182.81</ele>
        <time>2011-06-12T12:35:46Z</time>
      </trkpt>
      <trkpt lat="45.65015" lon="6.59937">
        <ele>2181.85</ele>
        <time>2011-06-12T12:35:51Z</time>
      </trkpt>
      <trkpt lat="45.65015" lon="6.59933">
        <ele>2181.85</ele>
        <time>2011-06-12T12:35:52Z</time>
      </trkpt>
      <trkpt lat="45.65015" lon="6.59928">
        <ele>2181.37</ele>
        <time>2011-06-12T12:35:53Z</time>
      </trkpt>
      <trkpt lat="45.65026" lon="6.59897">
        <ele>2178.48</ele>
        <time>2011-06-12T12:35:59Z</time>
      </trkpt>
      <trkpt lat="45.65028" lon="6.59892">
        <ele>2178</ele>
        <time>2011-06-12T12:36:00Z</time>
      </trkpt>
      <trkpt lat="45.65031" lon="6.59886">
        <ele>2177.52</ele>
        <time>2011-06-12T12:36:01Z</time>
      </trkpt>
      <trkpt lat="45.65039" lon="6.59863">
        <ele>2176.56</ele>
        <time>2011-06-12T12:36:05Z</time>
      </trkpt>
      <trkpt lat="45.6504" lon="6.59857">
        <ele>2176.08</ele>
        <time>2011-06-12T12:36:06Z</time>
      </trkpt>
      <trkpt lat="45.65044" lon="6.59832">
        <ele>2173.2</ele>
        <time>2011-06-12T12:36:11Z</time>
      </trkpt>
      <trkpt lat="45.65048" lon="6.59816">
        <ele>2169.83</ele>
        <time>2011-06-12T12:36:15Z</time>
      </trkpt>
      <trkpt lat="45.65053" lon="6.59807">
        <ele>2168.87</ele>
        <time>2011-06-12T12:36:17Z</time>
      </trkpt>
      <trkpt lat="45.65057" lon="6.59804">
        <ele>2168.39</ele>
        <time>2011-06-12T12:36:18Z</time>
      </trkpt>
      <trkpt lat="45.65066" lon="6.59797">
        <ele>2166.47</ele>
        <time>2011-06-12T12:36:20Z</time>
      </trkpt>
      <trkpt lat="45.65076" lon="6.59791">
        <ele>2165.51</ele>
        <time>2011-06-12T12:36:22Z</time>
      </trkpt>
      <trkpt lat="45.6508" lon="6.59787">
        <ele>2164.06</ele>
        <time>2011-06-12T12:36:23Z</time>
      </trkpt>
      <trkpt lat="45.65085" lon="6.59783">
        <ele>2164.06</ele>
        <time>2011-06-12T12:36:24Z</time>
      </trkpt>
      <trkpt lat="45.65099" lon="6.59773">
        <ele>2166.47</ele>
        <time>2011-06-12T12:36:31Z</time>
      </trkpt>
      <trkpt lat="45.65113" lon="6.59761">
        <ele>2168.87</ele>
        <time>2011-06-12T12:36:47Z</time>
      </trkpt>
      <trkpt lat="45.65127" lon="6.59754">
        <ele>2171.76</ele>
        <time>2011-06-12T12:37:04Z</time>
      </trkpt>
      <trkpt lat="45.6513" lon="6.59752">
        <ele>2171.76</ele>
        <time>2011-06-12T12:37:09Z</time>
      </trkpt>
      <trkpt lat="45.65131" lon="6.59751">
        <ele>2172.24</ele>
        <time>2011-06-12T12:37:10Z</time>
      </trkpt>
      <trkpt lat="45.65142" lon="6.59741">
        <ele>2173.68</ele>
        <time>2011-06-12T12:37:24Z</time>
      </trkpt>
      <trkpt lat="45.65144" lon="6.59738">
        <ele>2173.68</ele>
        <time>2011-06-12T12:37:28Z</time>
      </trkpt>
      <trkpt lat="45.65144" lon="6.59737">
        <ele>2173.68</ele>
        <time>2011-06-12T12:37:29Z</time>
      </trkpt>
      <trkpt lat="45.65147" lon="6.59736">
        <ele>2173.68</ele>
        <time>2011-06-12T12:37:32Z</time>
      </trkpt>
      <trkpt lat="45.65159" lon="6.59721">
        <ele>2175.6</ele>
        <time>2011-06-12T12:37:47Z</time>
      </trkpt>
      <trkpt lat="45.65168" lon="6.59712">
        <ele>2176.08</ele>
        <time>2011-06-12T12:38:00Z</time>
      </trkpt>
      <trkpt lat="45.65168" lon="6.59712">
        <ele>2176.56</ele>
        <time>2011-06-12T12:38:01Z</time>
      </trkpt>
      <trkpt lat="45.65184" lon="6.59698">
        <ele>2176.56</ele>
        <time>2011-06-12T12:38:14Z</time>
      </trkpt>
      <trkpt lat="45.65208" lon="6.59672">
        <ele>2176.08</ele>
        <time>2011-06-12T12:38:28Z</time>
      </trkpt>
      <trkpt lat="45.65236" lon="6.59659">
        <ele>2175.6</ele>
        <time>2011-06-12T12:38:43Z</time>
      </trkpt>
      <trkpt lat="45.65258" lon="6.59653">
        <ele>2177.52</ele>
        <time>2011-06-12T12:38:56Z</time>
      </trkpt>
      <trkpt lat="45.6526" lon="6.59652">
        <ele>2178</ele>
        <time>2011-06-12T12:38:57Z</time>
      </trkpt>
      <trkpt lat="45.65261" lon="6.59651">
        <ele>2177.52</ele>
        <time>2011-06-12T12:38:58Z</time>
      </trkpt>
      <trkpt lat="45.65262" lon="6.5965">
        <ele>2177.52</ele>
        <time>2011-06-12T12:38:59Z</time>
      </trkpt>
      <trkpt lat="45.65263" lon="6.5965">
        <ele>2178</ele>
        <time>2011-06-12T12:39:16Z</time>
      </trkpt>
      <trkpt lat="45.65263" lon="6.59648">
        <ele>2177.04</ele>
        <time>2011-06-12T12:39:20Z</time>
      </trkpt>
      <trkpt lat="45.65265" lon="6.59645">
        <ele>2177.04</ele>
        <time>2011-06-12T12:39:22Z</time>
      </trkpt>
      <trkpt lat="45.65274" lon="6.59633">
        <ele>2172.72</ele>
        <time>2011-06-12T12:39:29Z</time>
      </trkpt>
      <trkpt lat="45.65282" lon="6.5962">
        <ele>2169.35</ele>
        <time>2011-06-12T12:39:33Z</time>
      </trkpt>
      <trkpt lat="45.65289" lon="6.59611">
        <ele>2165.99</ele>
        <time>2011-06-12T12:39:36Z</time>
      </trkpt>
      <trkpt lat="45.653" lon="6.59599">
        <ele>2162.62</ele>
        <time>2011-06-12T12:39:42Z</time>
      </trkpt>
      <trkpt lat="45.65311" lon="6.59587">
        <ele>2159.74</ele>
        <time>2011-06-12T12:39:47Z</time>
      </trkpt>
      <trkpt lat="45.65326" lon="6.59574">
        <ele>2156.86</ele>
        <time>2011-06-12T12:39:50Z</time>
      </trkpt>
      <trkpt lat="45.65337" lon="6.59565">
        <ele>2155.41</ele>
        <time>2011-06-12T12:39:52Z</time>
      </trkpt>
      <trkpt lat="45.65345" lon="6.59556">
        <ele>2156.37</ele>
        <time>2011-06-12T12:39:54Z</time>
      </trkpt>
      <trkpt lat="45.65349" lon="6.59552">
        <ele>2155.89</ele>
        <time>2011-06-12T12:39:55Z</time>
      </trkpt>
      <trkpt lat="45.65353" lon="6.5955">
        <ele>2155.41</ele>
        <time>2011-06-12T12:39:56Z</time>
      </trkpt>
      <trkpt lat="45.65356" lon="6.59547">
        <ele>2155.89</ele>
        <time>2011-06-12T12:39:57Z</time>
      </trkpt>
      <trkpt lat="45.65359" lon="6.59545">
        <ele>2155.89</ele>
        <time>2011-06-12T12:39:58Z</time>
      </trkpt>
      <trkpt lat="45.65374" lon="6.59536">
        <ele>2156.86</ele>
        <time>2011-06-12T12:40:06Z</time>
      </trkpt>
      <trkpt lat="45.65376" lon="6.59535">
        <ele>2156.37</ele>
        <time>2011-06-12T12:40:07Z</time>
      </trkpt>
      <trkpt lat="45.65378" lon="6.59534">
        <ele>2155.89</ele>
        <time>2011-06-12T12:40:08Z</time>
      </trkpt>
      <trkpt lat="45.6538" lon="6.59532">
        <ele>2155.89</ele>
        <time>2011-06-12T12:40:09Z</time>
      </trkpt>
      <trkpt lat="45.65382" lon="6.5953">
        <ele>2156.37</ele>
        <time>2011-06-12T12:40:10Z</time>
      </trkpt>
      <trkpt lat="45.65384" lon="6.59529">
        <ele>2156.37</ele>
        <time>2011-06-12T12:40:11Z</time>
      </trkpt>
      <trkpt lat="45.65386" lon="6.59528">
        <ele>2156.37</ele>
        <time>2011-06-12T12:40:18Z</time>
      </trkpt>
      <trkpt lat="45.65387" lon="6.59527">
        <ele>2155.89</ele>
        <time>2011-06-12T12:40:20Z</time>
      </trkpt>
      <trkpt lat="45.65389" lon="6.59525">
        <ele>2155.89</ele>
        <time>2011-06-12T12:40:21Z</time>
      </trkpt>
      <trkpt lat="45.65389" lon="6.59524">
        <ele>2155.89</ele>
        <time>2011-06-12T12:40:22Z</time>
      </trkpt>
      <trkpt lat="45.6539" lon="6.59523">
        <ele>2156.37</ele>
        <time>2011-06-12T12:40:23Z</time>
      </trkpt>
      <trkpt lat="45.65391" lon="6.59522">
        <ele>2155.89</ele>
        <time>2011-06-12T12:40:24Z</time>
      </trkpt>
      <trkpt lat="45.65393" lon="6.59521">
        <ele>2156.37</ele>
        <time>2011-06-12T12:40:25Z</time>
      </trkpt>
      <trkpt lat="45.65405" lon="6.59506">
        <ele>2156.86</ele>
        <time>2011-06-12T12:40:38Z</time>
      </trkpt>
      <trkpt lat="45.65406" lon="6.59505">
        <ele>2156.86</ele>
        <time>2011-06-12T12:40:39Z</time>
      </trkpt>
      <trkpt lat="45.65408" lon="6.59504">
        <ele>2156.86</ele>
        <time>2011-06-12T12:40:41Z</time>
      </trkpt>
      <trkpt lat="45.6541" lon="6.59503">
        <ele>2156.86</ele>
        <time>2011-06-12T12:40:42Z</time>
      </trkpt>
      <trkpt lat="45.65417" lon="6.59494">
        <ele>2157.82</ele>
        <time>2011-06-12T12:40:52Z</time>
      </trkpt>
      <trkpt lat="45.65422" lon="6.5949">
        <ele>2158.3</ele>
        <time>2011-06-12T12:40:58Z</time>
      </trkpt>
      <trkpt lat="45.65437" lon="6.59484">
        <ele>2160.22</ele>
        <time>2011-06-12T12:41:13Z</time>
      </trkpt>
      <trkpt lat="45.65442" lon="6.59481">
        <ele>2160.22</ele>
        <time>2011-06-12T12:41:28Z</time>
      </trkpt>
      <trkpt lat="45.65443" lon="6.59479">
        <ele>2160.22</ele>
        <time>2011-06-12T12:41:31Z</time>
      </trkpt>
      <trkpt lat="45.65443" lon="6.59477">
        <ele>2160.22</ele>
        <time>2011-06-12T12:41:32Z</time>
      </trkpt>
      <trkpt lat="45.65445" lon="6.59474">
        <ele>2160.22</ele>
        <time>2011-06-12T12:41:35Z</time>
      </trkpt>
      <trkpt lat="45.65446" lon="6.59473">
        <ele>2160.22</ele>
        <time>2011-06-12T12:41:36Z</time>
      </trkpt>
      <trkpt lat="45.65447" lon="6.59472">
        <ele>2160.22</ele>
        <time>2011-06-12T12:41:37Z</time>
      </trkpt>
      <trkpt lat="45.65461" lon="6.59462">
        <ele>2162.14</ele>
        <time>2011-06-12T12:41:53Z</time>
      </trkpt>
      <trkpt lat="45.6548" lon="6.59457">
        <ele>2164.06</ele>
        <time>2011-06-12T12:42:11Z</time>
      </trkpt>
      <trkpt lat="45.65484" lon="6.59452">
        <ele>2164.55</ele>
        <time>2011-06-12T12:42:17Z</time>
      </trkpt>
      <trkpt lat="45.65484" lon="6.5945">
        <ele>2164.55</ele>
        <time>2011-06-12T12:42:18Z</time>
      </trkpt>
      <trkpt lat="45.65492" lon="6.59442">
        <ele>2165.51</ele>
        <time>2011-06-12T12:42:31Z</time>
      </trkpt>
      <trkpt lat="45.65505" lon="6.59437">
        <ele>2165.99</ele>
        <time>2011-06-12T12:42:41Z</time>
      </trkpt>
      <trkpt lat="45.6553" lon="6.59422">
        <ele>2164.06</ele>
        <time>2011-06-12T12:42:53Z</time>
      </trkpt>
      <trkpt lat="45.65546" lon="6.59413">
        <ele>2165.03</ele>
        <time>2011-06-12T12:43:01Z</time>
      </trkpt>
      <trkpt lat="45.65551" lon="6.5941">
        <ele>2165.51</ele>
        <time>2011-06-12T12:43:12Z</time>
      </trkpt>
      <trkpt lat="45.65551" lon="6.5941">
        <ele>2165.99</ele>
        <time>2011-06-12T12:43:31Z</time>
      </trkpt>
      <trkpt lat="45.65551" lon="6.5941">
        <ele>2165.51</ele>
        <time>2011-06-12T12:44:07Z</time>
      </trkpt>
      <trkpt lat="45.65551" lon="6.59411">
        <ele>2165.51</ele>
        <time>2011-06-12T12:44:37Z</time>
      </trkpt>
      <trkpt lat="45.65551" lon="6.59411">
        <ele>2165.03</ele>
        <time>2011-06-12T12:45:05Z</time>
      </trkpt>
      <trkpt lat="45.65557" lon="6.59408">
        <ele>2164.55</ele>
        <time>2011-06-12T12:45:23Z</time>
      </trkpt>
      <trkpt lat="45.65572" lon="6.59401">
        <ele>2161.66</ele>
        <time>2011-06-12T12:45:28Z</time>
      </trkpt>
      <trkpt lat="45.6558" lon="6.59396">
        <ele>2160.7</ele>
        <time>2011-06-12T12:45:30Z</time>
      </trkpt>
      <trkpt lat="45.65585" lon="6.59395">
        <ele>2160.22</ele>
        <time>2011-06-12T12:45:31Z</time>
      </trkpt>
      <trkpt lat="45.65589" lon="6.59392">
        <ele>2160.22</ele>
        <time>2011-06-12T12:45:32Z</time>
      </trkpt>
      <trkpt lat="45.65592" lon="6.59389">
        <ele>2159.26</ele>
        <time>2011-06-12T12:45:33Z</time>
      </trkpt>
      <trkpt lat="45.65595" lon="6.59386">
        <ele>2159.26</ele>
        <time>2011-06-12T12:45:34Z</time>
      </trkpt>
      <trkpt lat="45.65598" lon="6.59382">
        <ele>2158.78</ele>
        <time>2011-06-12T12:45:35Z</time>
      </trkpt>
      <trkpt lat="45.65612" lon="6.59371">
        <ele>2157.82</ele>
        <time>2011-06-12T12:45:39Z</time>
      </trkpt>
      <trkpt lat="45.65616" lon="6.5937">
        <ele>2157.34</ele>
        <time>2011-06-12T12:45:40Z</time>
      </trkpt>
      <trkpt lat="45.65629" lon="6.59365">
        <ele>2156.86</ele>
        <time>2011-06-12T12:45:43Z</time>
      </trkpt>
      <trkpt lat="45.65638" lon="6.5936">
        <ele>2155.89</ele>
        <time>2011-06-12T12:45:45Z</time>
      </trkpt>
      <trkpt lat="45.65652" lon="6.5935">
        <ele>2152.05</ele>
        <time>2011-06-12T12:45:50Z</time>
      </trkpt>
      <trkpt lat="45.65659" lon="6.59344">
        <ele>2148.68</ele>
        <time>2011-06-12T12:45:53Z</time>
      </trkpt>
      <trkpt lat="45.65664" lon="6.59333">
        <ele>2145.32</ele>
        <time>2011-06-12T12:45:56Z</time>
      </trkpt>
      <trkpt lat="45.65666" lon="6.59327">
        <ele>2144.36</ele>
        <time>2011-06-12T12:45:58Z</time>
      </trkpt>
      <trkpt lat="45.65672" lon="6.59327">
        <ele>2142.92</ele>
        <time>2011-06-12T12:46:02Z</time>
      </trkpt>
      <trkpt lat="45.65706" lon="6.59327">
        <ele>2141.95</ele>
        <time>2011-06-12T12:46:16Z</time>
      </trkpt>
      <trkpt lat="45.65737" lon="6.59323">
        <ele>2141.95</ele>
        <time>2011-06-12T12:46:27Z</time>
      </trkpt>
      <trkpt lat="45.65751" lon="6.5932">
        <ele>2140.51</ele>
        <time>2011-06-12T12:46:32Z</time>
      </trkpt>
      <trkpt lat="45.65763" lon="6.59316">
        <ele>2136.67</ele>
        <time>2011-06-12T12:46:37Z</time>
      </trkpt>
      <trkpt lat="45.65771" lon="6.59315">
        <ele>2133.78</ele>
        <time>2011-06-12T12:46:41Z</time>
      </trkpt>
      <trkpt lat="45.65778" lon="6.59314">
        <ele>2130.9</ele>
        <time>2011-06-12T12:46:44Z</time>
      </trkpt>
      <trkpt lat="45.65786" lon="6.59318">
        <ele>2128.02</ele>
        <time>2011-06-12T12:46:48Z</time>
      </trkpt>
      <trkpt lat="45.65792" lon="6.59325">
        <ele>2124.65</ele>
        <time>2011-06-12T12:46:50Z</time>
      </trkpt>
      <trkpt lat="45.65798" lon="6.59332">
        <ele>2123.21</ele>
        <time>2011-06-12T12:46:52Z</time>
      </trkpt>
      <trkpt lat="45.65821" lon="6.59344">
        <ele>2119.84</ele>
        <time>2011-06-12T12:47:00Z</time>
      </trkpt>
      <trkpt lat="45.65824" lon="6.59345">
        <ele>2119.84</ele>
        <time>2011-06-12T12:47:01Z</time>
      </trkpt>
      <trkpt lat="45.65832" lon="6.59348">
        <ele>2116.96</ele>
        <time>2011-06-12T12:47:04Z</time>
      </trkpt>
      <trkpt lat="45.65847" lon="6.59349">
        <ele>2113.12</ele>
        <time>2011-06-12T12:47:09Z</time>
      </trkpt>
      <trkpt lat="45.65859" lon="6.59353">
        <ele>2112.15</ele>
        <time>2011-06-12T12:47:13Z</time>
      </trkpt>
      <trkpt lat="45.65877" lon="6.59358">
        <ele>2108.79</ele>
        <time>2011-06-12T12:47:18Z</time>
      </trkpt>
      <trkpt lat="45.6588" lon="6.59359">
        <ele>2108.31</ele>
        <time>2011-06-12T12:47:19Z</time>
      </trkpt>
      <trkpt lat="45.65888" lon="6.5936">
        <ele>2106.39</ele>
        <time>2011-06-12T12:47:22Z</time>
      </trkpt>
      <trkpt lat="45.65894" lon="6.59361">
        <ele>2103.02</ele>
        <time>2011-06-12T12:47:25Z</time>
      </trkpt>
      <trkpt lat="45.65904" lon="6.59358">
        <ele>2098.21</ele>
        <time>2011-06-12T12:47:29Z</time>
      </trkpt>
      <trkpt lat="45.65907" lon="6.59358">
        <ele>2098.7</ele>
        <time>2011-06-12T12:47:30Z</time>
      </trkpt>
      <trkpt lat="45.65915" lon="6.59357">
        <ele>2095.33</ele>
        <time>2011-06-12T12:47:33Z</time>
      </trkpt>
      <trkpt lat="45.65922" lon="6.59357">
        <ele>2094.37</ele>
        <time>2011-06-12T12:47:35Z</time>
      </trkpt>
      <trkpt lat="45.6593" lon="6.59357">
        <ele>2092.45</ele>
        <time>2011-06-12T12:47:37Z</time>
      </trkpt>
      <trkpt lat="45.65934" lon="6.59358">
        <ele>2092.45</ele>
        <time>2011-06-12T12:47:38Z</time>
      </trkpt>
      <trkpt lat="45.65938" lon="6.5936">
        <ele>2091.97</ele>
        <time>2011-06-12T12:47:39Z</time>
      </trkpt>
      <trkpt lat="45.65942" lon="6.59363">
        <ele>2091</ele>
        <time>2011-06-12T12:47:40Z</time>
      </trkpt>
      <trkpt lat="45.65947" lon="6.59365">
        <ele>2090.52</ele>
        <time>2011-06-12T12:47:41Z</time>
      </trkpt>
      <trkpt lat="45.65951" lon="6.59365">
        <ele>2091.49</ele>
        <time>2011-06-12T12:47:42Z</time>
      </trkpt>
      <trkpt lat="45.65964" lon="6.59372">
        <ele>2094.85</ele>
        <time>2011-06-12T12:47:48Z</time>
      </trkpt>
      <trkpt lat="45.65986" lon="6.59382">
        <ele>2096.29</ele>
        <time>2011-06-12T12:47:59Z</time>
      </trkpt>
      <trkpt lat="45.66002" lon="6.59389">
        <ele>2098.21</ele>
        <time>2011-06-12T12:48:13Z</time>
      </trkpt>
      <trkpt lat="45.66011" lon="6.59394">
        <ele>2098.21</ele>
        <time>2011-06-12T12:48:28Z</time>
      </trkpt>
      <trkpt lat="45.66026" lon="6.59397">
        <ele>2099.18</ele>
        <time>2011-06-12T12:48:40Z</time>
      </trkpt>
      <trkpt lat="45.66047" lon="6.59398">
        <ele>2099.18</ele>
        <time>2011-06-12T12:48:52Z</time>
      </trkpt>
      <trkpt lat="45.66077" lon="6.59394">
        <ele>2095.81</ele>
        <time>2011-06-12T12:49:04Z</time>
      </trkpt>
      <trkpt lat="45.66116" lon="6.59391">
        <ele>2093.41</ele>
        <time>2011-06-12T12:49:15Z</time>
      </trkpt>
      <trkpt lat="45.6612" lon="6.5939">
        <ele>2092.93</ele>
        <time>2011-06-12T12:49:16Z</time>
      </trkpt>
      <trkpt lat="45.6613" lon="6.5939">
        <ele>2092.45</ele>
        <time>2011-06-12T12:49:18Z</time>
      </trkpt>
      <trkpt lat="45.66139" lon="6.5939">
        <ele>2091.49</ele>
        <time>2011-06-12T12:49:20Z</time>
      </trkpt>
      <trkpt lat="45.66154" lon="6.59393">
        <ele>2088.6</ele>
        <time>2011-06-12T12:49:24Z</time>
      </trkpt>
      <trkpt lat="45.66175" lon="6.59404">
        <ele>2085.24</ele>
        <time>2011-06-12T12:49:31Z</time>
      </trkpt>
      <trkpt lat="45.66184" lon="6.59408">
        <ele>2081.39</ele>
        <time>2011-06-12T12:49:34Z</time>
      </trkpt>
      <trkpt lat="45.66193" lon="6.59413">
        <ele>2078.51</ele>
        <time>2011-06-12T12:49:37Z</time>
      </trkpt>
      <trkpt lat="45.66196" lon="6.59415">
        <ele>2078.99</ele>
        <time>2011-06-12T12:49:38Z</time>
      </trkpt>
      <trkpt lat="45.66208" lon="6.59418">
        <ele>2075.14</ele>
        <time>2011-06-12T12:49:41Z</time>
      </trkpt>
      <trkpt lat="45.66212" lon="6.5942">
        <ele>2074.18</ele>
        <time>2011-06-12T12:49:42Z</time>
      </trkpt>
      <trkpt lat="45.66215" lon="6.59423">
        <ele>2074.18</ele>
        <time>2011-06-12T12:49:43Z</time>
      </trkpt>
      <trkpt lat="45.66222" lon="6.59426">
        <ele>2071.78</ele>
        <time>2011-06-12T12:49:46Z</time>
      </trkpt>
      <trkpt lat="45.6624" lon="6.59432">
        <ele>2068.89</ele>
        <time>2011-06-12T12:49:57Z</time>
      </trkpt>
      <trkpt lat="45.66242" lon="6.59431">
        <ele>2068.89</ele>
        <time>2011-06-12T12:49:58Z</time>
      </trkpt>
      <trkpt lat="45.66243" lon="6.59431">
        <ele>2067.93</ele>
        <time>2011-06-12T12:50:11Z</time>
      </trkpt>
      <trkpt lat="45.66243" lon="6.59431">
        <ele>2068.41</ele>
        <time>2011-06-12T12:50:52Z</time>
      </trkpt>
      <trkpt lat="45.66244" lon="6.59431">
        <ele>2067.93</ele>
        <time>2011-06-12T12:51:13Z</time>
      </trkpt>
      <trkpt lat="45.66245" lon="6.59432">
        <ele>2067.45</ele>
        <time>2011-06-12T12:51:14Z</time>
      </trkpt>
      <trkpt lat="45.66247" lon="6.59433">
        <ele>2067.45</ele>
        <time>2011-06-12T12:51:15Z</time>
      </trkpt>
      <trkpt lat="45.66274" lon="6.59465">
        <ele>2063.13</ele>
        <time>2011-06-12T12:51:23Z</time>
      </trkpt>
      <trkpt lat="45.66278" lon="6.59471">
        <ele>2062.65</ele>
        <time>2011-06-12T12:51:24Z</time>
      </trkpt>
      <trkpt lat="45.66291" lon="6.59492">
        <ele>2062.65</ele>
        <time>2011-06-12T12:51:28Z</time>
      </trkpt>
      <trkpt lat="45.66314" lon="6.59519">
        <ele>2065.05</ele>
        <time>2011-06-12T12:51:39Z</time>
      </trkpt>
      <trkpt lat="45.66322" lon="6.59522">
        <ele>2065.05</ele>
        <time>2011-06-12T12:51:42Z</time>
      </trkpt>
      <trkpt lat="45.66354" lon="6.59524">
        <ele>2065.05</ele>
        <time>2011-06-12T12:51:56Z</time>
      </trkpt>
      <trkpt lat="45.66386" lon="6.59529">
        <ele>2065.53</ele>
        <time>2011-06-12T12:52:11Z</time>
      </trkpt>
      <trkpt lat="45.66417" lon="6.5954">
        <ele>2066.97</ele>
        <time>2011-06-12T12:52:27Z</time>
      </trkpt>
      <trkpt lat="45.6642" lon="6.59542">
        <ele>2066.97</ele>
        <time>2011-06-12T12:52:29Z</time>
      </trkpt>
      <trkpt lat="45.66422" lon="6.59542">
        <ele>2067.45</ele>
        <time>2011-06-12T12:52:30Z</time>
      </trkpt>
      <trkpt lat="45.66423" lon="6.59544">
        <ele>2067.93</ele>
        <time>2011-06-12T12:52:31Z</time>
      </trkpt>
      <trkpt lat="45.66425" lon="6.59545">
        <ele>2066.97</ele>
        <time>2011-06-12T12:52:32Z</time>
      </trkpt>
      <trkpt lat="45.66427" lon="6.59546">
        <ele>2066.97</ele>
        <time>2011-06-12T12:52:33Z</time>
      </trkpt>
      <trkpt lat="45.66452" lon="6.59552">
        <ele>2069.86</ele>
        <time>2011-06-12T12:52:50Z</time>
      </trkpt>
      <trkpt lat="45.66456" lon="6.59554">
        <ele>2069.86</ele>
        <time>2011-06-12T12:53:06Z</time>
      </trkpt>
      <trkpt lat="45.66456" lon="6.59554">
        <ele>2069.86</ele>
        <time>2011-06-12T12:53:34Z</time>
      </trkpt>
      <trkpt lat="45.66459" lon="6.59554">
        <ele>2070.34</ele>
        <time>2011-06-12T12:53:58Z</time>
      </trkpt>
      <trkpt lat="45.66461" lon="6.59555">
        <ele>2070.82</ele>
        <time>2011-06-12T12:54:00Z</time>
      </trkpt>
      <trkpt lat="45.66462" lon="6.59555">
        <ele>2070.34</ele>
        <time>2011-06-12T12:54:01Z</time>
      </trkpt>
      <trkpt lat="45.66462" lon="6.59555">
        <ele>2070.82</ele>
        <time>2011-06-12T12:54:02Z</time>
      </trkpt>
      <trkpt lat="45.66464" lon="6.59556">
        <ele>2071.3</ele>
        <time>2011-06-12T12:54:03Z</time>
      </trkpt>
      <trkpt lat="45.66465" lon="6.59556">
        <ele>2071.3</ele>
        <time>2011-06-12T12:54:04Z</time>
      </trkpt>
      <trkpt lat="45.66466" lon="6.59556">
        <ele>2071.3</ele>
        <time>2011-06-12T12:54:05Z</time>
      </trkpt>
      <trkpt lat="45.66468" lon="6.59556">
        <ele>2071.78</ele>
        <time>2011-06-12T12:54:06Z</time>
      </trkpt>
      <trkpt lat="45.66469" lon="6.59556">
        <ele>2071.78</ele>
        <time>2011-06-12T12:54:07Z</time>
      </trkpt>
      <trkpt lat="45.66489" lon="6.59563">
        <ele>2074.66</ele>
        <time>2011-06-12T12:54:22Z</time>
      </trkpt>
      <trkpt lat="45.66502" lon="6.59572">
        <ele>2076.1</ele>
        <time>2011-06-12T12:54:36Z</time>
      </trkpt>
      <trkpt lat="45.66502" lon="6.59573">
        <ele>2074.66</ele>
        <time>2011-06-12T12:54:52Z</time>
      </trkpt>
      <trkpt lat="45.66502" lon="6.59573">
        <ele>2077.07</ele>
        <time>2011-06-12T12:55:00Z</time>
      </trkpt>
      <trkpt lat="45.6651" lon="6.59581">
        <ele>2076.1</ele>
        <time>2011-06-12T12:55:17Z</time>
      </trkpt>
      <trkpt lat="45.66538" lon="6.59602">
        <ele>2074.18</ele>
        <time>2011-06-12T12:55:30Z</time>
      </trkpt>
      <trkpt lat="45.66556" lon="6.59626">
        <ele>2072.26</ele>
        <time>2011-06-12T12:55:35Z</time>
      </trkpt>
      <trkpt lat="45.6657" lon="6.59645">
        <ele>2070.34</ele>
        <time>2011-06-12T12:55:38Z</time>
      </trkpt>
      <trkpt lat="45.66575" lon="6.59649">
        <ele>2070.34</ele>
        <time>2011-06-12T12:55:39Z</time>
      </trkpt>
      <trkpt lat="45.66581" lon="6.59652">
        <ele>2069.86</ele>
        <time>2011-06-12T12:55:40Z</time>
      </trkpt>
      <trkpt lat="45.66586" lon="6.59654">
        <ele>2070.34</ele>
        <time>2011-06-12T12:55:41Z</time>
      </trkpt>
      <trkpt lat="45.66592" lon="6.59658">
        <ele>2071.78</ele>
        <time>2011-06-12T12:55:44Z</time>
      </trkpt>
      <trkpt lat="45.6661" lon="6.5967">
        <ele>2072.26</ele>
        <time>2011-06-12T12:55:59Z</time>
      </trkpt>
      <trkpt lat="45.66612" lon="6.59671">
        <ele>2072.26</ele>
        <time>2011-06-12T12:56:06Z</time>
      </trkpt>
      <trkpt lat="45.66612" lon="6.59672">
        <ele>2072.26</ele>
        <time>2011-06-12T12:56:07Z</time>
      </trkpt>
      <trkpt lat="45.66613" lon="6.59673">
        <ele>2072.26</ele>
        <time>2011-06-12T12:56:08Z</time>
      </trkpt>
      <trkpt lat="45.66615" lon="6.59674">
        <ele>2072.74</ele>
        <time>2011-06-12T12:56:09Z</time>
      </trkpt>
      <trkpt lat="45.66626" lon="6.59688">
        <ele>2073.7</ele>
        <time>2011-06-12T12:56:23Z</time>
      </trkpt>
      <trkpt lat="45.66634" lon="6.59698">
        <ele>2077.07</ele>
        <time>2011-06-12T12:56:34Z</time>
      </trkpt>
      <trkpt lat="45.66637" lon="6.59707">
        <ele>2078.03</ele>
        <time>2011-06-12T12:56:42Z</time>
      </trkpt>
      <trkpt lat="45.66642" lon="6.59714">
        <ele>2079.47</ele>
        <time>2011-06-12T12:56:57Z</time>
      </trkpt>
      <trkpt lat="45.66649" lon="6.59728">
        <ele>2081.87</ele>
        <time>2011-06-12T12:57:13Z</time>
      </trkpt>
      <trkpt lat="45.66656" lon="6.59735">
        <ele>2083.79</ele>
        <time>2011-06-12T12:57:26Z</time>
      </trkpt>
      <trkpt lat="45.6666" lon="6.59737">
        <ele>2084.76</ele>
        <time>2011-06-12T12:57:47Z</time>
      </trkpt>
      <trkpt lat="45.66663" lon="6.59738">
        <ele>2085.24</ele>
        <time>2011-06-12T12:57:50Z</time>
      </trkpt>
      <trkpt lat="45.66664" lon="6.59739">
        <ele>2085.24</ele>
        <time>2011-06-12T12:57:51Z</time>
      </trkpt>
      <trkpt lat="45.66675" lon="6.59748">
        <ele>2087.64</ele>
        <time>2011-06-12T12:58:07Z</time>
      </trkpt>
      <trkpt lat="45.66687" lon="6.59751">
        <ele>2089.56</ele>
        <time>2011-06-12T12:58:22Z</time>
      </trkpt>
      <trkpt lat="45.66689" lon="6.59752">
        <ele>2090.52</ele>
        <time>2011-06-12T12:58:35Z</time>
      </trkpt>
      <trkpt lat="45.66689" lon="6.59752">
        <ele>2091</ele>
        <time>2011-06-12T12:59:02Z</time>
      </trkpt>
      <trkpt lat="45.66692" lon="6.5975">
        <ele>2091.97</ele>
        <time>2011-06-12T12:59:24Z</time>
      </trkpt>
      <trkpt lat="45.66695" lon="6.5975">
        <ele>2091.49</ele>
        <time>2011-06-12T12:59:36Z</time>
      </trkpt>
      <trkpt lat="45.66707" lon="6.59751">
        <ele>2093.89</ele>
        <time>2011-06-12T12:59:50Z</time>
      </trkpt>
      <trkpt lat="45.66716" lon="6.5975">
        <ele>2096.77</ele>
        <time>2011-06-12T13:00:03Z</time>
      </trkpt>
      <trkpt lat="45.66724" lon="6.59754">
        <ele>2096.77</ele>
        <time>2011-06-12T13:00:12Z</time>
      </trkpt>
      <trkpt lat="45.66729" lon="6.59754">
        <ele>2096.77</ele>
        <time>2011-06-12T13:00:24Z</time>
      </trkpt>
      <trkpt lat="45.66736" lon="6.59755">
        <ele>2099.18</ele>
        <time>2011-06-12T13:00:36Z</time>
      </trkpt>
      <trkpt lat="45.66746" lon="6.59753">
        <ele>2100.62</ele>
        <time>2011-06-12T13:00:53Z</time>
      </trkpt>
      <trkpt lat="45.66748" lon="6.59753">
        <ele>2100.62</ele>
        <time>2011-06-12T13:01:12Z</time>
      </trkpt>
      <trkpt lat="45.6675" lon="6.59753">
        <ele>2101.1</ele>
        <time>2011-06-12T13:01:24Z</time>
      </trkpt>
      <trkpt lat="45.66758" lon="6.59752">
        <ele>2102.54</ele>
        <time>2011-06-12T13:01:33Z</time>
      </trkpt>
      <trkpt lat="45.6677" lon="6.59749">
        <ele>2103.98</ele>
        <time>2011-06-12T13:01:49Z</time>
      </trkpt>
      <trkpt lat="45.66772" lon="6.59749">
        <ele>2103.5</ele>
        <time>2011-06-12T13:01:51Z</time>
      </trkpt>
      <trkpt lat="45.66776" lon="6.59748">
        <ele>2104.46</ele>
        <time>2011-06-12T13:01:54Z</time>
      </trkpt>
      <trkpt lat="45.66781" lon="6.59749">
        <ele>2104.46</ele>
        <time>2011-06-12T13:02:01Z</time>
      </trkpt>
      <trkpt lat="45.66786" lon="6.59752">
        <ele>2105.42</ele>
        <time>2011-06-12T13:02:16Z</time>
      </trkpt>
      <trkpt lat="45.66786" lon="6.59752">
        <ele>2103.5</ele>
        <time>2011-06-12T13:02:48Z</time>
      </trkpt>
      <trkpt lat="45.66786" lon="6.59752">
        <ele>2104.94</ele>
        <time>2011-06-12T13:03:12Z</time>
      </trkpt>
      <trkpt lat="45.66786" lon="6.59751">
        <ele>2104.94</ele>
        <time>2011-06-12T13:04:01Z</time>
      </trkpt>
      <trkpt lat="45.66786" lon="6.59752">
        <ele>2104.94</ele>
        <time>2011-06-12T13:04:37Z</time>
      </trkpt>
      <trkpt lat="45.66787" lon="6.59752">
        <ele>2104.46</ele>
        <time>2011-06-12T13:04:59Z</time>
      </trkpt>
      <trkpt lat="45.66788" lon="6.59753">
        <ele>2104.94</ele>
        <time>2011-06-12T13:05:20Z</time>
      </trkpt>
      <trkpt lat="45.6679" lon="6.59754">
        <ele>2104.46</ele>
        <time>2011-06-12T13:05:21Z</time>
      </trkpt>
      <trkpt lat="45.66793" lon="6.59754">
        <ele>2103.98</ele>
        <time>2011-06-12T13:05:22Z</time>
      </trkpt>
      <trkpt lat="45.66796" lon="6.59755">
        <ele>2103.02</ele>
        <time>2011-06-12T13:05:23Z</time>
      </trkpt>
      <trkpt lat="45.668" lon="6.59755">
        <ele>2101.58</ele>
        <time>2011-06-12T13:05:24Z</time>
      </trkpt>
      <trkpt lat="45.66804" lon="6.59754">
        <ele>2100.62</ele>
        <time>2011-06-12T13:05:25Z</time>
      </trkpt>
      <trkpt lat="45.66808" lon="6.59753">
        <ele>2099.66</ele>
        <time>2011-06-12T13:05:26Z</time>
      </trkpt>
      <trkpt lat="45.66821" lon="6.59749">
        <ele>2096.77</ele>
        <time>2011-06-12T13:05:29Z</time>
      </trkpt>
      <trkpt lat="45.66843" lon="6.59745">
        <ele>2093.89</ele>
        <time>2011-06-12T13:05:33Z</time>
      </trkpt>
      <trkpt lat="45.66869" lon="6.59745">
        <ele>2090.04</ele>
        <time>2011-06-12T13:05:40Z</time>
      </trkpt>
      <trkpt lat="45.66874" lon="6.59744">
        <ele>2088.6</ele>
        <time>2011-06-12T13:05:42Z</time>
      </trkpt>
      <trkpt lat="45.66876" lon="6.59743">
        <ele>2087.64</ele>
        <time>2011-06-12T13:05:43Z</time>
      </trkpt>
      <trkpt lat="45.66884" lon="6.59744">
        <ele>2084.76</ele>
        <time>2011-06-12T13:05:47Z</time>
      </trkpt>
      <trkpt lat="45.66885" lon="6.59742">
        <ele>2083.79</ele>
        <time>2011-06-12T13:05:49Z</time>
      </trkpt>
      <trkpt lat="45.66885" lon="6.5974">
        <ele>2083.31</ele>
        <time>2011-06-12T13:06:07Z</time>
      </trkpt>
      <trkpt lat="45.6689" lon="6.5974">
        <ele>2080.43</ele>
        <time>2011-06-12T13:06:15Z</time>
      </trkpt>
      <trkpt lat="45.66891" lon="6.59741">
        <ele>2079.95</ele>
        <time>2011-06-12T13:06:16Z</time>
      </trkpt>
      <trkpt lat="45.66895" lon="6.59742">
        <ele>2078.03</ele>
        <time>2011-06-12T13:06:22Z</time>
      </trkpt>
      <trkpt lat="45.66897" lon="6.59742">
        <ele>2076.1</ele>
        <time>2011-06-12T13:06:26Z</time>
      </trkpt>
      <trkpt lat="45.669" lon="6.59741">
        <ele>2075.14</ele>
        <time>2011-06-12T13:06:27Z</time>
      </trkpt>
      <trkpt lat="45.66903" lon="6.5974">
        <ele>2075.14</ele>
        <time>2011-06-12T13:06:28Z</time>
      </trkpt>
      <trkpt lat="45.66906" lon="6.5974">
        <ele>2073.7</ele>
        <time>2011-06-12T13:06:29Z</time>
      </trkpt>
      <trkpt lat="45.66908" lon="6.5974">
        <ele>2072.74</ele>
        <time>2011-06-12T13:06:30Z</time>
      </trkpt>
      <trkpt lat="45.66911" lon="6.5974">
        <ele>2071.3</ele>
        <time>2011-06-12T13:06:31Z</time>
      </trkpt>
      <trkpt lat="45.66914" lon="6.59741">
        <ele>2070.34</ele>
        <time>2011-06-12T13:06:32Z</time>
      </trkpt>
      <trkpt lat="45.66916" lon="6.59741">
        <ele>2069.86</ele>
        <time>2011-06-12T13:06:33Z</time>
      </trkpt>
      <trkpt lat="45.66919" lon="6.59742">
        <ele>2068.89</ele>
        <time>2011-06-12T13:06:34Z</time>
      </trkpt>
      <trkpt lat="45.66921" lon="6.59743">
        <ele>2067.93</ele>
        <time>2011-06-12T13:06:35Z</time>
      </trkpt>
      <trkpt lat="45.66923" lon="6.59744">
        <ele>2066.97</ele>
        <time>2011-06-12T13:06:36Z</time>
      </trkpt>
      <trkpt lat="45.6693" lon="6.59751">
        <ele>2063.61</ele>
        <time>2011-06-12T13:06:40Z</time>
      </trkpt>
      <trkpt lat="45.66932" lon="6.59755">
        <ele>2062.65</ele>
        <time>2011-06-12T13:06:42Z</time>
      </trkpt>
      <trkpt lat="45.66931" lon="6.59765">
        <ele>2059.76</ele>
        <time>2011-06-12T13:06:46Z</time>
      </trkpt>
      <trkpt lat="45.66921" lon="6.59783">
        <ele>2055.92</ele>
        <time>2011-06-12T13:06:52Z</time>
      </trkpt>
      <trkpt lat="45.6692" lon="6.59787">
        <ele>2055.92</ele>
        <time>2011-06-12T13:06:53Z</time>
      </trkpt>
      <trkpt lat="45.66918" lon="6.59797">
        <ele>2053.99</ele>
        <time>2011-06-12T13:06:56Z</time>
      </trkpt>
      <trkpt lat="45.66919" lon="6.59805">
        <ele>2052.07</ele>
        <time>2011-06-12T13:07:08Z</time>
      </trkpt>
      <trkpt lat="45.66921" lon="6.59806">
        <ele>2051.11</ele>
        <time>2011-06-12T13:07:10Z</time>
      </trkpt>
      <trkpt lat="45.66924" lon="6.59806">
        <ele>2050.63</ele>
        <time>2011-06-12T13:07:14Z</time>
      </trkpt>
      <trkpt lat="45.6693" lon="6.59798">
        <ele>2050.63</ele>
        <time>2011-06-12T13:07:18Z</time>
      </trkpt>
      <trkpt lat="45.66944" lon="6.59796">
        <ele>2049.19</ele>
        <time>2011-06-12T13:07:26Z</time>
      </trkpt>
      <trkpt lat="45.66947" lon="6.598">
        <ele>2048.71</ele>
        <time>2011-06-12T13:07:32Z</time>
      </trkpt>
      <trkpt lat="45.66956" lon="6.59806">
        <ele>2048.23</ele>
        <time>2011-06-12T13:07:38Z</time>
      </trkpt>
      <trkpt lat="45.66982" lon="6.59824">
        <ele>2044.86</ele>
        <time>2011-06-12T13:07:46Z</time>
      </trkpt>
      <trkpt lat="45.67005" lon="6.59835">
        <ele>2043.42</ele>
        <time>2011-06-12T13:07:51Z</time>
      </trkpt>
      <trkpt lat="45.6701" lon="6.59836">
        <ele>2042.46</ele>
        <time>2011-06-12T13:07:52Z</time>
      </trkpt>
      <trkpt lat="45.67015" lon="6.59838">
        <ele>2042.46</ele>
        <time>2011-06-12T13:07:53Z</time>
      </trkpt>
      <trkpt lat="45.67044" lon="6.59849">
        <ele>2039.09</ele>
        <time>2011-06-12T13:07:59Z</time>
      </trkpt>
      <trkpt lat="45.67048" lon="6.59852">
        <ele>2039.57</ele>
        <time>2011-06-12T13:08:00Z</time>
      </trkpt>
      <trkpt lat="45.67052" lon="6.59856">
        <ele>2038.61</ele>
        <time>2011-06-12T13:08:01Z</time>
      </trkpt>
      <trkpt lat="45.67056" lon="6.5986">
        <ele>2038.13</ele>
        <time>2011-06-12T13:08:02Z</time>
      </trkpt>
      <trkpt lat="45.67059" lon="6.59866">
        <ele>2038.13</ele>
        <time>2011-06-12T13:08:03Z</time>
      </trkpt>
      <trkpt lat="45.67062" lon="6.59872">
        <ele>2037.65</ele>
        <time>2011-06-12T13:08:04Z</time>
      </trkpt>
      <trkpt lat="45.67064" lon="6.59878">
        <ele>2037.17</ele>
        <time>2011-06-12T13:08:05Z</time>
      </trkpt>
      <trkpt lat="45.67065" lon="6.59884">
        <ele>2037.17</ele>
        <time>2011-06-12T13:08:06Z</time>
      </trkpt>
      <trkpt lat="45.67081" lon="6.59922">
        <ele>2034.29</ele>
        <time>2011-06-12T13:08:15Z</time>
      </trkpt>
      <trkpt lat="45.6708" lon="6.59925">
        <ele>2034.77</ele>
        <time>2011-06-12T13:08:16Z</time>
      </trkpt>
      <trkpt lat="45.67078" lon="6.59925">
        <ele>2034.29</ele>
        <time>2011-06-12T13:08:17Z</time>
      </trkpt>
      <trkpt lat="45.67077" lon="6.59924">
        <ele>2034.29</ele>
        <time>2011-06-12T13:08:18Z</time>
      </trkpt>
      <trkpt lat="45.67075" lon="6.59922">
        <ele>2034.29</ele>
        <time>2011-06-12T13:08:19Z</time>
      </trkpt>
      <trkpt lat="45.67072" lon="6.59919">
        <ele>2033.81</ele>
        <time>2011-06-12T13:08:20Z</time>
      </trkpt>
      <trkpt lat="45.6707" lon="6.59915">
        <ele>2034.29</ele>
        <time>2011-06-12T13:08:21Z</time>
      </trkpt>
      <trkpt lat="45.67068" lon="6.59912">
        <ele>2032.84</ele>
        <time>2011-06-12T13:08:22Z</time>
      </trkpt>
      <trkpt lat="45.67052" lon="6.59887">
        <ele>2030.92</ele>
        <time>2011-06-12T13:08:27Z</time>
      </trkpt>
      <trkpt lat="45.67048" lon="6.59883">
        <ele>2030.44</ele>
        <time>2011-06-12T13:08:28Z</time>
      </trkpt>
      <trkpt lat="45.67044" lon="6.5988">
        <ele>2029.96</ele>
        <time>2011-06-12T13:08:29Z</time>
      </trkpt>
      <trkpt lat="45.67041" lon="6.59879">
        <ele>2029.48</ele>
        <time>2011-06-12T13:08:30Z</time>
      </trkpt>
      <trkpt lat="45.67038" lon="6.5988">
        <ele>2029.48</ele>
        <time>2011-06-12T13:08:31Z</time>
      </trkpt>
      <trkpt lat="45.67036" lon="6.59882">
        <ele>2029</ele>
        <time>2011-06-12T13:08:32Z</time>
      </trkpt>
      <trkpt lat="45.67035" lon="6.59886">
        <ele>2029</ele>
        <time>2011-06-12T13:08:33Z</time>
      </trkpt>
      <trkpt lat="45.67036" lon="6.5989">
        <ele>2029</ele>
        <time>2011-06-12T13:08:34Z</time>
      </trkpt>
      <trkpt lat="45.67038" lon="6.59895">
        <ele>2029.48</ele>
        <time>2011-06-12T13:08:35Z</time>
      </trkpt>
      <trkpt lat="45.67041" lon="6.59898">
        <ele>2028.52</ele>
        <time>2011-06-12T13:08:36Z</time>
      </trkpt>
      <trkpt lat="45.67044" lon="6.59901">
        <ele>2028.52</ele>
        <time>2011-06-12T13:08:37Z</time>
      </trkpt>
      <trkpt lat="45.67047" lon="6.59906">
        <ele>2028.04</ele>
        <time>2011-06-12T13:08:38Z</time>
      </trkpt>
      <trkpt lat="45.67049" lon="6.59911">
        <ele>2028.04</ele>
        <time>2011-06-12T13:08:39Z</time>
      </trkpt>
      <trkpt lat="45.67052" lon="6.59916">
        <ele>2027.56</ele>
        <time>2011-06-12T13:08:40Z</time>
      </trkpt>
      <trkpt lat="45.67055" lon="6.59922">
        <ele>2026.6</ele>
        <time>2011-06-12T13:08:41Z</time>
      </trkpt>
      <trkpt lat="45.67057" lon="6.59928">
        <ele>2026.12</ele>
        <time>2011-06-12T13:08:42Z</time>
      </trkpt>
      <trkpt lat="45.67075" lon="6.59961">
        <ele>2022.75</ele>
        <time>2011-06-12T13:08:48Z</time>
      </trkpt>
      <trkpt lat="45.67079" lon="6.59966">
        <ele>2022.27</ele>
        <time>2011-06-12T13:08:49Z</time>
      </trkpt>
      <trkpt lat="45.67107" lon="6.60005">
        <ele>2018.91</ele>
        <time>2011-06-12T13:08:57Z</time>
      </trkpt>
      <trkpt lat="45.67114" lon="6.60016">
        <ele>2017.94</ele>
        <time>2011-06-12T13:08:59Z</time>
      </trkpt>
      <trkpt lat="45.67126" lon="6.60043">
        <ele>2015.54</ele>
        <time>2011-06-12T13:09:04Z</time>
      </trkpt>
      <trkpt lat="45.67127" lon="6.60048">
        <ele>2015.54</ele>
        <time>2011-06-12T13:09:05Z</time>
      </trkpt>
      <trkpt lat="45.67127" lon="6.60054">
        <ele>2015.06</ele>
        <time>2011-06-12T13:09:06Z</time>
      </trkpt>
      <trkpt lat="45.67128" lon="6.60061">
        <ele>2014.58</ele>
        <time>2011-06-12T13:09:07Z</time>
      </trkpt>
      <trkpt lat="45.67129" lon="6.60068">
        <ele>2014.1</ele>
        <time>2011-06-12T13:09:08Z</time>
      </trkpt>
      <trkpt lat="45.67132" lon="6.60083">
        <ele>2012.18</ele>
        <time>2011-06-12T13:09:10Z</time>
      </trkpt>
      <trkpt lat="45.67134" lon="6.6009">
        <ele>2011.7</ele>
        <time>2011-06-12T13:09:11Z</time>
      </trkpt>
      <trkpt lat="45.67137" lon="6.60097">
        <ele>2011.22</ele>
        <time>2011-06-12T13:09:12Z</time>
      </trkpt>
      <trkpt lat="45.67148" lon="6.60122">
        <ele>2009.77</ele>
        <time>2011-06-12T13:09:16Z</time>
      </trkpt>
      <trkpt lat="45.67151" lon="6.60129">
        <ele>2008.81</ele>
        <time>2011-06-12T13:09:17Z</time>
      </trkpt>
      <trkpt lat="45.67153" lon="6.60137">
        <ele>2008.81</ele>
        <time>2011-06-12T13:09:18Z</time>
      </trkpt>
      <trkpt lat="45.67155" lon="6.60144">
        <ele>2008.33</ele>
        <time>2011-06-12T13:09:19Z</time>
      </trkpt>
      <trkpt lat="45.67158" lon="6.60152">
        <ele>2007.37</ele>
        <time>2011-06-12T13:09:20Z</time>
      </trkpt>
      <trkpt lat="45.67161" lon="6.60159">
        <ele>2006.41</ele>
        <time>2011-06-12T13:09:21Z</time>
      </trkpt>
      <trkpt lat="45.67165" lon="6.60165">
        <ele>2005.93</ele>
        <time>2011-06-12T13:09:22Z</time>
      </trkpt>
      <trkpt lat="45.67169" lon="6.60171">
        <ele>2004.97</ele>
        <time>2011-06-12T13:09:23Z</time>
      </trkpt>
      <trkpt lat="45.67177" lon="6.6018">
        <ele>2004.49</ele>
        <time>2011-06-12T13:09:25Z</time>
      </trkpt>
      <trkpt lat="45.67187" lon="6.60192">
        <ele>2003.04</ele>
        <time>2011-06-12T13:09:28Z</time>
      </trkpt>
      <trkpt lat="45.67202" lon="6.60209">
        <ele>2001.12</ele>
        <time>2011-06-12T13:09:32Z</time>
      </trkpt>
      <trkpt lat="45.67205" lon="6.60214">
        <ele>2000.16</ele>
        <time>2011-06-12T13:09:33Z</time>
      </trkpt>
      <trkpt lat="45.67222" lon="6.60235">
        <ele>1996.8</ele>
        <time>2011-06-12T13:09:38Z</time>
      </trkpt>
      <trkpt lat="45.67225" lon="6.60239">
        <ele>1996.8</ele>
        <time>2011-06-12T13:09:39Z</time>
      </trkpt>
      <trkpt lat="45.67241" lon="6.60267">
        <ele>1993.43</ele>
        <time>2011-06-12T13:09:44Z</time>
      </trkpt>
      <trkpt lat="45.67246" lon="6.60272">
        <ele>1993.43</ele>
        <time>2011-06-12T13:09:45Z</time>
      </trkpt>
      <trkpt lat="45.6725" lon="6.60276">
        <ele>1992.47</ele>
        <time>2011-06-12T13:09:46Z</time>
      </trkpt>
      <trkpt lat="45.67255" lon="6.60279">
        <ele>1992.47</ele>
        <time>2011-06-12T13:09:47Z</time>
      </trkpt>
      <trkpt lat="45.6726" lon="6.60282">
        <ele>1991.03</ele>
        <time>2011-06-12T13:09:48Z</time>
      </trkpt>
      <trkpt lat="45.67265" lon="6.60285">
        <ele>1990.55</ele>
        <time>2011-06-12T13:09:49Z</time>
      </trkpt>
      <trkpt lat="45.6727" lon="6.60288">
        <ele>1990.07</ele>
        <time>2011-06-12T13:09:50Z</time>
      </trkpt>
      <trkpt lat="45.6728" lon="6.60296">
        <ele>1988.62</ele>
        <time>2011-06-12T13:09:52Z</time>
      </trkpt>
      <trkpt lat="45.67284" lon="6.60302">
        <ele>1987.66</ele>
        <time>2011-06-12T13:09:53Z</time>
      </trkpt>
      <trkpt lat="45.67289" lon="6.60308">
        <ele>1986.7</ele>
        <time>2011-06-12T13:09:54Z</time>
      </trkpt>
      <trkpt lat="45.67292" lon="6.60315">
        <ele>1987.66</ele>
        <time>2011-06-12T13:09:55Z</time>
      </trkpt>
      <trkpt lat="45.67295" lon="6.60321">
        <ele>1986.22</ele>
        <time>2011-06-12T13:09:56Z</time>
      </trkpt>
      <trkpt lat="45.67299" lon="6.60326">
        <ele>1986.22</ele>
        <time>2011-06-12T13:09:57Z</time>
      </trkpt>
      <trkpt lat="45.67302" lon="6.60331">
        <ele>1985.74</ele>
        <time>2011-06-12T13:09:58Z</time>
      </trkpt>
      <trkpt lat="45.67307" lon="6.60336">
        <ele>1985.74</ele>
        <time>2011-06-12T13:09:59Z</time>
      </trkpt>
      <trkpt lat="45.6732" lon="6.60349">
        <ele>1984.3</ele>
        <time>2011-06-12T13:10:02Z</time>
      </trkpt>
      <trkpt lat="45.67324" lon="6.60354">
        <ele>1983.34</ele>
        <time>2011-06-12T13:10:03Z</time>
      </trkpt>
      <trkpt lat="45.67328" lon="6.6036">
        <ele>1982.86</ele>
        <time>2011-06-12T13:10:04Z</time>
      </trkpt>
      <trkpt lat="45.67331" lon="6.60365">
        <ele>1981.9</ele>
        <time>2011-06-12T13:10:05Z</time>
      </trkpt>
      <trkpt lat="45.67333" lon="6.60371">
        <ele>1981.9</ele>
        <time>2011-06-12T13:10:06Z</time>
      </trkpt>
      <trkpt lat="45.67335" lon="6.60377">
        <ele>1981.41</ele>
        <time>2011-06-12T13:10:07Z</time>
      </trkpt>
      <trkpt lat="45.67337" lon="6.60383">
        <ele>1980.45</ele>
        <time>2011-06-12T13:10:08Z</time>
      </trkpt>
      <trkpt lat="45.67339" lon="6.60388">
        <ele>1980.45</ele>
        <time>2011-06-12T13:10:09Z</time>
      </trkpt>
      <trkpt lat="45.67341" lon="6.60393">
        <ele>1979.97</ele>
        <time>2011-06-12T13:10:10Z</time>
      </trkpt>
      <trkpt lat="45.67342" lon="6.60398">
        <ele>1979.49</ele>
        <time>2011-06-12T13:10:11Z</time>
      </trkpt>
      <trkpt lat="45.67344" lon="6.60403">
        <ele>1979.01</ele>
        <time>2011-06-12T13:10:12Z</time>
      </trkpt>
      <trkpt lat="45.67347" lon="6.60408">
        <ele>1979.01</ele>
        <time>2011-06-12T13:10:13Z</time>
      </trkpt>
      <trkpt lat="45.6735" lon="6.60414">
        <ele>1978.05</ele>
        <time>2011-06-12T13:10:14Z</time>
      </trkpt>
      <trkpt lat="45.67362" lon="6.60441">
        <ele>1974.69</ele>
        <time>2011-06-12T13:10:19Z</time>
      </trkpt>
      <trkpt lat="45.67369" lon="6.6046">
        <ele>1972.28</ele>
        <time>2011-06-12T13:10:23Z</time>
      </trkpt>
      <trkpt lat="45.67376" lon="6.6048">
        <ele>1970.36</ele>
        <time>2011-06-12T13:10:27Z</time>
      </trkpt>
      <trkpt lat="45.67387" lon="6.60525">
        <ele>1967.48</ele>
        <time>2011-06-12T13:10:35Z</time>
      </trkpt>
      <trkpt lat="45.67391" lon="6.60537">
        <ele>1966.99</ele>
        <time>2011-06-12T13:10:37Z</time>
      </trkpt>
      <trkpt lat="45.67394" lon="6.60542">
        <ele>1966.51</ele>
        <time>2011-06-12T13:10:38Z</time>
      </trkpt>
      <trkpt lat="45.67397" lon="6.60547">
        <ele>1966.51</ele>
        <time>2011-06-12T13:10:39Z</time>
      </trkpt>
      <trkpt lat="45.67401" lon="6.60551">
        <ele>1965.07</ele>
        <time>2011-06-12T13:10:40Z</time>
      </trkpt>
      <trkpt lat="45.67405" lon="6.60555">
        <ele>1965.07</ele>
        <time>2011-06-12T13:10:41Z</time>
      </trkpt>
      <trkpt lat="45.67409" lon="6.6056">
        <ele>1964.11</ele>
        <time>2011-06-12T13:10:42Z</time>
      </trkpt>
      <trkpt lat="45.67425" lon="6.6058">
        <ele>1963.15</ele>
        <time>2011-06-12T13:10:47Z</time>
      </trkpt>
      <trkpt lat="45.67428" lon="6.60583">
        <ele>1963.63</ele>
        <time>2011-06-12T13:10:48Z</time>
      </trkpt>
      <trkpt lat="45.67432" lon="6.60585">
        <ele>1962.67</ele>
        <time>2011-06-12T13:10:49Z</time>
      </trkpt>
      <trkpt lat="45.67437" lon="6.60585">
        <ele>1963.15</ele>
        <time>2011-06-12T13:10:50Z</time>
      </trkpt>
      <trkpt lat="45.67441" lon="6.60584">
        <ele>1962.19</ele>
        <time>2011-06-12T13:10:51Z</time>
      </trkpt>
      <trkpt lat="45.67445" lon="6.60581">
        <ele>1961.23</ele>
        <time>2011-06-12T13:10:52Z</time>
      </trkpt>
      <trkpt lat="45.67449" lon="6.60577">
        <ele>1960.27</ele>
        <time>2011-06-12T13:10:53Z</time>
      </trkpt>
      <trkpt lat="45.67453" lon="6.60572">
        <ele>1959.78</ele>
        <time>2011-06-12T13:10:54Z</time>
      </trkpt>
      <trkpt lat="45.67456" lon="6.60567">
        <ele>1958.82</ele>
        <time>2011-06-12T13:10:55Z</time>
      </trkpt>
      <trkpt lat="45.6746" lon="6.60562">
        <ele>1958.34</ele>
        <time>2011-06-12T13:10:56Z</time>
      </trkpt>
      <trkpt lat="45.67468" lon="6.60554">
        <ele>1957.38</ele>
        <time>2011-06-12T13:10:58Z</time>
      </trkpt>
      <trkpt lat="45.67472" lon="6.6055">
        <ele>1956.9</ele>
        <time>2011-06-12T13:10:59Z</time>
      </trkpt>
      <trkpt lat="45.67476" lon="6.60547">
        <ele>1956.9</ele>
        <time>2011-06-12T13:11:00Z</time>
      </trkpt>
      <trkpt lat="45.67499" lon="6.60533">
        <ele>1953.54</ele>
        <time>2011-06-12T13:11:06Z</time>
      </trkpt>
      <trkpt lat="45.67503" lon="6.60531">
        <ele>1953.54</ele>
        <time>2011-06-12T13:11:07Z</time>
      </trkpt>
      <trkpt lat="45.67511" lon="6.60529">
        <ele>1952.57</ele>
        <time>2011-06-12T13:11:09Z</time>
      </trkpt>
      <trkpt lat="45.67515" lon="6.6053">
        <ele>1952.57</ele>
        <time>2011-06-12T13:11:10Z</time>
      </trkpt>
      <trkpt lat="45.6752" lon="6.60532">
        <ele>1952.57</ele>
        <time>2011-06-12T13:11:11Z</time>
      </trkpt>
      <trkpt lat="45.67524" lon="6.60535">
        <ele>1952.57</ele>
        <time>2011-06-12T13:11:12Z</time>
      </trkpt>
      <trkpt lat="45.67528" lon="6.60536">
        <ele>1952.09</ele>
        <time>2011-06-12T13:11:13Z</time>
      </trkpt>
      <trkpt lat="45.67533" lon="6.60536">
        <ele>1952.57</ele>
        <time>2011-06-12T13:11:14Z</time>
      </trkpt>
      <trkpt lat="45.67538" lon="6.60534">
        <ele>1951.61</ele>
        <time>2011-06-12T13:11:15Z</time>
      </trkpt>
      <trkpt lat="45.67542" lon="6.60532">
        <ele>1951.13</ele>
        <time>2011-06-12T13:11:16Z</time>
      </trkpt>
      <trkpt lat="45.67556" lon="6.60523">
        <ele>1949.21</ele>
        <time>2011-06-12T13:11:19Z</time>
      </trkpt>
      <trkpt lat="45.67561" lon="6.60521">
        <ele>1948.73</ele>
        <time>2011-06-12T13:11:20Z</time>
      </trkpt>
      <trkpt lat="45.67577" lon="6.60516">
        <ele>1946.81</ele>
        <time>2011-06-12T13:11:23Z</time>
      </trkpt>
      <trkpt lat="45.67583" lon="6.60514">
        <ele>1946.81</ele>
        <time>2011-06-12T13:11:24Z</time>
      </trkpt>
      <trkpt lat="45.67588" lon="6.60512">
        <ele>1946.33</ele>
        <time>2011-06-12T13:11:25Z</time>
      </trkpt>
      <trkpt lat="45.67603" lon="6.60505">
        <ele>1944.4</ele>
        <time>2011-06-12T13:11:28Z</time>
      </trkpt>
      <trkpt lat="45.67614" lon="6.60498">
        <ele>1942.96</ele>
        <time>2011-06-12T13:11:30Z</time>
      </trkpt>
      <trkpt lat="45.67636" lon="6.60484">
        <ele>1940.08</ele>
        <time>2011-06-12T13:11:34Z</time>
      </trkpt>
      <trkpt lat="45.67687" lon="6.60466">
        <ele>1936.23</ele>
        <time>2011-06-12T13:11:43Z</time>
      </trkpt>
      <trkpt lat="45.67693" lon="6.60464">
        <ele>1936.23</ele>
        <time>2011-06-12T13:11:44Z</time>
      </trkpt>
      <trkpt lat="45.67699" lon="6.6046">
        <ele>1935.27</ele>
        <time>2011-06-12T13:11:45Z</time>
      </trkpt>
      <trkpt lat="45.67705" lon="6.60456">
        <ele>1934.31</ele>
        <time>2011-06-12T13:11:46Z</time>
      </trkpt>
      <trkpt lat="45.67711" lon="6.60452">
        <ele>1933.83</ele>
        <time>2011-06-12T13:11:47Z</time>
      </trkpt>
      <trkpt lat="45.67716" lon="6.60448">
        <ele>1933.35</ele>
        <time>2011-06-12T13:11:48Z</time>
      </trkpt>
      <trkpt lat="45.67722" lon="6.60443">
        <ele>1933.35</ele>
        <time>2011-06-12T13:11:49Z</time>
      </trkpt>
      <trkpt lat="45.67739" lon="6.60432">
        <ele>1931.43</ele>
        <time>2011-06-12T13:11:52Z</time>
      </trkpt>
      <trkpt lat="45.67746" lon="6.6043">
        <ele>1931.43</ele>
        <time>2011-06-12T13:11:53Z</time>
      </trkpt>
      <trkpt lat="45.67752" lon="6.60428">
        <ele>1930.46</ele>
        <time>2011-06-12T13:11:54Z</time>
      </trkpt>
      <trkpt lat="45.67769" lon="6.60425">
        <ele>1930.46</ele>
        <time>2011-06-12T13:11:57Z</time>
      </trkpt>
      <trkpt lat="45.67774" lon="6.60422">
        <ele>1929.98</ele>
        <time>2011-06-12T13:11:58Z</time>
      </trkpt>
      <trkpt lat="45.6778" lon="6.60418">
        <ele>1929.5</ele>
        <time>2011-06-12T13:11:59Z</time>
      </trkpt>
      <trkpt lat="45.67785" lon="6.60414">
        <ele>1929.02</ele>
        <time>2011-06-12T13:12:00Z</time>
      </trkpt>
      <trkpt lat="45.6779" lon="6.60409">
        <ele>1928.06</ele>
        <time>2011-06-12T13:12:01Z</time>
      </trkpt>
      <trkpt lat="45.67795" lon="6.60405">
        <ele>1928.06</ele>
        <time>2011-06-12T13:12:02Z</time>
      </trkpt>
      <trkpt lat="45.67801" lon="6.60402">
        <ele>1928.06</ele>
        <time>2011-06-12T13:12:03Z</time>
      </trkpt>
      <trkpt lat="45.67825" lon="6.60389">
        <ele>1926.62</ele>
        <time>2011-06-12T13:12:07Z</time>
      </trkpt>
      <trkpt lat="45.67831" lon="6.60386">
        <ele>1927.1</ele>
        <time>2011-06-12T13:12:08Z</time>
      </trkpt>
      <trkpt lat="45.67837" lon="6.60385">
        <ele>1926.62</ele>
        <time>2011-06-12T13:12:09Z</time>
      </trkpt>
      <trkpt lat="45.67853" lon="6.60384">
        <ele>1926.14</ele>
        <time>2011-06-12T13:12:12Z</time>
      </trkpt>
      <trkpt lat="45.67858" lon="6.60386">
        <ele>1925.66</ele>
        <time>2011-06-12T13:12:13Z</time>
      </trkpt>
      <trkpt lat="45.67862" lon="6.60389">
        <ele>1925.66</ele>
        <time>2011-06-12T13:12:14Z</time>
      </trkpt>
      <trkpt lat="45.67867" lon="6.60393">
        <ele>1925.18</ele>
        <time>2011-06-12T13:12:15Z</time>
      </trkpt>
      <trkpt lat="45.6787" lon="6.60397">
        <ele>1924.7</ele>
        <time>2011-06-12T13:12:16Z</time>
      </trkpt>
      <trkpt lat="45.67874" lon="6.60402">
        <ele>1924.7</ele>
        <time>2011-06-12T13:12:17Z</time>
      </trkpt>
      <trkpt lat="45.67877" lon="6.60407">
        <ele>1924.22</ele>
        <time>2011-06-12T13:12:18Z</time>
      </trkpt>
      <trkpt lat="45.67881" lon="6.60411">
        <ele>1923.74</ele>
        <time>2011-06-12T13:12:19Z</time>
      </trkpt>
      <trkpt lat="45.67885" lon="6.60413">
        <ele>1923.74</ele>
        <time>2011-06-12T13:12:20Z</time>
      </trkpt>
      <trkpt lat="45.6789" lon="6.60414">
        <ele>1922.77</ele>
        <time>2011-06-12T13:12:21Z</time>
      </trkpt>
      <trkpt lat="45.67894" lon="6.60414">
        <ele>1922.29</ele>
        <time>2011-06-12T13:12:22Z</time>
      </trkpt>
      <trkpt lat="45.67899" lon="6.60413">
        <ele>1921.33</ele>
        <time>2011-06-12T13:12:23Z</time>
      </trkpt>
      <trkpt lat="45.67904" lon="6.60411">
        <ele>1921.33</ele>
        <time>2011-06-12T13:12:24Z</time>
      </trkpt>
      <trkpt lat="45.67909" lon="6.60411">
        <ele>1920.37</ele>
        <time>2011-06-12T13:12:25Z</time>
      </trkpt>
      <trkpt lat="45.67914" lon="6.60411">
        <ele>1919.89</ele>
        <time>2011-06-12T13:12:26Z</time>
      </trkpt>
      <trkpt lat="45.6792" lon="6.60413">
        <ele>1919.41</ele>
        <time>2011-06-12T13:12:27Z</time>
      </trkpt>
      <trkpt lat="45.67925" lon="6.60415">
        <ele>1918.93</ele>
        <time>2011-06-12T13:12:28Z</time>
      </trkpt>
      <trkpt lat="45.6793" lon="6.60418">
        <ele>1918.93</ele>
        <time>2011-06-12T13:12:29Z</time>
      </trkpt>
      <trkpt lat="45.6794" lon="6.60424">
        <ele>1918.45</ele>
        <time>2011-06-12T13:12:31Z</time>
      </trkpt>
      <trkpt lat="45.67945" lon="6.60426">
        <ele>1917.97</ele>
        <time>2011-06-12T13:12:32Z</time>
      </trkpt>
      <trkpt lat="45.6796" lon="6.6043">
        <ele>1916.04</ele>
        <time>2011-06-12T13:12:35Z</time>
      </trkpt>
      <trkpt lat="45.67965" lon="6.60433">
        <ele>1915.08</ele>
        <time>2011-06-12T13:12:36Z</time>
      </trkpt>
      <trkpt lat="45.67968" lon="6.60437">
        <ele>1914.6</ele>
        <time>2011-06-12T13:12:37Z</time>
      </trkpt>
      <trkpt lat="45.67972" lon="6.60442">
        <ele>1914.12</ele>
        <time>2011-06-12T13:12:38Z</time>
      </trkpt>
      <trkpt lat="45.67975" lon="6.60448">
        <ele>1913.64</ele>
        <time>2011-06-12T13:12:39Z</time>
      </trkpt>
      <trkpt lat="45.67977" lon="6.60453">
        <ele>1913.16</ele>
        <time>2011-06-12T13:12:40Z</time>
      </trkpt>
      <trkpt lat="45.67981" lon="6.60458">
        <ele>1912.68</ele>
        <time>2011-06-12T13:12:41Z</time>
      </trkpt>
      <trkpt lat="45.67985" lon="6.60461">
        <ele>1912.2</ele>
        <time>2011-06-12T13:12:42Z</time>
      </trkpt>
      <trkpt lat="45.67991" lon="6.60463">
        <ele>1911.72</ele>
        <time>2011-06-12T13:12:43Z</time>
      </trkpt>
      <trkpt lat="45.67996" lon="6.60463">
        <ele>1911.24</ele>
        <time>2011-06-12T13:12:44Z</time>
      </trkpt>
      <trkpt lat="45.68001" lon="6.60463">
        <ele>1910.76</ele>
        <time>2011-06-12T13:12:45Z</time>
      </trkpt>
      <trkpt lat="45.6801" lon="6.60462">
        <ele>1909.32</ele>
        <time>2011-06-12T13:12:47Z</time>
      </trkpt>
      <trkpt lat="45.68015" lon="6.60462">
        <ele>1908.83</ele>
        <time>2011-06-12T13:12:48Z</time>
      </trkpt>
      <trkpt lat="45.68018" lon="6.60464">
        <ele>1907.87</ele>
        <time>2011-06-12T13:12:49Z</time>
      </trkpt>
      <trkpt lat="45.68021" lon="6.60468">
        <ele>1907.39</ele>
        <time>2011-06-12T13:12:50Z</time>
      </trkpt>
      <trkpt lat="45.68024" lon="6.60473">
        <ele>1906.91</ele>
        <time>2011-06-12T13:12:51Z</time>
      </trkpt>
      <trkpt lat="45.68025" lon="6.60479">
        <ele>1906.43</ele>
        <time>2011-06-12T13:12:52Z</time>
      </trkpt>
      <trkpt lat="45.68026" lon="6.60486">
        <ele>1905.47</ele>
        <time>2011-06-12T13:12:53Z</time>
      </trkpt>
      <trkpt lat="45.68027" lon="6.60493">
        <ele>1905.47</ele>
        <time>2011-06-12T13:12:54Z</time>
      </trkpt>
      <trkpt lat="45.68029" lon="6.60507">
        <ele>1904.03</ele>
        <time>2011-06-12T13:12:56Z</time>
      </trkpt>
      <trkpt lat="45.6803" lon="6.60514">
        <ele>1903.07</ele>
        <time>2011-06-12T13:12:57Z</time>
      </trkpt>
      <trkpt lat="45.68033" lon="6.6052">
        <ele>1903.55</ele>
        <time>2011-06-12T13:12:58Z</time>
      </trkpt>
      <trkpt lat="45.68039" lon="6.60533">
        <ele>1902.59</ele>
        <time>2011-06-12T13:13:00Z</time>
      </trkpt>
      <trkpt lat="45.68043" lon="6.60538">
        <ele>1902.11</ele>
        <time>2011-06-12T13:13:01Z</time>
      </trkpt>
      <trkpt lat="45.68047" lon="6.60543">
        <ele>1901.63</ele>
        <time>2011-06-12T13:13:02Z</time>
      </trkpt>
      <trkpt lat="45.68051" lon="6.60546">
        <ele>1901.14</ele>
        <time>2011-06-12T13:13:03Z</time>
      </trkpt>
      <trkpt lat="45.68055" lon="6.60549">
        <ele>1900.66</ele>
        <time>2011-06-12T13:13:04Z</time>
      </trkpt>
      <trkpt lat="45.68059" lon="6.60552">
        <ele>1900.18</ele>
        <time>2011-06-12T13:13:05Z</time>
      </trkpt>
      <trkpt lat="45.68064" lon="6.60554">
        <ele>1899.7</ele>
        <time>2011-06-12T13:13:06Z</time>
      </trkpt>
      <trkpt lat="45.68072" lon="6.60558">
        <ele>1898.74</ele>
        <time>2011-06-12T13:13:08Z</time>
      </trkpt>
      <trkpt lat="45.68084" lon="6.60566">
        <ele>1896.82</ele>
        <time>2011-06-12T13:13:11Z</time>
      </trkpt>
      <trkpt lat="45.6811" lon="6.60588">
        <ele>1893.45</ele>
        <time>2011-06-12T13:13:18Z</time>
      </trkpt>
      <trkpt lat="45.68117" lon="6.60596">
        <ele>1892.97</ele>
        <time>2011-06-12T13:13:20Z</time>
      </trkpt>
      <trkpt lat="45.68121" lon="6.606">
        <ele>1891.53</ele>
        <time>2011-06-12T13:13:21Z</time>
      </trkpt>
      <trkpt lat="45.68125" lon="6.60603">
        <ele>1891.53</ele>
        <time>2011-06-12T13:13:22Z</time>
      </trkpt>
      <trkpt lat="45.6813" lon="6.60604">
        <ele>1891.53</ele>
        <time>2011-06-12T13:13:23Z</time>
      </trkpt>
      <trkpt lat="45.68134" lon="6.60603">
        <ele>1890.57</ele>
        <time>2011-06-12T13:13:24Z</time>
      </trkpt>
      <trkpt lat="45.68138" lon="6.60601">
        <ele>1890.09</ele>
        <time>2011-06-12T13:13:25Z</time>
      </trkpt>
      <trkpt lat="45.68142" lon="6.60598">
        <ele>1890.09</ele>
        <time>2011-06-12T13:13:26Z</time>
      </trkpt>
      <trkpt lat="45.68146" lon="6.60593">
        <ele>1889.61</ele>
        <time>2011-06-12T13:13:27Z</time>
      </trkpt>
      <trkpt lat="45.68149" lon="6.60588">
        <ele>1888.17</ele>
        <time>2011-06-12T13:13:28Z</time>
      </trkpt>
      <trkpt lat="45.68151" lon="6.60582">
        <ele>1887.21</ele>
        <time>2011-06-12T13:13:29Z</time>
      </trkpt>
      <trkpt lat="45.68153" lon="6.60576">
        <ele>1887.21</ele>
        <time>2011-06-12T13:13:30Z</time>
      </trkpt>
      <trkpt lat="45.68158" lon="6.60557">
        <ele>1885.28</ele>
        <time>2011-06-12T13:13:33Z</time>
      </trkpt>
      <trkpt lat="45.68163" lon="6.60537">
        <ele>1883.84</ele>
        <time>2011-06-12T13:13:36Z</time>
      </trkpt>
      <trkpt lat="45.68166" lon="6.6053">
        <ele>1882.88</ele>
        <time>2011-06-12T13:13:37Z</time>
      </trkpt>
      <trkpt lat="45.68168" lon="6.60524">
        <ele>1882.4</ele>
        <time>2011-06-12T13:13:38Z</time>
      </trkpt>
      <trkpt lat="45.68184" lon="6.6049">
        <ele>1878.55</ele>
        <time>2011-06-12T13:13:43Z</time>
      </trkpt>
      <trkpt lat="45.6821" lon="6.60439">
        <ele>1875.19</ele>
        <time>2011-06-12T13:13:50Z</time>
      </trkpt>
      <trkpt lat="45.68214" lon="6.60433">
        <ele>1874.71</ele>
        <time>2011-06-12T13:13:51Z</time>
      </trkpt>
      <trkpt lat="45.68222" lon="6.60421">
        <ele>1874.23</ele>
        <time>2011-06-12T13:13:54Z</time>
      </trkpt>
      <trkpt lat="45.68226" lon="6.60421">
        <ele>1874.23</ele>
        <time>2011-06-12T13:13:55Z</time>
      </trkpt>
      <trkpt lat="45.68228" lon="6.60423">
        <ele>1873.75</ele>
        <time>2011-06-12T13:13:56Z</time>
      </trkpt>
      <trkpt lat="45.6823" lon="6.60427">
        <ele>1873.75</ele>
        <time>2011-06-12T13:13:57Z</time>
      </trkpt>
      <trkpt lat="45.68229" lon="6.60432">
        <ele>1873.27</ele>
        <time>2011-06-12T13:13:58Z</time>
      </trkpt>
      <trkpt lat="45.68227" lon="6.60436">
        <ele>1873.27</ele>
        <time>2011-06-12T13:13:59Z</time>
      </trkpt>
      <trkpt lat="45.68225" lon="6.6044">
        <ele>1873.27</ele>
        <time>2011-06-12T13:14:00Z</time>
      </trkpt>
      <trkpt lat="45.68222" lon="6.60445">
        <ele>1872.79</ele>
        <time>2011-06-12T13:14:01Z</time>
      </trkpt>
      <trkpt lat="45.68218" lon="6.60457">
        <ele>1871.34</ele>
        <time>2011-06-12T13:14:03Z</time>
      </trkpt>
      <trkpt lat="45.68216" lon="6.60463">
        <ele>1871.82</ele>
        <time>2011-06-12T13:14:04Z</time>
      </trkpt>
      <trkpt lat="45.68214" lon="6.6047">
        <ele>1870.86</ele>
        <time>2011-06-12T13:14:05Z</time>
      </trkpt>
      <trkpt lat="45.68213" lon="6.60477">
        <ele>1870.86</ele>
        <time>2011-06-12T13:14:06Z</time>
      </trkpt>
      <trkpt lat="45.68213" lon="6.60484">
        <ele>1870.38</ele>
        <time>2011-06-12T13:14:07Z</time>
      </trkpt>
      <trkpt lat="45.68213" lon="6.60491">
        <ele>1870.86</ele>
        <time>2011-06-12T13:14:08Z</time>
      </trkpt>
      <trkpt lat="45.68213" lon="6.60498">
        <ele>1870.38</ele>
        <time>2011-06-12T13:14:09Z</time>
      </trkpt>
      <trkpt lat="45.68215" lon="6.60513">
        <ele>1869.9</ele>
        <time>2011-06-12T13:14:11Z</time>
      </trkpt>
      <trkpt lat="45.68214" lon="6.6052">
        <ele>1869.42</ele>
        <time>2011-06-12T13:14:12Z</time>
      </trkpt>
      <trkpt lat="45.68213" lon="6.60538">
        <ele>1868.46</ele>
        <time>2011-06-12T13:14:15Z</time>
      </trkpt>
      <trkpt lat="45.68215" lon="6.60542">
        <ele>1867.98</ele>
        <time>2011-06-12T13:14:16Z</time>
      </trkpt>
      <trkpt lat="45.68218" lon="6.60545">
        <ele>1867.98</ele>
        <time>2011-06-12T13:14:17Z</time>
      </trkpt>
      <trkpt lat="45.68221" lon="6.60546">
        <ele>1867.98</ele>
        <time>2011-06-12T13:14:18Z</time>
      </trkpt>
      <trkpt lat="45.68224" lon="6.60543">
        <ele>1867.02</ele>
        <time>2011-06-12T13:14:19Z</time>
      </trkpt>
      <trkpt lat="45.68226" lon="6.60537">
        <ele>1866.54</ele>
        <time>2011-06-12T13:14:20Z</time>
      </trkpt>
      <trkpt lat="45.68227" lon="6.60531">
        <ele>1865.58</ele>
        <time>2011-06-12T13:14:21Z</time>
      </trkpt>
      <trkpt lat="45.68227" lon="6.60523">
        <ele>1866.06</ele>
        <time>2011-06-12T13:14:22Z</time>
      </trkpt>
      <trkpt lat="45.68229" lon="6.60515">
        <ele>1865.09</ele>
        <time>2011-06-12T13:14:23Z</time>
      </trkpt>
      <trkpt lat="45.6823" lon="6.60508">
        <ele>1864.61</ele>
        <time>2011-06-12T13:14:24Z</time>
      </trkpt>
      <trkpt lat="45.68233" lon="6.60501">
        <ele>1864.13</ele>
        <time>2011-06-12T13:14:25Z</time>
      </trkpt>
      <trkpt lat="45.68235" lon="6.60493">
        <ele>1863.65</ele>
        <time>2011-06-12T13:14:26Z</time>
      </trkpt>
      <trkpt lat="45.68246" lon="6.60467">
        <ele>1861.73</ele>
        <time>2011-06-12T13:14:30Z</time>
      </trkpt>
      <trkpt lat="45.68249" lon="6.60461">
        <ele>1860.29</ele>
        <time>2011-06-12T13:14:31Z</time>
      </trkpt>
      <trkpt lat="45.68252" lon="6.60455">
        <ele>1859.81</ele>
        <time>2011-06-12T13:14:32Z</time>
      </trkpt>
      <trkpt lat="45.68255" lon="6.60449">
        <ele>1859.81</ele>
        <time>2011-06-12T13:14:33Z</time>
      </trkpt>
      <trkpt lat="45.68268" lon="6.60422">
        <ele>1856.92</ele>
        <time>2011-06-12T13:14:37Z</time>
      </trkpt>
      <trkpt lat="45.68276" lon="6.60411">
        <ele>1855.48</ele>
        <time>2011-06-12T13:14:39Z</time>
      </trkpt>
      <trkpt lat="45.6828" lon="6.60407">
        <ele>1855</ele>
        <time>2011-06-12T13:14:40Z</time>
      </trkpt>
      <trkpt lat="45.68285" lon="6.60404">
        <ele>1854.52</ele>
        <time>2011-06-12T13:14:41Z</time>
      </trkpt>
      <trkpt lat="45.68291" lon="6.60402">
        <ele>1853.08</ele>
        <time>2011-06-12T13:14:42Z</time>
      </trkpt>
      <trkpt lat="45.68296" lon="6.60401">
        <ele>1852.6</ele>
        <time>2011-06-12T13:14:43Z</time>
      </trkpt>
      <trkpt lat="45.68301" lon="6.604">
        <ele>1852.6</ele>
        <time>2011-06-12T13:14:44Z</time>
      </trkpt>
      <trkpt lat="45.68307" lon="6.60397">
        <ele>1852.12</ele>
        <time>2011-06-12T13:14:45Z</time>
      </trkpt>
      <trkpt lat="45.68311" lon="6.60393">
        <ele>1852.12</ele>
        <time>2011-06-12T13:14:46Z</time>
      </trkpt>
      <trkpt lat="45.68314" lon="6.60387">
        <ele>1851.64</ele>
        <time>2011-06-12T13:14:47Z</time>
      </trkpt>
      <trkpt lat="45.68315" lon="6.60379">
        <ele>1850.68</ele>
        <time>2011-06-12T13:14:48Z</time>
      </trkpt>
      <trkpt lat="45.68316" lon="6.6037">
        <ele>1850.19</ele>
        <time>2011-06-12T13:14:49Z</time>
      </trkpt>
      <trkpt lat="45.68315" lon="6.60363">
        <ele>1849.23</ele>
        <time>2011-06-12T13:14:50Z</time>
      </trkpt>
      <trkpt lat="45.68315" lon="6.60355">
        <ele>1848.75</ele>
        <time>2011-06-12T13:14:51Z</time>
      </trkpt>
      <trkpt lat="45.68315" lon="6.60347">
        <ele>1848.27</ele>
        <time>2011-06-12T13:14:52Z</time>
      </trkpt>
      <trkpt lat="45.68315" lon="6.60339">
        <ele>1847.31</ele>
        <time>2011-06-12T13:14:53Z</time>
      </trkpt>
      <trkpt lat="45.68317" lon="6.60332">
        <ele>1847.31</ele>
        <time>2011-06-12T13:14:54Z</time>
      </trkpt>
      <trkpt lat="45.68327" lon="6.603">
        <ele>1843.95</ele>
        <time>2011-06-12T13:14:58Z</time>
      </trkpt>
      <trkpt lat="45.6833" lon="6.60294">
        <ele>1843.47</ele>
        <time>2011-06-12T13:14:59Z</time>
      </trkpt>
      <trkpt lat="45.68334" lon="6.60289">
        <ele>1842.98</ele>
        <time>2011-06-12T13:15:00Z</time>
      </trkpt>
      <trkpt lat="45.68338" lon="6.60285">
        <ele>1842.98</ele>
        <time>2011-06-12T13:15:01Z</time>
      </trkpt>
      <trkpt lat="45.68343" lon="6.60282">
        <ele>1841.54</ele>
        <time>2011-06-12T13:15:02Z</time>
      </trkpt>
      <trkpt lat="45.68348" lon="6.6028">
        <ele>1840.1</ele>
        <time>2011-06-12T13:15:03Z</time>
      </trkpt>
      <trkpt lat="45.68353" lon="6.60279">
        <ele>1840.1</ele>
        <time>2011-06-12T13:15:04Z</time>
      </trkpt>
      <trkpt lat="45.68358" lon="6.60278">
        <ele>1840.1</ele>
        <time>2011-06-12T13:15:05Z</time>
      </trkpt>
      <trkpt lat="45.68368" lon="6.60277">
        <ele>1839.14</ele>
        <time>2011-06-12T13:15:07Z</time>
      </trkpt>
      <trkpt lat="45.68373" lon="6.60278">
        <ele>1838.66</ele>
        <time>2011-06-12T13:15:08Z</time>
      </trkpt>
      <trkpt lat="45.68402" lon="6.60287">
        <ele>1836.74</ele>
        <time>2011-06-12T13:15:14Z</time>
      </trkpt>
      <trkpt lat="45.68406" lon="6.60288">
        <ele>1835.29</ele>
        <time>2011-06-12T13:15:15Z</time>
      </trkpt>
      <trkpt lat="45.68411" lon="6.6029">
        <ele>1834.81</ele>
        <time>2011-06-12T13:15:16Z</time>
      </trkpt>
      <trkpt lat="45.68415" lon="6.60292">
        <ele>1834.81</ele>
        <time>2011-06-12T13:15:17Z</time>
      </trkpt>
      <trkpt lat="45.68419" lon="6.60294">
        <ele>1834.33</ele>
        <time>2011-06-12T13:15:18Z</time>
      </trkpt>
      <trkpt lat="45.68443" lon="6.60304">
        <ele>1831.45</ele>
        <time>2011-06-12T13:15:23Z</time>
      </trkpt>
      <trkpt lat="45.68449" lon="6.60305">
        <ele>1830.97</ele>
        <time>2011-06-12T13:15:24Z</time>
      </trkpt>
      <trkpt lat="45.68454" lon="6.60306">
        <ele>1830.97</ele>
        <time>2011-06-12T13:15:25Z</time>
      </trkpt>
      <trkpt lat="45.68458" lon="6.60307">
        <ele>1829.53</ele>
        <time>2011-06-12T13:15:26Z</time>
      </trkpt>
      <trkpt lat="45.68463" lon="6.60307">
        <ele>1828.56</ele>
        <time>2011-06-12T13:15:27Z</time>
      </trkpt>
      <trkpt lat="45.68467" lon="6.60308">
        <ele>1829.53</ele>
        <time>2011-06-12T13:15:28Z</time>
      </trkpt>
      <trkpt lat="45.68486" lon="6.60313">
        <ele>1827.12</ele>
        <time>2011-06-12T13:15:32Z</time>
      </trkpt>
      <trkpt lat="45.68496" lon="6.60315">
        <ele>1826.16</ele>
        <time>2011-06-12T13:15:34Z</time>
      </trkpt>
      <trkpt lat="45.68502" lon="6.60315">
        <ele>1825.2</ele>
        <time>2011-06-12T13:15:35Z</time>
      </trkpt>
      <trkpt lat="45.68507" lon="6.60314">
        <ele>1824.24</ele>
        <time>2011-06-12T13:15:36Z</time>
      </trkpt>
      <trkpt lat="45.68512" lon="6.60311">
        <ele>1823.76</ele>
        <time>2011-06-12T13:15:37Z</time>
      </trkpt>
      <trkpt lat="45.68517" lon="6.60307">
        <ele>1822.32</ele>
        <time>2011-06-12T13:15:38Z</time>
      </trkpt>
      <trkpt lat="45.68522" lon="6.60303">
        <ele>1822.32</ele>
        <time>2011-06-12T13:15:39Z</time>
      </trkpt>
      <trkpt lat="45.68526" lon="6.60299">
        <ele>1821.84</ele>
        <time>2011-06-12T13:15:40Z</time>
      </trkpt>
      <trkpt lat="45.6853" lon="6.60293">
        <ele>1821.35</ele>
        <time>2011-06-12T13:15:41Z</time>
      </trkpt>
      <trkpt lat="45.68534" lon="6.60287">
        <ele>1820.39</ele>
        <time>2011-06-12T13:15:42Z</time>
      </trkpt>
      <trkpt lat="45.68544" lon="6.60276">
        <ele>1818.47</ele>
        <time>2011-06-12T13:15:44Z</time>
      </trkpt>
      <trkpt lat="45.68548" lon="6.60272">
        <ele>1817.99</ele>
        <time>2011-06-12T13:15:45Z</time>
      </trkpt>
      <trkpt lat="45.68553" lon="6.60269">
        <ele>1817.51</ele>
        <time>2011-06-12T13:15:46Z</time>
      </trkpt>
      <trkpt lat="45.68559" lon="6.60267">
        <ele>1817.51</ele>
        <time>2011-06-12T13:15:47Z</time>
      </trkpt>
      <trkpt lat="45.68564" lon="6.60267">
        <ele>1817.03</ele>
        <time>2011-06-12T13:15:48Z</time>
      </trkpt>
      <trkpt lat="45.6857" lon="6.60266">
        <ele>1815.59</ele>
        <time>2011-06-12T13:15:49Z</time>
      </trkpt>
      <trkpt lat="45.68588" lon="6.60266">
        <ele>1814.63</ele>
        <time>2011-06-12T13:15:53Z</time>
      </trkpt>
      <trkpt lat="45.68591" lon="6.60268">
        <ele>1814.15</ele>
        <time>2011-06-12T13:15:54Z</time>
      </trkpt>
      <trkpt lat="45.68593" lon="6.60273">
        <ele>1814.15</ele>
        <time>2011-06-12T13:15:55Z</time>
      </trkpt>
      <trkpt lat="45.68592" lon="6.60278">
        <ele>1814.15</ele>
        <time>2011-06-12T13:15:56Z</time>
      </trkpt>
      <trkpt lat="45.6859" lon="6.60282">
        <ele>1813.66</ele>
        <time>2011-06-12T13:15:57Z</time>
      </trkpt>
      <trkpt lat="45.68588" lon="6.60285">
        <ele>1813.66</ele>
        <time>2011-06-12T13:15:58Z</time>
      </trkpt>
      <trkpt lat="45.68584" lon="6.60287">
        <ele>1812.7</ele>
        <time>2011-06-12T13:15:59Z</time>
      </trkpt>
      <trkpt lat="45.68566" lon="6.60298">
        <ele>1809.82</ele>
        <time>2011-06-12T13:16:04Z</time>
      </trkpt>
      <trkpt lat="45.68562" lon="6.60301">
        <ele>1808.86</ele>
        <time>2011-06-12T13:16:05Z</time>
      </trkpt>
      <trkpt lat="45.68559" lon="6.60305">
        <ele>1807.9</ele>
        <time>2011-06-12T13:16:06Z</time>
      </trkpt>
      <trkpt lat="45.68556" lon="6.60309">
        <ele>1808.86</ele>
        <time>2011-06-12T13:16:07Z</time>
      </trkpt>
      <trkpt lat="45.68553" lon="6.60314">
        <ele>1807.9</ele>
        <time>2011-06-12T13:16:08Z</time>
      </trkpt>
      <trkpt lat="45.68551" lon="6.60319">
        <ele>1807.9</ele>
        <time>2011-06-12T13:16:09Z</time>
      </trkpt>
      <trkpt lat="45.68545" lon="6.60331">
        <ele>1806.94</ele>
        <time>2011-06-12T13:16:11Z</time>
      </trkpt>
      <trkpt lat="45.68543" lon="6.60337">
        <ele>1805.97</ele>
        <time>2011-06-12T13:16:12Z</time>
      </trkpt>
      <trkpt lat="45.6854" lon="6.60344">
        <ele>1805.97</ele>
        <time>2011-06-12T13:16:13Z</time>
      </trkpt>
      <trkpt lat="45.68531" lon="6.60364">
        <ele>1803.57</ele>
        <time>2011-06-12T13:16:16Z</time>
      </trkpt>
      <trkpt lat="45.6852" lon="6.60402">
        <ele>1800.69</ele>
        <time>2011-06-12T13:16:22Z</time>
      </trkpt>
      <trkpt lat="45.68509" lon="6.60448">
        <ele>1797.8</ele>
        <time>2011-06-12T13:16:29Z</time>
      </trkpt>
      <trkpt lat="45.68507" lon="6.60454">
        <ele>1797.8</ele>
        <time>2011-06-12T13:16:30Z</time>
      </trkpt>
      <trkpt lat="45.68505" lon="6.60459">
        <ele>1797.32</ele>
        <time>2011-06-12T13:16:31Z</time>
      </trkpt>
      <trkpt lat="45.68501" lon="6.60464">
        <ele>1796.84</ele>
        <time>2011-06-12T13:16:32Z</time>
      </trkpt>
      <trkpt lat="45.68498" lon="6.60468">
        <ele>1796.84</ele>
        <time>2011-06-12T13:16:33Z</time>
      </trkpt>
      <trkpt lat="45.68494" lon="6.60471">
        <ele>1796.84</ele>
        <time>2011-06-12T13:16:34Z</time>
      </trkpt>
      <trkpt lat="45.6849" lon="6.60473">
        <ele>1796.36</ele>
        <time>2011-06-12T13:16:35Z</time>
      </trkpt>
      <trkpt lat="45.68476" lon="6.60486">
        <ele>1794.44</ele>
        <time>2011-06-12T13:16:40Z</time>
      </trkpt>
      <trkpt lat="45.68468" lon="6.60524">
        <ele>1792.03</ele>
        <time>2011-06-12T13:16:48Z</time>
      </trkpt>
      <trkpt lat="45.68459" lon="6.60553">
        <ele>1788.67</ele>
        <time>2011-06-12T13:16:53Z</time>
      </trkpt>
      <trkpt lat="45.68456" lon="6.60558">
        <ele>1788.67</ele>
        <time>2011-06-12T13:16:54Z</time>
      </trkpt>
      <trkpt lat="45.68445" lon="6.60579">
        <ele>1786.75</ele>
        <time>2011-06-12T13:16:58Z</time>
      </trkpt>
      <trkpt lat="45.68438" lon="6.60598">
        <ele>1785.79</ele>
        <time>2011-06-12T13:17:01Z</time>
      </trkpt>
      <trkpt lat="45.68435" lon="6.60603">
        <ele>1784.82</ele>
        <time>2011-06-12T13:17:02Z</time>
      </trkpt>
      <trkpt lat="45.68431" lon="6.60607">
        <ele>1784.82</ele>
        <time>2011-06-12T13:17:03Z</time>
      </trkpt>
      <trkpt lat="45.68427" lon="6.6061">
        <ele>1784.82</ele>
        <time>2011-06-12T13:17:04Z</time>
      </trkpt>
      <trkpt lat="45.68422" lon="6.60613">
        <ele>1783.38</ele>
        <time>2011-06-12T13:17:05Z</time>
      </trkpt>
      <trkpt lat="45.68411" lon="6.60618">
        <ele>1782.42</ele>
        <time>2011-06-12T13:17:07Z</time>
      </trkpt>
      <trkpt lat="45.68406" lon="6.6062">
        <ele>1781.46</ele>
        <time>2011-06-12T13:17:08Z</time>
      </trkpt>
      <trkpt lat="45.68402" lon="6.60621">
        <ele>1781.94</ele>
        <time>2011-06-12T13:17:09Z</time>
      </trkpt>
      <trkpt lat="45.68398" lon="6.60621">
        <ele>1781.46</ele>
        <time>2011-06-12T13:17:10Z</time>
      </trkpt>
      <trkpt lat="45.68395" lon="6.60622">
        <ele>1780.5</ele>
        <time>2011-06-12T13:17:11Z</time>
      </trkpt>
      <trkpt lat="45.68393" lon="6.60625">
        <ele>1780.5</ele>
        <time>2011-06-12T13:17:12Z</time>
      </trkpt>
      <trkpt lat="45.68392" lon="6.60628">
        <ele>1780.5</ele>
        <time>2011-06-12T13:17:13Z</time>
      </trkpt>
      <trkpt lat="45.68393" lon="6.60631">
        <ele>1779.54</ele>
        <time>2011-06-12T13:17:14Z</time>
      </trkpt>
      <trkpt lat="45.68394" lon="6.60634">
        <ele>1780.5</ele>
        <time>2011-06-12T13:17:15Z</time>
      </trkpt>
      <trkpt lat="45.68396" lon="6.60636">
        <ele>1780.02</ele>
        <time>2011-06-12T13:17:16Z</time>
      </trkpt>
      <trkpt lat="45.68399" lon="6.60637">
        <ele>1780.02</ele>
        <time>2011-06-12T13:17:17Z</time>
      </trkpt>
      <trkpt lat="45.68402" lon="6.60636">
        <ele>1779.54</ele>
        <time>2011-06-12T13:17:18Z</time>
      </trkpt>
      <trkpt lat="45.68405" lon="6.60636">
        <ele>1779.54</ele>
        <time>2011-06-12T13:17:19Z</time>
      </trkpt>
      <trkpt lat="45.6845" lon="6.60636">
        <ele>1777.61</ele>
        <time>2011-06-12T13:17:33Z</time>
      </trkpt>
      <trkpt lat="45.68454" lon="6.60634">
        <ele>1777.61</ele>
        <time>2011-06-12T13:17:34Z</time>
      </trkpt>
      <trkpt lat="45.68466" lon="6.60625">
        <ele>1776.65</ele>
        <time>2011-06-12T13:17:37Z</time>
      </trkpt>
      <trkpt lat="45.6847" lon="6.60625">
        <ele>1776.65</ele>
        <time>2011-06-12T13:17:38Z</time>
      </trkpt>
      <trkpt lat="45.68475" lon="6.60627">
        <ele>1776.17</ele>
        <time>2011-06-12T13:17:39Z</time>
      </trkpt>
      <trkpt lat="45.68478" lon="6.6063">
        <ele>1776.17</ele>
        <time>2011-06-12T13:17:40Z</time>
      </trkpt>
      <trkpt lat="45.68482" lon="6.60634">
        <ele>1775.69</ele>
        <time>2011-06-12T13:17:41Z</time>
      </trkpt>
      <trkpt lat="45.68486" lon="6.60637">
        <ele>1775.69</ele>
        <time>2011-06-12T13:17:42Z</time>
      </trkpt>
      <trkpt lat="45.6849" lon="6.60639">
        <ele>1775.69</ele>
        <time>2011-06-12T13:17:43Z</time>
      </trkpt>
      <trkpt lat="45.68494" lon="6.60639">
        <ele>1775.21</ele>
        <time>2011-06-12T13:17:44Z</time>
      </trkpt>
      <trkpt lat="45.68498" lon="6.60638">
        <ele>1774.25</ele>
        <time>2011-06-12T13:17:45Z</time>
      </trkpt>
      <trkpt lat="45.68502" lon="6.60636">
        <ele>1773.77</ele>
        <time>2011-06-12T13:17:46Z</time>
      </trkpt>
      <trkpt lat="45.68506" lon="6.60632">
        <ele>1773.29</ele>
        <time>2011-06-12T13:17:47Z</time>
      </trkpt>
      <trkpt lat="45.6851" lon="6.60628">
        <ele>1771.85</ele>
        <time>2011-06-12T13:17:48Z</time>
      </trkpt>
      <trkpt lat="45.68515" lon="6.60624">
        <ele>1771.37</ele>
        <time>2011-06-12T13:17:49Z</time>
      </trkpt>
      <trkpt lat="45.68547" lon="6.60597">
        <ele>1768</ele>
        <time>2011-06-12T13:17:56Z</time>
      </trkpt>
      <trkpt lat="45.68564" lon="6.60582">
        <ele>1766.08</ele>
        <time>2011-06-12T13:17:59Z</time>
      </trkpt>
      <trkpt lat="45.68581" lon="6.60568">
        <ele>1763.68</ele>
        <time>2011-06-12T13:18:02Z</time>
      </trkpt>
      <trkpt lat="45.68587" lon="6.60565">
        <ele>1763.68</ele>
        <time>2011-06-12T13:18:03Z</time>
      </trkpt>
      <trkpt lat="45.68593" lon="6.60564">
        <ele>1763.2</ele>
        <time>2011-06-12T13:18:04Z</time>
      </trkpt>
      <trkpt lat="45.68599" lon="6.60564">
        <ele>1762.71</ele>
        <time>2011-06-12T13:18:05Z</time>
      </trkpt>
      <trkpt lat="45.68605" lon="6.60565">
        <ele>1763.2</ele>
        <time>2011-06-12T13:18:06Z</time>
      </trkpt>
      <trkpt lat="45.6861" lon="6.60567">
        <ele>1762.71</ele>
        <time>2011-06-12T13:18:07Z</time>
      </trkpt>
      <trkpt lat="45.6862" lon="6.60569">
        <ele>1761.75</ele>
        <time>2011-06-12T13:18:09Z</time>
      </trkpt>
      <trkpt lat="45.68624" lon="6.6057">
        <ele>1761.27</ele>
        <time>2011-06-12T13:18:10Z</time>
      </trkpt>
      <trkpt lat="45.6863" lon="6.60569">
        <ele>1760.79</ele>
        <time>2011-06-12T13:18:11Z</time>
      </trkpt>
      <trkpt lat="45.68634" lon="6.60568">
        <ele>1759.83</ele>
        <time>2011-06-12T13:18:12Z</time>
      </trkpt>
      <trkpt lat="45.68639" lon="6.60567">
        <ele>1759.35</ele>
        <time>2011-06-12T13:18:13Z</time>
      </trkpt>
      <trkpt lat="45.68644" lon="6.60565">
        <ele>1758.39</ele>
        <time>2011-06-12T13:18:14Z</time>
      </trkpt>
      <trkpt lat="45.68654" lon="6.6056">
        <ele>1757.43</ele>
        <time>2011-06-12T13:18:16Z</time>
      </trkpt>
      <trkpt lat="45.68657" lon="6.60557">
        <ele>1756.95</ele>
        <time>2011-06-12T13:18:17Z</time>
      </trkpt>
      <trkpt lat="45.68665" lon="6.60546">
        <ele>1755.02</ele>
        <time>2011-06-12T13:18:20Z</time>
      </trkpt>
      <trkpt lat="45.68668" lon="6.60546">
        <ele>1755.02</ele>
        <time>2011-06-12T13:18:21Z</time>
      </trkpt>
      <trkpt lat="45.6867" lon="6.60548">
        <ele>1754.54</ele>
        <time>2011-06-12T13:18:22Z</time>
      </trkpt>
      <trkpt lat="45.68666" lon="6.60567">
        <ele>1752.62</ele>
        <time>2011-06-12T13:18:27Z</time>
      </trkpt>
      <trkpt lat="45.68663" lon="6.60572">
        <ele>1752.14</ele>
        <time>2011-06-12T13:18:28Z</time>
      </trkpt>
      <trkpt lat="45.68657" lon="6.6058">
        <ele>1751.18</ele>
        <time>2011-06-12T13:18:30Z</time>
      </trkpt>
      <trkpt lat="45.68654" lon="6.60584">
        <ele>1750.7</ele>
        <time>2011-06-12T13:18:31Z</time>
      </trkpt>
      <trkpt lat="45.68652" lon="6.60587">
        <ele>1750.7</ele>
        <time>2011-06-12T13:18:32Z</time>
      </trkpt>
      <trkpt lat="45.6865" lon="6.60591">
        <ele>1750.7</ele>
        <time>2011-06-12T13:18:33Z</time>
      </trkpt>
      <trkpt lat="45.68651" lon="6.60595">
        <ele>1750.22</ele>
        <time>2011-06-12T13:18:34Z</time>
      </trkpt>
      <trkpt lat="45.68653" lon="6.60599">
        <ele>1750.7</ele>
        <time>2011-06-12T13:18:35Z</time>
      </trkpt>
      <trkpt lat="45.68656" lon="6.60601">
        <ele>1750.22</ele>
        <time>2011-06-12T13:18:36Z</time>
      </trkpt>
      <trkpt lat="45.6866" lon="6.60601">
        <ele>1749.26</ele>
        <time>2011-06-12T13:18:37Z</time>
      </trkpt>
      <trkpt lat="45.68663" lon="6.60599">
        <ele>1749.26</ele>
        <time>2011-06-12T13:18:38Z</time>
      </trkpt>
      <trkpt lat="45.68667" lon="6.60595">
        <ele>1748.29</ele>
        <time>2011-06-12T13:18:39Z</time>
      </trkpt>
      <trkpt lat="45.68679" lon="6.60585">
        <ele>1746.85</ele>
        <time>2011-06-12T13:18:42Z</time>
      </trkpt>
      <trkpt lat="45.68682" lon="6.60583">
        <ele>1746.85</ele>
        <time>2011-06-12T13:18:43Z</time>
      </trkpt>
      <trkpt lat="45.6869" lon="6.60576">
        <ele>1746.37</ele>
        <time>2011-06-12T13:18:45Z</time>
      </trkpt>
      <trkpt lat="45.68701" lon="6.60567">
        <ele>1745.41</ele>
        <time>2011-06-12T13:18:48Z</time>
      </trkpt>
      <trkpt lat="45.68704" lon="6.60564">
        <ele>1744.93</ele>
        <time>2011-06-12T13:18:49Z</time>
      </trkpt>
      <trkpt lat="45.68706" lon="6.60561">
        <ele>1743.97</ele>
        <time>2011-06-12T13:18:50Z</time>
      </trkpt>
      <trkpt lat="45.68715" lon="6.60549">
        <ele>1742.53</ele>
        <time>2011-06-12T13:19:01Z</time>
      </trkpt>
      <trkpt lat="45.68724" lon="6.60539">
        <ele>1742.05</ele>
        <time>2011-06-12T13:19:06Z</time>
      </trkpt>
      <trkpt lat="45.68725" lon="6.60537">
        <ele>1742.05</ele>
        <time>2011-06-12T13:19:07Z</time>
      </trkpt>
      <trkpt lat="45.68726" lon="6.60536">
        <ele>1742.53</ele>
        <time>2011-06-12T13:19:08Z</time>
      </trkpt>
      <trkpt lat="45.68727" lon="6.60537">
        <ele>1742.05</ele>
        <time>2011-06-12T13:19:09Z</time>
      </trkpt>
      <trkpt lat="45.68728" lon="6.60538">
        <ele>1742.53</ele>
        <time>2011-06-12T13:19:10Z</time>
      </trkpt>
      <trkpt lat="45.68729" lon="6.60539">
        <ele>1742.53</ele>
        <time>2011-06-12T13:19:23Z</time>
      </trkpt>
      <trkpt lat="45.68729" lon="6.60539">
        <ele>1742.05</ele>
        <time>2011-06-12T13:19:46Z</time>
      </trkpt>
      <trkpt lat="45.6873" lon="6.60537">
        <ele>1741.57</ele>
        <time>2011-06-12T13:19:53Z</time>
      </trkpt>
      <trkpt lat="45.6873" lon="6.60535">
        <ele>1742.05</ele>
        <time>2011-06-12T13:19:54Z</time>
      </trkpt>
      <trkpt lat="45.68731" lon="6.60533">
        <ele>1742.53</ele>
        <time>2011-06-12T13:19:55Z</time>
      </trkpt>
      <trkpt lat="45.68731" lon="6.6053">
        <ele>1742.05</ele>
        <time>2011-06-12T13:19:56Z</time>
      </trkpt>
      <trkpt lat="45.68732" lon="6.60527">
        <ele>1742.05</ele>
        <time>2011-06-12T13:19:57Z</time>
      </trkpt>
      <trkpt lat="45.68732" lon="6.60524">
        <ele>1742.53</ele>
        <time>2011-06-12T13:19:58Z</time>
      </trkpt>
      <trkpt lat="45.68732" lon="6.6052">
        <ele>1742.53</ele>
        <time>2011-06-12T13:19:59Z</time>
      </trkpt>
      <trkpt lat="45.68731" lon="6.60516">
        <ele>1742.05</ele>
        <time>2011-06-12T13:20:00Z</time>
      </trkpt>
      <trkpt lat="45.68736" lon="6.60459">
        <ele>1740.6</ele>
        <time>2011-06-12T13:20:12Z</time>
      </trkpt>
      <trkpt lat="45.68749" lon="6.60412">
        <ele>1740.12</ele>
        <time>2011-06-12T13:20:20Z</time>
      </trkpt>
      <trkpt lat="45.68752" lon="6.60406">
        <ele>1739.64</ele>
        <time>2011-06-12T13:20:21Z</time>
      </trkpt>
      <trkpt lat="45.68756" lon="6.60401">
        <ele>1739.16</ele>
        <time>2011-06-12T13:20:22Z</time>
      </trkpt>
      <trkpt lat="45.68761" lon="6.60397">
        <ele>1739.16</ele>
        <time>2011-06-12T13:20:23Z</time>
      </trkpt>
      <trkpt lat="45.68766" lon="6.60395">
        <ele>1738.68</ele>
        <time>2011-06-12T13:20:24Z</time>
      </trkpt>
      <trkpt lat="45.68786" lon="6.60386">
        <ele>1738.68</ele>
        <time>2011-06-12T13:20:28Z</time>
      </trkpt>
      <trkpt lat="45.6879" lon="6.60385">
        <ele>1738.68</ele>
        <time>2011-06-12T13:20:29Z</time>
      </trkpt>
      <trkpt lat="45.688" lon="6.6038">
        <ele>1739.16</ele>
        <time>2011-06-12T13:20:31Z</time>
      </trkpt>
      <trkpt lat="45.68805" lon="6.60376">
        <ele>1739.16</ele>
        <time>2011-06-12T13:20:32Z</time>
      </trkpt>
      <trkpt lat="45.68808" lon="6.6037">
        <ele>1738.68</ele>
        <time>2011-06-12T13:20:33Z</time>
      </trkpt>
      <trkpt lat="45.68811" lon="6.60364">
        <ele>1738.68</ele>
        <time>2011-06-12T13:20:34Z</time>
      </trkpt>
      <trkpt lat="45.68814" lon="6.60356">
        <ele>1737.72</ele>
        <time>2011-06-12T13:20:35Z</time>
      </trkpt>
      <trkpt lat="45.68815" lon="6.60348">
        <ele>1737.24</ele>
        <time>2011-06-12T13:20:36Z</time>
      </trkpt>
      <trkpt lat="45.68817" lon="6.60339">
        <ele>1737.24</ele>
        <time>2011-06-12T13:20:37Z</time>
      </trkpt>
      <trkpt lat="45.68821" lon="6.60323">
        <ele>1736.76</ele>
        <time>2011-06-12T13:20:39Z</time>
      </trkpt>
      <trkpt lat="45.68824" lon="6.60316">
        <ele>1736.76</ele>
        <time>2011-06-12T13:20:40Z</time>
      </trkpt>
      <trkpt lat="45.68827" lon="6.60309">
        <ele>1736.28</ele>
        <time>2011-06-12T13:20:41Z</time>
      </trkpt>
      <trkpt lat="45.68832" lon="6.60304">
        <ele>1736.28</ele>
        <time>2011-06-12T13:20:42Z</time>
      </trkpt>
      <trkpt lat="45.68837" lon="6.60299">
        <ele>1736.76</ele>
        <time>2011-06-12T13:20:43Z</time>
      </trkpt>
      <trkpt lat="45.68873" lon="6.60264">
        <ele>1737.24</ele>
        <time>2011-06-12T13:20:53Z</time>
      </trkpt>
      <trkpt lat="45.68875" lon="6.60259">
        <ele>1737.24</ele>
        <time>2011-06-12T13:20:54Z</time>
      </trkpt>
      <trkpt lat="45.68877" lon="6.60253">
        <ele>1737.24</ele>
        <time>2011-06-12T13:20:55Z</time>
      </trkpt>
      <trkpt lat="45.68879" lon="6.60247">
        <ele>1736.76</ele>
        <time>2011-06-12T13:20:56Z</time>
      </trkpt>
      <trkpt lat="45.6888" lon="6.6024">
        <ele>1737.24</ele>
        <time>2011-06-12T13:20:57Z</time>
      </trkpt>
      <trkpt lat="45.68894" lon="6.60124">
        <ele>1734.84</ele>
        <time>2011-06-12T13:21:12Z</time>
      </trkpt>
      <trkpt lat="45.68894" lon="6.60115">
        <ele>1734.84</ele>
        <time>2011-06-12T13:21:13Z</time>
      </trkpt>
      <trkpt lat="45.68895" lon="6.60107">
        <ele>1734.36</ele>
        <time>2011-06-12T13:21:14Z</time>
      </trkpt>
      <trkpt lat="45.68897" lon="6.60099">
        <ele>1734.36</ele>
        <time>2011-06-12T13:21:15Z</time>
      </trkpt>
      <trkpt lat="45.68901" lon="6.60091">
        <ele>1733.39</ele>
        <time>2011-06-12T13:21:16Z</time>
      </trkpt>
      <trkpt lat="45.68905" lon="6.60085">
        <ele>1732.91</ele>
        <time>2011-06-12T13:21:17Z</time>
      </trkpt>
      <trkpt lat="45.6891" lon="6.60079">
        <ele>1732.91</ele>
        <time>2011-06-12T13:21:18Z</time>
      </trkpt>
      <trkpt lat="45.68915" lon="6.60073">
        <ele>1732.43</ele>
        <time>2011-06-12T13:21:19Z</time>
      </trkpt>
      <trkpt lat="45.68921" lon="6.60069">
        <ele>1732.43</ele>
        <time>2011-06-12T13:21:20Z</time>
      </trkpt>
      <trkpt lat="45.68928" lon="6.60065">
        <ele>1731.47</ele>
        <time>2011-06-12T13:21:21Z</time>
      </trkpt>
      <trkpt lat="45.68941" lon="6.60057">
        <ele>1730.51</ele>
        <time>2011-06-12T13:21:23Z</time>
      </trkpt>
      <trkpt lat="45.68952" lon="6.60049">
        <ele>1730.03</ele>
        <time>2011-06-12T13:21:25Z</time>
      </trkpt>
      <trkpt lat="45.68957" lon="6.60043">
        <ele>1730.03</ele>
        <time>2011-06-12T13:21:26Z</time>
      </trkpt>
      <trkpt lat="45.68961" lon="6.60035">
        <ele>1729.07</ele>
        <time>2011-06-12T13:21:27Z</time>
      </trkpt>
      <trkpt lat="45.68965" lon="6.60025">
        <ele>1728.11</ele>
        <time>2011-06-12T13:21:28Z</time>
      </trkpt>
      <trkpt lat="45.68969" lon="6.60015">
        <ele>1727.15</ele>
        <time>2011-06-12T13:21:29Z</time>
      </trkpt>
      <trkpt lat="45.68973" lon="6.60005">
        <ele>1726.67</ele>
        <time>2011-06-12T13:21:30Z</time>
      </trkpt>
      <trkpt lat="45.68987" lon="6.59973">
        <ele>1723.3</ele>
        <time>2011-06-12T13:21:33Z</time>
      </trkpt>
      <trkpt lat="45.68991" lon="6.59961">
        <ele>1722.34</ele>
        <time>2011-06-12T13:21:34Z</time>
      </trkpt>
      <trkpt lat="45.68994" lon="6.59949">
        <ele>1722.34</ele>
        <time>2011-06-12T13:21:35Z</time>
      </trkpt>
      <trkpt lat="45.69001" lon="6.59914">
        <ele>1720.9</ele>
        <time>2011-06-12T13:21:38Z</time>
      </trkpt>
      <trkpt lat="45.69002" lon="6.59902">
        <ele>1720.42</ele>
        <time>2011-06-12T13:21:39Z</time>
      </trkpt>
      <trkpt lat="45.69001" lon="6.5989">
        <ele>1719.94</ele>
        <time>2011-06-12T13:21:40Z</time>
      </trkpt>
      <trkpt lat="45.69" lon="6.59879">
        <ele>1718.97</ele>
        <time>2011-06-12T13:21:41Z</time>
      </trkpt>
      <trkpt lat="45.68998" lon="6.59869">
        <ele>1718.49</ele>
        <time>2011-06-12T13:21:42Z</time>
      </trkpt>
      <trkpt lat="45.68996" lon="6.5986">
        <ele>1717.05</ele>
        <time>2011-06-12T13:21:43Z</time>
      </trkpt>
      <trkpt lat="45.68996" lon="6.59852">
        <ele>1716.57</ele>
        <time>2011-06-12T13:21:44Z</time>
      </trkpt>
      <trkpt lat="45.68998" lon="6.59845">
        <ele>1716.09</ele>
        <time>2011-06-12T13:21:45Z</time>
      </trkpt>
      <trkpt lat="45.69001" lon="6.59839">
        <ele>1715.61</ele>
        <time>2011-06-12T13:21:46Z</time>
      </trkpt>
      <trkpt lat="45.69003" lon="6.59834">
        <ele>1715.13</ele>
        <time>2011-06-12T13:21:47Z</time>
      </trkpt>
      <trkpt lat="45.69006" lon="6.59829">
        <ele>1715.13</ele>
        <time>2011-06-12T13:21:48Z</time>
      </trkpt>
      <trkpt lat="45.69031" lon="6.59812">
        <ele>1712.25</ele>
        <time>2011-06-12T13:21:58Z</time>
      </trkpt>
      <trkpt lat="45.69033" lon="6.59813">
        <ele>1712.25</ele>
        <time>2011-06-12T13:21:59Z</time>
      </trkpt>
      <trkpt lat="45.69035" lon="6.59815">
        <ele>1711.76</ele>
        <time>2011-06-12T13:22:00Z</time>
      </trkpt>
      <trkpt lat="45.69037" lon="6.59817">
        <ele>1712.25</ele>
        <time>2011-06-12T13:22:01Z</time>
      </trkpt>
      <trkpt lat="45.69038" lon="6.59821">
        <ele>1711.76</ele>
        <time>2011-06-12T13:22:11Z</time>
      </trkpt>
      <trkpt lat="45.69038" lon="6.59821">
        <ele>1711.28</ele>
        <time>2011-06-12T13:22:43Z</time>
      </trkpt>
      <trkpt lat="45.69038" lon="6.59821">
        <ele>1711.76</ele>
        <time>2011-06-12T13:23:18Z</time>
      </trkpt>
      <trkpt lat="45.69038" lon="6.59821">
        <ele>1711.28</ele>
        <time>2011-06-12T13:23:58Z</time>
      </trkpt>
      <trkpt lat="45.69038" lon="6.59821">
        <ele>1710.8</ele>
        <time>2011-06-12T13:24:39Z</time>
      </trkpt>
      <trkpt lat="45.69038" lon="6.59821">
        <ele>1710.8</ele>
        <time>2011-06-12T13:25:17Z</time>
      </trkpt>
      <trkpt lat="45.69038" lon="6.59821">
        <ele>1710.8</ele>
        <time>2011-06-12T13:25:58Z</time>
      </trkpt>
      <trkpt lat="45.69036" lon="6.59823">
        <ele>1710.8</ele>
        <time>2011-06-12T13:26:16Z</time>
      </trkpt>
      <trkpt lat="45.69036" lon="6.59823">
        <ele>1711.28</ele>
        <time>2011-06-12T13:26:46Z</time>
      </trkpt>
      <trkpt lat="45.69036" lon="6.59823">
        <ele>1711.28</ele>
        <time>2011-06-12T13:27:22Z</time>
      </trkpt>
      <trkpt lat="45.69036" lon="6.59823">
        <ele>1710.8</ele>
        <time>2011-06-12T13:27:55Z</time>
      </trkpt>
      <trkpt lat="45.69036" lon="6.59823">
        <ele>1710.8</ele>
        <time>2011-06-12T13:28:27Z</time>
      </trkpt>
      <trkpt lat="45.69036" lon="6.59823">
        <ele>1710.8</ele>
        <time>2011-06-12T13:28:58Z</time>
      </trkpt>
      <trkpt lat="45.69036" lon="6.59823">
        <ele>1710.32</ele>
        <time>2011-06-12T13:29:32Z</time>
      </trkpt>
      <trkpt lat="45.69036" lon="6.59823">
        <ele>1710.32</ele>
        <time>2011-06-12T13:30:03Z</time>
      </trkpt>
      <trkpt lat="45.69036" lon="6.59823">
        <ele>1709.84</ele>
        <time>2011-06-12T13:30:35Z</time>
      </trkpt>
      <trkpt lat="45.69036" lon="6.59823">
        <ele>1710.32</ele>
        <time>2011-06-12T13:31:08Z</time>
      </trkpt>
      <trkpt lat="45.69035" lon="6.59823">
        <ele>1710.8</ele>
        <time>2011-06-12T13:31:39Z</time>
      </trkpt>
      <trkpt lat="45.69035" lon="6.59823">
        <ele>1710.32</ele>
        <time>2011-06-12T13:32:14Z</time>
      </trkpt>
      <trkpt lat="45.69035" lon="6.59823">
        <ele>1710.32</ele>
        <time>2011-06-12T13:32:47Z</time>
      </trkpt>
      <trkpt lat="45.69035" lon="6.59823">
        <ele>1710.8</ele>
        <time>2011-06-12T13:33:21Z</time>
      </trkpt>
      <trkpt lat="45.69035" lon="6.59822">
        <ele>1710.32</ele>
        <time>2011-06-12T13:33:55Z</time>
      </trkpt>
      <trkpt lat="45.69035" lon="6.59822">
        <ele>1710.32</ele>
        <time>2011-06-12T13:34:27Z</time>
      </trkpt>
      <trkpt lat="45.69035" lon="6.59822">
        <ele>1709.84</ele>
        <time>2011-06-12T13:35:04Z</time>
      </trkpt>
      <trkpt lat="45.69035" lon="6.59822">
        <ele>1709.36</ele>
        <time>2011-06-12T13:35:40Z</time>
      </trkpt>
      <trkpt lat="45.69035" lon="6.59822">
        <ele>1709.36</ele>
        <time>2011-06-12T13:36:12Z</time>
      </trkpt>
      <trkpt lat="45.69035" lon="6.59822">
        <ele>1708.88</ele>
        <time>2011-06-12T13:36:48Z</time>
      </trkpt>
      <trkpt lat="45.69035" lon="6.59821">
        <ele>1708.88</ele>
        <time>2011-06-12T13:37:23Z</time>
      </trkpt>
      <trkpt lat="45.69035" lon="6.59821">
        <ele>1708.88</ele>
        <time>2011-06-12T13:38:01Z</time>
      </trkpt>
      <trkpt lat="45.69035" lon="6.59821">
        <ele>1708.88</ele>
        <time>2011-06-12T13:38:35Z</time>
      </trkpt>
      <trkpt lat="45.69035" lon="6.59821">
        <ele>1708.4</ele>
        <time>2011-06-12T13:39:14Z</time>
      </trkpt>
      <trkpt lat="45.69035" lon="6.59821">
        <ele>1708.4</ele>
        <time>2011-06-12T13:39:50Z</time>
      </trkpt>
      <trkpt lat="45.69035" lon="6.59821">
        <ele>1707.92</ele>
        <time>2011-06-12T13:40:27Z</time>
      </trkpt>
      <trkpt lat="45.69034" lon="6.59821">
        <ele>1707.92</ele>
        <time>2011-06-12T13:41:05Z</time>
      </trkpt>
      <trkpt lat="45.69034" lon="6.59821">
        <ele>1707.92</ele>
        <time>2011-06-12T13:41:42Z</time>
      </trkpt>
      <trkpt lat="45.69034" lon="6.59821">
        <ele>1707.92</ele>
        <time>2011-06-12T13:42:19Z</time>
      </trkpt>
      <trkpt lat="45.69034" lon="6.59821">
        <ele>1707.92</ele>
        <time>2011-06-12T13:42:54Z</time>
      </trkpt>
      <trkpt lat="45.69034" lon="6.59821">
        <ele>1707.44</ele>
        <time>2011-06-12T13:43:26Z</time>
      </trkpt>
      <trkpt lat="45.69034" lon="6.59821">
        <ele>1708.4</ele>
        <time>2011-06-12T13:43:54Z</time>
      </trkpt>
      <trkpt lat="45.69035" lon="6.5982">
        <ele>1708.4</ele>
        <time>2011-06-12T13:44:31Z</time>
      </trkpt>
      <trkpt lat="45.69034" lon="6.5982">
        <ele>1707.92</ele>
        <time>2011-06-12T13:45:08Z</time>
      </trkpt>
      <trkpt lat="45.69034" lon="6.5982">
        <ele>1707.92</ele>
        <time>2011-06-12T13:45:44Z</time>
      </trkpt>
      <trkpt lat="45.69034" lon="6.59821">
        <ele>1707.92</ele>
        <time>2011-06-12T13:46:22Z</time>
      </trkpt>
      <trkpt lat="45.69034" lon="6.5982">
        <ele>1708.4</ele>
        <time>2011-06-12T13:46:57Z</time>
      </trkpt>
      <trkpt lat="45.69034" lon="6.5982">
        <ele>1709.36</ele>
        <time>2011-06-12T13:47:19Z</time>
      </trkpt>
      <trkpt lat="45.69035" lon="6.59821">
        <ele>1708.4</ele>
        <time>2011-06-12T13:47:40Z</time>
      </trkpt>
      <trkpt lat="45.69035" lon="6.59821">
        <ele>1707.44</ele>
        <time>2011-06-12T13:48:01Z</time>
      </trkpt>
      <trkpt lat="45.69035" lon="6.59821">
        <ele>1708.4</ele>
        <time>2011-06-12T13:48:27Z</time>
      </trkpt>
      <trkpt lat="45.69035" lon="6.59821">
        <ele>1707.92</ele>
        <time>2011-06-12T13:48:53Z</time>
      </trkpt>
      <trkpt lat="45.69035" lon="6.59821">
        <ele>1707.44</ele>
        <time>2011-06-12T13:49:13Z</time>
      </trkpt>
      <trkpt lat="45.69035" lon="6.59821">
        <ele>1707.92</ele>
        <time>2011-06-12T13:49:32Z</time>
      </trkpt>
      <trkpt lat="45.69035" lon="6.59821">
        <ele>1707.92</ele>
        <time>2011-06-12T13:49:49Z</time>
      </trkpt>
      <trkpt lat="45.69036" lon="6.59825">
        <ele>1707.44</ele>
        <time>2011-06-12T13:50:11Z</time>
      </trkpt>
      <trkpt lat="45.69035" lon="6.59826">
        <ele>1707.44</ele>
        <time>2011-06-12T13:50:26Z</time>
      </trkpt>
      <trkpt lat="45.69037" lon="6.59828">
        <ele>1707.44</ele>
        <time>2011-06-12T13:50:55Z</time>
      </trkpt>
      <trkpt lat="45.69035" lon="6.59827">
        <ele>1707.44</ele>
        <time>2011-06-12T13:51:30Z</time>
      </trkpt>
      <trkpt lat="45.69036" lon="6.59826">
        <ele>1706.96</ele>
        <time>2011-06-12T13:52:02Z</time>
      </trkpt>
      <trkpt lat="45.69035" lon="6.59826">
        <ele>1706.48</ele>
        <time>2011-06-12T13:52:34Z</time>
      </trkpt>
      <trkpt lat="45.69035" lon="6.59825">
        <ele>1706.96</ele>
        <time>2011-06-12T13:53:11Z</time>
      </trkpt>
      <trkpt lat="45.69035" lon="6.59825">
        <ele>1706.48</ele>
        <time>2011-06-12T13:53:48Z</time>
      </trkpt>
      <trkpt lat="45.69034" lon="6.59825">
        <ele>1706.48</ele>
        <time>2011-06-12T13:54:22Z</time>
      </trkpt>
      <trkpt lat="45.69035" lon="6.59822">
        <ele>1706.48</ele>
        <time>2011-06-12T13:54:40Z</time>
      </trkpt>
      <trkpt lat="45.69035" lon="6.59822">
        <ele>1706</ele>
        <time>2011-06-12T13:55:01Z</time>
      </trkpt>
      <trkpt lat="45.69034" lon="6.59822">
        <ele>1706.48</ele>
        <time>2011-06-12T13:55:36Z</time>
      </trkpt>
      <trkpt lat="45.69034" lon="6.59822">
        <ele>1706</ele>
        <time>2011-06-12T13:56:05Z</time>
      </trkpt>
      <trkpt lat="45.69034" lon="6.59822">
        <ele>1706.48</ele>
        <time>2011-06-12T13:56:36Z</time>
      </trkpt>
      <trkpt lat="45.69034" lon="6.59822">
        <ele>1706</ele>
        <time>2011-06-12T13:57:07Z</time>
      </trkpt>
      <trkpt lat="45.69035" lon="6.5982">
        <ele>1705.52</ele>
        <time>2011-06-12T13:57:25Z</time>
      </trkpt>
      <trkpt lat="45.69036" lon="6.59817">
        <ele>1706</ele>
        <time>2011-06-12T13:57:26Z</time>
      </trkpt>
      <trkpt lat="45.69036" lon="6.59816">
        <ele>1705.52</ele>
        <time>2011-06-12T13:57:27Z</time>
      </trkpt>
      <trkpt lat="45.69037" lon="6.59813">
        <ele>1705.52</ele>
        <time>2011-06-12T13:57:29Z</time>
      </trkpt>
      <trkpt lat="45.69038" lon="6.59812">
        <ele>1706</ele>
        <time>2011-06-12T13:57:30Z</time>
      </trkpt>
      <trkpt lat="45.6904" lon="6.59811">
        <ele>1705.04</ele>
        <time>2011-06-12T13:57:31Z</time>
      </trkpt>
      <trkpt lat="45.69041" lon="6.59811">
        <ele>1705.52</ele>
        <time>2011-06-12T13:57:32Z</time>
      </trkpt>
      <trkpt lat="45.69043" lon="6.5981">
        <ele>1705.04</ele>
        <time>2011-06-12T13:57:33Z</time>
      </trkpt>
      <trkpt lat="45.69066" lon="6.59796">
        <ele>1705.04</ele>
        <time>2011-06-12T13:57:43Z</time>
      </trkpt>
      <trkpt lat="45.6908" lon="6.59772">
        <ele>1705.52</ele>
        <time>2011-06-12T13:57:54Z</time>
      </trkpt>
      <trkpt lat="45.69095" lon="6.59735">
        <ele>1706.48</ele>
        <time>2011-06-12T13:58:07Z</time>
      </trkpt>
      <trkpt lat="45.69095" lon="6.5972">
        <ele>1706.48</ele>
        <time>2011-06-12T13:58:14Z</time>
      </trkpt>
      <trkpt lat="45.69094" lon="6.59718">
        <ele>1707.44</ele>
        <time>2011-06-12T13:58:15Z</time>
      </trkpt>
      <trkpt lat="45.69094" lon="6.59716">
        <ele>1707.44</ele>
        <time>2011-06-12T13:58:16Z</time>
      </trkpt>
      <trkpt lat="45.69094" lon="6.59713">
        <ele>1707.92</ele>
        <time>2011-06-12T13:58:17Z</time>
      </trkpt>
      <trkpt lat="45.69094" lon="6.59712">
        <ele>1707.92</ele>
        <time>2011-06-12T13:58:18Z</time>
      </trkpt>
      <trkpt lat="45.69093" lon="6.5971">
        <ele>1707.92</ele>
        <time>2011-06-12T13:58:19Z</time>
      </trkpt>
      <trkpt lat="45.69093" lon="6.59708">
        <ele>1707.92</ele>
        <time>2011-06-12T13:58:20Z</time>
      </trkpt>
      <trkpt lat="45.69093" lon="6.59706">
        <ele>1707.92</ele>
        <time>2011-06-12T13:58:21Z</time>
      </trkpt>
      <trkpt lat="45.69092" lon="6.59705">
        <ele>1707.92</ele>
        <time>2011-06-12T13:58:22Z</time>
      </trkpt>
      <trkpt lat="45.69091" lon="6.59703">
        <ele>1708.4</ele>
        <time>2011-06-12T13:58:23Z</time>
      </trkpt>
      <trkpt lat="45.69091" lon="6.59701">
        <ele>1708.4</ele>
        <time>2011-06-12T13:58:24Z</time>
      </trkpt>
      <trkpt lat="45.69091" lon="6.59699">
        <ele>1708.88</ele>
        <time>2011-06-12T13:58:25Z</time>
      </trkpt>
      <trkpt lat="45.6909" lon="6.59697">
        <ele>1708.88</ele>
        <time>2011-06-12T13:58:26Z</time>
      </trkpt>
      <trkpt lat="45.69089" lon="6.59696">
        <ele>1709.36</ele>
        <time>2011-06-12T13:58:27Z</time>
      </trkpt>
      <trkpt lat="45.69089" lon="6.59694">
        <ele>1708.88</ele>
        <time>2011-06-12T13:58:28Z</time>
      </trkpt>
      <trkpt lat="45.69088" lon="6.59692">
        <ele>1708.88</ele>
        <time>2011-06-12T13:58:29Z</time>
      </trkpt>
      <trkpt lat="45.69088" lon="6.5969">
        <ele>1709.36</ele>
        <time>2011-06-12T13:58:30Z</time>
      </trkpt>
      <trkpt lat="45.69087" lon="6.59688">
        <ele>1708.88</ele>
        <time>2011-06-12T13:58:31Z</time>
      </trkpt>
      <trkpt lat="45.69083" lon="6.5967">
        <ele>1710.32</ele>
        <time>2011-06-12T13:58:42Z</time>
      </trkpt>
      <trkpt lat="45.69083" lon="6.59665">
        <ele>1710.8</ele>
        <time>2011-06-12T13:58:45Z</time>
      </trkpt>
      <trkpt lat="45.69082" lon="6.59663">
        <ele>1711.28</ele>
        <time>2011-06-12T13:58:46Z</time>
      </trkpt>
      <trkpt lat="45.69082" lon="6.59662">
        <ele>1710.8</ele>
        <time>2011-06-12T13:58:47Z</time>
      </trkpt>
      <trkpt lat="45.69075" lon="6.59641">
        <ele>1713.21</ele>
        <time>2011-06-12T13:59:01Z</time>
      </trkpt>
      <trkpt lat="45.69072" lon="6.59634">
        <ele>1714.65</ele>
        <time>2011-06-12T13:59:07Z</time>
      </trkpt>
      <trkpt lat="45.69071" lon="6.59633">
        <ele>1714.17</ele>
        <time>2011-06-12T13:59:08Z</time>
      </trkpt>
      <trkpt lat="45.69066" lon="6.59622">
        <ele>1716.09</ele>
        <time>2011-06-12T13:59:17Z</time>
      </trkpt>
      <trkpt lat="45.69062" lon="6.59607">
        <ele>1717.05</ele>
        <time>2011-06-12T13:59:27Z</time>
      </trkpt>
      <trkpt lat="45.69061" lon="6.59606">
        <ele>1717.53</ele>
        <time>2011-06-12T13:59:28Z</time>
      </trkpt>
      <trkpt lat="45.69058" lon="6.59593">
        <ele>1718.01</ele>
        <time>2011-06-12T13:59:36Z</time>
      </trkpt>
      <trkpt lat="45.69053" lon="6.59576">
        <ele>1719.46</ele>
        <time>2011-06-12T13:59:49Z</time>
      </trkpt>
      <trkpt lat="45.69048" lon="6.5955">
        <ele>1721.38</ele>
        <time>2011-06-12T14:00:06Z</time>
      </trkpt>
      <trkpt lat="45.69044" lon="6.59523">
        <ele>1724.26</ele>
        <time>2011-06-12T14:00:24Z</time>
      </trkpt>
      <trkpt lat="45.6904" lon="6.59497">
        <ele>1726.18</ele>
        <time>2011-06-12T14:00:41Z</time>
      </trkpt>
      <trkpt lat="45.69039" lon="6.59489">
        <ele>1727.15</ele>
        <time>2011-06-12T14:00:46Z</time>
      </trkpt>
      <trkpt lat="45.69039" lon="6.59488">
        <ele>1727.15</ele>
        <time>2011-06-12T14:00:47Z</time>
      </trkpt>
      <trkpt lat="45.69039" lon="6.59487">
        <ele>1727.15</ele>
        <time>2011-06-12T14:00:48Z</time>
      </trkpt>
      <trkpt lat="45.69039" lon="6.59485">
        <ele>1726.67</ele>
        <time>2011-06-12T14:00:49Z</time>
      </trkpt>
      <trkpt lat="45.69039" lon="6.59461">
        <ele>1728.59</ele>
        <time>2011-06-12T14:01:04Z</time>
      </trkpt>
      <trkpt lat="45.69037" lon="6.59436">
        <ele>1730.03</ele>
        <time>2011-06-12T14:01:20Z</time>
      </trkpt>
      <trkpt lat="45.69037" lon="6.59433">
        <ele>1730.99</ele>
        <time>2011-06-12T14:01:22Z</time>
      </trkpt>
      <trkpt lat="45.69034" lon="6.59416">
        <ele>1731.47</ele>
        <time>2011-06-12T14:01:34Z</time>
      </trkpt>
      <trkpt lat="45.69033" lon="6.59415">
        <ele>1731.47</ele>
        <time>2011-06-12T14:01:35Z</time>
      </trkpt>
      <trkpt lat="45.69033" lon="6.59413">
        <ele>1732.43</ele>
        <time>2011-06-12T14:01:36Z</time>
      </trkpt>
      <trkpt lat="45.69031" lon="6.59397">
        <ele>1733.39</ele>
        <time>2011-06-12T14:01:46Z</time>
      </trkpt>
      <trkpt lat="45.6903" lon="6.59395">
        <ele>1732.91</ele>
        <time>2011-06-12T14:01:47Z</time>
      </trkpt>
      <trkpt lat="45.6903" lon="6.59394">
        <ele>1732.91</ele>
        <time>2011-06-12T14:01:48Z</time>
      </trkpt>
      <trkpt lat="45.69026" lon="6.59364">
        <ele>1734.84</ele>
        <time>2011-06-12T14:02:05Z</time>
      </trkpt>
      <trkpt lat="45.69023" lon="6.59331">
        <ele>1735.32</ele>
        <time>2011-06-12T14:02:22Z</time>
      </trkpt>
      <trkpt lat="45.69022" lon="6.5932">
        <ele>1736.28</ele>
        <time>2011-06-12T14:02:28Z</time>
      </trkpt>
      <trkpt lat="45.69022" lon="6.59318">
        <ele>1735.8</ele>
        <time>2011-06-12T14:02:29Z</time>
      </trkpt>
      <trkpt lat="45.69017" lon="6.5929">
        <ele>1738.2</ele>
        <time>2011-06-12T14:02:45Z</time>
      </trkpt>
      <trkpt lat="45.69018" lon="6.59288">
        <ele>1738.2</ele>
        <time>2011-06-12T14:02:46Z</time>
      </trkpt>
      <trkpt lat="45.69018" lon="6.59287">
        <ele>1738.2</ele>
        <time>2011-06-12T14:02:47Z</time>
      </trkpt>
      <trkpt lat="45.69018" lon="6.59285">
        <ele>1738.68</ele>
        <time>2011-06-12T14:02:48Z</time>
      </trkpt>
      <trkpt lat="45.69018" lon="6.59283">
        <ele>1738.68</ele>
        <time>2011-06-12T14:02:49Z</time>
      </trkpt>
      <trkpt lat="45.69017" lon="6.59281">
        <ele>1738.68</ele>
        <time>2011-06-12T14:02:50Z</time>
      </trkpt>
      <trkpt lat="45.69017" lon="6.5928">
        <ele>1738.68</ele>
        <time>2011-06-12T14:02:51Z</time>
      </trkpt>
      <trkpt lat="45.69017" lon="6.59278">
        <ele>1739.16</ele>
        <time>2011-06-12T14:02:52Z</time>
      </trkpt>
      <trkpt lat="45.69017" lon="6.59275">
        <ele>1739.16</ele>
        <time>2011-06-12T14:02:54Z</time>
      </trkpt>
      <trkpt lat="45.69018" lon="6.59273">
        <ele>1739.64</ele>
        <time>2011-06-12T14:02:55Z</time>
      </trkpt>
      <trkpt lat="45.69018" lon="6.59272">
        <ele>1739.64</ele>
        <time>2011-06-12T14:02:56Z</time>
      </trkpt>
      <trkpt lat="45.69018" lon="6.5927">
        <ele>1739.64</ele>
        <time>2011-06-12T14:02:57Z</time>
      </trkpt>
      <trkpt lat="45.69018" lon="6.59268">
        <ele>1739.64</ele>
        <time>2011-06-12T14:02:58Z</time>
      </trkpt>
      <trkpt lat="45.6902" lon="6.59253">
        <ele>1740.12</ele>
        <time>2011-06-12T14:03:07Z</time>
      </trkpt>
      <trkpt lat="45.6902" lon="6.59252">
        <ele>1740.6</ele>
        <time>2011-06-12T14:03:08Z</time>
      </trkpt>
      <trkpt lat="45.69021" lon="6.5925">
        <ele>1741.08</ele>
        <time>2011-06-12T14:03:09Z</time>
      </trkpt>
      <trkpt lat="45.69021" lon="6.59249">
        <ele>1741.08</ele>
        <time>2011-06-12T14:03:10Z</time>
      </trkpt>
      <trkpt lat="45.69022" lon="6.59247">
        <ele>1741.08</ele>
        <time>2011-06-12T14:03:11Z</time>
      </trkpt>
      <trkpt lat="45.69031" lon="6.59225">
        <ele>1741.57</ele>
        <time>2011-06-12T14:03:25Z</time>
      </trkpt>
      <trkpt lat="45.69046" lon="6.59204">
        <ele>1742.05</ele>
        <time>2011-06-12T14:03:41Z</time>
      </trkpt>
      <trkpt lat="45.69059" lon="6.59183">
        <ele>1742.53</ele>
        <time>2011-06-12T14:03:55Z</time>
      </trkpt>
      <trkpt lat="45.69085" lon="6.59158">
        <ele>1741.57</ele>
        <time>2011-06-12T14:04:08Z</time>
      </trkpt>
      <trkpt lat="45.69096" lon="6.59137">
        <ele>1741.57</ele>
        <time>2011-06-12T14:04:16Z</time>
      </trkpt>
      <trkpt lat="45.69097" lon="6.59136">
        <ele>1741.57</ele>
        <time>2011-06-12T14:04:17Z</time>
      </trkpt>
      <trkpt lat="45.69098" lon="6.59133">
        <ele>1741.57</ele>
        <time>2011-06-12T14:04:18Z</time>
      </trkpt>
      <trkpt lat="45.69117" lon="6.59098">
        <ele>1741.08</ele>
        <time>2011-06-12T14:04:31Z</time>
      </trkpt>
      <trkpt lat="45.69133" lon="6.59066">
        <ele>1741.08</ele>
        <time>2011-06-12T14:04:42Z</time>
      </trkpt>
      <trkpt lat="45.69164" lon="6.5904">
        <ele>1738.68</ele>
        <time>2011-06-12T14:04:54Z</time>
      </trkpt>
      <trkpt lat="45.69185" lon="6.59029">
        <ele>1736.76</ele>
        <time>2011-06-12T14:04:58Z</time>
      </trkpt>
      <trkpt lat="45.69204" lon="6.59008">
        <ele>1736.76</ele>
        <time>2011-06-12T14:05:02Z</time>
      </trkpt>
      <trkpt lat="45.69238" lon="6.58975">
        <ele>1737.24</ele>
        <time>2011-06-12T14:05:13Z</time>
      </trkpt>
      <trkpt lat="45.69264" lon="6.58953">
        <ele>1737.24</ele>
        <time>2011-06-12T14:05:25Z</time>
      </trkpt>
      <trkpt lat="45.69273" lon="6.58946">
        <ele>1736.76</ele>
        <time>2011-06-12T14:05:28Z</time>
      </trkpt>
      <trkpt lat="45.69286" lon="6.5893">
        <ele>1735.32</ele>
        <time>2011-06-12T14:05:32Z</time>
      </trkpt>
      <trkpt lat="45.69289" lon="6.58926">
        <ele>1734.84</ele>
        <time>2011-06-12T14:05:33Z</time>
      </trkpt>
      <trkpt lat="45.69293" lon="6.58922">
        <ele>1734.84</ele>
        <time>2011-06-12T14:05:34Z</time>
      </trkpt>
      <trkpt lat="45.69327" lon="6.58898">
        <ele>1735.32</ele>
        <time>2011-06-12T14:05:45Z</time>
      </trkpt>
      <trkpt lat="45.69335" lon="6.58892">
        <ele>1736.28</ele>
        <time>2011-06-12T14:05:50Z</time>
      </trkpt>
      <trkpt lat="45.69336" lon="6.5889">
        <ele>1736.28</ele>
        <time>2011-06-12T14:05:51Z</time>
      </trkpt>
      <trkpt lat="45.69337" lon="6.58888">
        <ele>1736.76</ele>
        <time>2011-06-12T14:05:52Z</time>
      </trkpt>
      <trkpt lat="45.69338" lon="6.58887">
        <ele>1736.76</ele>
        <time>2011-06-12T14:05:53Z</time>
      </trkpt>
      <trkpt lat="45.69339" lon="6.58885">
        <ele>1736.76</ele>
        <time>2011-06-12T14:05:54Z</time>
      </trkpt>
      <trkpt lat="45.69339" lon="6.58884">
        <ele>1736.76</ele>
        <time>2011-06-12T14:05:55Z</time>
      </trkpt>
      <trkpt lat="45.69351" lon="6.58873">
        <ele>1737.72</ele>
        <time>2011-06-12T14:06:04Z</time>
      </trkpt>
      <trkpt lat="45.69387" lon="6.58867">
        <ele>1735.32</ele>
        <time>2011-06-12T14:06:15Z</time>
      </trkpt>
      <trkpt lat="45.69391" lon="6.58863">
        <ele>1735.32</ele>
        <time>2011-06-12T14:06:16Z</time>
      </trkpt>
      <trkpt lat="45.69394" lon="6.58859">
        <ele>1734.84</ele>
        <time>2011-06-12T14:06:17Z</time>
      </trkpt>
      <trkpt lat="45.69411" lon="6.58822">
        <ele>1734.84</ele>
        <time>2011-06-12T14:06:28Z</time>
      </trkpt>
      <trkpt lat="45.69411" lon="6.58814">
        <ele>1734.36</ele>
        <time>2011-06-12T14:06:32Z</time>
      </trkpt>
      <trkpt lat="45.69412" lon="6.58813">
        <ele>1734.36</ele>
        <time>2011-06-12T14:06:52Z</time>
      </trkpt>
      <trkpt lat="45.69412" lon="6.58813">
        <ele>1734.36</ele>
        <time>2011-06-12T14:07:10Z</time>
      </trkpt>
      <trkpt lat="45.69412" lon="6.58813">
        <ele>1734.36</ele>
        <time>2011-06-12T14:07:40Z</time>
      </trkpt>
      <trkpt lat="45.69412" lon="6.58808">
        <ele>1734.36</ele>
        <time>2011-06-12T14:07:47Z</time>
      </trkpt>
      <trkpt lat="45.69413" lon="6.58804">
        <ele>1733.39</ele>
        <time>2011-06-12T14:07:48Z</time>
      </trkpt>
      <trkpt lat="45.69423" lon="6.58777">
        <ele>1730.03</ele>
        <time>2011-06-12T14:07:54Z</time>
      </trkpt>
      <trkpt lat="45.69434" lon="6.58751">
        <ele>1727.15</ele>
        <time>2011-06-12T14:07:58Z</time>
      </trkpt>
      <trkpt lat="45.69437" lon="6.58743">
        <ele>1726.67</ele>
        <time>2011-06-12T14:07:59Z</time>
      </trkpt>
      <trkpt lat="45.6945" lon="6.58716">
        <ele>1722.82</ele>
        <time>2011-06-12T14:08:03Z</time>
      </trkpt>
      <trkpt lat="45.69458" lon="6.58684">
        <ele>1720.42</ele>
        <time>2011-06-12T14:08:07Z</time>
      </trkpt>
      <trkpt lat="45.69459" lon="6.5866">
        <ele>1718.49</ele>
        <time>2011-06-12T14:08:10Z</time>
      </trkpt>
      <trkpt lat="45.69458" lon="6.58645">
        <ele>1716.09</ele>
        <time>2011-06-12T14:08:12Z</time>
      </trkpt>
      <trkpt lat="45.69459" lon="6.58639">
        <ele>1715.13</ele>
        <time>2011-06-12T14:08:13Z</time>
      </trkpt>
      <trkpt lat="45.69461" lon="6.58628">
        <ele>1713.69</ele>
        <time>2011-06-12T14:08:16Z</time>
      </trkpt>
      <trkpt lat="45.69462" lon="6.58626">
        <ele>1713.21</ele>
        <time>2011-06-12T14:08:17Z</time>
      </trkpt>
      <trkpt lat="45.69463" lon="6.58623">
        <ele>1713.21</ele>
        <time>2011-06-12T14:08:18Z</time>
      </trkpt>
      <trkpt lat="45.69466" lon="6.58612">
        <ele>1711.28</ele>
        <time>2011-06-12T14:08:21Z</time>
      </trkpt>
      <trkpt lat="45.6947" lon="6.58609">
        <ele>1710.32</ele>
        <time>2011-06-12T14:08:22Z</time>
      </trkpt>
      <trkpt lat="45.69473" lon="6.58604">
        <ele>1709.84</ele>
        <time>2011-06-12T14:08:23Z</time>
      </trkpt>
      <trkpt lat="45.69475" lon="6.58598">
        <ele>1709.36</ele>
        <time>2011-06-12T14:08:24Z</time>
      </trkpt>
      <trkpt lat="45.69477" lon="6.58591">
        <ele>1708.88</ele>
        <time>2011-06-12T14:08:25Z</time>
      </trkpt>
      <trkpt lat="45.69478" lon="6.58584">
        <ele>1708.4</ele>
        <time>2011-06-12T14:08:26Z</time>
      </trkpt>
      <trkpt lat="45.69479" lon="6.58577">
        <ele>1707.92</ele>
        <time>2011-06-12T14:08:27Z</time>
      </trkpt>
      <trkpt lat="45.6948" lon="6.58569">
        <ele>1707.44</ele>
        <time>2011-06-12T14:08:28Z</time>
      </trkpt>
      <trkpt lat="45.69482" lon="6.58562">
        <ele>1706.96</ele>
        <time>2011-06-12T14:08:29Z</time>
      </trkpt>
      <trkpt lat="45.69484" lon="6.58554">
        <ele>1706.96</ele>
        <time>2011-06-12T14:08:30Z</time>
      </trkpt>
      <trkpt lat="45.69485" lon="6.58547">
        <ele>1706.48</ele>
        <time>2011-06-12T14:08:31Z</time>
      </trkpt>
      <trkpt lat="45.69486" lon="6.58539">
        <ele>1705.52</ele>
        <time>2011-06-12T14:08:32Z</time>
      </trkpt>
      <trkpt lat="45.69487" lon="6.58531">
        <ele>1704.55</ele>
        <time>2011-06-12T14:08:33Z</time>
      </trkpt>
      <trkpt lat="45.69489" lon="6.58524">
        <ele>1704.55</ele>
        <time>2011-06-12T14:08:34Z</time>
      </trkpt>
      <trkpt lat="45.69496" lon="6.58505">
        <ele>1705.04</ele>
        <time>2011-06-12T14:08:37Z</time>
      </trkpt>
      <trkpt lat="45.69508" lon="6.58486">
        <ele>1706.48</ele>
        <time>2011-06-12T14:08:46Z</time>
      </trkpt>
      <trkpt lat="45.69508" lon="6.58487">
        <ele>1706.48</ele>
        <time>2011-06-12T14:09:08Z</time>
      </trkpt>
      <trkpt lat="45.69509" lon="6.58485">
        <ele>1706.48</ele>
        <time>2011-06-12T14:09:20Z</time>
      </trkpt>
      <trkpt lat="45.69509" lon="6.58481">
        <ele>1705.52</ele>
        <time>2011-06-12T14:09:23Z</time>
      </trkpt>
      <trkpt lat="45.69508" lon="6.58478">
        <ele>1705.52</ele>
        <time>2011-06-12T14:09:24Z</time>
      </trkpt>
      <trkpt lat="45.69508" lon="6.58476">
        <ele>1705.04</ele>
        <time>2011-06-12T14:09:25Z</time>
      </trkpt>
      <trkpt lat="45.69509" lon="6.58474">
        <ele>1704.55</ele>
        <time>2011-06-12T14:09:26Z</time>
      </trkpt>
      <trkpt lat="45.6951" lon="6.58472">
        <ele>1704.07</ele>
        <time>2011-06-12T14:09:27Z</time>
      </trkpt>
      <trkpt lat="45.69518" lon="6.58465">
        <ele>1700.71</ele>
        <time>2011-06-12T14:09:33Z</time>
      </trkpt>
      <trkpt lat="45.6952" lon="6.58469">
        <ele>1699.75</ele>
        <time>2011-06-12T14:09:37Z</time>
      </trkpt>
      <trkpt lat="45.6952" lon="6.58471">
        <ele>1699.27</ele>
        <time>2011-06-12T14:09:38Z</time>
      </trkpt>
      <trkpt lat="45.6952" lon="6.58473">
        <ele>1698.31</ele>
        <time>2011-06-12T14:09:39Z</time>
      </trkpt>
      <trkpt lat="45.6952" lon="6.58475">
        <ele>1698.31</ele>
        <time>2011-06-12T14:09:40Z</time>
      </trkpt>
      <trkpt lat="45.6952" lon="6.58476">
        <ele>1697.83</ele>
        <time>2011-06-12T14:09:41Z</time>
      </trkpt>
      <trkpt lat="45.69522" lon="6.58476">
        <ele>1694.94</ele>
        <time>2011-06-12T14:09:45Z</time>
      </trkpt>
      <trkpt lat="45.69523" lon="6.58475">
        <ele>1694.94</ele>
        <time>2011-06-12T14:09:46Z</time>
      </trkpt>
      <trkpt lat="45.69524" lon="6.58474">
        <ele>1694.46</ele>
        <time>2011-06-12T14:09:47Z</time>
      </trkpt>
      <trkpt lat="45.69525" lon="6.58473">
        <ele>1693.98</ele>
        <time>2011-06-12T14:09:48Z</time>
      </trkpt>
      <trkpt lat="45.69525" lon="6.58473">
        <ele>1693.98</ele>
        <time>2011-06-12T14:09:49Z</time>
      </trkpt>
      <trkpt lat="45.69526" lon="6.58472">
        <ele>1693.02</ele>
        <time>2011-06-12T14:09:50Z</time>
      </trkpt>
      <trkpt lat="45.69528" lon="6.58471">
        <ele>1692.54</ele>
        <time>2011-06-12T14:09:51Z</time>
      </trkpt>
      <trkpt lat="45.69529" lon="6.58469">
        <ele>1692.06</ele>
        <time>2011-06-12T14:09:52Z</time>
      </trkpt>
      <trkpt lat="45.6953" lon="6.58468">
        <ele>1692.06</ele>
        <time>2011-06-12T14:09:53Z</time>
      </trkpt>
      <trkpt lat="45.69531" lon="6.58467">
        <ele>1692.06</ele>
        <time>2011-06-12T14:09:54Z</time>
      </trkpt>
      <trkpt lat="45.69534" lon="6.58465">
        <ele>1690.14</ele>
        <time>2011-06-12T14:09:56Z</time>
      </trkpt>
      <trkpt lat="45.69542" lon="6.58459">
        <ele>1687.25</ele>
        <time>2011-06-12T14:10:04Z</time>
      </trkpt>
      <trkpt lat="45.69543" lon="6.58455">
        <ele>1685.81</ele>
        <time>2011-06-12T14:10:14Z</time>
      </trkpt>
      <trkpt lat="45.69542" lon="6.5847">
        <ele>1682.44</ele>
        <time>2011-06-12T14:10:21Z</time>
      </trkpt>
      <trkpt lat="45.69544" lon="6.58484">
        <ele>1680.52</ele>
        <time>2011-06-12T14:10:25Z</time>
      </trkpt>
      <trkpt lat="45.69543" lon="6.58496">
        <ele>1678.6</ele>
        <time>2011-06-12T14:10:28Z</time>
      </trkpt>
      <trkpt lat="45.6954" lon="6.58518">
        <ele>1674.75</ele>
        <time>2011-06-12T14:10:34Z</time>
      </trkpt>
      <trkpt lat="45.69539" lon="6.58521">
        <ele>1674.75</ele>
        <time>2011-06-12T14:10:35Z</time>
      </trkpt>
      <trkpt lat="45.69538" lon="6.58524">
        <ele>1673.79</ele>
        <time>2011-06-12T14:10:36Z</time>
      </trkpt>
      <trkpt lat="45.69544" lon="6.58525">
        <ele>1670.91</ele>
        <time>2011-06-12T14:10:43Z</time>
      </trkpt>
      <trkpt lat="45.69545" lon="6.58523">
        <ele>1670.43</ele>
        <time>2011-06-12T14:10:44Z</time>
      </trkpt>
      <trkpt lat="45.69551" lon="6.58516">
        <ele>1668.02</ele>
        <time>2011-06-12T14:10:47Z</time>
      </trkpt>
      <trkpt lat="45.69565" lon="6.58503">
        <ele>1665.14</ele>
        <time>2011-06-12T14:10:51Z</time>
      </trkpt>
      <trkpt lat="45.69568" lon="6.585">
        <ele>1665.14</ele>
        <time>2011-06-12T14:10:52Z</time>
      </trkpt>
      <trkpt lat="45.69575" lon="6.58488">
        <ele>1662.74</ele>
        <time>2011-06-12T14:10:55Z</time>
      </trkpt>
      <trkpt lat="45.69587" lon="6.58485">
        <ele>1659.37</ele>
        <time>2011-06-12T14:11:00Z</time>
      </trkpt>
      <trkpt lat="45.69596" lon="6.58492">
        <ele>1658.41</ele>
        <time>2011-06-12T14:11:03Z</time>
      </trkpt>
      <trkpt lat="45.69593" lon="6.58495">
        <ele>1655.53</ele>
        <time>2011-06-12T14:11:08Z</time>
      </trkpt>
      <trkpt lat="45.69597" lon="6.5848">
        <ele>1654.09</ele>
        <time>2011-06-12T14:11:14Z</time>
      </trkpt>
      <trkpt lat="45.69602" lon="6.58466">
        <ele>1651.68</ele>
        <time>2011-06-12T14:11:21Z</time>
      </trkpt>
      <trkpt lat="45.69603" lon="6.58464">
        <ele>1650.24</ele>
        <time>2011-06-12T14:11:22Z</time>
      </trkpt>
      <trkpt lat="45.69603" lon="6.58456">
        <ele>1646.4</ele>
        <time>2011-06-12T14:11:26Z</time>
      </trkpt>
      <trkpt lat="45.69603" lon="6.58448">
        <ele>1645.91</ele>
        <time>2011-06-12T14:11:28Z</time>
      </trkpt>
      <trkpt lat="45.69608" lon="6.58407">
        <ele>1642.55</ele>
        <time>2011-06-12T14:11:39Z</time>
      </trkpt>
      <trkpt lat="45.69617" lon="6.58381">
        <ele>1639.19</ele>
        <time>2011-06-12T14:11:47Z</time>
      </trkpt>
      <trkpt lat="45.69634" lon="6.58358">
        <ele>1635.82</ele>
        <time>2011-06-12T14:11:53Z</time>
      </trkpt>
      <trkpt lat="45.69642" lon="6.58349">
        <ele>1634.38</ele>
        <time>2011-06-12T14:11:56Z</time>
      </trkpt>
      <trkpt lat="45.69651" lon="6.58338">
        <ele>1631.01</ele>
        <time>2011-06-12T14:12:01Z</time>
      </trkpt>
      <trkpt lat="45.6966" lon="6.58327">
        <ele>1627.17</ele>
        <time>2011-06-12T14:12:05Z</time>
      </trkpt>
      <trkpt lat="45.69662" lon="6.58324">
        <ele>1627.17</ele>
        <time>2011-06-12T14:12:06Z</time>
      </trkpt>
      <trkpt lat="45.69667" lon="6.58321">
        <ele>1627.65</ele>
        <time>2011-06-12T14:12:16Z</time>
      </trkpt>
      <trkpt lat="45.69667" lon="6.58321">
        <ele>1627.65</ele>
        <time>2011-06-12T14:12:40Z</time>
      </trkpt>
      <trkpt lat="45.69666" lon="6.58323">
        <ele>1627.65</ele>
        <time>2011-06-12T14:12:58Z</time>
      </trkpt>
      <trkpt lat="45.69669" lon="6.58324">
        <ele>1626.21</ele>
        <time>2011-06-12T14:13:02Z</time>
      </trkpt>
      <trkpt lat="45.69672" lon="6.58322">
        <ele>1624.28</ele>
        <time>2011-06-12T14:13:04Z</time>
      </trkpt>
      <trkpt lat="45.6968" lon="6.58307">
        <ele>1619.48</ele>
        <time>2011-06-12T14:13:09Z</time>
      </trkpt>
      <trkpt lat="45.69691" lon="6.58285">
        <ele>1616.11</ele>
        <time>2011-06-12T14:13:13Z</time>
      </trkpt>
      <trkpt lat="45.69698" lon="6.5826">
        <ele>1614.19</ele>
        <time>2011-06-12T14:13:16Z</time>
      </trkpt>
      <trkpt lat="45.69707" lon="6.58243">
        <ele>1611.79</ele>
        <time>2011-06-12T14:13:21Z</time>
      </trkpt>
      <trkpt lat="45.69712" lon="6.58231">
        <ele>1608.42</ele>
        <time>2011-06-12T14:13:26Z</time>
      </trkpt>
      <trkpt lat="45.69708" lon="6.58217">
        <ele>1605.54</ele>
        <time>2011-06-12T14:13:32Z</time>
      </trkpt>
      <trkpt lat="45.69707" lon="6.58201">
        <ele>1602.17</ele>
        <time>2011-06-12T14:13:38Z</time>
      </trkpt>
      <trkpt lat="45.69706" lon="6.58191">
        <ele>1600.73</ele>
        <time>2011-06-12T14:13:41Z</time>
      </trkpt>
      <trkpt lat="45.69706" lon="6.58179">
        <ele>1596.89</ele>
        <time>2011-06-12T14:13:45Z</time>
      </trkpt>
      <trkpt lat="45.69708" lon="6.58175">
        <ele>1596.89</ele>
        <time>2011-06-12T14:13:46Z</time>
      </trkpt>
      <trkpt lat="45.69717" lon="6.58158">
        <ele>1595.45</ele>
        <time>2011-06-12T14:13:51Z</time>
      </trkpt>
      <trkpt lat="45.69729" lon="6.58142">
        <ele>1592.08</ele>
        <time>2011-06-12T14:13:56Z</time>
      </trkpt>
      <trkpt lat="45.69746" lon="6.58128">
        <ele>1588.24</ele>
        <time>2011-06-12T14:14:02Z</time>
      </trkpt>
      <trkpt lat="45.6975" lon="6.58112">
        <ele>1584.87</ele>
        <time>2011-06-12T14:14:07Z</time>
      </trkpt>
      <trkpt lat="45.6976" lon="6.58074">
        <ele>1581.51</ele>
        <time>2011-06-12T14:14:18Z</time>
      </trkpt>
      <trkpt lat="45.69766" lon="6.58067">
        <ele>1579.58</ele>
        <time>2011-06-12T14:14:23Z</time>
      </trkpt>
      <trkpt lat="45.69764" lon="6.58071">
        <ele>1579.1</ele>
        <time>2011-06-12T14:14:41Z</time>
      </trkpt>
      <trkpt lat="45.69766" lon="6.58068">
        <ele>1578.62</ele>
        <time>2011-06-12T14:14:48Z</time>
      </trkpt>
      <trkpt lat="45.6977" lon="6.5806">
        <ele>1577.66</ele>
        <time>2011-06-12T14:14:52Z</time>
      </trkpt>
      <trkpt lat="45.6978" lon="6.58033">
        <ele>1574.3</ele>
        <time>2011-06-12T14:14:59Z</time>
      </trkpt>
      <trkpt lat="45.69788" lon="6.58013">
        <ele>1570.93</ele>
        <time>2011-06-12T14:15:03Z</time>
      </trkpt>
      <trkpt lat="45.69795" lon="6.57998">
        <ele>1567.57</ele>
        <time>2011-06-12T14:15:06Z</time>
      </trkpt>
      <trkpt lat="45.69801" lon="6.57983">
        <ele>1565.16</ele>
        <time>2011-06-12T14:15:09Z</time>
      </trkpt>
      <trkpt lat="45.69808" lon="6.57971">
        <ele>1562.28</ele>
        <time>2011-06-12T14:15:12Z</time>
      </trkpt>
      <trkpt lat="45.69813" lon="6.57958">
        <ele>1560.84</ele>
        <time>2011-06-12T14:15:15Z</time>
      </trkpt>
      <trkpt lat="45.69809" lon="6.57945">
        <ele>1557.47</ele>
        <time>2011-06-12T14:15:20Z</time>
      </trkpt>
      <trkpt lat="45.69808" lon="6.57944">
        <ele>1557.47</ele>
        <time>2011-06-12T14:15:21Z</time>
      </trkpt>
      <trkpt lat="45.69809" lon="6.57943">
        <ele>1556.51</ele>
        <time>2011-06-12T14:15:23Z</time>
      </trkpt>
      <trkpt lat="45.69813" lon="6.57942">
        <ele>1553.15</ele>
        <time>2011-06-12T14:15:26Z</time>
      </trkpt>
      <trkpt lat="45.69825" lon="6.57942">
        <ele>1550.74</ele>
        <time>2011-06-12T14:15:31Z</time>
      </trkpt>
      <trkpt lat="45.69825" lon="6.57941">
        <ele>1550.26</ele>
        <time>2011-06-12T14:15:32Z</time>
      </trkpt>
      <trkpt lat="45.69826" lon="6.5794">
        <ele>1550.26</ele>
        <time>2011-06-12T14:15:33Z</time>
      </trkpt>
      <trkpt lat="45.69827" lon="6.57939">
        <ele>1549.78</ele>
        <time>2011-06-12T14:15:34Z</time>
      </trkpt>
      <trkpt lat="45.69828" lon="6.57938">
        <ele>1549.3</ele>
        <time>2011-06-12T14:15:35Z</time>
      </trkpt>
      <trkpt lat="45.69838" lon="6.5793">
        <ele>1544.98</ele>
        <time>2011-06-12T14:15:39Z</time>
      </trkpt>
      <trkpt lat="45.69843" lon="6.57921">
        <ele>1543.53</ele>
        <time>2011-06-12T14:15:42Z</time>
      </trkpt>
      <trkpt lat="45.69847" lon="6.57907">
        <ele>1540.17</ele>
        <time>2011-06-12T14:15:46Z</time>
      </trkpt>
      <trkpt lat="45.69856" lon="6.57908">
        <ele>1537.29</ele>
        <time>2011-06-12T14:15:51Z</time>
      </trkpt>
      <trkpt lat="45.6986" lon="6.5792">
        <ele>1534.88</ele>
        <time>2011-06-12T14:15:56Z</time>
      </trkpt>
      <trkpt lat="45.6986" lon="6.57925">
        <ele>1534.4</ele>
        <time>2011-06-12T14:15:57Z</time>
      </trkpt>
      <trkpt lat="45.69864" lon="6.5793">
        <ele>1532.48</ele>
        <time>2011-06-12T14:16:00Z</time>
      </trkpt>
      <trkpt lat="45.69867" lon="6.57931">
        <ele>1530.56</ele>
        <time>2011-06-12T14:16:03Z</time>
      </trkpt>
      <trkpt lat="45.6987" lon="6.57938">
        <ele>1528.63</ele>
        <time>2011-06-12T14:16:05Z</time>
      </trkpt>
      <trkpt lat="45.69871" lon="6.57942">
        <ele>1528.15</ele>
        <time>2011-06-12T14:16:06Z</time>
      </trkpt>
      <trkpt lat="45.69872" lon="6.57946">
        <ele>1527.19</ele>
        <time>2011-06-12T14:16:07Z</time>
      </trkpt>
      <trkpt lat="45.69873" lon="6.57949">
        <ele>1527.19</ele>
        <time>2011-06-12T14:16:08Z</time>
      </trkpt>
      <trkpt lat="45.69875" lon="6.57933">
        <ele>1523.83</ele>
        <time>2011-06-12T14:16:16Z</time>
      </trkpt>
      <trkpt lat="45.69878" lon="6.57917">
        <ele>1522.39</ele>
        <time>2011-06-12T14:16:19Z</time>
      </trkpt>
      <trkpt lat="45.69892" lon="6.579">
        <ele>1519.02</ele>
        <time>2011-06-12T14:16:24Z</time>
      </trkpt>
      <trkpt lat="45.69909" lon="6.57885">
        <ele>1515.66</ele>
        <time>2011-06-12T14:16:28Z</time>
      </trkpt>
      <trkpt lat="45.69917" lon="6.57879">
        <ele>1514.69</ele>
        <time>2011-06-12T14:16:30Z</time>
      </trkpt>
      <trkpt lat="45.69962" lon="6.57871">
        <ele>1510.85</ele>
        <time>2011-06-12T14:16:40Z</time>
      </trkpt>
      <trkpt lat="45.69954" lon="6.57876">
        <ele>1509.41</ele>
        <time>2011-06-12T14:16:50Z</time>
      </trkpt>
      <trkpt lat="45.69949" lon="6.57882">
        <ele>1507.97</ele>
        <time>2011-06-12T14:17:05Z</time>
      </trkpt>
      <trkpt lat="45.69967" lon="6.57885">
        <ele>1504.12</ele>
        <time>2011-06-12T14:17:13Z</time>
      </trkpt>
      <trkpt lat="45.6997" lon="6.57888">
        <ele>1501.72</ele>
        <time>2011-06-12T14:17:17Z</time>
      </trkpt>
      <trkpt lat="45.69969" lon="6.57885">
        <ele>1497.87</ele>
        <time>2011-06-12T14:17:23Z</time>
      </trkpt>
      <trkpt lat="45.69966" lon="6.5789">
        <ele>1496.43</ele>
        <time>2011-06-12T14:17:26Z</time>
      </trkpt>
      <trkpt lat="45.6997" lon="6.5789">
        <ele>1494.51</ele>
        <time>2011-06-12T14:17:30Z</time>
      </trkpt>
      <trkpt lat="45.6998" lon="6.57902">
        <ele>1491.14</ele>
        <time>2011-06-12T14:17:35Z</time>
      </trkpt>
      <trkpt lat="45.69994" lon="6.57908">
        <ele>1487.3</ele>
        <time>2011-06-12T14:17:44Z</time>
      </trkpt>
      <trkpt lat="45.69993" lon="6.57908">
        <ele>1487.3</ele>
        <time>2011-06-12T14:17:45Z</time>
      </trkpt>
      <trkpt lat="45.69988" lon="6.57915">
        <ele>1485.85</ele>
        <time>2011-06-12T14:17:48Z</time>
      </trkpt>
      <trkpt lat="45.69984" lon="6.57939">
        <ele>1482.49</ele>
        <time>2011-06-12T14:17:53Z</time>
      </trkpt>
      <trkpt lat="45.69984" lon="6.57948">
        <ele>1479.61</ele>
        <time>2011-06-12T14:17:59Z</time>
      </trkpt>
      <trkpt lat="45.69975" lon="6.57984">
        <ele>1476.24</ele>
        <time>2011-06-12T14:18:07Z</time>
      </trkpt>
      <trkpt lat="45.69983" lon="6.57981">
        <ele>1472.88</ele>
        <time>2011-06-12T14:18:14Z</time>
      </trkpt>
      <trkpt lat="45.69999" lon="6.57968">
        <ele>1469.51</ele>
        <time>2011-06-12T14:18:22Z</time>
      </trkpt>
      <trkpt lat="45.69999" lon="6.57971">
        <ele>1469.03</ele>
        <time>2011-06-12T14:18:23Z</time>
      </trkpt>
      <trkpt lat="45.70001" lon="6.57979">
        <ele>1466.63</ele>
        <time>2011-06-12T14:18:26Z</time>
      </trkpt>
      <trkpt lat="45.70004" lon="6.57969">
        <ele>1464.71</ele>
        <time>2011-06-12T14:18:30Z</time>
      </trkpt>
      <trkpt lat="45.70009" lon="6.57956">
        <ele>1460.38</ele>
        <time>2011-06-12T14:18:34Z</time>
      </trkpt>
      <trkpt lat="45.70012" lon="6.57941">
        <ele>1454.13</ele>
        <time>2011-06-12T14:18:39Z</time>
      </trkpt>
      <trkpt lat="45.70012" lon="6.5794">
        <ele>1455.09</ele>
        <time>2011-06-12T14:18:40Z</time>
      </trkpt>
      <trkpt lat="45.70035" lon="6.57905">
        <ele>1451.25</ele>
        <time>2011-06-12T14:18:44Z</time>
      </trkpt>
      <trkpt lat="45.70042" lon="6.57892">
        <ele>1450.29</ele>
        <time>2011-06-12T14:18:46Z</time>
      </trkpt>
      <trkpt lat="45.70054" lon="6.5787">
        <ele>1446.92</ele>
        <time>2011-06-12T14:18:50Z</time>
      </trkpt>
      <trkpt lat="45.70067" lon="6.57843">
        <ele>1443.56</ele>
        <time>2011-06-12T14:18:55Z</time>
      </trkpt>
      <trkpt lat="45.7007" lon="6.57838">
        <ele>1442.11</ele>
        <time>2011-06-12T14:18:56Z</time>
      </trkpt>
      <trkpt lat="45.70083" lon="6.57809">
        <ele>1438.75</ele>
        <time>2011-06-12T14:19:01Z</time>
      </trkpt>
      <trkpt lat="45.70087" lon="6.57804">
        <ele>1438.27</ele>
        <time>2011-06-12T14:19:02Z</time>
      </trkpt>
      <trkpt lat="45.701" lon="6.57783">
        <ele>1435.39</ele>
        <time>2011-06-12T14:19:06Z</time>
      </trkpt>
      <trkpt lat="45.70103" lon="6.57779">
        <ele>1434.42</ele>
        <time>2011-06-12T14:19:07Z</time>
      </trkpt>
      <trkpt lat="45.70105" lon="6.57775">
        <ele>1433.94</ele>
        <time>2011-06-12T14:19:08Z</time>
      </trkpt>
      <trkpt lat="45.70116" lon="6.57755">
        <ele>1430.58</ele>
        <time>2011-06-12T14:19:13Z</time>
      </trkpt>
      <trkpt lat="45.70121" lon="6.57747">
        <ele>1429.14</ele>
        <time>2011-06-12T14:19:15Z</time>
      </trkpt>
      <trkpt lat="45.70123" lon="6.57745">
        <ele>1428.66</ele>
        <time>2011-06-12T14:19:16Z</time>
      </trkpt>
      <trkpt lat="45.70124" lon="6.57744">
        <ele>1429.14</ele>
        <time>2011-06-12T14:19:17Z</time>
      </trkpt>
      <trkpt lat="45.70125" lon="6.57743">
        <ele>1428.66</ele>
        <time>2011-06-12T14:19:18Z</time>
      </trkpt>
      <trkpt lat="45.70124" lon="6.57742">
        <ele>1428.18</ele>
        <time>2011-06-12T14:19:32Z</time>
      </trkpt>
      <trkpt lat="45.70124" lon="6.57742">
        <ele>1428.66</ele>
        <time>2011-06-12T14:19:59Z</time>
      </trkpt>
      <trkpt lat="45.70124" lon="6.5774">
        <ele>1428.66</ele>
        <time>2011-06-12T14:20:25Z</time>
      </trkpt>
      <trkpt lat="45.70132" lon="6.57724">
        <ele>1425.29</ele>
        <time>2011-06-12T14:20:30Z</time>
      </trkpt>
      <trkpt lat="45.70139" lon="6.57713">
        <ele>1421.93</ele>
        <time>2011-06-12T14:20:34Z</time>
      </trkpt>
      <trkpt lat="45.7014" lon="6.57711">
        <ele>1421.45</ele>
        <time>2011-06-12T14:20:35Z</time>
      </trkpt>
      <trkpt lat="45.70145" lon="6.57726">
        <ele>1417.6</ele>
        <time>2011-06-12T14:20:41Z</time>
      </trkpt>
      <trkpt lat="45.70145" lon="6.57732">
        <ele>1416.64</ele>
        <time>2011-06-12T14:20:42Z</time>
      </trkpt>
      <trkpt lat="45.70144" lon="6.57738">
        <ele>1416.16</ele>
        <time>2011-06-12T14:20:43Z</time>
      </trkpt>
      <trkpt lat="45.70142" lon="6.57744">
        <ele>1415.2</ele>
        <time>2011-06-12T14:20:44Z</time>
      </trkpt>
      <trkpt lat="45.70142" lon="6.57752">
        <ele>1414.72</ele>
        <time>2011-06-12T14:20:45Z</time>
      </trkpt>
      <trkpt lat="45.70141" lon="6.57765">
        <ele>1412.79</ele>
        <time>2011-06-12T14:20:47Z</time>
      </trkpt>
      <trkpt lat="45.70141" lon="6.57772">
        <ele>1412.31</ele>
        <time>2011-06-12T14:20:48Z</time>
      </trkpt>
      <trkpt lat="45.70141" lon="6.57779">
        <ele>1411.35</ele>
        <time>2011-06-12T14:20:49Z</time>
      </trkpt>
      <trkpt lat="45.7014" lon="6.57787">
        <ele>1409.43</ele>
        <time>2011-06-12T14:20:50Z</time>
      </trkpt>
      <trkpt lat="45.7014" lon="6.57796">
        <ele>1408.47</ele>
        <time>2011-06-12T14:20:51Z</time>
      </trkpt>
      <trkpt lat="45.7014" lon="6.57803">
        <ele>1407.51</ele>
        <time>2011-06-12T14:20:52Z</time>
      </trkpt>
      <trkpt lat="45.70139" lon="6.5781">
        <ele>1406.55</ele>
        <time>2011-06-12T14:20:53Z</time>
      </trkpt>
      <trkpt lat="45.70138" lon="6.57815">
        <ele>1405.58</ele>
        <time>2011-06-12T14:20:54Z</time>
      </trkpt>
      <trkpt lat="45.70137" lon="6.57827">
        <ele>1403.18</ele>
        <time>2011-06-12T14:20:58Z</time>
      </trkpt>
      <trkpt lat="45.70137" lon="6.57825">
        <ele>1402.22</ele>
        <time>2011-06-12T14:20:59Z</time>
      </trkpt>
      <trkpt lat="45.70138" lon="6.57824">
        <ele>1401.26</ele>
        <time>2011-06-12T14:21:00Z</time>
      </trkpt>
      <trkpt lat="45.70141" lon="6.57821">
        <ele>1400.3</ele>
        <time>2011-06-12T14:21:01Z</time>
      </trkpt>
      <trkpt lat="45.70142" lon="6.57817">
        <ele>1398.86</ele>
        <time>2011-06-12T14:21:02Z</time>
      </trkpt>
      <trkpt lat="45.70145" lon="6.57814">
        <ele>1397.89</ele>
        <time>2011-06-12T14:21:03Z</time>
      </trkpt>
      <trkpt lat="45.70149" lon="6.57811">
        <ele>1396.93</ele>
        <time>2011-06-12T14:21:04Z</time>
      </trkpt>
      <trkpt lat="45.70152" lon="6.57808">
        <ele>1396.45</ele>
        <time>2011-06-12T14:21:05Z</time>
      </trkpt>
      <trkpt lat="45.70155" lon="6.57805">
        <ele>1395.49</ele>
        <time>2011-06-12T14:21:06Z</time>
      </trkpt>
      <trkpt lat="45.70157" lon="6.57801">
        <ele>1395.01</ele>
        <time>2011-06-12T14:21:07Z</time>
      </trkpt>
      <trkpt lat="45.70158" lon="6.57797">
        <ele>1395.01</ele>
        <time>2011-06-12T14:21:08Z</time>
      </trkpt>
      <trkpt lat="45.7016" lon="6.57792">
        <ele>1393.57</ele>
        <time>2011-06-12T14:21:09Z</time>
      </trkpt>
      <trkpt lat="45.70163" lon="6.57787">
        <ele>1393.09</ele>
        <time>2011-06-12T14:21:10Z</time>
      </trkpt>
      <trkpt lat="45.70167" lon="6.57783">
        <ele>1393.09</ele>
        <time>2011-06-12T14:21:11Z</time>
      </trkpt>
      <trkpt lat="45.70169" lon="6.5778">
        <ele>1391.65</ele>
        <time>2011-06-12T14:21:12Z</time>
      </trkpt>
      <trkpt lat="45.70171" lon="6.57776">
        <ele>1391.65</ele>
        <time>2011-06-12T14:21:13Z</time>
      </trkpt>
      <trkpt lat="45.70173" lon="6.57772">
        <ele>1390.68</ele>
        <time>2011-06-12T14:21:14Z</time>
      </trkpt>
      <trkpt lat="45.70173" lon="6.5777">
        <ele>1390.2</ele>
        <time>2011-06-12T14:21:15Z</time>
      </trkpt>
      <trkpt lat="45.70173" lon="6.5777">
        <ele>1389.72</ele>
        <time>2011-06-12T14:21:17Z</time>
      </trkpt>
      <trkpt lat="45.70172" lon="6.57772">
        <ele>1389.24</ele>
        <time>2011-06-12T14:21:18Z</time>
      </trkpt>
      <trkpt lat="45.70171" lon="6.57775">
        <ele>1388.28</ele>
        <time>2011-06-12T14:21:19Z</time>
      </trkpt>
      <trkpt lat="45.70171" lon="6.57778">
        <ele>1387.8</ele>
        <time>2011-06-12T14:21:20Z</time>
      </trkpt>
      <trkpt lat="45.70171" lon="6.57781">
        <ele>1387.32</ele>
        <time>2011-06-12T14:21:21Z</time>
      </trkpt>
      <trkpt lat="45.70172" lon="6.57784">
        <ele>1386.84</ele>
        <time>2011-06-12T14:21:23Z</time>
      </trkpt>
      <trkpt lat="45.70174" lon="6.57784">
        <ele>1386.84</ele>
        <time>2011-06-12T14:21:24Z</time>
      </trkpt>
      <trkpt lat="45.70176" lon="6.57783">
        <ele>1386.84</ele>
        <time>2011-06-12T14:21:25Z</time>
      </trkpt>
      <trkpt lat="45.70178" lon="6.5778">
        <ele>1386.36</ele>
        <time>2011-06-12T14:21:26Z</time>
      </trkpt>
      <trkpt lat="45.70179" lon="6.57777">
        <ele>1385.88</ele>
        <time>2011-06-12T14:21:27Z</time>
      </trkpt>
      <trkpt lat="45.70182" lon="6.57774">
        <ele>1385.4</ele>
        <time>2011-06-12T14:21:28Z</time>
      </trkpt>
      <trkpt lat="45.70184" lon="6.5777">
        <ele>1384.92</ele>
        <time>2011-06-12T14:21:29Z</time>
      </trkpt>
      <trkpt lat="45.70186" lon="6.57765">
        <ele>1384.92</ele>
        <time>2011-06-12T14:21:30Z</time>
      </trkpt>
      <trkpt lat="45.70187" lon="6.57761">
        <ele>1383.96</ele>
        <time>2011-06-12T14:21:31Z</time>
      </trkpt>
      <trkpt lat="45.70189" lon="6.57755">
        <ele>1383.96</ele>
        <time>2011-06-12T14:21:32Z</time>
      </trkpt>
      <trkpt lat="45.70191" lon="6.57749">
        <ele>1383.96</ele>
        <time>2011-06-12T14:21:33Z</time>
      </trkpt>
      <trkpt lat="45.70191" lon="6.57742">
        <ele>1383.47</ele>
        <time>2011-06-12T14:21:34Z</time>
      </trkpt>
      <trkpt lat="45.70193" lon="6.57736">
        <ele>1382.99</ele>
        <time>2011-06-12T14:21:35Z</time>
      </trkpt>
      <trkpt lat="45.70194" lon="6.57732">
        <ele>1382.99</ele>
        <time>2011-06-12T14:21:36Z</time>
      </trkpt>
      <trkpt lat="45.70197" lon="6.57729">
        <ele>1382.99</ele>
        <time>2011-06-12T14:21:37Z</time>
      </trkpt>
      <trkpt lat="45.70199" lon="6.57728">
        <ele>1382.99</ele>
        <time>2011-06-12T14:21:38Z</time>
      </trkpt>
      <trkpt lat="45.70202" lon="6.5773">
        <ele>1382.51</ele>
        <time>2011-06-12T14:21:39Z</time>
      </trkpt>
      <trkpt lat="45.70203" lon="6.57733">
        <ele>1382.03</ele>
        <time>2011-06-12T14:21:40Z</time>
      </trkpt>
      <trkpt lat="45.70202" lon="6.57737">
        <ele>1382.03</ele>
        <time>2011-06-12T14:21:41Z</time>
      </trkpt>
      <trkpt lat="45.70202" lon="6.5774">
        <ele>1382.03</ele>
        <time>2011-06-12T14:21:42Z</time>
      </trkpt>
      <trkpt lat="45.70201" lon="6.57744">
        <ele>1381.55</ele>
        <time>2011-06-12T14:21:43Z</time>
      </trkpt>
      <trkpt lat="45.7019" lon="6.57795">
        <ele>1378.19</ele>
        <time>2011-06-12T14:21:52Z</time>
      </trkpt>
      <trkpt lat="45.70189" lon="6.57808">
        <ele>1377.23</ele>
        <time>2011-06-12T14:21:54Z</time>
      </trkpt>
      <trkpt lat="45.70182" lon="6.57837">
        <ele>1373.86</ele>
        <time>2011-06-12T14:22:01Z</time>
      </trkpt>
      <trkpt lat="45.70184" lon="6.57829">
        <ele>1370.98</ele>
        <time>2011-06-12T14:22:11Z</time>
      </trkpt>
      <trkpt lat="45.70205" lon="6.57823">
        <ele>1367.61</ele>
        <time>2011-06-12T14:22:18Z</time>
      </trkpt>
      <trkpt lat="45.70207" lon="6.57815">
        <ele>1364.25</ele>
        <time>2011-06-12T14:22:23Z</time>
      </trkpt>
      <trkpt lat="45.70208" lon="6.57811">
        <ele>1363.29</ele>
        <time>2011-06-12T14:22:24Z</time>
      </trkpt>
      <trkpt lat="45.70209" lon="6.57809">
        <ele>1363.29</ele>
        <time>2011-06-12T14:22:25Z</time>
      </trkpt>
      <trkpt lat="45.70221" lon="6.57797">
        <ele>1362.33</ele>
        <time>2011-06-12T14:22:26Z</time>
      </trkpt>
      <trkpt lat="45.70227" lon="6.57791">
        <ele>1361.84</ele>
        <time>2011-06-12T14:22:27Z</time>
      </trkpt>
      <trkpt lat="45.70231" lon="6.57787">
        <ele>1360.4</ele>
        <time>2011-06-12T14:22:28Z</time>
      </trkpt>
      <trkpt lat="45.70239" lon="6.57778">
        <ele>1359.44</ele>
        <time>2011-06-12T14:22:30Z</time>
      </trkpt>
      <trkpt lat="45.70251" lon="6.57757">
        <ele>1356.08</ele>
        <time>2011-06-12T14:22:34Z</time>
      </trkpt>
      <trkpt lat="45.70256" lon="6.57748">
        <ele>1355.6</ele>
        <time>2011-06-12T14:22:36Z</time>
      </trkpt>
      <trkpt lat="45.70261" lon="6.57738">
        <ele>1353.67</ele>
        <time>2011-06-12T14:22:38Z</time>
      </trkpt>
      <trkpt lat="45.70267" lon="6.5773">
        <ele>1351.75</ele>
        <time>2011-06-12T14:22:40Z</time>
      </trkpt>
      <trkpt lat="45.70275" lon="6.57723">
        <ele>1349.35</ele>
        <time>2011-06-12T14:22:43Z</time>
      </trkpt>
      <trkpt lat="45.70285" lon="6.57731">
        <ele>1345.98</ele>
        <time>2011-06-12T14:22:47Z</time>
      </trkpt>
      <trkpt lat="45.70292" lon="6.57763">
        <ele>1343.58</ele>
        <time>2011-06-12T14:22:52Z</time>
      </trkpt>
      <trkpt lat="45.70289" lon="6.57791">
        <ele>1340.22</ele>
        <time>2011-06-12T14:22:56Z</time>
      </trkpt>
      <trkpt lat="45.70279" lon="6.57814">
        <ele>1339.73</ele>
        <time>2011-06-12T14:22:59Z</time>
      </trkpt>
      <trkpt lat="45.7028" lon="6.57814">
        <ele>1339.73</ele>
        <time>2011-06-12T14:23:00Z</time>
      </trkpt>
      <trkpt lat="45.70281" lon="6.57814">
        <ele>1339.73</ele>
        <time>2011-06-12T14:23:01Z</time>
      </trkpt>
      <trkpt lat="45.7028" lon="6.57813">
        <ele>1339.73</ele>
        <time>2011-06-12T14:23:02Z</time>
      </trkpt>
      <trkpt lat="45.7028" lon="6.57813">
        <ele>1339.73</ele>
        <time>2011-06-12T14:23:03Z</time>
      </trkpt>
      <trkpt lat="45.70268" lon="6.57811">
        <ele>1339.73</ele>
        <time>2011-06-12T14:23:13Z</time>
      </trkpt>
      <trkpt lat="45.70269" lon="6.57809">
        <ele>1339.73</ele>
        <time>2011-06-12T14:23:14Z</time>
      </trkpt>
      <trkpt lat="45.70277" lon="6.57791">
        <ele>1337.33</ele>
        <time>2011-06-12T14:23:19Z</time>
      </trkpt>
      <trkpt lat="45.70287" lon="6.57766">
        <ele>1334.93</ele>
        <time>2011-06-12T14:23:24Z</time>
      </trkpt>
      <trkpt lat="45.70293" lon="6.57751">
        <ele>1333.01</ele>
        <time>2011-06-12T14:23:27Z</time>
      </trkpt>
      <trkpt lat="45.70295" lon="6.57746">
        <ele>1332.52</ele>
        <time>2011-06-12T14:23:28Z</time>
      </trkpt>
      <trkpt lat="45.70297" lon="6.5774">
        <ele>1332.04</ele>
        <time>2011-06-12T14:23:29Z</time>
      </trkpt>
      <trkpt lat="45.70298" lon="6.57734">
        <ele>1331.56</ele>
        <time>2011-06-12T14:23:30Z</time>
      </trkpt>
      <trkpt lat="45.70299" lon="6.57728">
        <ele>1331.08</ele>
        <time>2011-06-12T14:23:31Z</time>
      </trkpt>
      <trkpt lat="45.703" lon="6.57724">
        <ele>1330.6</ele>
        <time>2011-06-12T14:23:32Z</time>
      </trkpt>
      <trkpt lat="45.70301" lon="6.57721">
        <ele>1330.12</ele>
        <time>2011-06-12T14:23:33Z</time>
      </trkpt>
      <trkpt lat="45.70312" lon="6.57731">
        <ele>1326.76</ele>
        <time>2011-06-12T14:23:39Z</time>
      </trkpt>
      <trkpt lat="45.70312" lon="6.57745">
        <ele>1325.31</ele>
        <time>2011-06-12T14:23:42Z</time>
      </trkpt>
      <trkpt lat="45.70311" lon="6.57754">
        <ele>1324.35</ele>
        <time>2011-06-12T14:23:43Z</time>
      </trkpt>
      <trkpt lat="45.70311" lon="6.57761">
        <ele>1323.87</ele>
        <time>2011-06-12T14:23:44Z</time>
      </trkpt>
      <trkpt lat="45.70312" lon="6.57767">
        <ele>1322.43</ele>
        <time>2011-06-12T14:23:45Z</time>
      </trkpt>
      <trkpt lat="45.70311" lon="6.57775">
        <ele>1321.47</ele>
        <time>2011-06-12T14:23:46Z</time>
      </trkpt>
      <trkpt lat="45.70311" lon="6.57782">
        <ele>1320.51</ele>
        <time>2011-06-12T14:23:47Z</time>
      </trkpt>
      <trkpt lat="45.70309" lon="6.57788">
        <ele>1320.03</ele>
        <time>2011-06-12T14:23:48Z</time>
      </trkpt>
      <trkpt lat="45.70308" lon="6.57794">
        <ele>1318.59</ele>
        <time>2011-06-12T14:23:49Z</time>
      </trkpt>
      <trkpt lat="45.70308" lon="6.578">
        <ele>1318.1</ele>
        <time>2011-06-12T14:23:50Z</time>
      </trkpt>
      <trkpt lat="45.70304" lon="6.57836">
        <ele>1314.74</ele>
        <time>2011-06-12T14:23:56Z</time>
      </trkpt>
      <trkpt lat="45.70305" lon="6.5784">
        <ele>1311.86</ele>
        <time>2011-06-12T14:24:01Z</time>
      </trkpt>
      <trkpt lat="45.70307" lon="6.57832">
        <ele>1308.49</ele>
        <time>2011-06-12T14:24:05Z</time>
      </trkpt>
      <trkpt lat="45.70312" lon="6.57815">
        <ele>1305.13</ele>
        <time>2011-06-12T14:24:09Z</time>
      </trkpt>
      <trkpt lat="45.70316" lon="6.578">
        <ele>1301.28</ele>
        <time>2011-06-12T14:24:13Z</time>
      </trkpt>
      <trkpt lat="45.70331" lon="6.57763">
        <ele>1301.76</ele>
        <time>2011-06-12T14:24:28Z</time>
      </trkpt>
      <trkpt lat="45.70334" lon="6.57757">
        <ele>1302.24</ele>
        <time>2011-06-12T14:24:35Z</time>
      </trkpt>
      <trkpt lat="45.70348" lon="6.57735">
        <ele>1297.44</ele>
        <time>2011-06-12T14:24:41Z</time>
      </trkpt>
      <trkpt lat="45.70356" lon="6.57726">
        <ele>1294.55</ele>
        <time>2011-06-12T14:24:46Z</time>
      </trkpt>
      <trkpt lat="45.70357" lon="6.57725">
        <ele>1294.07</ele>
        <time>2011-06-12T14:24:47Z</time>
      </trkpt>
      <trkpt lat="45.7036" lon="6.57729">
        <ele>1293.11</ele>
        <time>2011-06-12T14:24:49Z</time>
      </trkpt>
      <trkpt lat="45.70371" lon="6.5773">
        <ele>1289.27</ele>
        <time>2011-06-12T14:24:55Z</time>
      </trkpt>
      <trkpt lat="45.70372" lon="6.57755">
        <ele>1285.9</ele>
        <time>2011-06-12T14:24:59Z</time>
      </trkpt>
      <trkpt lat="45.70378" lon="6.57779">
        <ele>1282.54</ele>
        <time>2011-06-12T14:25:03Z</time>
      </trkpt>
      <trkpt lat="45.70377" lon="6.5781">
        <ele>1279.17</ele>
        <time>2011-06-12T14:25:08Z</time>
      </trkpt>
      <trkpt lat="45.70368" lon="6.5785">
        <ele>1276.29</ele>
        <time>2011-06-12T14:25:13Z</time>
      </trkpt>
      <trkpt lat="45.70367" lon="6.57865">
        <ele>1273.4</ele>
        <time>2011-06-12T14:25:17Z</time>
      </trkpt>
      <trkpt lat="45.70364" lon="6.57888">
        <ele>1269.56</ele>
        <time>2011-06-12T14:25:21Z</time>
      </trkpt>
      <trkpt lat="45.70362" lon="6.5791">
        <ele>1266.19</ele>
        <time>2011-06-12T14:25:25Z</time>
      </trkpt>
      <trkpt lat="45.70367" lon="6.57926">
        <ele>1264.75</ele>
        <time>2011-06-12T14:25:28Z</time>
      </trkpt>
      <trkpt lat="45.70369" lon="6.57939">
        <ele>1261.87</ele>
        <time>2011-06-12T14:25:32Z</time>
      </trkpt>
      <trkpt lat="45.70366" lon="6.5794">
        <ele>1260.91</ele>
        <time>2011-06-12T14:25:34Z</time>
      </trkpt>
      <trkpt lat="45.70369" lon="6.57945">
        <ele>1259.46</ele>
        <time>2011-06-12T14:25:37Z</time>
      </trkpt>
      <trkpt lat="45.7037" lon="6.57948">
        <ele>1258.02</ele>
        <time>2011-06-12T14:25:38Z</time>
      </trkpt>
      <trkpt lat="45.70374" lon="6.57947">
        <ele>1254.66</ele>
        <time>2011-06-12T14:25:47Z</time>
      </trkpt>
      <trkpt lat="45.7037" lon="6.57952">
        <ele>1251.77</ele>
        <time>2011-06-12T14:25:51Z</time>
      </trkpt>
      <trkpt lat="45.70371" lon="6.57953">
        <ele>1251.29</ele>
        <time>2011-06-12T14:25:52Z</time>
      </trkpt>
      <trkpt lat="45.70375" lon="6.57952">
        <ele>1250.33</ele>
        <time>2011-06-12T14:25:54Z</time>
      </trkpt>
      <trkpt lat="45.70375" lon="6.57952">
        <ele>1249.37</ele>
        <time>2011-06-12T14:25:55Z</time>
      </trkpt>
      <trkpt lat="45.70379" lon="6.57948">
        <ele>1248.41</ele>
        <time>2011-06-12T14:25:57Z</time>
      </trkpt>
      <trkpt lat="45.70388" lon="6.57941">
        <ele>1247.45</ele>
        <time>2011-06-12T14:25:59Z</time>
      </trkpt>
      <trkpt lat="45.70394" lon="6.57931">
        <ele>1246.49</ele>
        <time>2011-06-12T14:26:02Z</time>
      </trkpt>
      <trkpt lat="45.70395" lon="6.57922">
        <ele>1245.53</ele>
        <time>2011-06-12T14:26:07Z</time>
      </trkpt>
      <trkpt lat="45.70392" lon="6.57913">
        <ele>1243.12</ele>
        <time>2011-06-12T14:26:12Z</time>
      </trkpt>
      <trkpt lat="45.70394" lon="6.57914">
        <ele>1240.24</ele>
        <time>2011-06-12T14:26:16Z</time>
      </trkpt>
      <trkpt lat="45.70396" lon="6.57916">
        <ele>1238.8</ele>
        <time>2011-06-12T14:26:22Z</time>
      </trkpt>
      <trkpt lat="45.70406" lon="6.57939">
        <ele>1234.95</ele>
        <time>2011-06-12T14:26:27Z</time>
      </trkpt>
      <trkpt lat="45.70405" lon="6.57944">
        <ele>1234.95</ele>
        <time>2011-06-12T14:26:28Z</time>
      </trkpt>
      <trkpt lat="45.70404" lon="6.5795">
        <ele>1233.99</ele>
        <time>2011-06-12T14:26:29Z</time>
      </trkpt>
      <trkpt lat="45.70404" lon="6.57968">
        <ele>1230.62</ele>
        <time>2011-06-12T14:26:33Z</time>
      </trkpt>
      <trkpt lat="45.70401" lon="6.57992">
        <ele>1227.26</ele>
        <time>2011-06-12T14:26:38Z</time>
      </trkpt>
      <trkpt lat="45.70392" lon="6.58023">
        <ele>1223.9</ele>
        <time>2011-06-12T14:26:44Z</time>
      </trkpt>
      <trkpt lat="45.70392" lon="6.5804">
        <ele>1221.01</ele>
        <time>2011-06-12T14:26:48Z</time>
      </trkpt>
      <trkpt lat="45.70392" lon="6.58043">
        <ele>1217.65</ele>
        <time>2011-06-12T14:26:52Z</time>
      </trkpt>
      <trkpt lat="45.70394" lon="6.58043">
        <ele>1216.69</ele>
        <time>2011-06-12T14:26:54Z</time>
      </trkpt>
      <trkpt lat="45.70402" lon="6.58044">
        <ele>1213.32</ele>
        <time>2011-06-12T14:27:01Z</time>
      </trkpt>
      <trkpt lat="45.70404" lon="6.58059">
        <ele>1210.92</ele>
        <time>2011-06-12T14:27:05Z</time>
      </trkpt>
      <trkpt lat="45.70404" lon="6.5807">
        <ele>1209.48</ele>
        <time>2011-06-12T14:27:08Z</time>
      </trkpt>
      <trkpt lat="45.70403" lon="6.58075">
        <ele>1209.48</ele>
        <time>2011-06-12T14:27:09Z</time>
      </trkpt>
      <trkpt lat="45.704" lon="6.58104">
        <ele>1205.15</ele>
        <time>2011-06-12T14:27:16Z</time>
      </trkpt>
      <trkpt lat="45.70399" lon="6.58108">
        <ele>1201.79</ele>
        <time>2011-06-12T14:27:19Z</time>
      </trkpt>
      <trkpt lat="45.70401" lon="6.58111">
        <ele>1197.94</ele>
        <time>2011-06-12T14:27:24Z</time>
      </trkpt>
      <trkpt lat="45.70422" lon="6.58101">
        <ele>1195.06</ele>
        <time>2011-06-12T14:27:31Z</time>
      </trkpt>
      <trkpt lat="45.70436" lon="6.58097">
        <ele>1192.17</ele>
        <time>2011-06-12T14:27:36Z</time>
      </trkpt>
      <trkpt lat="45.70447" lon="6.581">
        <ele>1188.81</ele>
        <time>2011-06-12T14:27:45Z</time>
      </trkpt>
      <trkpt lat="45.70446" lon="6.58106">
        <ele>1185.44</ele>
        <time>2011-06-12T14:27:49Z</time>
      </trkpt>
      <trkpt lat="45.70458" lon="6.5812">
        <ele>1181.12</ele>
        <time>2011-06-12T14:27:55Z</time>
      </trkpt>
      <trkpt lat="45.7047" lon="6.58125">
        <ele>1178.23</ele>
        <time>2011-06-12T14:28:00Z</time>
      </trkpt>
      <trkpt lat="45.70473" lon="6.58127">
        <ele>1175.83</ele>
        <time>2011-06-12T14:28:03Z</time>
      </trkpt>
      <trkpt lat="45.70482" lon="6.58121">
        <ele>1173.91</ele>
        <time>2011-06-12T14:28:05Z</time>
      </trkpt>
      <trkpt lat="45.70496" lon="6.58105">
        <ele>1171.02</ele>
        <time>2011-06-12T14:28:09Z</time>
      </trkpt>
      <trkpt lat="45.70498" lon="6.58101">
        <ele>1167.18</ele>
        <time>2011-06-12T14:28:12Z</time>
      </trkpt>
      <trkpt lat="45.70498" lon="6.58096">
        <ele>1166.7</ele>
        <time>2011-06-12T14:28:13Z</time>
      </trkpt>
      <trkpt lat="45.70506" lon="6.58071">
        <ele>1161.89</ele>
        <time>2011-06-12T14:28:18Z</time>
      </trkpt>
      <trkpt lat="45.70511" lon="6.58064">
        <ele>1157.56</ele>
        <time>2011-06-12T14:28:21Z</time>
      </trkpt>
      <trkpt lat="45.70525" lon="6.58062">
        <ele>1154.2</ele>
        <time>2011-06-12T14:28:25Z</time>
      </trkpt>
      <trkpt lat="45.7053" lon="6.58056">
        <ele>1150.84</ele>
        <time>2011-06-12T14:28:28Z</time>
      </trkpt>
      <trkpt lat="45.70537" lon="6.58051">
        <ele>1148.91</ele>
        <time>2011-06-12T14:28:30Z</time>
      </trkpt>
      <trkpt lat="45.70581" lon="6.58018">
        <ele>1146.03</ele>
        <time>2011-06-12T14:28:33Z</time>
      </trkpt>
      <trkpt lat="45.70593" lon="6.58006">
        <ele>1143.14</ele>
        <time>2011-06-12T14:28:37Z</time>
      </trkpt>
      <trkpt lat="45.70626" lon="6.57961">
        <ele>1141.7</ele>
        <time>2011-06-12T14:28:46Z</time>
      </trkpt>
      <trkpt lat="45.70634" lon="6.57949">
        <ele>1142.18</ele>
        <time>2011-06-12T14:28:49Z</time>
      </trkpt>
      <trkpt lat="45.70637" lon="6.57944">
        <ele>1142.18</ele>
        <time>2011-06-12T14:28:50Z</time>
      </trkpt>
      <trkpt lat="45.70646" lon="6.5793">
        <ele>1142.66</ele>
        <time>2011-06-12T14:28:53Z</time>
      </trkpt>
      <trkpt lat="45.70682" lon="6.57885">
        <ele>1143.14</ele>
        <time>2011-06-12T14:29:05Z</time>
      </trkpt>
      <trkpt lat="45.70709" lon="6.57874">
        <ele>1144.59</ele>
        <time>2011-06-12T14:29:15Z</time>
      </trkpt>
      <trkpt lat="45.70733" lon="6.57876">
        <ele>1146.99</ele>
        <time>2011-06-12T14:29:27Z</time>
      </trkpt>
      <trkpt lat="45.70735" lon="6.57873">
        <ele>1146.51</ele>
        <time>2011-06-12T14:29:29Z</time>
      </trkpt>
      <trkpt lat="45.70736" lon="6.57872">
        <ele>1146.99</ele>
        <time>2011-06-12T14:29:30Z</time>
      </trkpt>
      <trkpt lat="45.70736" lon="6.5787">
        <ele>1146.99</ele>
        <time>2011-06-12T14:29:31Z</time>
      </trkpt>
      <trkpt lat="45.70736" lon="6.57868">
        <ele>1146.99</ele>
        <time>2011-06-12T14:29:32Z</time>
      </trkpt>
      <trkpt lat="45.70735" lon="6.57866">
        <ele>1146.99</ele>
        <time>2011-06-12T14:29:33Z</time>
      </trkpt>
      <trkpt lat="45.70735" lon="6.57864">
        <ele>1147.47</ele>
        <time>2011-06-12T14:29:34Z</time>
      </trkpt>
      <trkpt lat="45.70735" lon="6.57861">
        <ele>1146.51</ele>
        <time>2011-06-12T14:29:35Z</time>
      </trkpt>
      <trkpt lat="45.70735" lon="6.57859">
        <ele>1146.99</ele>
        <time>2011-06-12T14:29:36Z</time>
      </trkpt>
      <trkpt lat="45.70736" lon="6.57856">
        <ele>1146.99</ele>
        <time>2011-06-12T14:29:37Z</time>
      </trkpt>
      <trkpt lat="45.70755" lon="6.57821">
        <ele>1147.47</ele>
        <time>2011-06-12T14:29:50Z</time>
      </trkpt>
      <trkpt lat="45.70773" lon="6.57793">
        <ele>1147.95</ele>
        <time>2011-06-12T14:30:02Z</time>
      </trkpt>
      <trkpt lat="45.70773" lon="6.57765">
        <ele>1147.95</ele>
        <time>2011-06-12T14:30:09Z</time>
      </trkpt>
      <trkpt lat="45.70771" lon="6.57763">
        <ele>1147.47</ele>
        <time>2011-06-12T14:30:10Z</time>
      </trkpt>
      <trkpt lat="45.70748" lon="6.57718">
        <ele>1144.59</ele>
        <time>2011-06-12T14:30:20Z</time>
      </trkpt>
      <trkpt lat="45.70729" lon="6.57667">
        <ele>1141.22</ele>
        <time>2011-06-12T14:30:29Z</time>
      </trkpt>
      <trkpt lat="45.70726" lon="6.57656">
        <ele>1140.26</ele>
        <time>2011-06-12T14:30:31Z</time>
      </trkpt>
      <trkpt lat="45.70725" lon="6.57651">
        <ele>1139.3</ele>
        <time>2011-06-12T14:30:32Z</time>
      </trkpt>
      <trkpt lat="45.70723" lon="6.57646">
        <ele>1139.78</ele>
        <time>2011-06-12T14:30:33Z</time>
      </trkpt>
      <trkpt lat="45.70714" lon="6.57622">
        <ele>1136.9</ele>
        <time>2011-06-12T14:30:38Z</time>
      </trkpt>
      <trkpt lat="45.70713" lon="6.57616">
        <ele>1136.9</ele>
        <time>2011-06-12T14:30:39Z</time>
      </trkpt>
      <trkpt lat="45.70712" lon="6.57611">
        <ele>1135.94</ele>
        <time>2011-06-12T14:30:40Z</time>
      </trkpt>
      <trkpt lat="45.70712" lon="6.57605">
        <ele>1135.45</ele>
        <time>2011-06-12T14:30:41Z</time>
      </trkpt>
      <trkpt lat="45.70711" lon="6.57598">
        <ele>1135.45</ele>
        <time>2011-06-12T14:30:42Z</time>
      </trkpt>
      <trkpt lat="45.70711" lon="6.57591">
        <ele>1134.49</ele>
        <time>2011-06-12T14:30:43Z</time>
      </trkpt>
      <trkpt lat="45.70712" lon="6.57585">
        <ele>1134.01</ele>
        <time>2011-06-12T14:30:44Z</time>
      </trkpt>
      <trkpt lat="45.70712" lon="6.57578">
        <ele>1134.01</ele>
        <time>2011-06-12T14:30:45Z</time>
      </trkpt>
      <trkpt lat="45.70725" lon="6.57535">
        <ele>1130.17</ele>
        <time>2011-06-12T14:30:52Z</time>
      </trkpt>
      <trkpt lat="45.70728" lon="6.57523">
        <ele>1129.21</ele>
        <time>2011-06-12T14:30:54Z</time>
      </trkpt>
      <trkpt lat="45.70732" lon="6.57503">
        <ele>1127.28</ele>
        <time>2011-06-12T14:30:57Z</time>
      </trkpt>
      <trkpt lat="45.70732" lon="6.57496">
        <ele>1126.8</ele>
        <time>2011-06-12T14:30:58Z</time>
      </trkpt>
      <trkpt lat="45.7073" lon="6.57489">
        <ele>1126.32</ele>
        <time>2011-06-12T14:30:59Z</time>
      </trkpt>
      <trkpt lat="45.70728" lon="6.57483">
        <ele>1125.36</ele>
        <time>2011-06-12T14:31:00Z</time>
      </trkpt>
      <trkpt lat="45.70724" lon="6.57479">
        <ele>1125.36</ele>
        <time>2011-06-12T14:31:01Z</time>
      </trkpt>
      <trkpt lat="45.7072" lon="6.57474">
        <ele>1124.88</ele>
        <time>2011-06-12T14:31:02Z</time>
      </trkpt>
      <trkpt lat="45.70699" lon="6.57446">
        <ele>1121.52</ele>
        <time>2011-06-12T14:31:07Z</time>
      </trkpt>
      <trkpt lat="45.70696" lon="6.5744">
        <ele>1121.03</ele>
        <time>2011-06-12T14:31:08Z</time>
      </trkpt>
      <trkpt lat="45.70694" lon="6.57435">
        <ele>1120.55</ele>
        <time>2011-06-12T14:31:09Z</time>
      </trkpt>
      <trkpt lat="45.7069" lon="6.57423">
        <ele>1119.59</ele>
        <time>2011-06-12T14:31:11Z</time>
      </trkpt>
      <trkpt lat="45.70675" lon="6.57394">
        <ele>1117.19</ele>
        <time>2011-06-12T14:31:18Z</time>
      </trkpt>
      <trkpt lat="45.70664" lon="6.57364">
        <ele>1114.79</ele>
        <time>2011-06-12T14:31:22Z</time>
      </trkpt>
      <trkpt lat="45.70652" lon="6.57326">
        <ele>1111.42</ele>
        <time>2011-06-12T14:31:27Z</time>
      </trkpt>
      <trkpt lat="45.70643" lon="6.57294">
        <ele>1109.02</ele>
        <time>2011-06-12T14:31:31Z</time>
      </trkpt>
      <trkpt lat="45.70631" lon="6.57258">
        <ele>1105.17</ele>
        <time>2011-06-12T14:31:36Z</time>
      </trkpt>
      <trkpt lat="45.7062" lon="6.57231">
        <ele>1103.25</ele>
        <time>2011-06-12T14:31:40Z</time>
      </trkpt>
      <trkpt lat="45.70617" lon="6.57225">
        <ele>1103.25</ele>
        <time>2011-06-12T14:31:41Z</time>
      </trkpt>
      <trkpt lat="45.70613" lon="6.5722">
        <ele>1102.29</ele>
        <time>2011-06-12T14:31:42Z</time>
      </trkpt>
      <trkpt lat="45.70609" lon="6.57216">
        <ele>1101.33</ele>
        <time>2011-06-12T14:31:43Z</time>
      </trkpt>
      <trkpt lat="45.70604" lon="6.57212">
        <ele>1100.85</ele>
        <time>2011-06-12T14:31:44Z</time>
      </trkpt>
      <trkpt lat="45.70599" lon="6.5721">
        <ele>1099.89</ele>
        <time>2011-06-12T14:31:45Z</time>
      </trkpt>
      <trkpt lat="45.70595" lon="6.57207">
        <ele>1099.4</ele>
        <time>2011-06-12T14:31:46Z</time>
      </trkpt>
      <trkpt lat="45.7059" lon="6.57204">
        <ele>1099.4</ele>
        <time>2011-06-12T14:31:47Z</time>
      </trkpt>
      <trkpt lat="45.70585" lon="6.57202">
        <ele>1097.96</ele>
        <time>2011-06-12T14:31:48Z</time>
      </trkpt>
      <trkpt lat="45.70556" lon="6.5719">
        <ele>1095.08</ele>
        <time>2011-06-12T14:31:54Z</time>
      </trkpt>
      <trkpt lat="45.7054" lon="6.57188">
        <ele>1094.12</ele>
        <time>2011-06-12T14:31:57Z</time>
      </trkpt>
      <trkpt lat="45.70534" lon="6.57187">
        <ele>1093.64</ele>
        <time>2011-06-12T14:31:58Z</time>
      </trkpt>
      <trkpt lat="45.70528" lon="6.57187">
        <ele>1092.68</ele>
        <time>2011-06-12T14:31:59Z</time>
      </trkpt>
      <trkpt lat="45.70522" lon="6.57185">
        <ele>1092.68</ele>
        <time>2011-06-12T14:32:00Z</time>
      </trkpt>
      <trkpt lat="45.70509" lon="6.57182">
        <ele>1091.23</ele>
        <time>2011-06-12T14:32:02Z</time>
      </trkpt>
      <trkpt lat="45.70481" lon="6.5717">
        <ele>1087.39</ele>
        <time>2011-06-12T14:32:06Z</time>
      </trkpt>
      <trkpt lat="45.70449" lon="6.57155">
        <ele>1083.54</ele>
        <time>2011-06-12T14:32:10Z</time>
      </trkpt>
      <trkpt lat="45.70425" lon="6.57141">
        <ele>1081.14</ele>
        <time>2011-06-12T14:32:13Z</time>
      </trkpt>
      <trkpt lat="45.70402" lon="6.57121">
        <ele>1078.74</ele>
        <time>2011-06-12T14:32:16Z</time>
      </trkpt>
      <trkpt lat="45.70392" lon="6.57116">
        <ele>1077.29</ele>
        <time>2011-06-12T14:32:17Z</time>
      </trkpt>
      <trkpt lat="45.70382" lon="6.57111">
        <ele>1076.33</ele>
        <time>2011-06-12T14:32:18Z</time>
      </trkpt>
      <trkpt lat="45.70373" lon="6.57103">
        <ele>1074.41</ele>
        <time>2011-06-12T14:32:19Z</time>
      </trkpt>
      <trkpt lat="45.70365" lon="6.57094">
        <ele>1073.45</ele>
        <time>2011-06-12T14:32:20Z</time>
      </trkpt>
      <trkpt lat="45.70357" lon="6.57085">
        <ele>1072.49</ele>
        <time>2011-06-12T14:32:21Z</time>
      </trkpt>
      <trkpt lat="45.7035" lon="6.57076">
        <ele>1071.53</ele>
        <time>2011-06-12T14:32:22Z</time>
      </trkpt>
      <trkpt lat="45.70342" lon="6.57068">
        <ele>1070.57</ele>
        <time>2011-06-12T14:32:23Z</time>
      </trkpt>
      <trkpt lat="45.70333" lon="6.57062">
        <ele>1069.12</ele>
        <time>2011-06-12T14:32:24Z</time>
      </trkpt>
      <trkpt lat="45.70323" lon="6.57056">
        <ele>1068.16</ele>
        <time>2011-06-12T14:32:25Z</time>
      </trkpt>
      <trkpt lat="45.70285" lon="6.57025">
        <ele>1063.84</ele>
        <time>2011-06-12T14:32:29Z</time>
      </trkpt>
      <trkpt lat="45.70276" lon="6.57015">
        <ele>1061.91</ele>
        <time>2011-06-12T14:32:30Z</time>
      </trkpt>
      <trkpt lat="45.70241" lon="6.5698">
        <ele>1058.07</ele>
        <time>2011-06-12T14:32:34Z</time>
      </trkpt>
      <trkpt lat="45.70208" lon="6.56955">
        <ele>1054.22</ele>
        <time>2011-06-12T14:32:38Z</time>
      </trkpt>
      <trkpt lat="45.70182" lon="6.56942">
        <ele>1051.34</ele>
        <time>2011-06-12T14:32:41Z</time>
      </trkpt>
      <trkpt lat="45.70174" lon="6.56937">
        <ele>1050.38</ele>
        <time>2011-06-12T14:32:42Z</time>
      </trkpt>
      <trkpt lat="45.70166" lon="6.56931">
        <ele>1049.42</ele>
        <time>2011-06-12T14:32:43Z</time>
      </trkpt>
      <trkpt lat="45.70158" lon="6.56923">
        <ele>1048.94</ele>
        <time>2011-06-12T14:32:44Z</time>
      </trkpt>
      <trkpt lat="45.70134" lon="6.56898">
        <ele>1045.09</ele>
        <time>2011-06-12T14:32:47Z</time>
      </trkpt>
      <trkpt lat="45.70109" lon="6.56871">
        <ele>1042.21</ele>
        <time>2011-06-12T14:32:50Z</time>
      </trkpt>
      <trkpt lat="45.70079" lon="6.56848">
        <ele>1038.36</ele>
        <time>2011-06-12T14:32:53Z</time>
      </trkpt>
      <trkpt lat="45.70044" lon="6.56825">
        <ele>1034.52</ele>
        <time>2011-06-12T14:32:57Z</time>
      </trkpt>
      <trkpt lat="45.70017" lon="6.56805">
        <ele>1030.67</ele>
        <time>2011-06-12T14:33:00Z</time>
      </trkpt>
      <trkpt lat="45.69992" lon="6.5678">
        <ele>1027.79</ele>
        <time>2011-06-12T14:33:03Z</time>
      </trkpt>
      <trkpt lat="45.69978" lon="6.56759">
        <ele>1024.9</ele>
        <time>2011-06-12T14:33:05Z</time>
      </trkpt>
      <trkpt lat="45.69951" lon="6.56715">
        <ele>1020.58</ele>
        <time>2011-06-12T14:33:09Z</time>
      </trkpt>
      <trkpt lat="45.6993" lon="6.5668">
        <ele>1017.69</ele>
        <time>2011-06-12T14:33:13Z</time>
      </trkpt>
      <trkpt lat="45.69922" lon="6.5666">
        <ele>1016.25</ele>
        <time>2011-06-12T14:33:17Z</time>
      </trkpt>
      <trkpt lat="45.69923" lon="6.56657">
        <ele>1015.29</ele>
        <time>2011-06-12T14:33:18Z</time>
      </trkpt>
      <trkpt lat="45.69926" lon="6.56655">
        <ele>1014.33</ele>
        <time>2011-06-12T14:33:19Z</time>
      </trkpt>
      <trkpt lat="45.6993" lon="6.56656">
        <ele>1013.85</ele>
        <time>2011-06-12T14:33:20Z</time>
      </trkpt>
      <trkpt lat="45.69935" lon="6.56657">
        <ele>1013.85</ele>
        <time>2011-06-12T14:33:21Z</time>
      </trkpt>
      <trkpt lat="45.6995" lon="6.56661">
        <ele>1012.89</ele>
        <time>2011-06-12T14:33:24Z</time>
      </trkpt>
      <trkpt lat="45.69968" lon="6.56667">
        <ele>1011.44</ele>
        <time>2011-06-12T14:33:27Z</time>
      </trkpt>
      <trkpt lat="45.70002" lon="6.56677">
        <ele>1007.6</ele>
        <time>2011-06-12T14:33:32Z</time>
      </trkpt>
      <trkpt lat="45.7001" lon="6.56679">
        <ele>1007.12</ele>
        <time>2011-06-12T14:33:33Z</time>
      </trkpt>
      <trkpt lat="45.70048" lon="6.56692">
        <ele>1003.75</ele>
        <time>2011-06-12T14:33:38Z</time>
      </trkpt>
      <trkpt lat="45.70063" lon="6.56696">
        <ele>1003.27</ele>
        <time>2011-06-12T14:33:40Z</time>
      </trkpt>
      <trkpt lat="45.70087" lon="6.56703">
        <ele>1001.35</ele>
        <time>2011-06-12T14:33:43Z</time>
      </trkpt>
      <trkpt lat="45.70144" lon="6.56717">
        <ele>998.47</ele>
        <time>2011-06-12T14:33:50Z</time>
      </trkpt>
      <trkpt lat="45.70152" lon="6.56717">
        <ele>998.47</ele>
        <time>2011-06-12T14:33:51Z</time>
      </trkpt>
      <trkpt lat="45.70184" lon="6.56717">
        <ele>996.06</ele>
        <time>2011-06-12T14:33:55Z</time>
      </trkpt>
      <trkpt lat="45.70264" lon="6.56751">
        <ele>992.22</ele>
        <time>2011-06-12T14:34:06Z</time>
      </trkpt>
      <trkpt lat="45.7033" lon="6.56769">
        <ele>989.33</ele>
        <time>2011-06-12T14:34:16Z</time>
      </trkpt>
      <trkpt lat="45.7035" lon="6.56772">
        <ele>987.89</ele>
        <time>2011-06-12T14:34:19Z</time>
      </trkpt>
      <trkpt lat="45.70394" lon="6.56779">
        <ele>984.05</ele>
        <time>2011-06-12T14:34:25Z</time>
      </trkpt>
      <trkpt lat="45.70425" lon="6.56792">
        <ele>980.68</ele>
        <time>2011-06-12T14:34:29Z</time>
      </trkpt>
      <trkpt lat="45.70456" lon="6.56808">
        <ele>977.32</ele>
        <time>2011-06-12T14:34:33Z</time>
      </trkpt>
      <trkpt lat="45.70488" lon="6.56828">
        <ele>974.43</ele>
        <time>2011-06-12T14:34:37Z</time>
      </trkpt>
      <trkpt lat="45.70512" lon="6.56844">
        <ele>971.55</ele>
        <time>2011-06-12T14:34:40Z</time>
      </trkpt>
      <trkpt lat="45.70529" lon="6.56853">
        <ele>969.63</ele>
        <time>2011-06-12T14:34:42Z</time>
      </trkpt>
      <trkpt lat="45.70538" lon="6.56856">
        <ele>969.15</ele>
        <time>2011-06-12T14:34:43Z</time>
      </trkpt>
      <trkpt lat="45.70546" lon="6.56857">
        <ele>968.67</ele>
        <time>2011-06-12T14:34:44Z</time>
      </trkpt>
      <trkpt lat="45.70555" lon="6.56856">
        <ele>968.18</ele>
        <time>2011-06-12T14:34:45Z</time>
      </trkpt>
      <trkpt lat="45.70564" lon="6.56854">
        <ele>967.22</ele>
        <time>2011-06-12T14:34:46Z</time>
      </trkpt>
      <trkpt lat="45.70573" lon="6.56852">
        <ele>966.26</ele>
        <time>2011-06-12T14:34:47Z</time>
      </trkpt>
      <trkpt lat="45.70632" lon="6.56834">
        <ele>962.42</ele>
        <time>2011-06-12T14:34:54Z</time>
      </trkpt>
      <trkpt lat="45.70649" lon="6.56829">
        <ele>961.46</ele>
        <time>2011-06-12T14:34:56Z</time>
      </trkpt>
      <trkpt lat="45.70657" lon="6.56827">
        <ele>961.46</ele>
        <time>2011-06-12T14:34:57Z</time>
      </trkpt>
      <trkpt lat="45.70698" lon="6.56822">
        <ele>957.13</ele>
        <time>2011-06-12T14:35:02Z</time>
      </trkpt>
      <trkpt lat="45.70706" lon="6.56822">
        <ele>957.13</ele>
        <time>2011-06-12T14:35:03Z</time>
      </trkpt>
      <trkpt lat="45.70713" lon="6.56822">
        <ele>956.17</ele>
        <time>2011-06-12T14:35:04Z</time>
      </trkpt>
      <trkpt lat="45.70721" lon="6.56823">
        <ele>955.21</ele>
        <time>2011-06-12T14:35:05Z</time>
      </trkpt>
      <trkpt lat="45.70728" lon="6.56826">
        <ele>955.21</ele>
        <time>2011-06-12T14:35:06Z</time>
      </trkpt>
      <trkpt lat="45.70735" lon="6.5683">
        <ele>953.77</ele>
        <time>2011-06-12T14:35:07Z</time>
      </trkpt>
      <trkpt lat="45.70742" lon="6.56835">
        <ele>952.8</ele>
        <time>2011-06-12T14:35:08Z</time>
      </trkpt>
      <trkpt lat="45.70749" lon="6.5684">
        <ele>952.32</ele>
        <time>2011-06-12T14:35:09Z</time>
      </trkpt>
      <trkpt lat="45.70755" lon="6.56847">
        <ele>951.36</ele>
        <time>2011-06-12T14:35:10Z</time>
      </trkpt>
      <trkpt lat="45.70781" lon="6.56874">
        <ele>948.96</ele>
        <time>2011-06-12T14:35:14Z</time>
      </trkpt>
      <trkpt lat="45.70792" lon="6.56887">
        <ele>947.52</ele>
        <time>2011-06-12T14:35:16Z</time>
      </trkpt>
      <trkpt lat="45.70823" lon="6.5692">
        <ele>944.15</ele>
        <time>2011-06-12T14:35:21Z</time>
      </trkpt>
      <trkpt lat="45.70848" lon="6.56945">
        <ele>941.27</ele>
        <time>2011-06-12T14:35:25Z</time>
      </trkpt>
      <trkpt lat="45.70871" lon="6.56971">
        <ele>938.38</ele>
        <time>2011-06-12T14:35:29Z</time>
      </trkpt>
      <trkpt lat="45.70876" lon="6.56978">
        <ele>937.9</ele>
        <time>2011-06-12T14:35:30Z</time>
      </trkpt>
      <trkpt lat="45.70892" lon="6.57004">
        <ele>935.98</ele>
        <time>2011-06-12T14:35:33Z</time>
      </trkpt>
      <trkpt lat="45.70897" lon="6.57014">
        <ele>935.02</ele>
        <time>2011-06-12T14:35:34Z</time>
      </trkpt>
      <trkpt lat="45.70918" lon="6.57065">
        <ele>931.65</ele>
        <time>2011-06-12T14:35:39Z</time>
      </trkpt>
      <trkpt lat="45.70935" lon="6.5709">
        <ele>930.21</ele>
        <time>2011-06-12T14:35:42Z</time>
      </trkpt>
      <trkpt lat="45.70948" lon="6.57102">
        <ele>928.29</ele>
        <time>2011-06-12T14:35:44Z</time>
      </trkpt>
      <trkpt lat="45.70982" lon="6.57127">
        <ele>924.93</ele>
        <time>2011-06-12T14:35:49Z</time>
      </trkpt>
      <trkpt lat="45.71006" lon="6.57148">
        <ele>922.04</ele>
        <time>2011-06-12T14:35:53Z</time>
      </trkpt>
      <trkpt lat="45.71027" lon="6.57168">
        <ele>920.12</ele>
        <time>2011-06-12T14:35:57Z</time>
      </trkpt>
      <trkpt lat="45.71032" lon="6.57169">
        <ele>920.12</ele>
        <time>2011-06-12T14:35:58Z</time>
      </trkpt>
      <trkpt lat="45.71037" lon="6.57166">
        <ele>919.16</ele>
        <time>2011-06-12T14:35:59Z</time>
      </trkpt>
      <trkpt lat="45.71039" lon="6.57161">
        <ele>918.68</ele>
        <time>2011-06-12T14:36:00Z</time>
      </trkpt>
      <trkpt lat="45.71041" lon="6.57153">
        <ele>918.68</ele>
        <time>2011-06-12T14:36:01Z</time>
      </trkpt>
      <trkpt lat="45.7104" lon="6.57144">
        <ele>918.2</ele>
        <time>2011-06-12T14:36:02Z</time>
      </trkpt>
      <trkpt lat="45.71036" lon="6.57136">
        <ele>917.24</ele>
        <time>2011-06-12T14:36:03Z</time>
      </trkpt>
      <trkpt lat="45.7103" lon="6.57129">
        <ele>916.75</ele>
        <time>2011-06-12T14:36:04Z</time>
      </trkpt>
      <trkpt lat="45.71025" lon="6.57123">
        <ele>916.27</ele>
        <time>2011-06-12T14:36:05Z</time>
      </trkpt>
      <trkpt lat="45.71" lon="6.57088">
        <ele>913.39</ele>
        <time>2011-06-12T14:36:10Z</time>
      </trkpt>
      <trkpt lat="45.70997" lon="6.5708">
        <ele>912.91</ele>
        <time>2011-06-12T14:36:11Z</time>
      </trkpt>
      <trkpt lat="45.70994" lon="6.57072">
        <ele>912.43</ele>
        <time>2011-06-12T14:36:12Z</time>
      </trkpt>
      <trkpt lat="45.70992" lon="6.57063">
        <ele>911.95</ele>
        <time>2011-06-12T14:36:13Z</time>
      </trkpt>
      <trkpt lat="45.7099" lon="6.57054">
        <ele>911.95</ele>
        <time>2011-06-12T14:36:14Z</time>
      </trkpt>
      <trkpt lat="45.70988" lon="6.57044">
        <ele>910.99</ele>
        <time>2011-06-12T14:36:15Z</time>
      </trkpt>
      <trkpt lat="45.70988" lon="6.57035">
        <ele>910.51</ele>
        <time>2011-06-12T14:36:16Z</time>
      </trkpt>
      <trkpt lat="45.70988" lon="6.57025">
        <ele>910.03</ele>
        <time>2011-06-12T14:36:17Z</time>
      </trkpt>
      <trkpt lat="45.70988" lon="6.57014">
        <ele>909.06</ele>
        <time>2011-06-12T14:36:18Z</time>
      </trkpt>
      <trkpt lat="45.70989" lon="6.57004">
        <ele>909.06</ele>
        <time>2011-06-12T14:36:19Z</time>
      </trkpt>
      <trkpt lat="45.70991" lon="6.56943">
        <ele>905.22</ele>
        <time>2011-06-12T14:36:25Z</time>
      </trkpt>
      <trkpt lat="45.7099" lon="6.56933">
        <ele>904.74</ele>
        <time>2011-06-12T14:36:26Z</time>
      </trkpt>
      <trkpt lat="45.70989" lon="6.56923">
        <ele>904.26</ele>
        <time>2011-06-12T14:36:27Z</time>
      </trkpt>
      <trkpt lat="45.70986" lon="6.56913">
        <ele>903.78</ele>
        <time>2011-06-12T14:36:28Z</time>
      </trkpt>
      <trkpt lat="45.70984" lon="6.56904">
        <ele>902.82</ele>
        <time>2011-06-12T14:36:29Z</time>
      </trkpt>
      <trkpt lat="45.70974" lon="6.56865">
        <ele>900.41</ele>
        <time>2011-06-12T14:36:34Z</time>
      </trkpt>
      <trkpt lat="45.70974" lon="6.5686">
        <ele>899.93</ele>
        <time>2011-06-12T14:36:35Z</time>
      </trkpt>
      <trkpt lat="45.70976" lon="6.56855">
        <ele>899.93</ele>
        <time>2011-06-12T14:36:36Z</time>
      </trkpt>
      <trkpt lat="45.7098" lon="6.56854">
        <ele>898.49</ele>
        <time>2011-06-12T14:36:37Z</time>
      </trkpt>
      <trkpt lat="45.70984" lon="6.56856">
        <ele>898.49</ele>
        <time>2011-06-12T14:36:38Z</time>
      </trkpt>
      <trkpt lat="45.70987" lon="6.56863">
        <ele>897.53</ele>
        <time>2011-06-12T14:36:39Z</time>
      </trkpt>
      <trkpt lat="45.7099" lon="6.56871">
        <ele>897.53</ele>
        <time>2011-06-12T14:36:40Z</time>
      </trkpt>
      <trkpt lat="45.70992" lon="6.56879">
        <ele>896.57</ele>
        <time>2011-06-12T14:36:41Z</time>
      </trkpt>
      <trkpt lat="45.70995" lon="6.56887">
        <ele>896.57</ele>
        <time>2011-06-12T14:36:42Z</time>
      </trkpt>
      <trkpt lat="45.70998" lon="6.56896">
        <ele>896.09</ele>
        <time>2011-06-12T14:36:43Z</time>
      </trkpt>
      <trkpt lat="45.71003" lon="6.56904">
        <ele>895.61</ele>
        <time>2011-06-12T14:36:44Z</time>
      </trkpt>
      <trkpt lat="45.71007" lon="6.56912">
        <ele>894.16</ele>
        <time>2011-06-12T14:36:45Z</time>
      </trkpt>
      <trkpt lat="45.71035" lon="6.56957">
        <ele>890.8</ele>
        <time>2011-06-12T14:36:51Z</time>
      </trkpt>
      <trkpt lat="45.71046" lon="6.56973">
        <ele>890.32</ele>
        <time>2011-06-12T14:36:53Z</time>
      </trkpt>
      <trkpt lat="45.71056" lon="6.56989">
        <ele>889.36</ele>
        <time>2011-06-12T14:36:55Z</time>
      </trkpt>
      <trkpt lat="45.71078" lon="6.5702">
        <ele>885.51</ele>
        <time>2011-06-12T14:36:59Z</time>
      </trkpt>
      <trkpt lat="45.71089" lon="6.57036">
        <ele>884.55</ele>
        <time>2011-06-12T14:37:01Z</time>
      </trkpt>
      <trkpt lat="45.71104" lon="6.57061">
        <ele>881.67</ele>
        <time>2011-06-12T14:37:04Z</time>
      </trkpt>
      <trkpt lat="45.71114" lon="6.57079">
        <ele>880.71</ele>
        <time>2011-06-12T14:37:06Z</time>
      </trkpt>
      <trkpt lat="45.71141" lon="6.5712">
        <ele>876.86</ele>
        <time>2011-06-12T14:37:11Z</time>
      </trkpt>
      <trkpt lat="45.71147" lon="6.57127">
        <ele>876.86</ele>
        <time>2011-06-12T14:37:12Z</time>
      </trkpt>
      <trkpt lat="45.71168" lon="6.57155">
        <ele>873.5</ele>
        <time>2011-06-12T14:37:16Z</time>
      </trkpt>
      <trkpt lat="45.71171" lon="6.57163">
        <ele>873.5</ele>
        <time>2011-06-12T14:37:17Z</time>
      </trkpt>
      <trkpt lat="45.71174" lon="6.57171">
        <ele>873.01</ele>
        <time>2011-06-12T14:37:18Z</time>
      </trkpt>
      <trkpt lat="45.71182" lon="6.57196">
        <ele>872.53</ele>
        <time>2011-06-12T14:37:21Z</time>
      </trkpt>
      <trkpt lat="45.71186" lon="6.57203">
        <ele>872.05</ele>
        <time>2011-06-12T14:37:22Z</time>
      </trkpt>
      <trkpt lat="45.71191" lon="6.57206">
        <ele>871.57</ele>
        <time>2011-06-12T14:37:23Z</time>
      </trkpt>
      <trkpt lat="45.71196" lon="6.57205">
        <ele>871.09</ele>
        <time>2011-06-12T14:37:24Z</time>
      </trkpt>
      <trkpt lat="45.712" lon="6.572">
        <ele>871.09</ele>
        <time>2011-06-12T14:37:25Z</time>
      </trkpt>
      <trkpt lat="45.71202" lon="6.57192">
        <ele>870.61</ele>
        <time>2011-06-12T14:37:26Z</time>
      </trkpt>
      <trkpt lat="45.71202" lon="6.57183">
        <ele>870.13</ele>
        <time>2011-06-12T14:37:27Z</time>
      </trkpt>
      <trkpt lat="45.71199" lon="6.57174">
        <ele>869.65</ele>
        <time>2011-06-12T14:37:28Z</time>
      </trkpt>
      <trkpt lat="45.71196" lon="6.57166">
        <ele>868.21</ele>
        <time>2011-06-12T14:37:29Z</time>
      </trkpt>
      <trkpt lat="45.71181" lon="6.57122">
        <ele>865.8</ele>
        <time>2011-06-12T14:37:34Z</time>
      </trkpt>
      <trkpt lat="45.7118" lon="6.57115">
        <ele>865.8</ele>
        <time>2011-06-12T14:37:35Z</time>
      </trkpt>
      <trkpt lat="45.71181" lon="6.57109">
        <ele>865.32</ele>
        <time>2011-06-12T14:37:36Z</time>
      </trkpt>
      <trkpt lat="45.71184" lon="6.57104">
        <ele>864.36</ele>
        <time>2011-06-12T14:37:37Z</time>
      </trkpt>
      <trkpt lat="45.71189" lon="6.57102">
        <ele>863.88</ele>
        <time>2011-06-12T14:37:38Z</time>
      </trkpt>
      <trkpt lat="45.71194" lon="6.57105">
        <ele>862.92</ele>
        <time>2011-06-12T14:37:39Z</time>
      </trkpt>
      <trkpt lat="45.71198" lon="6.57111">
        <ele>861.96</ele>
        <time>2011-06-12T14:37:40Z</time>
      </trkpt>
      <trkpt lat="45.71202" lon="6.57117">
        <ele>861.96</ele>
        <time>2011-06-12T14:37:41Z</time>
      </trkpt>
      <trkpt lat="45.71215" lon="6.57139">
        <ele>860.52</ele>
        <time>2011-06-12T14:37:44Z</time>
      </trkpt>
      <trkpt lat="45.71237" lon="6.57176">
        <ele>857.15</ele>
        <time>2011-06-12T14:37:49Z</time>
      </trkpt>
      <trkpt lat="45.7124" lon="6.57185">
        <ele>856.67</ele>
        <time>2011-06-12T14:37:50Z</time>
      </trkpt>
      <trkpt lat="45.71256" lon="6.57227">
        <ele>853.79</ele>
        <time>2011-06-12T14:37:55Z</time>
      </trkpt>
      <trkpt lat="45.7126" lon="6.57236">
        <ele>853.79</ele>
        <time>2011-06-12T14:37:56Z</time>
      </trkpt>
      <trkpt lat="45.71265" lon="6.57244">
        <ele>852.35</ele>
        <time>2011-06-12T14:37:57Z</time>
      </trkpt>
      <trkpt lat="45.7127" lon="6.57252">
        <ele>852.35</ele>
        <time>2011-06-12T14:37:58Z</time>
      </trkpt>
      <trkpt lat="45.71286" lon="6.57274">
        <ele>850.9</ele>
        <time>2011-06-12T14:38:01Z</time>
      </trkpt>
      <trkpt lat="45.71291" lon="6.57282">
        <ele>850.42</ele>
        <time>2011-06-12T14:38:02Z</time>
      </trkpt>
      <trkpt lat="45.71309" lon="6.57329">
        <ele>848.02</ele>
        <time>2011-06-12T14:38:07Z</time>
      </trkpt>
      <trkpt lat="45.71312" lon="6.5735">
        <ele>846.1</ele>
        <time>2011-06-12T14:38:09Z</time>
      </trkpt>
      <trkpt lat="45.71314" lon="6.57362">
        <ele>846.1</ele>
        <time>2011-06-12T14:38:10Z</time>
      </trkpt>
      <trkpt lat="45.71316" lon="6.57408">
        <ele>844.18</ele>
        <time>2011-06-12T14:38:14Z</time>
      </trkpt>
      <trkpt lat="45.71318" lon="6.57454">
        <ele>840.81</ele>
        <time>2011-06-12T14:38:18Z</time>
      </trkpt>
      <trkpt lat="45.71319" lon="6.57465">
        <ele>840.81</ele>
        <time>2011-06-12T14:38:19Z</time>
      </trkpt>
      <trkpt lat="45.7133" lon="6.57525">
        <ele>839.37</ele>
        <time>2011-06-12T14:38:25Z</time>
      </trkpt>
      <trkpt lat="45.71335" lon="6.57533">
        <ele>838.41</ele>
        <time>2011-06-12T14:38:26Z</time>
      </trkpt>
      <trkpt lat="45.7134" lon="6.57539">
        <ele>837.45</ele>
        <time>2011-06-12T14:38:27Z</time>
      </trkpt>
      <trkpt lat="45.71346" lon="6.57544">
        <ele>837.45</ele>
        <time>2011-06-12T14:38:28Z</time>
      </trkpt>
      <trkpt lat="45.71353" lon="6.57547">
        <ele>836.48</ele>
        <time>2011-06-12T14:38:29Z</time>
      </trkpt>
      <trkpt lat="45.7136" lon="6.57547">
        <ele>836.48</ele>
        <time>2011-06-12T14:38:30Z</time>
      </trkpt>
      <trkpt lat="45.71368" lon="6.57545">
        <ele>836</ele>
        <time>2011-06-12T14:38:31Z</time>
      </trkpt>
      <trkpt lat="45.71374" lon="6.5754">
        <ele>835.52</ele>
        <time>2011-06-12T14:38:32Z</time>
      </trkpt>
      <trkpt lat="45.7138" lon="6.57534">
        <ele>835.04</ele>
        <time>2011-06-12T14:38:33Z</time>
      </trkpt>
      <trkpt lat="45.71386" lon="6.57526">
        <ele>834.08</ele>
        <time>2011-06-12T14:38:34Z</time>
      </trkpt>
      <trkpt lat="45.71414" lon="6.57481">
        <ele>831.2</ele>
        <time>2011-06-12T14:38:39Z</time>
      </trkpt>
      <trkpt lat="45.7143" lon="6.57454">
        <ele>828.79</ele>
        <time>2011-06-12T14:38:42Z</time>
      </trkpt>
      <trkpt lat="45.71455" lon="6.57412">
        <ele>825.43</ele>
        <time>2011-06-12T14:38:47Z</time>
      </trkpt>
      <trkpt lat="45.71459" lon="6.57403">
        <ele>824.95</ele>
        <time>2011-06-12T14:38:48Z</time>
      </trkpt>
      <trkpt lat="45.71463" lon="6.57394">
        <ele>825.43</ele>
        <time>2011-06-12T14:38:49Z</time>
      </trkpt>
      <trkpt lat="45.71465" lon="6.57384">
        <ele>824.95</ele>
        <time>2011-06-12T14:38:50Z</time>
      </trkpt>
      <trkpt lat="45.71467" lon="6.57373">
        <ele>823.99</ele>
        <time>2011-06-12T14:38:51Z</time>
      </trkpt>
      <trkpt lat="45.71467" lon="6.57363">
        <ele>823.51</ele>
        <time>2011-06-12T14:38:52Z</time>
      </trkpt>
      <trkpt lat="45.71467" lon="6.57352">
        <ele>822.06</ele>
        <time>2011-06-12T14:38:53Z</time>
      </trkpt>
      <trkpt lat="45.71466" lon="6.57341">
        <ele>822.55</ele>
        <time>2011-06-12T14:38:54Z</time>
      </trkpt>
      <trkpt lat="45.7146" lon="6.57301">
        <ele>818.7</ele>
        <time>2011-06-12T14:38:58Z</time>
      </trkpt>
      <trkpt lat="45.7145" lon="6.57254">
        <ele>816.3</ele>
        <time>2011-06-12T14:39:04Z</time>
      </trkpt>
      <trkpt lat="45.71451" lon="6.57248">
        <ele>816.3</ele>
        <time>2011-06-12T14:39:05Z</time>
      </trkpt>
      <trkpt lat="45.71453" lon="6.57243">
        <ele>815.34</ele>
        <time>2011-06-12T14:39:06Z</time>
      </trkpt>
      <trkpt lat="45.71458" lon="6.57241">
        <ele>814.85</ele>
        <time>2011-06-12T14:39:07Z</time>
      </trkpt>
      <trkpt lat="45.71467" lon="6.57247">
        <ele>814.37</ele>
        <time>2011-06-12T14:39:09Z</time>
      </trkpt>
      <trkpt lat="45.71471" lon="6.57254">
        <ele>812.93</ele>
        <time>2011-06-12T14:39:10Z</time>
      </trkpt>
      <trkpt lat="45.71476" lon="6.5726">
        <ele>812.45</ele>
        <time>2011-06-12T14:39:11Z</time>
      </trkpt>
      <trkpt lat="45.71504" lon="6.57299">
        <ele>808.61</ele>
        <time>2011-06-12T14:39:17Z</time>
      </trkpt>
      <trkpt lat="45.71509" lon="6.57305">
        <ele>808.61</ele>
        <time>2011-06-12T14:39:18Z</time>
      </trkpt>
      <trkpt lat="45.71518" lon="6.57318">
        <ele>806.68</ele>
        <time>2011-06-12T14:39:20Z</time>
      </trkpt>
      <trkpt lat="45.71522" lon="6.57325">
        <ele>806.68</ele>
        <time>2011-06-12T14:39:21Z</time>
      </trkpt>
      <trkpt lat="45.71525" lon="6.57333">
        <ele>805.72</ele>
        <time>2011-06-12T14:39:22Z</time>
      </trkpt>
      <trkpt lat="45.71531" lon="6.57356">
        <ele>804.76</ele>
        <time>2011-06-12T14:39:25Z</time>
      </trkpt>
      <trkpt lat="45.71534" lon="6.57361">
        <ele>804.76</ele>
        <time>2011-06-12T14:39:26Z</time>
      </trkpt>
      <trkpt lat="45.71538" lon="6.57363">
        <ele>804.28</ele>
        <time>2011-06-12T14:39:27Z</time>
      </trkpt>
      <trkpt lat="45.71543" lon="6.57363">
        <ele>803.8</ele>
        <time>2011-06-12T14:39:28Z</time>
      </trkpt>
      <trkpt lat="45.71547" lon="6.57359">
        <ele>802.84</ele>
        <time>2011-06-12T14:39:29Z</time>
      </trkpt>
      <trkpt lat="45.71549" lon="6.57351">
        <ele>803.32</ele>
        <time>2011-06-12T14:39:30Z</time>
      </trkpt>
      <trkpt lat="45.71549" lon="6.57343">
        <ele>802.36</ele>
        <time>2011-06-12T14:39:31Z</time>
      </trkpt>
      <trkpt lat="45.71547" lon="6.57333">
        <ele>801.4</ele>
        <time>2011-06-12T14:39:32Z</time>
      </trkpt>
      <trkpt lat="45.71545" lon="6.57323">
        <ele>801.4</ele>
        <time>2011-06-12T14:39:33Z</time>
      </trkpt>
      <trkpt lat="45.71544" lon="6.57313">
        <ele>800.44</ele>
        <time>2011-06-12T14:39:34Z</time>
      </trkpt>
      <trkpt lat="45.71544" lon="6.57302">
        <ele>799.95</ele>
        <time>2011-06-12T14:39:35Z</time>
      </trkpt>
      <trkpt lat="45.71538" lon="6.57268">
        <ele>798.99</ele>
        <time>2011-06-12T14:39:38Z</time>
      </trkpt>
      <trkpt lat="45.71535" lon="6.57258">
        <ele>798.51</ele>
        <time>2011-06-12T14:39:39Z</time>
      </trkpt>
      <trkpt lat="45.71529" lon="6.57239">
        <ele>797.07</ele>
        <time>2011-06-12T14:39:41Z</time>
      </trkpt>
      <trkpt lat="45.71528" lon="6.57232">
        <ele>796.11</ele>
        <time>2011-06-12T14:39:42Z</time>
      </trkpt>
      <trkpt lat="45.71529" lon="6.57226">
        <ele>796.11</ele>
        <time>2011-06-12T14:39:43Z</time>
      </trkpt>
      <trkpt lat="45.71532" lon="6.57223">
        <ele>795.63</ele>
        <time>2011-06-12T14:39:44Z</time>
      </trkpt>
      <trkpt lat="45.71536" lon="6.57224">
        <ele>795.15</ele>
        <time>2011-06-12T14:39:45Z</time>
      </trkpt>
      <trkpt lat="45.71539" lon="6.5723">
        <ele>794.67</ele>
        <time>2011-06-12T14:39:46Z</time>
      </trkpt>
      <trkpt lat="45.71542" lon="6.57237">
        <ele>793.71</ele>
        <time>2011-06-12T14:39:47Z</time>
      </trkpt>
      <trkpt lat="45.71546" lon="6.57254">
        <ele>793.22</ele>
        <time>2011-06-12T14:39:49Z</time>
      </trkpt>
      <trkpt lat="45.7156" lon="6.57301">
        <ele>789.38</ele>
        <time>2011-06-12T14:39:54Z</time>
      </trkpt>
      <trkpt lat="45.71566" lon="6.5732">
        <ele>788.42</ele>
        <time>2011-06-12T14:39:56Z</time>
      </trkpt>
      <trkpt lat="45.71569" lon="6.57327">
        <ele>788.42</ele>
        <time>2011-06-12T14:39:57Z</time>
      </trkpt>
      <trkpt lat="45.71573" lon="6.57331">
        <ele>787.94</ele>
        <time>2011-06-12T14:39:58Z</time>
      </trkpt>
      <trkpt lat="45.71578" lon="6.57331">
        <ele>786.5</ele>
        <time>2011-06-12T14:39:59Z</time>
      </trkpt>
      <trkpt lat="45.71582" lon="6.57326">
        <ele>786.5</ele>
        <time>2011-06-12T14:40:00Z</time>
      </trkpt>
      <trkpt lat="45.71584" lon="6.57317">
        <ele>786.02</ele>
        <time>2011-06-12T14:40:01Z</time>
      </trkpt>
      <trkpt lat="45.71583" lon="6.57309">
        <ele>786.02</ele>
        <time>2011-06-12T14:40:02Z</time>
      </trkpt>
      <trkpt lat="45.71581" lon="6.57301">
        <ele>786.02</ele>
        <time>2011-06-12T14:40:03Z</time>
      </trkpt>
      <trkpt lat="45.71576" lon="6.57295">
        <ele>785.05</ele>
        <time>2011-06-12T14:40:04Z</time>
      </trkpt>
      <trkpt lat="45.71571" lon="6.57288">
        <ele>784.57</ele>
        <time>2011-06-12T14:40:05Z</time>
      </trkpt>
      <trkpt lat="45.71567" lon="6.57279">
        <ele>783.61</ele>
        <time>2011-06-12T14:40:06Z</time>
      </trkpt>
      <trkpt lat="45.71566" lon="6.5727">
        <ele>783.13</ele>
        <time>2011-06-12T14:40:07Z</time>
      </trkpt>
      <trkpt lat="45.71566" lon="6.57265">
        <ele>783.13</ele>
        <time>2011-06-12T14:40:08Z</time>
      </trkpt>
      <trkpt lat="45.71569" lon="6.57264">
        <ele>782.17</ele>
        <time>2011-06-12T14:40:09Z</time>
      </trkpt>
      <trkpt lat="45.71574" lon="6.57268">
        <ele>782.17</ele>
        <time>2011-06-12T14:40:10Z</time>
      </trkpt>
      <trkpt lat="45.71578" lon="6.57274">
        <ele>781.21</ele>
        <time>2011-06-12T14:40:11Z</time>
      </trkpt>
      <trkpt lat="45.71581" lon="6.57281">
        <ele>781.21</ele>
        <time>2011-06-12T14:40:12Z</time>
      </trkpt>
      <trkpt lat="45.716" lon="6.57311">
        <ele>777.84</ele>
        <time>2011-06-12T14:40:16Z</time>
      </trkpt>
      <trkpt lat="45.71631" lon="6.57351">
        <ele>774</ele>
        <time>2011-06-12T14:40:21Z</time>
      </trkpt>
      <trkpt lat="45.71679" lon="6.57411">
        <ele>770.63</ele>
        <time>2011-06-12T14:40:28Z</time>
      </trkpt>
      <trkpt lat="45.71716" lon="6.57447">
        <ele>769.67</ele>
        <time>2011-06-12T14:40:33Z</time>
      </trkpt>
      <trkpt lat="45.71722" lon="6.57454">
        <ele>768.71</ele>
        <time>2011-06-12T14:40:34Z</time>
      </trkpt>
      <trkpt lat="45.71729" lon="6.57458">
        <ele>768.23</ele>
        <time>2011-06-12T14:40:35Z</time>
      </trkpt>
      <trkpt lat="45.71737" lon="6.57459">
        <ele>767.75</ele>
        <time>2011-06-12T14:40:36Z</time>
      </trkpt>
      <trkpt lat="45.71745" lon="6.57461">
        <ele>767.75</ele>
        <time>2011-06-12T14:40:37Z</time>
      </trkpt>
      <trkpt lat="45.71753" lon="6.57466">
        <ele>766.31</ele>
        <time>2011-06-12T14:40:38Z</time>
      </trkpt>
      <trkpt lat="45.7176" lon="6.57474">
        <ele>766.79</ele>
        <time>2011-06-12T14:40:39Z</time>
      </trkpt>
      <trkpt lat="45.71766" lon="6.57485">
        <ele>765.83</ele>
        <time>2011-06-12T14:40:40Z</time>
      </trkpt>
      <trkpt lat="45.71771" lon="6.57495">
        <ele>766.31</ele>
        <time>2011-06-12T14:40:41Z</time>
      </trkpt>
      <trkpt lat="45.71781" lon="6.57512">
        <ele>765.83</ele>
        <time>2011-06-12T14:40:43Z</time>
      </trkpt>
      <trkpt lat="45.71785" lon="6.57517">
        <ele>765.35</ele>
        <time>2011-06-12T14:40:44Z</time>
      </trkpt>
      <trkpt lat="45.7179" lon="6.57518">
        <ele>765.83</ele>
        <time>2011-06-12T14:40:45Z</time>
      </trkpt>
      <trkpt lat="45.71796" lon="6.57516">
        <ele>765.83</ele>
        <time>2011-06-12T14:40:46Z</time>
      </trkpt>
      <trkpt lat="45.71801" lon="6.57513">
        <ele>765.35</ele>
        <time>2011-06-12T14:40:47Z</time>
      </trkpt>
      <trkpt lat="45.71805" lon="6.57509">
        <ele>764.87</ele>
        <time>2011-06-12T14:40:48Z</time>
      </trkpt>
      <trkpt lat="45.7181" lon="6.57504">
        <ele>764.87</ele>
        <time>2011-06-12T14:40:49Z</time>
      </trkpt>
      <trkpt lat="45.71814" lon="6.57499">
        <ele>764.87</ele>
        <time>2011-06-12T14:40:50Z</time>
      </trkpt>
      <trkpt lat="45.71852" lon="6.57447">
        <ele>761.98</ele>
        <time>2011-06-12T14:40:58Z</time>
      </trkpt>
      <trkpt lat="45.71877" lon="6.57412">
        <ele>761.02</ele>
        <time>2011-06-12T14:41:03Z</time>
      </trkpt>
      <trkpt lat="45.71916" lon="6.57372">
        <ele>759.1</ele>
        <time>2011-06-12T14:41:10Z</time>
      </trkpt>
      <trkpt lat="45.71919" lon="6.57366">
        <ele>759.1</ele>
        <time>2011-06-12T14:41:11Z</time>
      </trkpt>
      <trkpt lat="45.71925" lon="6.57354">
        <ele>759.1</ele>
        <time>2011-06-12T14:41:15Z</time>
      </trkpt>
      <trkpt lat="45.71927" lon="6.57352">
        <ele>759.1</ele>
        <time>2011-06-12T14:41:16Z</time>
      </trkpt>
      <trkpt lat="45.71948" lon="6.57322">
        <ele>758.14</ele>
        <time>2011-06-12T14:41:25Z</time>
      </trkpt>
      <trkpt lat="45.71994" lon="6.57235">
        <ele>756.69</ele>
        <time>2011-06-12T14:41:41Z</time>
      </trkpt>
      <trkpt lat="45.72001" lon="6.57226">
        <ele>756.21</ele>
        <time>2011-06-12T14:41:43Z</time>
      </trkpt>
      <trkpt lat="45.72004" lon="6.5722">
        <ele>756.21</ele>
        <time>2011-06-12T14:41:44Z</time>
      </trkpt>
      <trkpt lat="45.72005" lon="6.57213">
        <ele>756.21</ele>
        <time>2011-06-12T14:41:45Z</time>
      </trkpt>
      <trkpt lat="45.72005" lon="6.57206">
        <ele>756.21</ele>
        <time>2011-06-12T14:41:46Z</time>
      </trkpt>
      <trkpt lat="45.72005" lon="6.57198">
        <ele>756.21</ele>
        <time>2011-06-12T14:41:47Z</time>
      </trkpt>
      <trkpt lat="45.72006" lon="6.57166">
        <ele>754.77</ele>
        <time>2011-06-12T14:41:51Z</time>
      </trkpt>
      <trkpt lat="45.71997" lon="6.57018">
        <ele>751.89</ele>
        <time>2011-06-12T14:42:09Z</time>
      </trkpt>
      <trkpt lat="45.71986" lon="6.56877">
        <ele>749</ele>
        <time>2011-06-12T14:42:25Z</time>
      </trkpt>
      <trkpt lat="45.71976" lon="6.56724">
        <ele>746.6</ele>
        <time>2011-06-12T14:42:40Z</time>
      </trkpt>
      <trkpt lat="45.71968" lon="6.56592">
        <ele>744.2</ele>
        <time>2011-06-12T14:42:53Z</time>
      </trkpt>
      <trkpt lat="45.71974" lon="6.56551">
        <ele>743.72</ele>
        <time>2011-06-12T14:42:57Z</time>
      </trkpt>
      <trkpt lat="45.71974" lon="6.5654">
        <ele>743.72</ele>
        <time>2011-06-12T14:42:58Z</time>
      </trkpt>
      <trkpt lat="45.71973" lon="6.5653">
        <ele>743.24</ele>
        <time>2011-06-12T14:42:59Z</time>
      </trkpt>
      <trkpt lat="45.71971" lon="6.56519">
        <ele>743.24</ele>
        <time>2011-06-12T14:43:00Z</time>
      </trkpt>
      <trkpt lat="45.71969" lon="6.56509">
        <ele>742.76</ele>
        <time>2011-06-12T14:43:01Z</time>
      </trkpt>
      <trkpt lat="45.71955" lon="6.56379">
        <ele>741.79</ele>
        <time>2011-06-12T14:43:14Z</time>
      </trkpt>
      <trkpt lat="45.71975" lon="6.5625">
        <ele>738.91</ele>
        <time>2011-06-12T14:43:28Z</time>
      </trkpt>
      <trkpt lat="45.7202" lon="6.56138">
        <ele>737.95</ele>
        <time>2011-06-12T14:43:44Z</time>
      </trkpt>
      <trkpt lat="45.72029" lon="6.56119">
        <ele>737.95</ele>
        <time>2011-06-12T14:43:47Z</time>
      </trkpt>
      <trkpt lat="45.72033" lon="6.56115">
        <ele>737.47</ele>
        <time>2011-06-12T14:43:48Z</time>
      </trkpt>
      <trkpt lat="45.72038" lon="6.56115">
        <ele>737.47</ele>
        <time>2011-06-12T14:43:49Z</time>
      </trkpt>
      <trkpt lat="45.72042" lon="6.56118">
        <ele>736.99</ele>
        <time>2011-06-12T14:43:50Z</time>
      </trkpt>
      <trkpt lat="45.72046" lon="6.56123">
        <ele>736.99</ele>
        <time>2011-06-12T14:43:51Z</time>
      </trkpt>
      <trkpt lat="45.72051" lon="6.56129">
        <ele>736.99</ele>
        <time>2011-06-12T14:43:52Z</time>
      </trkpt>
      <trkpt lat="45.72055" lon="6.56135">
        <ele>736.03</ele>
        <time>2011-06-12T14:43:53Z</time>
      </trkpt>
      <trkpt lat="45.72059" lon="6.56142">
        <ele>736.03</ele>
        <time>2011-06-12T14:43:54Z</time>
      </trkpt>
      <trkpt lat="45.72062" lon="6.5615">
        <ele>736.03</ele>
        <time>2011-06-12T14:43:55Z</time>
      </trkpt>
      <trkpt lat="45.72066" lon="6.56157">
        <ele>736.03</ele>
        <time>2011-06-12T14:43:56Z</time>
      </trkpt>
      <trkpt lat="45.72069" lon="6.56164">
        <ele>736.03</ele>
        <time>2011-06-12T14:43:57Z</time>
      </trkpt>
      <trkpt lat="45.72082" lon="6.56188">
        <ele>736.03</ele>
        <time>2011-06-12T14:44:01Z</time>
      </trkpt>
      <trkpt lat="45.72088" lon="6.56207">
        <ele>736.99</ele>
        <time>2011-06-12T14:44:04Z</time>
      </trkpt>
      <trkpt lat="45.72089" lon="6.56213">
        <ele>736.99</ele>
        <time>2011-06-12T14:44:05Z</time>
      </trkpt>
      <trkpt lat="45.72091" lon="6.56219">
        <ele>736.99</ele>
        <time>2011-06-12T14:44:06Z</time>
      </trkpt>
      <trkpt lat="45.72095" lon="6.5623">
        <ele>736.99</ele>
        <time>2011-06-12T14:44:08Z</time>
      </trkpt>
      <trkpt lat="45.72096" lon="6.56236">
        <ele>736.99</ele>
        <time>2011-06-12T14:44:09Z</time>
      </trkpt>
      <trkpt lat="45.72097" lon="6.56242">
        <ele>737.47</ele>
        <time>2011-06-12T14:44:10Z</time>
      </trkpt>
      <trkpt lat="45.72099" lon="6.56248">
        <ele>737.47</ele>
        <time>2011-06-12T14:44:11Z</time>
      </trkpt>
      <trkpt lat="45.721" lon="6.56253">
        <ele>737.47</ele>
        <time>2011-06-12T14:44:12Z</time>
      </trkpt>
      <trkpt lat="45.72102" lon="6.56258">
        <ele>737.47</ele>
        <time>2011-06-12T14:44:13Z</time>
      </trkpt>
      <trkpt lat="45.72103" lon="6.56264">
        <ele>737.47</ele>
        <time>2011-06-12T14:44:14Z</time>
      </trkpt>
      <trkpt lat="45.72105" lon="6.56269">
        <ele>737.47</ele>
        <time>2011-06-12T14:44:15Z</time>
      </trkpt>
      <trkpt lat="45.72105" lon="6.56273">
        <ele>737.95</ele>
        <time>2011-06-12T14:44:16Z</time>
      </trkpt>
      <trkpt lat="45.72105" lon="6.56278">
        <ele>737.47</ele>
        <time>2011-06-12T14:44:17Z</time>
      </trkpt>
      <trkpt lat="45.72103" lon="6.56281">
        <ele>737.95</ele>
        <time>2011-06-12T14:44:18Z</time>
      </trkpt>
      <trkpt lat="45.72102" lon="6.56284">
        <ele>737.95</ele>
        <time>2011-06-12T14:44:19Z</time>
      </trkpt>
      <trkpt lat="45.721" lon="6.56292">
        <ele>737.47</ele>
        <time>2011-06-12T14:44:26Z</time>
      </trkpt>
      <trkpt lat="45.721" lon="6.56294">
        <ele>736.99</ele>
        <time>2011-06-12T14:44:27Z</time>
      </trkpt>
      <trkpt lat="45.72101" lon="6.56297">
        <ele>737.47</ele>
        <time>2011-06-12T14:44:31Z</time>
      </trkpt>
      <trkpt lat="45.72101" lon="6.56297">
        <ele>736.99</ele>
        <time>2011-06-12T14:44:46Z</time>
      </trkpt>
      <trkpt lat="45.72101" lon="6.56297">
        <ele>737.47</ele>
        <time>2011-06-12T14:45:21Z</time>
      </trkpt>
      <trkpt lat="45.72101" lon="6.56297">
        <ele>736.51</ele>
        <time>2011-06-12T14:45:56Z</time>
      </trkpt>
      <trkpt lat="45.72101" lon="6.56297">
        <ele>736.03</ele>
        <time>2011-06-12T14:46:30Z</time>
      </trkpt>
      <trkpt lat="45.72102" lon="6.56297">
        <ele>736.03</ele>
        <time>2011-06-12T14:47:13Z</time>
      </trkpt>
      <trkpt lat="45.72102" lon="6.56298">
        <ele>736.03</ele>
        <time>2011-06-12T14:47:56Z</time>
      </trkpt>
      <trkpt lat="45.72102" lon="6.56298">
        <ele>735.55</ele>
        <time>2011-06-12T14:48:30Z</time>
      </trkpt>
      <trkpt lat="45.72102" lon="6.56298">
        <ele>735.07</ele>
        <time>2011-06-12T14:49:04Z</time>
      </trkpt>
      <trkpt lat="45.72102" lon="6.56298">
        <ele>735.07</ele>
        <time>2011-06-12T14:49:45Z</time>
      </trkpt>
      <trkpt lat="45.72102" lon="6.56298">
        <ele>734.1</ele>
        <time>2011-06-12T14:50:22Z</time>
      </trkpt>
      <trkpt lat="45.72102" lon="6.56298">
        <ele>734.1</ele>
        <time>2011-06-12T14:51:01Z</time>
      </trkpt>
      <trkpt lat="45.72102" lon="6.56299">
        <ele>733.62</ele>
        <time>2011-06-12T14:51:41Z</time>
      </trkpt>
      <trkpt lat="45.72102" lon="6.56299">
        <ele>733.14</ele>
        <time>2011-06-12T14:52:20Z</time>
      </trkpt>
      <trkpt lat="45.72102" lon="6.56299">
        <ele>733.62</ele>
        <time>2011-06-12T14:52:57Z</time>
      </trkpt>
      <trkpt lat="45.72102" lon="6.56299">
        <ele>733.14</ele>
        <time>2011-06-12T14:53:34Z</time>
      </trkpt>
      <trkpt lat="45.72102" lon="6.56299">
        <ele>733.14</ele>
        <time>2011-06-12T14:54:13Z</time>
      </trkpt>
      <trkpt lat="45.72102" lon="6.56298">
        <ele>732.66</ele>
        <time>2011-06-12T14:54:50Z</time>
      </trkpt>
      <trkpt lat="45.72102" lon="6.56299">
        <ele>732.66</ele>
        <time>2011-06-12T14:55:28Z</time>
      </trkpt>
      <trkpt lat="45.72102" lon="6.56298">
        <ele>732.66</ele>
        <time>2011-06-12T14:56:11Z</time>
      </trkpt>
      <trkpt lat="45.72102" lon="6.56299">
        <ele>731.7</ele>
        <time>2011-06-12T14:56:50Z</time>
      </trkpt>
      <trkpt lat="45.72102" lon="6.563">
        <ele>731.7</ele>
        <time>2011-06-12T14:57:32Z</time>
      </trkpt>
      <trkpt lat="45.72102" lon="6.56299">
        <ele>731.7</ele>
        <time>2011-06-12T14:58:10Z</time>
      </trkpt>
      <trkpt lat="45.72102" lon="6.563">
        <ele>730.74</ele>
        <time>2011-06-12T14:58:48Z</time>
      </trkpt>
      <trkpt lat="45.72102" lon="6.563">
        <ele>730.26</ele>
        <time>2011-06-12T14:59:28Z</time>
      </trkpt>
      <trkpt lat="45.72103" lon="6.56299">
        <ele>730.26</ele>
        <time>2011-06-12T15:00:04Z</time>
      </trkpt>
      <trkpt lat="45.72103" lon="6.56299">
        <ele>730.26</ele>
        <time>2011-06-12T15:00:42Z</time>
      </trkpt>
      <trkpt lat="45.72103" lon="6.563">
        <ele>730.26</ele>
        <time>2011-06-12T15:01:22Z</time>
      </trkpt>
      <trkpt lat="45.72103" lon="6.56299">
        <ele>729.3</ele>
        <time>2011-06-12T15:02:02Z</time>
      </trkpt>
      <trkpt lat="45.72103" lon="6.56299">
        <ele>729.78</ele>
        <time>2011-06-12T15:02:40Z</time>
      </trkpt>
      <trkpt lat="45.72103" lon="6.56299">
        <ele>729.3</ele>
        <time>2011-06-12T15:03:13Z</time>
      </trkpt>
      <trkpt lat="45.72103" lon="6.56299">
        <ele>729.3</ele>
        <time>2011-06-12T15:03:51Z</time>
      </trkpt>
      <trkpt lat="45.72103" lon="6.56298">
        <ele>729.3</ele>
        <time>2011-06-12T15:04:26Z</time>
      </trkpt>
      <trkpt lat="45.72104" lon="6.56298">
        <ele>728.82</ele>
        <time>2011-06-12T15:05:08Z</time>
      </trkpt>
      <trkpt lat="45.72104" lon="6.56292">
        <ele>729.78</ele>
        <time>2011-06-12T15:05:34Z</time>
      </trkpt>
      <trkpt lat="45.72111" lon="6.56292">
        <ele>729.3</ele>
        <time>2011-06-12T15:05:49Z</time>
      </trkpt>
      <trkpt lat="45.72111" lon="6.56292">
        <ele>728.82</ele>
        <time>2011-06-12T15:06:05Z</time>
      </trkpt>
      <trkpt lat="45.72112" lon="6.56298">
        <ele>729.3</ele>
        <time>2011-06-12T15:06:09Z</time>
      </trkpt>
      <trkpt lat="45.72112" lon="6.563">
        <ele>729.78</ele>
        <time>2011-06-12T15:06:10Z</time>
      </trkpt>
      <trkpt lat="45.72112" lon="6.56302">
        <ele>729.3</ele>
        <time>2011-06-12T15:06:11Z</time>
      </trkpt>
      <trkpt lat="45.72112" lon="6.56303">
        <ele>729.3</ele>
        <time>2011-06-12T15:06:12Z</time>
      </trkpt>
      <trkpt lat="45.72113" lon="6.56305">
        <ele>729.3</ele>
        <time>2011-06-12T15:06:13Z</time>
      </trkpt>
      <trkpt lat="45.72114" lon="6.56306">
        <ele>729.3</ele>
        <time>2011-06-12T15:06:14Z</time>
      </trkpt>
      <trkpt lat="45.72128" lon="6.56332">
        <ele>729.78</ele>
        <time>2011-06-12T15:06:27Z</time>
      </trkpt>
      <trkpt lat="45.72146" lon="6.56362">
        <ele>730.26</ele>
        <time>2011-06-12T15:06:43Z</time>
      </trkpt>
      <trkpt lat="45.72147" lon="6.56363">
        <ele>730.74</ele>
        <time>2011-06-12T15:06:44Z</time>
      </trkpt>
      <trkpt lat="45.7215" lon="6.56366">
        <ele>730.74</ele>
        <time>2011-06-12T15:06:55Z</time>
      </trkpt>
      <trkpt lat="45.72154" lon="6.56367">
        <ele>730.26</ele>
        <time>2011-06-12T15:07:19Z</time>
      </trkpt>
      <trkpt lat="45.72155" lon="6.56368">
        <ele>730.26</ele>
        <time>2011-06-12T15:07:20Z</time>
      </trkpt>
      <trkpt lat="45.72157" lon="6.56372">
        <ele>730.26</ele>
        <time>2011-06-12T15:07:24Z</time>
      </trkpt>
      <trkpt lat="45.7216" lon="6.56376">
        <ele>730.74</ele>
        <time>2011-06-12T15:07:35Z</time>
      </trkpt>
      <trkpt lat="45.72159" lon="6.5638">
        <ele>730.26</ele>
        <time>2011-06-12T15:07:39Z</time>
      </trkpt>
      <trkpt lat="45.72158" lon="6.5638">
        <ele>730.74</ele>
        <time>2011-06-12T15:07:49Z</time>
      </trkpt>
      <trkpt lat="45.72163" lon="6.56387">
        <ele>730.74</ele>
        <time>2011-06-12T15:07:56Z</time>
      </trkpt>
      <trkpt lat="45.72164" lon="6.56388">
        <ele>730.26</ele>
        <time>2011-06-12T15:07:57Z</time>
      </trkpt>
      <trkpt lat="45.72165" lon="6.5639">
        <ele>730.74</ele>
        <time>2011-06-12T15:07:58Z</time>
      </trkpt>
      <trkpt lat="45.72165" lon="6.56392">
        <ele>730.26</ele>
        <time>2011-06-12T15:07:59Z</time>
      </trkpt>
      <trkpt lat="45.72166" lon="6.56392">
        <ele>730.74</ele>
        <time>2011-06-12T15:08:00Z</time>
      </trkpt>
      <trkpt lat="45.72172" lon="6.564">
        <ele>730.74</ele>
        <time>2011-06-12T15:08:07Z</time>
      </trkpt>
      <trkpt lat="45.72173" lon="6.56402">
        <ele>730.74</ele>
        <time>2011-06-12T15:08:08Z</time>
      </trkpt>
      <trkpt lat="45.72173" lon="6.56404">
        <ele>730.74</ele>
        <time>2011-06-12T15:08:09Z</time>
      </trkpt>
      <trkpt lat="45.72174" lon="6.56406">
        <ele>730.74</ele>
        <time>2011-06-12T15:08:10Z</time>
      </trkpt>
      <trkpt lat="45.72175" lon="6.56407">
        <ele>730.74</ele>
        <time>2011-06-12T15:08:11Z</time>
      </trkpt>
      <trkpt lat="45.72176" lon="6.56408">
        <ele>731.22</ele>
        <time>2011-06-12T15:08:12Z</time>
      </trkpt>
      <trkpt lat="45.72176" lon="6.56409">
        <ele>731.22</ele>
        <time>2011-06-12T15:08:13Z</time>
      </trkpt>
      <trkpt lat="45.72178" lon="6.5641">
        <ele>730.74</ele>
        <time>2011-06-12T15:08:14Z</time>
      </trkpt>
      <trkpt lat="45.72178" lon="6.56412">
        <ele>730.74</ele>
        <time>2011-06-12T15:08:15Z</time>
      </trkpt>
      <trkpt lat="45.72179" lon="6.56413">
        <ele>731.22</ele>
        <time>2011-06-12T15:08:16Z</time>
      </trkpt>
      <trkpt lat="45.72179" lon="6.56414">
        <ele>731.22</ele>
        <time>2011-06-12T15:08:17Z</time>
      </trkpt>
      <trkpt lat="45.72179" lon="6.56416">
        <ele>731.22</ele>
        <time>2011-06-12T15:08:18Z</time>
      </trkpt>
      <trkpt lat="45.7218" lon="6.56417">
        <ele>730.74</ele>
        <time>2011-06-12T15:08:19Z</time>
      </trkpt>
      <trkpt lat="45.7218" lon="6.56418">
        <ele>730.74</ele>
        <time>2011-06-12T15:08:20Z</time>
      </trkpt>
      <trkpt lat="45.72181" lon="6.5642">
        <ele>731.22</ele>
        <time>2011-06-12T15:08:21Z</time>
      </trkpt>
      <trkpt lat="45.72186" lon="6.56431">
        <ele>730.74</ele>
        <time>2011-06-12T15:08:30Z</time>
      </trkpt>
      <trkpt lat="45.72187" lon="6.56433">
        <ele>731.22</ele>
        <time>2011-06-12T15:08:32Z</time>
      </trkpt>
      <trkpt lat="45.72187" lon="6.56434">
        <ele>731.7</ele>
        <time>2011-06-12T15:08:33Z</time>
      </trkpt>
      <trkpt lat="45.72191" lon="6.56442">
        <ele>732.18</ele>
        <time>2011-06-12T15:08:39Z</time>
      </trkpt>
      <trkpt lat="45.72194" lon="6.56448">
        <ele>732.18</ele>
        <time>2011-06-12T15:08:44Z</time>
      </trkpt>
      <trkpt lat="45.72194" lon="6.56449">
        <ele>732.18</ele>
        <time>2011-06-12T15:08:45Z</time>
      </trkpt>
      <trkpt lat="45.722" lon="6.56463">
        <ele>732.18</ele>
        <time>2011-06-12T15:08:56Z</time>
      </trkpt>
      <trkpt lat="45.72209" lon="6.5648">
        <ele>732.66</ele>
        <time>2011-06-12T15:09:10Z</time>
      </trkpt>
      <trkpt lat="45.72214" lon="6.5649">
        <ele>732.66</ele>
        <time>2011-06-12T15:09:18Z</time>
      </trkpt>
      <trkpt lat="45.72221" lon="6.56504">
        <ele>732.18</ele>
        <time>2011-06-12T15:09:30Z</time>
      </trkpt>
      <trkpt lat="45.72226" lon="6.56516">
        <ele>732.66</ele>
        <time>2011-06-12T15:09:40Z</time>
      </trkpt>
      <trkpt lat="45.7223" lon="6.56528">
        <ele>733.62</ele>
        <time>2011-06-12T15:09:48Z</time>
      </trkpt>
      <trkpt lat="45.7223" lon="6.5653">
        <ele>733.62</ele>
        <time>2011-06-12T15:09:49Z</time>
      </trkpt>
      <trkpt lat="45.72228" lon="6.56534">
        <ele>734.58</ele>
        <time>2011-06-12T15:09:54Z</time>
      </trkpt>
      <trkpt lat="45.72226" lon="6.5654">
        <ele>734.58</ele>
        <time>2011-06-12T15:10:07Z</time>
      </trkpt>
      <trkpt lat="45.72225" lon="6.56542">
        <ele>734.1</ele>
        <time>2011-06-12T15:10:08Z</time>
      </trkpt>
      <trkpt lat="45.72224" lon="6.56546">
        <ele>734.58</ele>
        <time>2011-06-12T15:10:25Z</time>
      </trkpt>
      <trkpt lat="45.72224" lon="6.56546">
        <ele>734.58</ele>
        <time>2011-06-12T15:10:50Z</time>
      </trkpt>
      <trkpt lat="45.72223" lon="6.56546">
        <ele>735.07</ele>
        <time>2011-06-12T15:11:24Z</time>
      </trkpt>
      <trkpt lat="45.72223" lon="6.56546">
        <ele>734.58</ele>
        <time>2011-06-12T15:11:50Z</time>
      </trkpt>
      <trkpt lat="45.72223" lon="6.56546">
        <ele>733.62</ele>
        <time>2011-06-12T15:12:19Z</time>
      </trkpt>
      <trkpt lat="45.72223" lon="6.56546">
        <ele>732.66</ele>
        <time>2011-06-12T15:12:55Z</time>
      </trkpt>
      <trkpt lat="45.72223" lon="6.56546">
        <ele>733.14</ele>
        <time>2011-06-12T15:13:24Z</time>
      </trkpt>
      <trkpt lat="45.72223" lon="6.56546">
        <ele>734.1</ele>
        <time>2011-06-12T15:13:50Z</time>
      </trkpt>
      <trkpt lat="45.72223" lon="6.56546">
        <ele>733.62</ele>
        <time>2011-06-12T15:14:18Z</time>
      </trkpt>
      <trkpt lat="45.72223" lon="6.56546">
        <ele>734.1</ele>
        <time>2011-06-12T15:14:56Z</time>
      </trkpt>
      <trkpt lat="45.72224" lon="6.56546">
        <ele>733.62</ele>
        <time>2011-06-12T15:15:30Z</time>
      </trkpt>
      <trkpt lat="45.72224" lon="6.56546">
        <ele>733.14</ele>
        <time>2011-06-12T15:16:00Z</time>
      </trkpt>
      <trkpt lat="45.72225" lon="6.5655">
        <ele>734.1</ele>
        <time>2011-06-12T15:16:33Z</time>
      </trkpt>
      <trkpt lat="45.72226" lon="6.5655">
        <ele>733.14</ele>
        <time>2011-06-12T15:17:04Z</time>
      </trkpt>
      <trkpt lat="45.72227" lon="6.56552">
        <ele>733.14</ele>
        <time>2011-06-12T15:17:36Z</time>
      </trkpt>
      <trkpt lat="45.72227" lon="6.56552">
        <ele>733.14</ele>
        <time>2011-06-12T15:18:04Z</time>
      </trkpt>
      <trkpt lat="45.72227" lon="6.56553">
        <ele>734.1</ele>
        <time>2011-06-12T15:18:41Z</time>
      </trkpt>
      <trkpt lat="45.72227" lon="6.56554">
        <ele>733.62</ele>
        <time>2011-06-12T15:19:15Z</time>
      </trkpt>
      <trkpt lat="45.72227" lon="6.56554">
        <ele>733.14</ele>
        <time>2011-06-12T15:19:49Z</time>
      </trkpt>
      <trkpt lat="45.72228" lon="6.56555">
        <ele>733.62</ele>
        <time>2011-06-12T15:20:20Z</time>
      </trkpt>
      <trkpt lat="45.72229" lon="6.56554">
        <ele>733.62</ele>
        <time>2011-06-12T15:20:48Z</time>
      </trkpt>
      <trkpt lat="45.72229" lon="6.56554">
        <ele>733.14</ele>
        <time>2011-06-12T15:21:24Z</time>
      </trkpt>
      <trkpt lat="45.72229" lon="6.56554">
        <ele>733.62</ele>
        <time>2011-06-12T15:21:55Z</time>
      </trkpt>
      <trkpt lat="45.72229" lon="6.56554">
        <ele>733.14</ele>
        <time>2011-06-12T15:22:27Z</time>
      </trkpt>
      <trkpt lat="45.7223" lon="6.56553">
        <ele>733.62</ele>
        <time>2011-06-12T15:23:00Z</time>
      </trkpt>
      <trkpt lat="45.7223" lon="6.56553">
        <ele>733.62</ele>
        <time>2011-06-12T15:23:30Z</time>
      </trkpt>
      <trkpt lat="45.72231" lon="6.56553">
        <ele>733.14</ele>
        <time>2011-06-12T15:24:09Z</time>
      </trkpt>
      <trkpt lat="45.72231" lon="6.56553">
        <ele>733.14</ele>
        <time>2011-06-12T15:24:43Z</time>
      </trkpt>
      <trkpt lat="45.72229" lon="6.56555">
        <ele>733.14</ele>
        <time>2011-06-12T15:25:17Z</time>
      </trkpt>
      <trkpt lat="45.72231" lon="6.56554">
        <ele>733.14</ele>
        <time>2011-06-12T15:25:43Z</time>
      </trkpt>
      <trkpt lat="45.72231" lon="6.56554">
        <ele>733.14</ele>
        <time>2011-06-12T15:26:15Z</time>
      </trkpt>
      <trkpt lat="45.72231" lon="6.56554">
        <ele>733.14</ele>
        <time>2011-06-12T15:26:47Z</time>
      </trkpt>
      <trkpt lat="45.72231" lon="6.56554">
        <ele>734.58</ele>
        <time>2011-06-12T15:27:22Z</time>
      </trkpt>
      <trkpt lat="45.72231" lon="6.56554">
        <ele>733.14</ele>
        <time>2011-06-12T15:27:56Z</time>
      </trkpt>
      <trkpt lat="45.72231" lon="6.56554">
        <ele>733.62</ele>
        <time>2011-06-12T15:28:27Z</time>
      </trkpt>
      <trkpt lat="45.72232" lon="6.56554">
        <ele>733.14</ele>
        <time>2011-06-12T15:29:00Z</time>
      </trkpt>
      <trkpt lat="45.72231" lon="6.56553">
        <ele>733.14</ele>
        <time>2011-06-12T15:29:32Z</time>
      </trkpt>
      <trkpt lat="45.72231" lon="6.56553">
        <ele>732.66</ele>
        <time>2011-06-12T15:29:58Z</time>
      </trkpt>
      <trkpt lat="45.72231" lon="6.56553">
        <ele>732.66</ele>
        <time>2011-06-12T15:30:32Z</time>
      </trkpt>
      <trkpt lat="45.72231" lon="6.56553">
        <ele>732.18</ele>
        <time>2011-06-12T15:31:07Z</time>
      </trkpt>
      <trkpt lat="45.72231" lon="6.56553">
        <ele>732.18</ele>
        <time>2011-06-12T15:31:45Z</time>
      </trkpt>
      <trkpt lat="45.72231" lon="6.56554">
        <ele>732.66</ele>
        <time>2011-06-12T15:32:20Z</time>
      </trkpt>
      <trkpt lat="45.72231" lon="6.56554">
        <ele>732.66</ele>
        <time>2011-06-12T15:32:45Z</time>
      </trkpt>
      <trkpt lat="45.72232" lon="6.56554">
        <ele>733.14</ele>
        <time>2011-06-12T15:33:10Z</time>
      </trkpt>
      <trkpt lat="45.72232" lon="6.56554">
        <ele>732.66</ele>
        <time>2011-06-12T15:33:45Z</time>
      </trkpt>
      <trkpt lat="45.72232" lon="6.56554">
        <ele>732.66</ele>
        <time>2011-06-12T15:34:19Z</time>
      </trkpt>
      <trkpt lat="45.72232" lon="6.56554">
        <ele>732.18</ele>
        <time>2011-06-12T15:34:53Z</time>
      </trkpt>
      <trkpt lat="45.72231" lon="6.56553">
        <ele>732.66</ele>
        <time>2011-06-12T15:35:29Z</time>
      </trkpt>
      <trkpt lat="45.72231" lon="6.56553">
        <ele>731.7</ele>
        <time>2011-06-12T15:35:56Z</time>
      </trkpt>
      <trkpt lat="45.72232" lon="6.56553">
        <ele>732.18</ele>
        <time>2011-06-12T15:36:30Z</time>
      </trkpt>
      <trkpt lat="45.72231" lon="6.56555">
        <ele>732.18</ele>
        <time>2011-06-12T15:37:04Z</time>
      </trkpt>
      <trkpt lat="45.72231" lon="6.56555">
        <ele>731.7</ele>
        <time>2011-06-12T15:37:39Z</time>
      </trkpt>
      <trkpt lat="45.72231" lon="6.56555">
        <ele>731.22</ele>
        <time>2011-06-12T15:38:15Z</time>
      </trkpt>
      <trkpt lat="45.72231" lon="6.56555">
        <ele>731.7</ele>
        <time>2011-06-12T15:38:49Z</time>
      </trkpt>
      <trkpt lat="45.72231" lon="6.56556">
        <ele>731.7</ele>
        <time>2011-06-12T15:39:24Z</time>
      </trkpt>
      <trkpt lat="45.72231" lon="6.56556">
        <ele>732.18</ele>
        <time>2011-06-12T15:40:03Z</time>
      </trkpt>
      <trkpt lat="45.72231" lon="6.56556">
        <ele>730.74</ele>
        <time>2011-06-12T15:40:38Z</time>
      </trkpt>
      <trkpt lat="45.72231" lon="6.56556">
        <ele>730.26</ele>
        <time>2011-06-12T15:41:07Z</time>
      </trkpt>
    </trkseg>
  </trk>
</gpx>